<?xml version="1.0" encoding="UTF-8" standalone="no" ?>
<gpx xmlns="http://www.topografix.com/GPX/1/1" xmlns:xsi="http://www.w3.org/2001/XMLSchema-instance" xsi:schemaLocation="http://www.topografix.com/GPX/1/1 http://www.topografix.com/GPX/1/1/gpx.xsd" version="1.1" creator="VisuGPX - https://www.visugpx.com">
  <metadata>
    <name>Tournefeuille Gravel bike</name>
  </metadata>
  <trk>
    <name><![CDATA[Tournefeuille Gravel bike_1]]></name>
    <trkseg>
      <trkpt lat="43.58654" lon="1.32241">
        <ele>148.4</ele>
        <time>2024-06-13T04:46:48Z</time>
      </trkpt>
      <trkpt lat="43.58661" lon="1.32236">
        <ele>187</ele>
        <time>2024-06-13T04:46:49Z</time>
      </trkpt>
      <trkpt lat="43.58685" lon="1.32218">
        <ele>187.6</ele>
        <time>2024-06-13T04:47:15Z</time>
      </trkpt>
      <trkpt lat="43.58687" lon="1.32217">
        <ele>187.6</ele>
        <time>2024-06-13T04:47:16Z</time>
      </trkpt>
      <trkpt lat="43.58689" lon="1.32216">
        <ele>187.6</ele>
        <time>2024-06-13T04:47:17Z</time>
      </trkpt>
      <trkpt lat="43.58686" lon="1.32217">
        <ele>187.6</ele>
        <time>2024-06-13T04:47:18Z</time>
      </trkpt>
      <trkpt lat="43.58684" lon="1.32218">
        <ele>187.6</ele>
        <time>2024-06-13T04:47:19Z</time>
      </trkpt>
      <trkpt lat="43.58681" lon="1.32218">
        <ele>187.6</ele>
        <time>2024-06-13T04:47:20Z</time>
      </trkpt>
      <trkpt lat="43.58675" lon="1.32219">
        <ele>187.6</ele>
        <time>2024-06-13T04:47:22Z</time>
      </trkpt>
      <trkpt lat="43.5868" lon="1.32225">
        <ele>187.6</ele>
        <time>2024-06-13T04:48:23Z</time>
      </trkpt>
      <trkpt lat="43.5868" lon="1.32229">
        <ele>187.6</ele>
        <time>2024-06-13T04:48:24Z</time>
      </trkpt>
      <trkpt lat="43.5868" lon="1.32233">
        <ele>187.6</ele>
        <time>2024-06-13T04:48:25Z</time>
      </trkpt>
      <trkpt lat="43.58681" lon="1.32237">
        <ele>187.6</ele>
        <time>2024-06-13T04:48:26Z</time>
      </trkpt>
      <trkpt lat="43.58681" lon="1.32242">
        <ele>187.6</ele>
        <time>2024-06-13T04:48:27Z</time>
      </trkpt>
      <trkpt lat="43.58681" lon="1.32246">
        <ele>187.6</ele>
        <time>2024-06-13T04:48:28Z</time>
      </trkpt>
      <trkpt lat="43.58681" lon="1.32252">
        <ele>187.6</ele>
        <time>2024-06-13T04:48:29Z</time>
      </trkpt>
      <trkpt lat="43.58681" lon="1.32257">
        <ele>187.6</ele>
        <time>2024-06-13T04:48:30Z</time>
      </trkpt>
      <trkpt lat="43.58682" lon="1.32262">
        <ele>187.6</ele>
        <time>2024-06-13T04:48:31Z</time>
      </trkpt>
      <trkpt lat="43.58682" lon="1.32268">
        <ele>187.6</ele>
        <time>2024-06-13T04:48:32Z</time>
      </trkpt>
      <trkpt lat="43.58683" lon="1.32273">
        <ele>187.4</ele>
        <time>2024-06-13T04:48:33Z</time>
      </trkpt>
      <trkpt lat="43.58685" lon="1.32276">
        <ele>187.4</ele>
        <time>2024-06-13T04:48:34Z</time>
      </trkpt>
      <trkpt lat="43.58687" lon="1.32276">
        <ele>187.4</ele>
        <time>2024-06-13T04:48:35Z</time>
      </trkpt>
      <trkpt lat="43.58692" lon="1.32275">
        <ele>187.4</ele>
        <time>2024-06-13T04:48:36Z</time>
      </trkpt>
      <trkpt lat="43.58695" lon="1.32272">
        <ele>187.4</ele>
        <time>2024-06-13T04:48:37Z</time>
      </trkpt>
      <trkpt lat="43.58698" lon="1.32269">
        <ele>187.4</ele>
        <time>2024-06-13T04:48:38Z</time>
      </trkpt>
      <trkpt lat="43.58702" lon="1.32266">
        <ele>187.4</ele>
        <time>2024-06-13T04:48:39Z</time>
      </trkpt>
      <trkpt lat="43.58705" lon="1.32263">
        <ele>187.4</ele>
        <time>2024-06-13T04:48:40Z</time>
      </trkpt>
      <trkpt lat="43.58708" lon="1.3226">
        <ele>187.4</ele>
        <time>2024-06-13T04:48:41Z</time>
      </trkpt>
      <trkpt lat="43.58712" lon="1.32256">
        <ele>187.4</ele>
        <time>2024-06-13T04:48:42Z</time>
      </trkpt>
      <trkpt lat="43.58716" lon="1.32253">
        <ele>187.6</ele>
        <time>2024-06-13T04:48:43Z</time>
      </trkpt>
      <trkpt lat="43.58719" lon="1.32249">
        <ele>187.8</ele>
        <time>2024-06-13T04:48:44Z</time>
      </trkpt>
      <trkpt lat="43.58721" lon="1.32246">
        <ele>188</ele>
        <time>2024-06-13T04:48:45Z</time>
      </trkpt>
      <trkpt lat="43.58723" lon="1.32243">
        <ele>188</ele>
        <time>2024-06-13T04:48:46Z</time>
      </trkpt>
      <trkpt lat="43.58726" lon="1.32239">
        <ele>188.4</ele>
        <time>2024-06-13T04:48:47Z</time>
      </trkpt>
      <trkpt lat="43.5873" lon="1.32235">
        <ele>188.6</ele>
        <time>2024-06-13T04:48:48Z</time>
      </trkpt>
      <trkpt lat="43.58733" lon="1.32232">
        <ele>188.8</ele>
        <time>2024-06-13T04:48:49Z</time>
      </trkpt>
      <trkpt lat="43.58737" lon="1.32228">
        <ele>189</ele>
        <time>2024-06-13T04:48:50Z</time>
      </trkpt>
      <trkpt lat="43.5874" lon="1.32224">
        <ele>189</ele>
        <time>2024-06-13T04:48:51Z</time>
      </trkpt>
      <trkpt lat="43.58742" lon="1.3222">
        <ele>189.2</ele>
        <time>2024-06-13T04:48:52Z</time>
      </trkpt>
      <trkpt lat="43.58746" lon="1.32217">
        <ele>189.2</ele>
        <time>2024-06-13T04:48:53Z</time>
      </trkpt>
      <trkpt lat="43.5875" lon="1.32213">
        <ele>189.4</ele>
        <time>2024-06-13T04:48:54Z</time>
      </trkpt>
      <trkpt lat="43.58753" lon="1.32209">
        <ele>189.4</ele>
        <time>2024-06-13T04:48:55Z</time>
      </trkpt>
      <trkpt lat="43.58757" lon="1.32205">
        <ele>189.6</ele>
        <time>2024-06-13T04:48:56Z</time>
      </trkpt>
      <trkpt lat="43.58761" lon="1.32202">
        <ele>189.8</ele>
        <time>2024-06-13T04:48:57Z</time>
      </trkpt>
      <trkpt lat="43.58765" lon="1.32198">
        <ele>189.8</ele>
        <time>2024-06-13T04:48:58Z</time>
      </trkpt>
      <trkpt lat="43.58768" lon="1.32194">
        <ele>189.8</ele>
        <time>2024-06-13T04:48:59Z</time>
      </trkpt>
      <trkpt lat="43.58772" lon="1.3219">
        <ele>190</ele>
        <time>2024-06-13T04:49:00Z</time>
      </trkpt>
      <trkpt lat="43.58776" lon="1.32186">
        <ele>190</ele>
        <time>2024-06-13T04:49:01Z</time>
      </trkpt>
      <trkpt lat="43.5878" lon="1.32183">
        <ele>190.2</ele>
        <time>2024-06-13T04:49:02Z</time>
      </trkpt>
      <trkpt lat="43.58784" lon="1.32179">
        <ele>190.2</ele>
        <time>2024-06-13T04:49:03Z</time>
      </trkpt>
      <trkpt lat="43.58789" lon="1.32174">
        <ele>190.2</ele>
        <time>2024-06-13T04:49:04Z</time>
      </trkpt>
      <trkpt lat="43.58792" lon="1.32169">
        <ele>190.2</ele>
        <time>2024-06-13T04:49:05Z</time>
      </trkpt>
      <trkpt lat="43.58796" lon="1.32166">
        <ele>190.4</ele>
        <time>2024-06-13T04:49:06Z</time>
      </trkpt>
      <trkpt lat="43.58799" lon="1.32162">
        <ele>190.4</ele>
        <time>2024-06-13T04:49:07Z</time>
      </trkpt>
      <trkpt lat="43.58803" lon="1.32158">
        <ele>190.4</ele>
        <time>2024-06-13T04:49:08Z</time>
      </trkpt>
      <trkpt lat="43.58806" lon="1.32154">
        <ele>190.4</ele>
        <time>2024-06-13T04:49:09Z</time>
      </trkpt>
      <trkpt lat="43.58808" lon="1.32151">
        <ele>190.6</ele>
        <time>2024-06-13T04:49:10Z</time>
      </trkpt>
      <trkpt lat="43.58809" lon="1.32148">
        <ele>190.6</ele>
        <time>2024-06-13T04:49:11Z</time>
      </trkpt>
      <trkpt lat="43.58809" lon="1.32146">
        <ele>190.6</ele>
        <time>2024-06-13T04:49:12Z</time>
      </trkpt>
      <trkpt lat="43.5881" lon="1.32143">
        <ele>190.8</ele>
        <time>2024-06-13T04:49:13Z</time>
      </trkpt>
      <trkpt lat="43.58811" lon="1.32139">
        <ele>190.8</ele>
        <time>2024-06-13T04:49:14Z</time>
      </trkpt>
      <trkpt lat="43.58813" lon="1.32135">
        <ele>190.8</ele>
        <time>2024-06-13T04:49:15Z</time>
      </trkpt>
      <trkpt lat="43.58814" lon="1.32131">
        <ele>190.8</ele>
        <time>2024-06-13T04:49:16Z</time>
      </trkpt>
      <trkpt lat="43.58815" lon="1.32126">
        <ele>190.8</ele>
        <time>2024-06-13T04:49:17Z</time>
      </trkpt>
      <trkpt lat="43.58816" lon="1.32121">
        <ele>190.8</ele>
        <time>2024-06-13T04:49:18Z</time>
      </trkpt>
      <trkpt lat="43.58818" lon="1.32116">
        <ele>190.8</ele>
        <time>2024-06-13T04:49:19Z</time>
      </trkpt>
      <trkpt lat="43.58821" lon="1.32112">
        <ele>190.8</ele>
        <time>2024-06-13T04:49:20Z</time>
      </trkpt>
      <trkpt lat="43.58825" lon="1.32108">
        <ele>190.8</ele>
        <time>2024-06-13T04:49:21Z</time>
      </trkpt>
      <trkpt lat="43.58828" lon="1.32105">
        <ele>190.8</ele>
        <time>2024-06-13T04:49:22Z</time>
      </trkpt>
      <trkpt lat="43.58832" lon="1.32101">
        <ele>191</ele>
        <time>2024-06-13T04:49:23Z</time>
      </trkpt>
      <trkpt lat="43.58835" lon="1.32097">
        <ele>191</ele>
        <time>2024-06-13T04:49:24Z</time>
      </trkpt>
      <trkpt lat="43.5884" lon="1.32093">
        <ele>191</ele>
        <time>2024-06-13T04:49:25Z</time>
      </trkpt>
      <trkpt lat="43.58844" lon="1.32089">
        <ele>191</ele>
        <time>2024-06-13T04:49:26Z</time>
      </trkpt>
      <trkpt lat="43.58848" lon="1.32085">
        <ele>191</ele>
        <time>2024-06-13T04:49:27Z</time>
      </trkpt>
      <trkpt lat="43.58852" lon="1.32081">
        <ele>191</ele>
        <time>2024-06-13T04:49:28Z</time>
      </trkpt>
      <trkpt lat="43.58856" lon="1.32076">
        <ele>191</ele>
        <time>2024-06-13T04:49:29Z</time>
      </trkpt>
      <trkpt lat="43.5886" lon="1.32072">
        <ele>191</ele>
        <time>2024-06-13T04:49:30Z</time>
      </trkpt>
      <trkpt lat="43.58864" lon="1.32068">
        <ele>191</ele>
        <time>2024-06-13T04:49:31Z</time>
      </trkpt>
      <trkpt lat="43.58869" lon="1.32064">
        <ele>191</ele>
        <time>2024-06-13T04:49:32Z</time>
      </trkpt>
      <trkpt lat="43.58873" lon="1.3206">
        <ele>191.2</ele>
        <time>2024-06-13T04:49:33Z</time>
      </trkpt>
      <trkpt lat="43.58877" lon="1.32056">
        <ele>191.2</ele>
        <time>2024-06-13T04:49:34Z</time>
      </trkpt>
      <trkpt lat="43.58881" lon="1.32051">
        <ele>191.2</ele>
        <time>2024-06-13T04:49:35Z</time>
      </trkpt>
      <trkpt lat="43.58886" lon="1.32047">
        <ele>191.2</ele>
        <time>2024-06-13T04:49:36Z</time>
      </trkpt>
      <trkpt lat="43.5889" lon="1.32042">
        <ele>191.4</ele>
        <time>2024-06-13T04:49:37Z</time>
      </trkpt>
      <trkpt lat="43.58894" lon="1.32038">
        <ele>191.6</ele>
        <time>2024-06-13T04:49:38Z</time>
      </trkpt>
      <trkpt lat="43.58898" lon="1.32034">
        <ele>191.6</ele>
        <time>2024-06-13T04:49:39Z</time>
      </trkpt>
      <trkpt lat="43.58902" lon="1.3203">
        <ele>191.6</ele>
        <time>2024-06-13T04:49:40Z</time>
      </trkpt>
      <trkpt lat="43.58907" lon="1.32026">
        <ele>191.6</ele>
        <time>2024-06-13T04:49:41Z</time>
      </trkpt>
      <trkpt lat="43.58911" lon="1.32021">
        <ele>191.6</ele>
        <time>2024-06-13T04:49:42Z</time>
      </trkpt>
      <trkpt lat="43.58915" lon="1.32017">
        <ele>191.6</ele>
        <time>2024-06-13T04:49:43Z</time>
      </trkpt>
      <trkpt lat="43.58919" lon="1.32013">
        <ele>191.6</ele>
        <time>2024-06-13T04:49:44Z</time>
      </trkpt>
      <trkpt lat="43.58924" lon="1.32009">
        <ele>191.6</ele>
        <time>2024-06-13T04:49:45Z</time>
      </trkpt>
      <trkpt lat="43.58928" lon="1.32005">
        <ele>191.6</ele>
        <time>2024-06-13T04:49:46Z</time>
      </trkpt>
      <trkpt lat="43.58932" lon="1.32003">
        <ele>191.8</ele>
        <time>2024-06-13T04:49:47Z</time>
      </trkpt>
      <trkpt lat="43.58935" lon="1.32003">
        <ele>191.8</ele>
        <time>2024-06-13T04:49:48Z</time>
      </trkpt>
      <trkpt lat="43.58939" lon="1.32003">
        <ele>191.8</ele>
        <time>2024-06-13T04:49:49Z</time>
      </trkpt>
      <trkpt lat="43.58943" lon="1.32002">
        <ele>191.6</ele>
        <time>2024-06-13T04:49:50Z</time>
      </trkpt>
      <trkpt lat="43.58947" lon="1.32">
        <ele>191.6</ele>
        <time>2024-06-13T04:49:51Z</time>
      </trkpt>
      <trkpt lat="43.58951" lon="1.31998">
        <ele>191.6</ele>
        <time>2024-06-13T04:49:52Z</time>
      </trkpt>
      <trkpt lat="43.58954" lon="1.31996">
        <ele>191.6</ele>
        <time>2024-06-13T04:49:53Z</time>
      </trkpt>
      <trkpt lat="43.58959" lon="1.31994">
        <ele>191.6</ele>
        <time>2024-06-13T04:49:54Z</time>
      </trkpt>
      <trkpt lat="43.58964" lon="1.31992">
        <ele>191.6</ele>
        <time>2024-06-13T04:49:55Z</time>
      </trkpt>
      <trkpt lat="43.58969" lon="1.31989">
        <ele>191.6</ele>
        <time>2024-06-13T04:49:56Z</time>
      </trkpt>
      <trkpt lat="43.58973" lon="1.31986">
        <ele>191.4</ele>
        <time>2024-06-13T04:49:57Z</time>
      </trkpt>
      <trkpt lat="43.58977" lon="1.31982">
        <ele>191.4</ele>
        <time>2024-06-13T04:49:58Z</time>
      </trkpt>
      <trkpt lat="43.58982" lon="1.31978">
        <ele>191.4</ele>
        <time>2024-06-13T04:49:59Z</time>
      </trkpt>
      <trkpt lat="43.58986" lon="1.31973">
        <ele>191.4</ele>
        <time>2024-06-13T04:50:00Z</time>
      </trkpt>
      <trkpt lat="43.58991" lon="1.31968">
        <ele>191.4</ele>
        <time>2024-06-13T04:50:01Z</time>
      </trkpt>
      <trkpt lat="43.58995" lon="1.31963">
        <ele>191.4</ele>
        <time>2024-06-13T04:50:02Z</time>
      </trkpt>
      <trkpt lat="43.59" lon="1.31958">
        <ele>191.4</ele>
        <time>2024-06-13T04:50:03Z</time>
      </trkpt>
      <trkpt lat="43.59004" lon="1.31953">
        <ele>191.4</ele>
        <time>2024-06-13T04:50:04Z</time>
      </trkpt>
      <trkpt lat="43.59009" lon="1.31949">
        <ele>191.4</ele>
        <time>2024-06-13T04:50:05Z</time>
      </trkpt>
      <trkpt lat="43.59013" lon="1.31944">
        <ele>191.4</ele>
        <time>2024-06-13T04:50:06Z</time>
      </trkpt>
      <trkpt lat="43.59018" lon="1.31939">
        <ele>191.2</ele>
        <time>2024-06-13T04:50:07Z</time>
      </trkpt>
      <trkpt lat="43.59022" lon="1.31934">
        <ele>191.2</ele>
        <time>2024-06-13T04:50:08Z</time>
      </trkpt>
      <trkpt lat="43.59026" lon="1.31929">
        <ele>191.2</ele>
        <time>2024-06-13T04:50:09Z</time>
      </trkpt>
      <trkpt lat="43.5903" lon="1.31923">
        <ele>191.2</ele>
        <time>2024-06-13T04:50:10Z</time>
      </trkpt>
      <trkpt lat="43.59034" lon="1.31917">
        <ele>191.2</ele>
        <time>2024-06-13T04:50:11Z</time>
      </trkpt>
      <trkpt lat="43.59037" lon="1.31911">
        <ele>191.2</ele>
        <time>2024-06-13T04:50:12Z</time>
      </trkpt>
      <trkpt lat="43.59041" lon="1.31904">
        <ele>191.2</ele>
        <time>2024-06-13T04:50:13Z</time>
      </trkpt>
      <trkpt lat="43.59044" lon="1.31899">
        <ele>191.2</ele>
        <time>2024-06-13T04:50:14Z</time>
      </trkpt>
      <trkpt lat="43.59049" lon="1.31894">
        <ele>191.2</ele>
        <time>2024-06-13T04:50:15Z</time>
      </trkpt>
      <trkpt lat="43.59054" lon="1.31891">
        <ele>191.2</ele>
        <time>2024-06-13T04:50:16Z</time>
      </trkpt>
      <trkpt lat="43.59059" lon="1.31888">
        <ele>191.4</ele>
        <time>2024-06-13T04:50:17Z</time>
      </trkpt>
      <trkpt lat="43.59064" lon="1.31884">
        <ele>191.4</ele>
        <time>2024-06-13T04:50:18Z</time>
      </trkpt>
      <trkpt lat="43.59069" lon="1.31879">
        <ele>191.6</ele>
        <time>2024-06-13T04:50:19Z</time>
      </trkpt>
      <trkpt lat="43.59073" lon="1.31873">
        <ele>191.6</ele>
        <time>2024-06-13T04:50:20Z</time>
      </trkpt>
      <trkpt lat="43.59077" lon="1.31867">
        <ele>191.6</ele>
        <time>2024-06-13T04:50:21Z</time>
      </trkpt>
      <trkpt lat="43.59081" lon="1.31861">
        <ele>191.6</ele>
        <time>2024-06-13T04:50:22Z</time>
      </trkpt>
      <trkpt lat="43.59086" lon="1.31856">
        <ele>191.6</ele>
        <time>2024-06-13T04:50:23Z</time>
      </trkpt>
      <trkpt lat="43.59091" lon="1.31852">
        <ele>191.6</ele>
        <time>2024-06-13T04:50:24Z</time>
      </trkpt>
      <trkpt lat="43.59095" lon="1.31847">
        <ele>191.4</ele>
        <time>2024-06-13T04:50:25Z</time>
      </trkpt>
      <trkpt lat="43.591" lon="1.31843">
        <ele>191.4</ele>
        <time>2024-06-13T04:50:26Z</time>
      </trkpt>
      <trkpt lat="43.59105" lon="1.31838">
        <ele>191.4</ele>
        <time>2024-06-13T04:50:27Z</time>
      </trkpt>
      <trkpt lat="43.5911" lon="1.31833">
        <ele>191.4</ele>
        <time>2024-06-13T04:50:28Z</time>
      </trkpt>
      <trkpt lat="43.59114" lon="1.31828">
        <ele>191.4</ele>
        <time>2024-06-13T04:50:29Z</time>
      </trkpt>
      <trkpt lat="43.59119" lon="1.31823">
        <ele>191.2</ele>
        <time>2024-06-13T04:50:30Z</time>
      </trkpt>
      <trkpt lat="43.59124" lon="1.31818">
        <ele>191.2</ele>
        <time>2024-06-13T04:50:31Z</time>
      </trkpt>
      <trkpt lat="43.59128" lon="1.31814">
        <ele>191.2</ele>
        <time>2024-06-13T04:50:32Z</time>
      </trkpt>
      <trkpt lat="43.59133" lon="1.3181">
        <ele>191.4</ele>
        <time>2024-06-13T04:50:33Z</time>
      </trkpt>
      <trkpt lat="43.59138" lon="1.31806">
        <ele>191.4</ele>
        <time>2024-06-13T04:50:34Z</time>
      </trkpt>
      <trkpt lat="43.59142" lon="1.31803">
        <ele>191.4</ele>
        <time>2024-06-13T04:50:35Z</time>
      </trkpt>
      <trkpt lat="43.59145" lon="1.31801">
        <ele>191.4</ele>
        <time>2024-06-13T04:50:36Z</time>
      </trkpt>
      <trkpt lat="43.59147" lon="1.31799">
        <ele>191.4</ele>
        <time>2024-06-13T04:50:37Z</time>
      </trkpt>
      <trkpt lat="43.5915" lon="1.31798">
        <ele>191.4</ele>
        <time>2024-06-13T04:50:38Z</time>
      </trkpt>
      <trkpt lat="43.59152" lon="1.31796">
        <ele>191.4</ele>
        <time>2024-06-13T04:50:39Z</time>
      </trkpt>
      <trkpt lat="43.59156" lon="1.31793">
        <ele>191.4</ele>
        <time>2024-06-13T04:50:40Z</time>
      </trkpt>
      <trkpt lat="43.59159" lon="1.3179">
        <ele>191.4</ele>
        <time>2024-06-13T04:50:41Z</time>
      </trkpt>
      <trkpt lat="43.59164" lon="1.31787">
        <ele>191.4</ele>
        <time>2024-06-13T04:50:42Z</time>
      </trkpt>
      <trkpt lat="43.59168" lon="1.31785">
        <ele>191.4</ele>
        <time>2024-06-13T04:50:43Z</time>
      </trkpt>
      <trkpt lat="43.59172" lon="1.31782">
        <ele>191.2</ele>
        <time>2024-06-13T04:50:44Z</time>
      </trkpt>
      <trkpt lat="43.59177" lon="1.3178">
        <ele>191.2</ele>
        <time>2024-06-13T04:50:45Z</time>
      </trkpt>
      <trkpt lat="43.59182" lon="1.31779">
        <ele>191.2</ele>
        <time>2024-06-13T04:50:46Z</time>
      </trkpt>
      <trkpt lat="43.59187" lon="1.31777">
        <ele>191</ele>
        <time>2024-06-13T04:50:47Z</time>
      </trkpt>
      <trkpt lat="43.59192" lon="1.31775">
        <ele>191</ele>
        <time>2024-06-13T04:50:48Z</time>
      </trkpt>
      <trkpt lat="43.59197" lon="1.31773">
        <ele>190.8</ele>
        <time>2024-06-13T04:50:49Z</time>
      </trkpt>
      <trkpt lat="43.59201" lon="1.31771">
        <ele>190.8</ele>
        <time>2024-06-13T04:50:50Z</time>
      </trkpt>
      <trkpt lat="43.59206" lon="1.3177">
        <ele>190.6</ele>
        <time>2024-06-13T04:50:51Z</time>
      </trkpt>
      <trkpt lat="43.59209" lon="1.31769">
        <ele>190.6</ele>
        <time>2024-06-13T04:50:52Z</time>
      </trkpt>
      <trkpt lat="43.59213" lon="1.31767">
        <ele>190.6</ele>
        <time>2024-06-13T04:50:53Z</time>
      </trkpt>
      <trkpt lat="43.59217" lon="1.31765">
        <ele>190.4</ele>
        <time>2024-06-13T04:50:54Z</time>
      </trkpt>
      <trkpt lat="43.59221" lon="1.31764">
        <ele>190.4</ele>
        <time>2024-06-13T04:50:55Z</time>
      </trkpt>
      <trkpt lat="43.59225" lon="1.31762">
        <ele>190.4</ele>
        <time>2024-06-13T04:50:56Z</time>
      </trkpt>
      <trkpt lat="43.59229" lon="1.3176">
        <ele>190.4</ele>
        <time>2024-06-13T04:50:57Z</time>
      </trkpt>
      <trkpt lat="43.59233" lon="1.31758">
        <ele>190.4</ele>
        <time>2024-06-13T04:50:58Z</time>
      </trkpt>
      <trkpt lat="43.59236" lon="1.31757">
        <ele>190.4</ele>
        <time>2024-06-13T04:50:59Z</time>
      </trkpt>
      <trkpt lat="43.5924" lon="1.31756">
        <ele>190.4</ele>
        <time>2024-06-13T04:51:00Z</time>
      </trkpt>
      <trkpt lat="43.59245" lon="1.31757">
        <ele>190.4</ele>
        <time>2024-06-13T04:51:01Z</time>
      </trkpt>
      <trkpt lat="43.59249" lon="1.31759">
        <ele>190.4</ele>
        <time>2024-06-13T04:51:02Z</time>
      </trkpt>
      <trkpt lat="43.59253" lon="1.31761">
        <ele>190.2</ele>
        <time>2024-06-13T04:51:03Z</time>
      </trkpt>
      <trkpt lat="43.59258" lon="1.31763">
        <ele>190.2</ele>
        <time>2024-06-13T04:51:04Z</time>
      </trkpt>
      <trkpt lat="43.59263" lon="1.31764">
        <ele>190.2</ele>
        <time>2024-06-13T04:51:05Z</time>
      </trkpt>
      <trkpt lat="43.59269" lon="1.31765">
        <ele>190.2</ele>
        <time>2024-06-13T04:51:06Z</time>
      </trkpt>
      <trkpt lat="43.59274" lon="1.31766">
        <ele>190.2</ele>
        <time>2024-06-13T04:51:07Z</time>
      </trkpt>
      <trkpt lat="43.59279" lon="1.31767">
        <ele>190.2</ele>
        <time>2024-06-13T04:51:08Z</time>
      </trkpt>
      <trkpt lat="43.59285" lon="1.31769">
        <ele>190.2</ele>
        <time>2024-06-13T04:51:09Z</time>
      </trkpt>
      <trkpt lat="43.59291" lon="1.31772">
        <ele>190.2</ele>
        <time>2024-06-13T04:51:10Z</time>
      </trkpt>
      <trkpt lat="43.59296" lon="1.31775">
        <ele>190.2</ele>
        <time>2024-06-13T04:51:11Z</time>
      </trkpt>
      <trkpt lat="43.59303" lon="1.31778">
        <ele>190.2</ele>
        <time>2024-06-13T04:51:12Z</time>
      </trkpt>
      <trkpt lat="43.59308" lon="1.31781">
        <ele>190.4</ele>
        <time>2024-06-13T04:51:13Z</time>
      </trkpt>
      <trkpt lat="43.59313" lon="1.31782">
        <ele>190.4</ele>
        <time>2024-06-13T04:51:14Z</time>
      </trkpt>
      <trkpt lat="43.59318" lon="1.31783">
        <ele>190.4</ele>
        <time>2024-06-13T04:51:15Z</time>
      </trkpt>
      <trkpt lat="43.59322" lon="1.31784">
        <ele>190.6</ele>
        <time>2024-06-13T04:51:16Z</time>
      </trkpt>
      <trkpt lat="43.59325" lon="1.31784">
        <ele>190.6</ele>
        <time>2024-06-13T04:51:17Z</time>
      </trkpt>
      <trkpt lat="43.59328" lon="1.31784">
        <ele>190.6</ele>
        <time>2024-06-13T04:51:18Z</time>
      </trkpt>
      <trkpt lat="43.59331" lon="1.31783">
        <ele>190.8</ele>
        <time>2024-06-13T04:51:19Z</time>
      </trkpt>
      <trkpt lat="43.59333" lon="1.31783">
        <ele>190.8</ele>
        <time>2024-06-13T04:51:20Z</time>
      </trkpt>
      <trkpt lat="43.59335" lon="1.31782">
        <ele>190.8</ele>
        <time>2024-06-13T04:51:21Z</time>
      </trkpt>
      <trkpt lat="43.59336" lon="1.31782">
        <ele>191</ele>
        <time>2024-06-13T04:51:22Z</time>
      </trkpt>
      <trkpt lat="43.59338" lon="1.31781">
        <ele>191</ele>
        <time>2024-06-13T04:51:23Z</time>
      </trkpt>
      <trkpt lat="43.59341" lon="1.31778">
        <ele>191</ele>
        <time>2024-06-13T04:51:24Z</time>
      </trkpt>
      <trkpt lat="43.59343" lon="1.31774">
        <ele>191</ele>
        <time>2024-06-13T04:51:25Z</time>
      </trkpt>
      <trkpt lat="43.59346" lon="1.31771">
        <ele>191</ele>
        <time>2024-06-13T04:51:26Z</time>
      </trkpt>
      <trkpt lat="43.59349" lon="1.31768">
        <ele>191</ele>
        <time>2024-06-13T04:51:27Z</time>
      </trkpt>
      <trkpt lat="43.59352" lon="1.31765">
        <ele>191</ele>
        <time>2024-06-13T04:51:28Z</time>
      </trkpt>
      <trkpt lat="43.59357" lon="1.31761">
        <ele>191</ele>
        <time>2024-06-13T04:51:29Z</time>
      </trkpt>
      <trkpt lat="43.5936" lon="1.31758">
        <ele>191.2</ele>
        <time>2024-06-13T04:51:30Z</time>
      </trkpt>
      <trkpt lat="43.59365" lon="1.31754">
        <ele>191.2</ele>
        <time>2024-06-13T04:51:31Z</time>
      </trkpt>
      <trkpt lat="43.5937" lon="1.31749">
        <ele>191.2</ele>
        <time>2024-06-13T04:51:32Z</time>
      </trkpt>
      <trkpt lat="43.59374" lon="1.31746">
        <ele>191.2</ele>
        <time>2024-06-13T04:51:33Z</time>
      </trkpt>
      <trkpt lat="43.59378" lon="1.31742">
        <ele>191.2</ele>
        <time>2024-06-13T04:51:34Z</time>
      </trkpt>
      <trkpt lat="43.59382" lon="1.31738">
        <ele>191.2</ele>
        <time>2024-06-13T04:51:35Z</time>
      </trkpt>
      <trkpt lat="43.59387" lon="1.31735">
        <ele>191.2</ele>
        <time>2024-06-13T04:51:36Z</time>
      </trkpt>
      <trkpt lat="43.59392" lon="1.31733">
        <ele>191.2</ele>
        <time>2024-06-13T04:51:37Z</time>
      </trkpt>
      <trkpt lat="43.59397" lon="1.31732">
        <ele>191.2</ele>
        <time>2024-06-13T04:51:38Z</time>
      </trkpt>
      <trkpt lat="43.59402" lon="1.31731">
        <ele>191.2</ele>
        <time>2024-06-13T04:51:39Z</time>
      </trkpt>
      <trkpt lat="43.59408" lon="1.31732">
        <ele>191.2</ele>
        <time>2024-06-13T04:51:40Z</time>
      </trkpt>
      <trkpt lat="43.59413" lon="1.31731">
        <ele>191.2</ele>
        <time>2024-06-13T04:51:41Z</time>
      </trkpt>
      <trkpt lat="43.59419" lon="1.31729">
        <ele>191.2</ele>
        <time>2024-06-13T04:51:42Z</time>
      </trkpt>
      <trkpt lat="43.59424" lon="1.31728">
        <ele>191.2</ele>
        <time>2024-06-13T04:51:43Z</time>
      </trkpt>
      <trkpt lat="43.5943" lon="1.31727">
        <ele>191</ele>
        <time>2024-06-13T04:51:44Z</time>
      </trkpt>
      <trkpt lat="43.59435" lon="1.31727">
        <ele>191</ele>
        <time>2024-06-13T04:51:45Z</time>
      </trkpt>
      <trkpt lat="43.59441" lon="1.31728">
        <ele>191</ele>
        <time>2024-06-13T04:51:46Z</time>
      </trkpt>
      <trkpt lat="43.59447" lon="1.31728">
        <ele>191</ele>
        <time>2024-06-13T04:51:47Z</time>
      </trkpt>
      <trkpt lat="43.59452" lon="1.31729">
        <ele>191</ele>
        <time>2024-06-13T04:51:48Z</time>
      </trkpt>
      <trkpt lat="43.59458" lon="1.3173">
        <ele>191</ele>
        <time>2024-06-13T04:51:49Z</time>
      </trkpt>
      <trkpt lat="43.59463" lon="1.3173">
        <ele>191</ele>
        <time>2024-06-13T04:51:50Z</time>
      </trkpt>
      <trkpt lat="43.59469" lon="1.31731">
        <ele>191</ele>
        <time>2024-06-13T04:51:51Z</time>
      </trkpt>
      <trkpt lat="43.59475" lon="1.3173">
        <ele>191</ele>
        <time>2024-06-13T04:51:52Z</time>
      </trkpt>
      <trkpt lat="43.5948" lon="1.3173">
        <ele>191</ele>
        <time>2024-06-13T04:51:53Z</time>
      </trkpt>
      <trkpt lat="43.59485" lon="1.31733">
        <ele>191</ele>
        <time>2024-06-13T04:51:54Z</time>
      </trkpt>
      <trkpt lat="43.59487" lon="1.31737">
        <ele>191</ele>
        <time>2024-06-13T04:51:55Z</time>
      </trkpt>
      <trkpt lat="43.59488" lon="1.31743">
        <ele>191</ele>
        <time>2024-06-13T04:51:56Z</time>
      </trkpt>
      <trkpt lat="43.59488" lon="1.31749">
        <ele>191</ele>
        <time>2024-06-13T04:51:57Z</time>
      </trkpt>
      <trkpt lat="43.59488" lon="1.31756">
        <ele>191</ele>
        <time>2024-06-13T04:51:58Z</time>
      </trkpt>
      <trkpt lat="43.59488" lon="1.31763">
        <ele>190.8</ele>
        <time>2024-06-13T04:51:59Z</time>
      </trkpt>
      <trkpt lat="43.59488" lon="1.3177">
        <ele>190.8</ele>
        <time>2024-06-13T04:52:00Z</time>
      </trkpt>
      <trkpt lat="43.59488" lon="1.31777">
        <ele>190.8</ele>
        <time>2024-06-13T04:52:01Z</time>
      </trkpt>
      <trkpt lat="43.59488" lon="1.31784">
        <ele>190.8</ele>
        <time>2024-06-13T04:52:02Z</time>
      </trkpt>
      <trkpt lat="43.59488" lon="1.31791">
        <ele>190.8</ele>
        <time>2024-06-13T04:52:03Z</time>
      </trkpt>
      <trkpt lat="43.59488" lon="1.31799">
        <ele>190.8</ele>
        <time>2024-06-13T04:52:04Z</time>
      </trkpt>
      <trkpt lat="43.59487" lon="1.31806">
        <ele>191</ele>
        <time>2024-06-13T04:52:05Z</time>
      </trkpt>
      <trkpt lat="43.59487" lon="1.31814">
        <ele>191</ele>
        <time>2024-06-13T04:52:06Z</time>
      </trkpt>
      <trkpt lat="43.59487" lon="1.31821">
        <ele>191</ele>
        <time>2024-06-13T04:52:07Z</time>
      </trkpt>
      <trkpt lat="43.59487" lon="1.31829">
        <ele>191</ele>
        <time>2024-06-13T04:52:08Z</time>
      </trkpt>
      <trkpt lat="43.59487" lon="1.31836">
        <ele>191</ele>
        <time>2024-06-13T04:52:09Z</time>
      </trkpt>
      <trkpt lat="43.59487" lon="1.31844">
        <ele>191</ele>
        <time>2024-06-13T04:52:10Z</time>
      </trkpt>
      <trkpt lat="43.59487" lon="1.31851">
        <ele>191</ele>
        <time>2024-06-13T04:52:11Z</time>
      </trkpt>
      <trkpt lat="43.59487" lon="1.31858">
        <ele>191</ele>
        <time>2024-06-13T04:52:12Z</time>
      </trkpt>
      <trkpt lat="43.59487" lon="1.31866">
        <ele>191</ele>
        <time>2024-06-13T04:52:13Z</time>
      </trkpt>
      <trkpt lat="43.59487" lon="1.31873">
        <ele>191</ele>
        <time>2024-06-13T04:52:14Z</time>
      </trkpt>
      <trkpt lat="43.59488" lon="1.3188">
        <ele>191</ele>
        <time>2024-06-13T04:52:15Z</time>
      </trkpt>
      <trkpt lat="43.59489" lon="1.31888">
        <ele>191</ele>
        <time>2024-06-13T04:52:16Z</time>
      </trkpt>
      <trkpt lat="43.5949" lon="1.31895">
        <ele>191</ele>
        <time>2024-06-13T04:52:17Z</time>
      </trkpt>
      <trkpt lat="43.59492" lon="1.31902">
        <ele>191</ele>
        <time>2024-06-13T04:52:18Z</time>
      </trkpt>
      <trkpt lat="43.59494" lon="1.3191">
        <ele>191</ele>
        <time>2024-06-13T04:52:19Z</time>
      </trkpt>
      <trkpt lat="43.59496" lon="1.31917">
        <ele>191</ele>
        <time>2024-06-13T04:52:20Z</time>
      </trkpt>
      <trkpt lat="43.59499" lon="1.31924">
        <ele>190.8</ele>
        <time>2024-06-13T04:52:21Z</time>
      </trkpt>
      <trkpt lat="43.59502" lon="1.3193">
        <ele>190.8</ele>
        <time>2024-06-13T04:52:22Z</time>
      </trkpt>
      <trkpt lat="43.59505" lon="1.31937">
        <ele>190.8</ele>
        <time>2024-06-13T04:52:23Z</time>
      </trkpt>
      <trkpt lat="43.59509" lon="1.31943">
        <ele>190.8</ele>
        <time>2024-06-13T04:52:24Z</time>
      </trkpt>
      <trkpt lat="43.59512" lon="1.31949">
        <ele>190.8</ele>
        <time>2024-06-13T04:52:25Z</time>
      </trkpt>
      <trkpt lat="43.59515" lon="1.31956">
        <ele>190.6</ele>
        <time>2024-06-13T04:52:26Z</time>
      </trkpt>
      <trkpt lat="43.59518" lon="1.31963">
        <ele>190.6</ele>
        <time>2024-06-13T04:52:27Z</time>
      </trkpt>
      <trkpt lat="43.59521" lon="1.31969">
        <ele>190.4</ele>
        <time>2024-06-13T04:52:28Z</time>
      </trkpt>
      <trkpt lat="43.59526" lon="1.31973">
        <ele>190.4</ele>
        <time>2024-06-13T04:52:29Z</time>
      </trkpt>
      <trkpt lat="43.59532" lon="1.31977">
        <ele>190.2</ele>
        <time>2024-06-13T04:52:30Z</time>
      </trkpt>
      <trkpt lat="43.59537" lon="1.3198">
        <ele>190.2</ele>
        <time>2024-06-13T04:52:31Z</time>
      </trkpt>
      <trkpt lat="43.59542" lon="1.31984">
        <ele>190.2</ele>
        <time>2024-06-13T04:52:32Z</time>
      </trkpt>
      <trkpt lat="43.59547" lon="1.31987">
        <ele>190</ele>
        <time>2024-06-13T04:52:33Z</time>
      </trkpt>
      <trkpt lat="43.59552" lon="1.3199">
        <ele>190</ele>
        <time>2024-06-13T04:52:34Z</time>
      </trkpt>
      <trkpt lat="43.59558" lon="1.31992">
        <ele>190</ele>
        <time>2024-06-13T04:52:35Z</time>
      </trkpt>
      <trkpt lat="43.59563" lon="1.31992">
        <ele>189.8</ele>
        <time>2024-06-13T04:52:36Z</time>
      </trkpt>
      <trkpt lat="43.59569" lon="1.31991">
        <ele>189.8</ele>
        <time>2024-06-13T04:52:37Z</time>
      </trkpt>
      <trkpt lat="43.59574" lon="1.31991">
        <ele>189.6</ele>
        <time>2024-06-13T04:52:38Z</time>
      </trkpt>
      <trkpt lat="43.59579" lon="1.31992">
        <ele>189.8</ele>
        <time>2024-06-13T04:52:39Z</time>
      </trkpt>
      <trkpt lat="43.59583" lon="1.31996">
        <ele>189.8</ele>
        <time>2024-06-13T04:52:40Z</time>
      </trkpt>
      <trkpt lat="43.59586" lon="1.32002">
        <ele>189.6</ele>
        <time>2024-06-13T04:52:41Z</time>
      </trkpt>
      <trkpt lat="43.59589" lon="1.32008">
        <ele>189.6</ele>
        <time>2024-06-13T04:52:42Z</time>
      </trkpt>
      <trkpt lat="43.59591" lon="1.32014">
        <ele>189.8</ele>
        <time>2024-06-13T04:52:43Z</time>
      </trkpt>
      <trkpt lat="43.59594" lon="1.3202">
        <ele>189.8</ele>
        <time>2024-06-13T04:52:44Z</time>
      </trkpt>
      <trkpt lat="43.59598" lon="1.32025">
        <ele>189.8</ele>
        <time>2024-06-13T04:52:45Z</time>
      </trkpt>
      <trkpt lat="43.59603" lon="1.32029">
        <ele>189.6</ele>
        <time>2024-06-13T04:52:46Z</time>
      </trkpt>
      <trkpt lat="43.59608" lon="1.32033">
        <ele>189.6</ele>
        <time>2024-06-13T04:52:47Z</time>
      </trkpt>
      <trkpt lat="43.59613" lon="1.32036">
        <ele>189.6</ele>
        <time>2024-06-13T04:52:48Z</time>
      </trkpt>
      <trkpt lat="43.59618" lon="1.3204">
        <ele>189.6</ele>
        <time>2024-06-13T04:52:49Z</time>
      </trkpt>
      <trkpt lat="43.59623" lon="1.32043">
        <ele>189.6</ele>
        <time>2024-06-13T04:52:50Z</time>
      </trkpt>
      <trkpt lat="43.59628" lon="1.32047">
        <ele>189.6</ele>
        <time>2024-06-13T04:52:51Z</time>
      </trkpt>
      <trkpt lat="43.59633" lon="1.32051">
        <ele>189.6</ele>
        <time>2024-06-13T04:52:52Z</time>
      </trkpt>
      <trkpt lat="43.59639" lon="1.32055">
        <ele>189.6</ele>
        <time>2024-06-13T04:52:53Z</time>
      </trkpt>
      <trkpt lat="43.59644" lon="1.32059">
        <ele>189.6</ele>
        <time>2024-06-13T04:52:54Z</time>
      </trkpt>
      <trkpt lat="43.59649" lon="1.32063">
        <ele>189.6</ele>
        <time>2024-06-13T04:52:55Z</time>
      </trkpt>
      <trkpt lat="43.59655" lon="1.32067">
        <ele>189.6</ele>
        <time>2024-06-13T04:52:56Z</time>
      </trkpt>
      <trkpt lat="43.5966" lon="1.32071">
        <ele>189.6</ele>
        <time>2024-06-13T04:52:57Z</time>
      </trkpt>
      <trkpt lat="43.59665" lon="1.32075">
        <ele>189.6</ele>
        <time>2024-06-13T04:52:58Z</time>
      </trkpt>
      <trkpt lat="43.59671" lon="1.32079">
        <ele>189.6</ele>
        <time>2024-06-13T04:52:59Z</time>
      </trkpt>
      <trkpt lat="43.59676" lon="1.32083">
        <ele>189.6</ele>
        <time>2024-06-13T04:53:00Z</time>
      </trkpt>
      <trkpt lat="43.59681" lon="1.32087">
        <ele>189.6</ele>
        <time>2024-06-13T04:53:01Z</time>
      </trkpt>
      <trkpt lat="43.59687" lon="1.32091">
        <ele>189.6</ele>
        <time>2024-06-13T04:53:02Z</time>
      </trkpt>
      <trkpt lat="43.59692" lon="1.32095">
        <ele>189.6</ele>
        <time>2024-06-13T04:53:03Z</time>
      </trkpt>
      <trkpt lat="43.59697" lon="1.32099">
        <ele>189.6</ele>
        <time>2024-06-13T04:53:04Z</time>
      </trkpt>
      <trkpt lat="43.59703" lon="1.32103">
        <ele>189.4</ele>
        <time>2024-06-13T04:53:05Z</time>
      </trkpt>
      <trkpt lat="43.59708" lon="1.32107">
        <ele>189.4</ele>
        <time>2024-06-13T04:53:06Z</time>
      </trkpt>
      <trkpt lat="43.59714" lon="1.32111">
        <ele>189.4</ele>
        <time>2024-06-13T04:53:07Z</time>
      </trkpt>
      <trkpt lat="43.59719" lon="1.32116">
        <ele>189.4</ele>
        <time>2024-06-13T04:53:08Z</time>
      </trkpt>
      <trkpt lat="43.59725" lon="1.3212">
        <ele>189.4</ele>
        <time>2024-06-13T04:53:09Z</time>
      </trkpt>
      <trkpt lat="43.5973" lon="1.32124">
        <ele>189.2</ele>
        <time>2024-06-13T04:53:10Z</time>
      </trkpt>
      <trkpt lat="43.59736" lon="1.32128">
        <ele>189.2</ele>
        <time>2024-06-13T04:53:11Z</time>
      </trkpt>
      <trkpt lat="43.59741" lon="1.32132">
        <ele>189.2</ele>
        <time>2024-06-13T04:53:12Z</time>
      </trkpt>
      <trkpt lat="43.59747" lon="1.32136">
        <ele>189.2</ele>
        <time>2024-06-13T04:53:13Z</time>
      </trkpt>
      <trkpt lat="43.59752" lon="1.32139">
        <ele>189.2</ele>
        <time>2024-06-13T04:53:14Z</time>
      </trkpt>
      <trkpt lat="43.59758" lon="1.32143">
        <ele>189.2</ele>
        <time>2024-06-13T04:53:15Z</time>
      </trkpt>
      <trkpt lat="43.59763" lon="1.32146">
        <ele>189.2</ele>
        <time>2024-06-13T04:53:16Z</time>
      </trkpt>
      <trkpt lat="43.59768" lon="1.32148">
        <ele>189.2</ele>
        <time>2024-06-13T04:53:17Z</time>
      </trkpt>
      <trkpt lat="43.59773" lon="1.32148">
        <ele>189.4</ele>
        <time>2024-06-13T04:53:18Z</time>
      </trkpt>
      <trkpt lat="43.59776" lon="1.32147">
        <ele>189.4</ele>
        <time>2024-06-13T04:53:19Z</time>
      </trkpt>
      <trkpt lat="43.5978" lon="1.32146">
        <ele>189.4</ele>
        <time>2024-06-13T04:53:20Z</time>
      </trkpt>
      <trkpt lat="43.59783" lon="1.32148">
        <ele>189.4</ele>
        <time>2024-06-13T04:53:21Z</time>
      </trkpt>
      <trkpt lat="43.59786" lon="1.32152">
        <ele>189.4</ele>
        <time>2024-06-13T04:53:22Z</time>
      </trkpt>
      <trkpt lat="43.59788" lon="1.32157">
        <ele>189.4</ele>
        <time>2024-06-13T04:53:23Z</time>
      </trkpt>
      <trkpt lat="43.5979" lon="1.32163">
        <ele>189.4</ele>
        <time>2024-06-13T04:53:24Z</time>
      </trkpt>
      <trkpt lat="43.59793" lon="1.32169">
        <ele>189.4</ele>
        <time>2024-06-13T04:53:25Z</time>
      </trkpt>
      <trkpt lat="43.59798" lon="1.32173">
        <ele>189.6</ele>
        <time>2024-06-13T04:53:26Z</time>
      </trkpt>
      <trkpt lat="43.59802" lon="1.32176">
        <ele>189.6</ele>
        <time>2024-06-13T04:53:27Z</time>
      </trkpt>
      <trkpt lat="43.59807" lon="1.32181">
        <ele>189.6</ele>
        <time>2024-06-13T04:53:28Z</time>
      </trkpt>
      <trkpt lat="43.59811" lon="1.32186">
        <ele>189.6</ele>
        <time>2024-06-13T04:53:29Z</time>
      </trkpt>
      <trkpt lat="43.59815" lon="1.32191">
        <ele>189.6</ele>
        <time>2024-06-13T04:53:30Z</time>
      </trkpt>
      <trkpt lat="43.59819" lon="1.32196">
        <ele>189.6</ele>
        <time>2024-06-13T04:53:31Z</time>
      </trkpt>
      <trkpt lat="43.59824" lon="1.32201">
        <ele>189.4</ele>
        <time>2024-06-13T04:53:32Z</time>
      </trkpt>
      <trkpt lat="43.59828" lon="1.32206">
        <ele>189.6</ele>
        <time>2024-06-13T04:53:33Z</time>
      </trkpt>
      <trkpt lat="43.59833" lon="1.32209">
        <ele>189.6</ele>
        <time>2024-06-13T04:53:34Z</time>
      </trkpt>
      <trkpt lat="43.59839" lon="1.32211">
        <ele>189.4</ele>
        <time>2024-06-13T04:53:35Z</time>
      </trkpt>
      <trkpt lat="43.59845" lon="1.32213">
        <ele>189.4</ele>
        <time>2024-06-13T04:53:36Z</time>
      </trkpt>
      <trkpt lat="43.59851" lon="1.32214">
        <ele>189.4</ele>
        <time>2024-06-13T04:53:37Z</time>
      </trkpt>
      <trkpt lat="43.59858" lon="1.32215">
        <ele>189.4</ele>
        <time>2024-06-13T04:53:38Z</time>
      </trkpt>
      <trkpt lat="43.59864" lon="1.32216">
        <ele>189.4</ele>
        <time>2024-06-13T04:53:39Z</time>
      </trkpt>
      <trkpt lat="43.5987" lon="1.32216">
        <ele>189.4</ele>
        <time>2024-06-13T04:53:40Z</time>
      </trkpt>
      <trkpt lat="43.59876" lon="1.32217">
        <ele>189.4</ele>
        <time>2024-06-13T04:53:41Z</time>
      </trkpt>
      <trkpt lat="43.59883" lon="1.32218">
        <ele>189.2</ele>
        <time>2024-06-13T04:53:42Z</time>
      </trkpt>
      <trkpt lat="43.59889" lon="1.32218">
        <ele>189.2</ele>
        <time>2024-06-13T04:53:43Z</time>
      </trkpt>
      <trkpt lat="43.59895" lon="1.32219">
        <ele>189.2</ele>
        <time>2024-06-13T04:53:44Z</time>
      </trkpt>
      <trkpt lat="43.59902" lon="1.3222">
        <ele>189</ele>
        <time>2024-06-13T04:53:45Z</time>
      </trkpt>
      <trkpt lat="43.59908" lon="1.32221">
        <ele>189</ele>
        <time>2024-06-13T04:53:46Z</time>
      </trkpt>
      <trkpt lat="43.59915" lon="1.32222">
        <ele>189</ele>
        <time>2024-06-13T04:53:47Z</time>
      </trkpt>
      <trkpt lat="43.59921" lon="1.32223">
        <ele>189</ele>
        <time>2024-06-13T04:53:48Z</time>
      </trkpt>
      <trkpt lat="43.59927" lon="1.32223">
        <ele>189</ele>
        <time>2024-06-13T04:53:49Z</time>
      </trkpt>
      <trkpt lat="43.59933" lon="1.32224">
        <ele>189</ele>
        <time>2024-06-13T04:53:50Z</time>
      </trkpt>
      <trkpt lat="43.59939" lon="1.32225">
        <ele>189</ele>
        <time>2024-06-13T04:53:51Z</time>
      </trkpt>
      <trkpt lat="43.59946" lon="1.32226">
        <ele>188.8</ele>
        <time>2024-06-13T04:53:52Z</time>
      </trkpt>
      <trkpt lat="43.59952" lon="1.32228">
        <ele>188.8</ele>
        <time>2024-06-13T04:53:53Z</time>
      </trkpt>
      <trkpt lat="43.59957" lon="1.3223">
        <ele>188.8</ele>
        <time>2024-06-13T04:53:54Z</time>
      </trkpt>
      <trkpt lat="43.59963" lon="1.32233">
        <ele>188.8</ele>
        <time>2024-06-13T04:53:55Z</time>
      </trkpt>
      <trkpt lat="43.59968" lon="1.32237">
        <ele>188.8</ele>
        <time>2024-06-13T04:53:56Z</time>
      </trkpt>
      <trkpt lat="43.59973" lon="1.32242">
        <ele>189</ele>
        <time>2024-06-13T04:53:57Z</time>
      </trkpt>
      <trkpt lat="43.59978" lon="1.32247">
        <ele>189</ele>
        <time>2024-06-13T04:53:58Z</time>
      </trkpt>
      <trkpt lat="43.59982" lon="1.32252">
        <ele>189</ele>
        <time>2024-06-13T04:53:59Z</time>
      </trkpt>
      <trkpt lat="43.59987" lon="1.32256">
        <ele>189</ele>
        <time>2024-06-13T04:54:00Z</time>
      </trkpt>
      <trkpt lat="43.59991" lon="1.3226">
        <ele>189</ele>
        <time>2024-06-13T04:54:01Z</time>
      </trkpt>
      <trkpt lat="43.59995" lon="1.32264">
        <ele>189</ele>
        <time>2024-06-13T04:54:02Z</time>
      </trkpt>
      <trkpt lat="43.6" lon="1.32267">
        <ele>189</ele>
        <time>2024-06-13T04:54:03Z</time>
      </trkpt>
      <trkpt lat="43.60005" lon="1.32269">
        <ele>189</ele>
        <time>2024-06-13T04:54:04Z</time>
      </trkpt>
      <trkpt lat="43.60011" lon="1.32269">
        <ele>189</ele>
        <time>2024-06-13T04:54:05Z</time>
      </trkpt>
      <trkpt lat="43.60017" lon="1.32269">
        <ele>189</ele>
        <time>2024-06-13T04:54:06Z</time>
      </trkpt>
      <trkpt lat="43.60022" lon="1.32268">
        <ele>189</ele>
        <time>2024-06-13T04:54:07Z</time>
      </trkpt>
      <trkpt lat="43.60028" lon="1.32267">
        <ele>189.2</ele>
        <time>2024-06-13T04:54:08Z</time>
      </trkpt>
      <trkpt lat="43.60032" lon="1.32265">
        <ele>189.2</ele>
        <time>2024-06-13T04:54:09Z</time>
      </trkpt>
      <trkpt lat="43.60036" lon="1.32262">
        <ele>189.2</ele>
        <time>2024-06-13T04:54:10Z</time>
      </trkpt>
      <trkpt lat="43.6004" lon="1.3226">
        <ele>189.2</ele>
        <time>2024-06-13T04:54:11Z</time>
      </trkpt>
      <trkpt lat="43.60043" lon="1.32259">
        <ele>189.2</ele>
        <time>2024-06-13T04:54:12Z</time>
      </trkpt>
      <trkpt lat="43.60046" lon="1.32261">
        <ele>189.2</ele>
        <time>2024-06-13T04:54:13Z</time>
      </trkpt>
      <trkpt lat="43.60048" lon="1.32264">
        <ele>189.2</ele>
        <time>2024-06-13T04:54:14Z</time>
      </trkpt>
      <trkpt lat="43.60048" lon="1.32269">
        <ele>189.2</ele>
        <time>2024-06-13T04:54:15Z</time>
      </trkpt>
      <trkpt lat="43.60048" lon="1.32275">
        <ele>189.2</ele>
        <time>2024-06-13T04:54:16Z</time>
      </trkpt>
      <trkpt lat="43.60047" lon="1.32281">
        <ele>189.2</ele>
        <time>2024-06-13T04:54:17Z</time>
      </trkpt>
      <trkpt lat="43.60047" lon="1.32288">
        <ele>189.2</ele>
        <time>2024-06-13T04:54:18Z</time>
      </trkpt>
      <trkpt lat="43.60048" lon="1.32295">
        <ele>189.2</ele>
        <time>2024-06-13T04:54:19Z</time>
      </trkpt>
      <trkpt lat="43.60048" lon="1.32301">
        <ele>189.2</ele>
        <time>2024-06-13T04:54:20Z</time>
      </trkpt>
      <trkpt lat="43.60049" lon="1.32308">
        <ele>189.2</ele>
        <time>2024-06-13T04:54:21Z</time>
      </trkpt>
      <trkpt lat="43.6005" lon="1.32315">
        <ele>189.4</ele>
        <time>2024-06-13T04:54:22Z</time>
      </trkpt>
      <trkpt lat="43.60051" lon="1.32322">
        <ele>189.4</ele>
        <time>2024-06-13T04:54:23Z</time>
      </trkpt>
      <trkpt lat="43.60053" lon="1.32328">
        <ele>189.4</ele>
        <time>2024-06-13T04:54:24Z</time>
      </trkpt>
      <trkpt lat="43.60056" lon="1.32333">
        <ele>189.4</ele>
        <time>2024-06-13T04:54:25Z</time>
      </trkpt>
      <trkpt lat="43.60059" lon="1.32339">
        <ele>189.4</ele>
        <time>2024-06-13T04:54:26Z</time>
      </trkpt>
      <trkpt lat="43.60063" lon="1.32345">
        <ele>189.4</ele>
        <time>2024-06-13T04:54:27Z</time>
      </trkpt>
      <trkpt lat="43.60067" lon="1.3235">
        <ele>189.4</ele>
        <time>2024-06-13T04:54:28Z</time>
      </trkpt>
      <trkpt lat="43.60071" lon="1.32355">
        <ele>189.4</ele>
        <time>2024-06-13T04:54:29Z</time>
      </trkpt>
      <trkpt lat="43.60076" lon="1.3236">
        <ele>189.4</ele>
        <time>2024-06-13T04:54:30Z</time>
      </trkpt>
      <trkpt lat="43.60081" lon="1.32366">
        <ele>189.2</ele>
        <time>2024-06-13T04:54:31Z</time>
      </trkpt>
      <trkpt lat="43.60086" lon="1.32371">
        <ele>189.2</ele>
        <time>2024-06-13T04:54:32Z</time>
      </trkpt>
      <trkpt lat="43.60091" lon="1.32377">
        <ele>189.2</ele>
        <time>2024-06-13T04:54:33Z</time>
      </trkpt>
      <trkpt lat="43.60096" lon="1.32383">
        <ele>189.2</ele>
        <time>2024-06-13T04:54:34Z</time>
      </trkpt>
      <trkpt lat="43.601" lon="1.32388">
        <ele>189</ele>
        <time>2024-06-13T04:54:35Z</time>
      </trkpt>
      <trkpt lat="43.60104" lon="1.32395">
        <ele>189</ele>
        <time>2024-06-13T04:54:36Z</time>
      </trkpt>
      <trkpt lat="43.60109" lon="1.32401">
        <ele>188.8</ele>
        <time>2024-06-13T04:54:37Z</time>
      </trkpt>
      <trkpt lat="43.60114" lon="1.32406">
        <ele>188.8</ele>
        <time>2024-06-13T04:54:38Z</time>
      </trkpt>
      <trkpt lat="43.60118" lon="1.32412">
        <ele>188.8</ele>
        <time>2024-06-13T04:54:39Z</time>
      </trkpt>
      <trkpt lat="43.60123" lon="1.32417">
        <ele>188.6</ele>
        <time>2024-06-13T04:54:40Z</time>
      </trkpt>
      <trkpt lat="43.60127" lon="1.32422">
        <ele>188.6</ele>
        <time>2024-06-13T04:54:41Z</time>
      </trkpt>
      <trkpt lat="43.60132" lon="1.32427">
        <ele>188.4</ele>
        <time>2024-06-13T04:54:42Z</time>
      </trkpt>
      <trkpt lat="43.60136" lon="1.32433">
        <ele>188.2</ele>
        <time>2024-06-13T04:54:43Z</time>
      </trkpt>
      <trkpt lat="43.60141" lon="1.32438">
        <ele>188.2</ele>
        <time>2024-06-13T04:54:44Z</time>
      </trkpt>
      <trkpt lat="43.60146" lon="1.32444">
        <ele>188</ele>
        <time>2024-06-13T04:54:45Z</time>
      </trkpt>
      <trkpt lat="43.6015" lon="1.3245">
        <ele>188</ele>
        <time>2024-06-13T04:54:46Z</time>
      </trkpt>
      <trkpt lat="43.60155" lon="1.32455">
        <ele>188</ele>
        <time>2024-06-13T04:54:47Z</time>
      </trkpt>
      <trkpt lat="43.6016" lon="1.32461">
        <ele>188</ele>
        <time>2024-06-13T04:54:48Z</time>
      </trkpt>
      <trkpt lat="43.60165" lon="1.32467">
        <ele>188</ele>
        <time>2024-06-13T04:54:49Z</time>
      </trkpt>
      <trkpt lat="43.60169" lon="1.32472">
        <ele>188</ele>
        <time>2024-06-13T04:54:50Z</time>
      </trkpt>
      <trkpt lat="43.60174" lon="1.32477">
        <ele>188</ele>
        <time>2024-06-13T04:54:51Z</time>
      </trkpt>
      <trkpt lat="43.60179" lon="1.32483">
        <ele>188</ele>
        <time>2024-06-13T04:54:52Z</time>
      </trkpt>
      <trkpt lat="43.60183" lon="1.32488">
        <ele>188</ele>
        <time>2024-06-13T04:54:53Z</time>
      </trkpt>
      <trkpt lat="43.60188" lon="1.32494">
        <ele>188</ele>
        <time>2024-06-13T04:54:54Z</time>
      </trkpt>
      <trkpt lat="43.60193" lon="1.325">
        <ele>187.8</ele>
        <time>2024-06-13T04:54:55Z</time>
      </trkpt>
      <trkpt lat="43.60197" lon="1.32505">
        <ele>188</ele>
        <time>2024-06-13T04:54:56Z</time>
      </trkpt>
      <trkpt lat="43.60202" lon="1.32511">
        <ele>188</ele>
        <time>2024-06-13T04:54:57Z</time>
      </trkpt>
      <trkpt lat="43.60207" lon="1.32516">
        <ele>188</ele>
        <time>2024-06-13T04:54:58Z</time>
      </trkpt>
      <trkpt lat="43.60212" lon="1.32522">
        <ele>188</ele>
        <time>2024-06-13T04:54:59Z</time>
      </trkpt>
      <trkpt lat="43.60217" lon="1.32527">
        <ele>188</ele>
        <time>2024-06-13T04:55:00Z</time>
      </trkpt>
      <trkpt lat="43.60222" lon="1.32533">
        <ele>188</ele>
        <time>2024-06-13T04:55:01Z</time>
      </trkpt>
      <trkpt lat="43.60227" lon="1.32538">
        <ele>188</ele>
        <time>2024-06-13T04:55:02Z</time>
      </trkpt>
      <trkpt lat="43.60231" lon="1.32544">
        <ele>188</ele>
        <time>2024-06-13T04:55:03Z</time>
      </trkpt>
      <trkpt lat="43.60236" lon="1.32549">
        <ele>188</ele>
        <time>2024-06-13T04:55:04Z</time>
      </trkpt>
      <trkpt lat="43.60241" lon="1.32555">
        <ele>188</ele>
        <time>2024-06-13T04:55:05Z</time>
      </trkpt>
      <trkpt lat="43.60246" lon="1.3256">
        <ele>188</ele>
        <time>2024-06-13T04:55:06Z</time>
      </trkpt>
      <trkpt lat="43.6025" lon="1.32566">
        <ele>188</ele>
        <time>2024-06-13T04:55:07Z</time>
      </trkpt>
      <trkpt lat="43.60255" lon="1.32571">
        <ele>188</ele>
        <time>2024-06-13T04:55:08Z</time>
      </trkpt>
      <trkpt lat="43.6026" lon="1.32577">
        <ele>188</ele>
        <time>2024-06-13T04:55:09Z</time>
      </trkpt>
      <trkpt lat="43.60265" lon="1.32583">
        <ele>188</ele>
        <time>2024-06-13T04:55:10Z</time>
      </trkpt>
      <trkpt lat="43.6027" lon="1.32589">
        <ele>188</ele>
        <time>2024-06-13T04:55:11Z</time>
      </trkpt>
      <trkpt lat="43.60275" lon="1.32594">
        <ele>188</ele>
        <time>2024-06-13T04:55:12Z</time>
      </trkpt>
      <trkpt lat="43.60279" lon="1.326">
        <ele>188</ele>
        <time>2024-06-13T04:55:13Z</time>
      </trkpt>
      <trkpt lat="43.60284" lon="1.32605">
        <ele>188</ele>
        <time>2024-06-13T04:55:14Z</time>
      </trkpt>
      <trkpt lat="43.60289" lon="1.32611">
        <ele>188</ele>
        <time>2024-06-13T04:55:15Z</time>
      </trkpt>
      <trkpt lat="43.60294" lon="1.32616">
        <ele>188</ele>
        <time>2024-06-13T04:55:16Z</time>
      </trkpt>
      <trkpt lat="43.60299" lon="1.32618">
        <ele>188</ele>
        <time>2024-06-13T04:55:17Z</time>
      </trkpt>
      <trkpt lat="43.60305" lon="1.32618">
        <ele>188</ele>
        <time>2024-06-13T04:55:18Z</time>
      </trkpt>
      <trkpt lat="43.60311" lon="1.32617">
        <ele>188</ele>
        <time>2024-06-13T04:55:19Z</time>
      </trkpt>
      <trkpt lat="43.60318" lon="1.32616">
        <ele>188</ele>
        <time>2024-06-13T04:55:20Z</time>
      </trkpt>
      <trkpt lat="43.60324" lon="1.32614">
        <ele>188.2</ele>
        <time>2024-06-13T04:55:21Z</time>
      </trkpt>
      <trkpt lat="43.6033" lon="1.32613">
        <ele>188.2</ele>
        <time>2024-06-13T04:55:22Z</time>
      </trkpt>
      <trkpt lat="43.60336" lon="1.32611">
        <ele>188.2</ele>
        <time>2024-06-13T04:55:23Z</time>
      </trkpt>
      <trkpt lat="43.60342" lon="1.3261">
        <ele>188.2</ele>
        <time>2024-06-13T04:55:24Z</time>
      </trkpt>
      <trkpt lat="43.60348" lon="1.32609">
        <ele>188.2</ele>
        <time>2024-06-13T04:55:25Z</time>
      </trkpt>
      <trkpt lat="43.60353" lon="1.32606">
        <ele>188.2</ele>
        <time>2024-06-13T04:55:26Z</time>
      </trkpt>
      <trkpt lat="43.60357" lon="1.32602">
        <ele>188.2</ele>
        <time>2024-06-13T04:55:27Z</time>
      </trkpt>
      <trkpt lat="43.60361" lon="1.32597">
        <ele>188.2</ele>
        <time>2024-06-13T04:55:28Z</time>
      </trkpt>
      <trkpt lat="43.60364" lon="1.32591">
        <ele>188.2</ele>
        <time>2024-06-13T04:55:29Z</time>
      </trkpt>
      <trkpt lat="43.60367" lon="1.32585">
        <ele>188.2</ele>
        <time>2024-06-13T04:55:30Z</time>
      </trkpt>
      <trkpt lat="43.60371" lon="1.32579">
        <ele>188.2</ele>
        <time>2024-06-13T04:55:31Z</time>
      </trkpt>
      <trkpt lat="43.60375" lon="1.32572">
        <ele>188.2</ele>
        <time>2024-06-13T04:55:32Z</time>
      </trkpt>
      <trkpt lat="43.60379" lon="1.32566">
        <ele>188.2</ele>
        <time>2024-06-13T04:55:33Z</time>
      </trkpt>
      <trkpt lat="43.60383" lon="1.32559">
        <ele>188.2</ele>
        <time>2024-06-13T04:55:34Z</time>
      </trkpt>
      <trkpt lat="43.60387" lon="1.32552">
        <ele>188.2</ele>
        <time>2024-06-13T04:55:35Z</time>
      </trkpt>
      <trkpt lat="43.60391" lon="1.32545">
        <ele>188.2</ele>
        <time>2024-06-13T04:55:36Z</time>
      </trkpt>
      <trkpt lat="43.60394" lon="1.32538">
        <ele>188.2</ele>
        <time>2024-06-13T04:55:37Z</time>
      </trkpt>
      <trkpt lat="43.60398" lon="1.32531">
        <ele>188.2</ele>
        <time>2024-06-13T04:55:38Z</time>
      </trkpt>
      <trkpt lat="43.60401" lon="1.32524">
        <ele>188.2</ele>
        <time>2024-06-13T04:55:39Z</time>
      </trkpt>
      <trkpt lat="43.60404" lon="1.32517">
        <ele>188.2</ele>
        <time>2024-06-13T04:55:40Z</time>
      </trkpt>
      <trkpt lat="43.60408" lon="1.32509">
        <ele>188.2</ele>
        <time>2024-06-13T04:55:41Z</time>
      </trkpt>
      <trkpt lat="43.60411" lon="1.32502">
        <ele>188.2</ele>
        <time>2024-06-13T04:55:42Z</time>
      </trkpt>
      <trkpt lat="43.60415" lon="1.32495">
        <ele>188.2</ele>
        <time>2024-06-13T04:55:43Z</time>
      </trkpt>
      <trkpt lat="43.60418" lon="1.32488">
        <ele>188.2</ele>
        <time>2024-06-13T04:55:44Z</time>
      </trkpt>
      <trkpt lat="43.60422" lon="1.32481">
        <ele>188.2</ele>
        <time>2024-06-13T04:55:45Z</time>
      </trkpt>
      <trkpt lat="43.60425" lon="1.32474">
        <ele>188.2</ele>
        <time>2024-06-13T04:55:46Z</time>
      </trkpt>
      <trkpt lat="43.60429" lon="1.32467">
        <ele>188.4</ele>
        <time>2024-06-13T04:55:47Z</time>
      </trkpt>
      <trkpt lat="43.60433" lon="1.32461">
        <ele>188.4</ele>
        <time>2024-06-13T04:55:48Z</time>
      </trkpt>
      <trkpt lat="43.60437" lon="1.32454">
        <ele>188.4</ele>
        <time>2024-06-13T04:55:49Z</time>
      </trkpt>
      <trkpt lat="43.6044" lon="1.32447">
        <ele>188.4</ele>
        <time>2024-06-13T04:55:50Z</time>
      </trkpt>
      <trkpt lat="43.60444" lon="1.3244">
        <ele>188.4</ele>
        <time>2024-06-13T04:55:51Z</time>
      </trkpt>
      <trkpt lat="43.60448" lon="1.32433">
        <ele>188.4</ele>
        <time>2024-06-13T04:55:52Z</time>
      </trkpt>
      <trkpt lat="43.60452" lon="1.32425">
        <ele>188.4</ele>
        <time>2024-06-13T04:55:53Z</time>
      </trkpt>
      <trkpt lat="43.60456" lon="1.32418">
        <ele>188.4</ele>
        <time>2024-06-13T04:55:54Z</time>
      </trkpt>
      <trkpt lat="43.60459" lon="1.32411">
        <ele>188.6</ele>
        <time>2024-06-13T04:55:55Z</time>
      </trkpt>
      <trkpt lat="43.60464" lon="1.32404">
        <ele>188.6</ele>
        <time>2024-06-13T04:55:56Z</time>
      </trkpt>
      <trkpt lat="43.60468" lon="1.32398">
        <ele>188.6</ele>
        <time>2024-06-13T04:55:57Z</time>
      </trkpt>
      <trkpt lat="43.60472" lon="1.32392">
        <ele>188.6</ele>
        <time>2024-06-13T04:55:58Z</time>
      </trkpt>
      <trkpt lat="43.60477" lon="1.32387">
        <ele>188.6</ele>
        <time>2024-06-13T04:55:59Z</time>
      </trkpt>
      <trkpt lat="43.60481" lon="1.32383">
        <ele>188.6</ele>
        <time>2024-06-13T04:56:00Z</time>
      </trkpt>
      <trkpt lat="43.60486" lon="1.32379">
        <ele>188.6</ele>
        <time>2024-06-13T04:56:01Z</time>
      </trkpt>
      <trkpt lat="43.60491" lon="1.32377">
        <ele>188.6</ele>
        <time>2024-06-13T04:56:02Z</time>
      </trkpt>
      <trkpt lat="43.60496" lon="1.32375">
        <ele>188.6</ele>
        <time>2024-06-13T04:56:03Z</time>
      </trkpt>
      <trkpt lat="43.60502" lon="1.32375">
        <ele>188.6</ele>
        <time>2024-06-13T04:56:04Z</time>
      </trkpt>
      <trkpt lat="43.60506" lon="1.32377">
        <ele>188.6</ele>
        <time>2024-06-13T04:56:05Z</time>
      </trkpt>
      <trkpt lat="43.60511" lon="1.3238">
        <ele>188.6</ele>
        <time>2024-06-13T04:56:06Z</time>
      </trkpt>
      <trkpt lat="43.60515" lon="1.32383">
        <ele>188.6</ele>
        <time>2024-06-13T04:56:07Z</time>
      </trkpt>
      <trkpt lat="43.6052" lon="1.32386">
        <ele>188.6</ele>
        <time>2024-06-13T04:56:08Z</time>
      </trkpt>
      <trkpt lat="43.60525" lon="1.32388">
        <ele>188.6</ele>
        <time>2024-06-13T04:56:09Z</time>
      </trkpt>
      <trkpt lat="43.6053" lon="1.3239">
        <ele>188.6</ele>
        <time>2024-06-13T04:56:10Z</time>
      </trkpt>
      <trkpt lat="43.60535" lon="1.32389">
        <ele>188.6</ele>
        <time>2024-06-13T04:56:11Z</time>
      </trkpt>
      <trkpt lat="43.6054" lon="1.32386">
        <ele>188.6</ele>
        <time>2024-06-13T04:56:12Z</time>
      </trkpt>
      <trkpt lat="43.60544" lon="1.32381">
        <ele>188.6</ele>
        <time>2024-06-13T04:56:13Z</time>
      </trkpt>
      <trkpt lat="43.60548" lon="1.32375">
        <ele>188.8</ele>
        <time>2024-06-13T04:56:14Z</time>
      </trkpt>
      <trkpt lat="43.60553" lon="1.32371">
        <ele>188.8</ele>
        <time>2024-06-13T04:56:15Z</time>
      </trkpt>
      <trkpt lat="43.60559" lon="1.32368">
        <ele>188.8</ele>
        <time>2024-06-13T04:56:16Z</time>
      </trkpt>
      <trkpt lat="43.60565" lon="1.32366">
        <ele>188.8</ele>
        <time>2024-06-13T04:56:17Z</time>
      </trkpt>
      <trkpt lat="43.60572" lon="1.32365">
        <ele>188.8</ele>
        <time>2024-06-13T04:56:18Z</time>
      </trkpt>
      <trkpt lat="43.60578" lon="1.32365">
        <ele>188.8</ele>
        <time>2024-06-13T04:56:19Z</time>
      </trkpt>
      <trkpt lat="43.60585" lon="1.32365">
        <ele>188.8</ele>
        <time>2024-06-13T04:56:20Z</time>
      </trkpt>
      <trkpt lat="43.60591" lon="1.32366">
        <ele>188.6</ele>
        <time>2024-06-13T04:56:21Z</time>
      </trkpt>
      <trkpt lat="43.60596" lon="1.3237">
        <ele>188.6</ele>
        <time>2024-06-13T04:56:22Z</time>
      </trkpt>
      <trkpt lat="43.60601" lon="1.32374">
        <ele>188.4</ele>
        <time>2024-06-13T04:56:23Z</time>
      </trkpt>
      <trkpt lat="43.60606" lon="1.32379">
        <ele>188.4</ele>
        <time>2024-06-13T04:56:24Z</time>
      </trkpt>
      <trkpt lat="43.60611" lon="1.32385">
        <ele>188.2</ele>
        <time>2024-06-13T04:56:25Z</time>
      </trkpt>
      <trkpt lat="43.60616" lon="1.3239">
        <ele>188</ele>
        <time>2024-06-13T04:56:26Z</time>
      </trkpt>
      <trkpt lat="43.6062" lon="1.32396">
        <ele>188</ele>
        <time>2024-06-13T04:56:27Z</time>
      </trkpt>
      <trkpt lat="43.60625" lon="1.32402">
        <ele>187.8</ele>
        <time>2024-06-13T04:56:28Z</time>
      </trkpt>
      <trkpt lat="43.6063" lon="1.32407">
        <ele>187.8</ele>
        <time>2024-06-13T04:56:29Z</time>
      </trkpt>
      <trkpt lat="43.60634" lon="1.32412">
        <ele>187.6</ele>
        <time>2024-06-13T04:56:30Z</time>
      </trkpt>
      <trkpt lat="43.60639" lon="1.32417">
        <ele>187.6</ele>
        <time>2024-06-13T04:56:31Z</time>
      </trkpt>
      <trkpt lat="43.60644" lon="1.32422">
        <ele>187.6</ele>
        <time>2024-06-13T04:56:32Z</time>
      </trkpt>
      <trkpt lat="43.60649" lon="1.32426">
        <ele>187.4</ele>
        <time>2024-06-13T04:56:33Z</time>
      </trkpt>
      <trkpt lat="43.60654" lon="1.3243">
        <ele>187.4</ele>
        <time>2024-06-13T04:56:34Z</time>
      </trkpt>
      <trkpt lat="43.6066" lon="1.32433">
        <ele>187.4</ele>
        <time>2024-06-13T04:56:35Z</time>
      </trkpt>
      <trkpt lat="43.60666" lon="1.32433">
        <ele>187.4</ele>
        <time>2024-06-13T04:56:36Z</time>
      </trkpt>
      <trkpt lat="43.60672" lon="1.32433">
        <ele>187.4</ele>
        <time>2024-06-13T04:56:37Z</time>
      </trkpt>
      <trkpt lat="43.60679" lon="1.32432">
        <ele>187.6</ele>
        <time>2024-06-13T04:56:38Z</time>
      </trkpt>
      <trkpt lat="43.60684" lon="1.32431">
        <ele>187.6</ele>
        <time>2024-06-13T04:56:39Z</time>
      </trkpt>
      <trkpt lat="43.60689" lon="1.32428">
        <ele>187.6</ele>
        <time>2024-06-13T04:56:40Z</time>
      </trkpt>
      <trkpt lat="43.60692" lon="1.32425">
        <ele>187.6</ele>
        <time>2024-06-13T04:56:41Z</time>
      </trkpt>
      <trkpt lat="43.60721" lon="1.32404">
        <ele>187.8</ele>
        <time>2024-06-13T04:56:47Z</time>
      </trkpt>
      <trkpt lat="43.60728" lon="1.32401">
        <ele>187.8</ele>
        <time>2024-06-13T04:56:48Z</time>
      </trkpt>
      <trkpt lat="43.60735" lon="1.32397">
        <ele>187.8</ele>
        <time>2024-06-13T04:56:49Z</time>
      </trkpt>
      <trkpt lat="43.60739" lon="1.3239">
        <ele>187.8</ele>
        <time>2024-06-13T04:56:50Z</time>
      </trkpt>
      <trkpt lat="43.60742" lon="1.32384">
        <ele>187.8</ele>
        <time>2024-06-13T04:56:51Z</time>
      </trkpt>
      <trkpt lat="43.60745" lon="1.32377">
        <ele>187.6</ele>
        <time>2024-06-13T04:56:52Z</time>
      </trkpt>
      <trkpt lat="43.60749" lon="1.3237">
        <ele>187.6</ele>
        <time>2024-06-13T04:56:53Z</time>
      </trkpt>
      <trkpt lat="43.60752" lon="1.32363">
        <ele>187.6</ele>
        <time>2024-06-13T04:56:54Z</time>
      </trkpt>
      <trkpt lat="43.60756" lon="1.32358">
        <ele>187.6</ele>
        <time>2024-06-13T04:56:55Z</time>
      </trkpt>
      <trkpt lat="43.60761" lon="1.32353">
        <ele>187.6</ele>
        <time>2024-06-13T04:56:56Z</time>
      </trkpt>
      <trkpt lat="43.60765" lon="1.32348">
        <ele>187.6</ele>
        <time>2024-06-13T04:56:57Z</time>
      </trkpt>
      <trkpt lat="43.60769" lon="1.32343">
        <ele>187.6</ele>
        <time>2024-06-13T04:56:58Z</time>
      </trkpt>
      <trkpt lat="43.60774" lon="1.3234">
        <ele>187.6</ele>
        <time>2024-06-13T04:56:59Z</time>
      </trkpt>
      <trkpt lat="43.60778" lon="1.32339">
        <ele>187.6</ele>
        <time>2024-06-13T04:57:00Z</time>
      </trkpt>
      <trkpt lat="43.60782" lon="1.3234">
        <ele>187.6</ele>
        <time>2024-06-13T04:57:01Z</time>
      </trkpt>
      <trkpt lat="43.60787" lon="1.32342">
        <ele>187.6</ele>
        <time>2024-06-13T04:57:02Z</time>
      </trkpt>
      <trkpt lat="43.60792" lon="1.32343">
        <ele>187.6</ele>
        <time>2024-06-13T04:57:03Z</time>
      </trkpt>
      <trkpt lat="43.60797" lon="1.32343">
        <ele>187.6</ele>
        <time>2024-06-13T04:57:04Z</time>
      </trkpt>
      <trkpt lat="43.60803" lon="1.32344">
        <ele>187.6</ele>
        <time>2024-06-13T04:57:05Z</time>
      </trkpt>
      <trkpt lat="43.60808" lon="1.32343">
        <ele>187.8</ele>
        <time>2024-06-13T04:57:06Z</time>
      </trkpt>
      <trkpt lat="43.60814" lon="1.32343">
        <ele>187.8</ele>
        <time>2024-06-13T04:57:07Z</time>
      </trkpt>
      <trkpt lat="43.60819" lon="1.32342">
        <ele>187.8</ele>
        <time>2024-06-13T04:57:08Z</time>
      </trkpt>
      <trkpt lat="43.60824" lon="1.3234">
        <ele>187.8</ele>
        <time>2024-06-13T04:57:09Z</time>
      </trkpt>
      <trkpt lat="43.60829" lon="1.32337">
        <ele>187.8</ele>
        <time>2024-06-13T04:57:10Z</time>
      </trkpt>
      <trkpt lat="43.60834" lon="1.32334">
        <ele>188</ele>
        <time>2024-06-13T04:57:11Z</time>
      </trkpt>
      <trkpt lat="43.60838" lon="1.32332">
        <ele>188</ele>
        <time>2024-06-13T04:57:12Z</time>
      </trkpt>
      <trkpt lat="43.60842" lon="1.3233">
        <ele>188</ele>
        <time>2024-06-13T04:57:13Z</time>
      </trkpt>
      <trkpt lat="43.60845" lon="1.32328">
        <ele>188</ele>
        <time>2024-06-13T04:57:14Z</time>
      </trkpt>
      <trkpt lat="43.60849" lon="1.32325">
        <ele>188.2</ele>
        <time>2024-06-13T04:57:15Z</time>
      </trkpt>
      <trkpt lat="43.60852" lon="1.32323">
        <ele>188.2</ele>
        <time>2024-06-13T04:57:16Z</time>
      </trkpt>
      <trkpt lat="43.60855" lon="1.32321">
        <ele>188.2</ele>
        <time>2024-06-13T04:57:17Z</time>
      </trkpt>
      <trkpt lat="43.60859" lon="1.32319">
        <ele>188.2</ele>
        <time>2024-06-13T04:57:18Z</time>
      </trkpt>
      <trkpt lat="43.60863" lon="1.32316">
        <ele>188.2</ele>
        <time>2024-06-13T04:57:19Z</time>
      </trkpt>
      <trkpt lat="43.60868" lon="1.32315">
        <ele>188.4</ele>
        <time>2024-06-13T04:57:20Z</time>
      </trkpt>
      <trkpt lat="43.60873" lon="1.32315">
        <ele>188.4</ele>
        <time>2024-06-13T04:57:21Z</time>
      </trkpt>
      <trkpt lat="43.60878" lon="1.32316">
        <ele>188.4</ele>
        <time>2024-06-13T04:57:22Z</time>
      </trkpt>
      <trkpt lat="43.60884" lon="1.32317">
        <ele>188.4</ele>
        <time>2024-06-13T04:57:23Z</time>
      </trkpt>
      <trkpt lat="43.6089" lon="1.32317">
        <ele>188.4</ele>
        <time>2024-06-13T04:57:24Z</time>
      </trkpt>
      <trkpt lat="43.60896" lon="1.32315">
        <ele>188.2</ele>
        <time>2024-06-13T04:57:25Z</time>
      </trkpt>
      <trkpt lat="43.60902" lon="1.32313">
        <ele>188.2</ele>
        <time>2024-06-13T04:57:26Z</time>
      </trkpt>
      <trkpt lat="43.60908" lon="1.32311">
        <ele>188.2</ele>
        <time>2024-06-13T04:57:27Z</time>
      </trkpt>
      <trkpt lat="43.60913" lon="1.32308">
        <ele>188.2</ele>
        <time>2024-06-13T04:57:28Z</time>
      </trkpt>
      <trkpt lat="43.60917" lon="1.32306">
        <ele>188.2</ele>
        <time>2024-06-13T04:57:29Z</time>
      </trkpt>
      <trkpt lat="43.60922" lon="1.32303">
        <ele>188.2</ele>
        <time>2024-06-13T04:57:30Z</time>
      </trkpt>
      <trkpt lat="43.60926" lon="1.32301">
        <ele>188.2</ele>
        <time>2024-06-13T04:57:31Z</time>
      </trkpt>
      <trkpt lat="43.6093" lon="1.32299">
        <ele>188.2</ele>
        <time>2024-06-13T04:57:32Z</time>
      </trkpt>
      <trkpt lat="43.60934" lon="1.32298">
        <ele>188.4</ele>
        <time>2024-06-13T04:57:33Z</time>
      </trkpt>
      <trkpt lat="43.60937" lon="1.32297">
        <ele>188.8</ele>
        <time>2024-06-13T04:57:34Z</time>
      </trkpt>
      <trkpt lat="43.60938" lon="1.32299">
        <ele>189</ele>
        <time>2024-06-13T04:57:35Z</time>
      </trkpt>
      <trkpt lat="43.60939" lon="1.32303">
        <ele>189.4</ele>
        <time>2024-06-13T04:57:36Z</time>
      </trkpt>
      <trkpt lat="43.6094" lon="1.32308">
        <ele>190.4</ele>
        <time>2024-06-13T04:57:37Z</time>
      </trkpt>
      <trkpt lat="43.60941" lon="1.32312">
        <ele>191</ele>
        <time>2024-06-13T04:57:38Z</time>
      </trkpt>
      <trkpt lat="43.60942" lon="1.32317">
        <ele>191.6</ele>
        <time>2024-06-13T04:57:39Z</time>
      </trkpt>
      <trkpt lat="43.60942" lon="1.32321">
        <ele>191.8</ele>
        <time>2024-06-13T04:57:40Z</time>
      </trkpt>
      <trkpt lat="43.6094" lon="1.32323">
        <ele>192.4</ele>
        <time>2024-06-13T04:57:41Z</time>
      </trkpt>
      <trkpt lat="43.60936" lon="1.32325">
        <ele>192.6</ele>
        <time>2024-06-13T04:57:42Z</time>
      </trkpt>
      <trkpt lat="43.60932" lon="1.32327">
        <ele>192.6</ele>
        <time>2024-06-13T04:57:43Z</time>
      </trkpt>
      <trkpt lat="43.60926" lon="1.3233">
        <ele>192.6</ele>
        <time>2024-06-13T04:57:44Z</time>
      </trkpt>
      <trkpt lat="43.6092" lon="1.32333">
        <ele>192.6</ele>
        <time>2024-06-13T04:57:45Z</time>
      </trkpt>
      <trkpt lat="43.60913" lon="1.32337">
        <ele>192.6</ele>
        <time>2024-06-13T04:57:46Z</time>
      </trkpt>
      <trkpt lat="43.60905" lon="1.32341">
        <ele>192.4</ele>
        <time>2024-06-13T04:57:47Z</time>
      </trkpt>
      <trkpt lat="43.60898" lon="1.32344">
        <ele>192.4</ele>
        <time>2024-06-13T04:57:48Z</time>
      </trkpt>
      <trkpt lat="43.60892" lon="1.32348">
        <ele>192</ele>
        <time>2024-06-13T04:57:49Z</time>
      </trkpt>
      <trkpt lat="43.60886" lon="1.32351">
        <ele>191.2</ele>
        <time>2024-06-13T04:57:50Z</time>
      </trkpt>
      <trkpt lat="43.60881" lon="1.32353">
        <ele>190.8</ele>
        <time>2024-06-13T04:57:51Z</time>
      </trkpt>
      <trkpt lat="43.60876" lon="1.32356">
        <ele>189.8</ele>
        <time>2024-06-13T04:57:52Z</time>
      </trkpt>
      <trkpt lat="43.60871" lon="1.3236">
        <ele>189.4</ele>
        <time>2024-06-13T04:57:53Z</time>
      </trkpt>
      <trkpt lat="43.6087" lon="1.32366">
        <ele>188.8</ele>
        <time>2024-06-13T04:57:54Z</time>
      </trkpt>
      <trkpt lat="43.6087" lon="1.32373">
        <ele>188.2</ele>
        <time>2024-06-13T04:57:55Z</time>
      </trkpt>
      <trkpt lat="43.60871" lon="1.3238">
        <ele>188.2</ele>
        <time>2024-06-13T04:57:56Z</time>
      </trkpt>
      <trkpt lat="43.60873" lon="1.32388">
        <ele>187.8</ele>
        <time>2024-06-13T04:57:57Z</time>
      </trkpt>
      <trkpt lat="43.60875" lon="1.32395">
        <ele>187.8</ele>
        <time>2024-06-13T04:57:58Z</time>
      </trkpt>
      <trkpt lat="43.60876" lon="1.32402">
        <ele>187.8</ele>
        <time>2024-06-13T04:57:59Z</time>
      </trkpt>
      <trkpt lat="43.60878" lon="1.32409">
        <ele>187.6</ele>
        <time>2024-06-13T04:58:00Z</time>
      </trkpt>
      <trkpt lat="43.6088" lon="1.32416">
        <ele>187.6</ele>
        <time>2024-06-13T04:58:01Z</time>
      </trkpt>
      <trkpt lat="43.60882" lon="1.32422">
        <ele>187.6</ele>
        <time>2024-06-13T04:58:02Z</time>
      </trkpt>
      <trkpt lat="43.60885" lon="1.32427">
        <ele>187.6</ele>
        <time>2024-06-13T04:58:03Z</time>
      </trkpt>
      <trkpt lat="43.60887" lon="1.32433">
        <ele>187.2</ele>
        <time>2024-06-13T04:58:04Z</time>
      </trkpt>
      <trkpt lat="43.60888" lon="1.3244">
        <ele>187.2</ele>
        <time>2024-06-13T04:58:05Z</time>
      </trkpt>
      <trkpt lat="43.60889" lon="1.32448">
        <ele>187.2</ele>
        <time>2024-06-13T04:58:06Z</time>
      </trkpt>
      <trkpt lat="43.6089" lon="1.32455">
        <ele>187.2</ele>
        <time>2024-06-13T04:58:07Z</time>
      </trkpt>
      <trkpt lat="43.60894" lon="1.32461">
        <ele>187.2</ele>
        <time>2024-06-13T04:58:08Z</time>
      </trkpt>
      <trkpt lat="43.60898" lon="1.32467">
        <ele>187.2</ele>
        <time>2024-06-13T04:58:09Z</time>
      </trkpt>
      <trkpt lat="43.60902" lon="1.32473">
        <ele>187.2</ele>
        <time>2024-06-13T04:58:10Z</time>
      </trkpt>
      <trkpt lat="43.60906" lon="1.32478">
        <ele>187.2</ele>
        <time>2024-06-13T04:58:11Z</time>
      </trkpt>
      <trkpt lat="43.6091" lon="1.32483">
        <ele>187.2</ele>
        <time>2024-06-13T04:58:12Z</time>
      </trkpt>
      <trkpt lat="43.60914" lon="1.32488">
        <ele>187.2</ele>
        <time>2024-06-13T04:58:13Z</time>
      </trkpt>
      <trkpt lat="43.60917" lon="1.32492">
        <ele>187.2</ele>
        <time>2024-06-13T04:58:14Z</time>
      </trkpt>
      <trkpt lat="43.60919" lon="1.32497">
        <ele>187.2</ele>
        <time>2024-06-13T04:58:15Z</time>
      </trkpt>
      <trkpt lat="43.60918" lon="1.32501">
        <ele>187.2</ele>
        <time>2024-06-13T04:58:16Z</time>
      </trkpt>
      <trkpt lat="43.60917" lon="1.32505">
        <ele>187.2</ele>
        <time>2024-06-13T04:58:17Z</time>
      </trkpt>
      <trkpt lat="43.60916" lon="1.32508">
        <ele>187.2</ele>
        <time>2024-06-13T04:58:18Z</time>
      </trkpt>
      <trkpt lat="43.60915" lon="1.32512">
        <ele>187.2</ele>
        <time>2024-06-13T04:58:19Z</time>
      </trkpt>
      <trkpt lat="43.60913" lon="1.32517">
        <ele>187.2</ele>
        <time>2024-06-13T04:58:20Z</time>
      </trkpt>
      <trkpt lat="43.60911" lon="1.32522">
        <ele>187.2</ele>
        <time>2024-06-13T04:58:21Z</time>
      </trkpt>
      <trkpt lat="43.6091" lon="1.32527">
        <ele>187.2</ele>
        <time>2024-06-13T04:58:22Z</time>
      </trkpt>
      <trkpt lat="43.60911" lon="1.32533">
        <ele>187.2</ele>
        <time>2024-06-13T04:58:23Z</time>
      </trkpt>
      <trkpt lat="43.60913" lon="1.32539">
        <ele>187.2</ele>
        <time>2024-06-13T04:58:24Z</time>
      </trkpt>
      <trkpt lat="43.60916" lon="1.32543">
        <ele>187.2</ele>
        <time>2024-06-13T04:58:25Z</time>
      </trkpt>
      <trkpt lat="43.6092" lon="1.32547">
        <ele>187.2</ele>
        <time>2024-06-13T04:58:26Z</time>
      </trkpt>
      <trkpt lat="43.60925" lon="1.32551">
        <ele>187.2</ele>
        <time>2024-06-13T04:58:27Z</time>
      </trkpt>
      <trkpt lat="43.60929" lon="1.32554">
        <ele>187.2</ele>
        <time>2024-06-13T04:58:28Z</time>
      </trkpt>
      <trkpt lat="43.60934" lon="1.32557">
        <ele>187.2</ele>
        <time>2024-06-13T04:58:29Z</time>
      </trkpt>
      <trkpt lat="43.60938" lon="1.32559">
        <ele>187.2</ele>
        <time>2024-06-13T04:58:30Z</time>
      </trkpt>
      <trkpt lat="43.60942" lon="1.32561">
        <ele>187.2</ele>
        <time>2024-06-13T04:58:31Z</time>
      </trkpt>
      <trkpt lat="43.60943" lon="1.32563">
        <ele>187.2</ele>
        <time>2024-06-13T04:58:32Z</time>
      </trkpt>
      <trkpt lat="43.60944" lon="1.32566">
        <ele>187.2</ele>
        <time>2024-06-13T04:58:33Z</time>
      </trkpt>
      <trkpt lat="43.60944" lon="1.3257">
        <ele>187.2</ele>
        <time>2024-06-13T04:58:34Z</time>
      </trkpt>
      <trkpt lat="43.60943" lon="1.32574">
        <ele>187.2</ele>
        <time>2024-06-13T04:58:35Z</time>
      </trkpt>
      <trkpt lat="43.60941" lon="1.32578">
        <ele>187.2</ele>
        <time>2024-06-13T04:58:36Z</time>
      </trkpt>
      <trkpt lat="43.60938" lon="1.32582">
        <ele>187.2</ele>
        <time>2024-06-13T04:58:37Z</time>
      </trkpt>
      <trkpt lat="43.60935" lon="1.32587">
        <ele>187.2</ele>
        <time>2024-06-13T04:58:38Z</time>
      </trkpt>
      <trkpt lat="43.60932" lon="1.32592">
        <ele>187.2</ele>
        <time>2024-06-13T04:58:39Z</time>
      </trkpt>
      <trkpt lat="43.60928" lon="1.32597">
        <ele>187.2</ele>
        <time>2024-06-13T04:58:40Z</time>
      </trkpt>
      <trkpt lat="43.60925" lon="1.32603">
        <ele>187.2</ele>
        <time>2024-06-13T04:58:41Z</time>
      </trkpt>
      <trkpt lat="43.60922" lon="1.32608">
        <ele>187.2</ele>
        <time>2024-06-13T04:58:42Z</time>
      </trkpt>
      <trkpt lat="43.60918" lon="1.32614">
        <ele>187.2</ele>
        <time>2024-06-13T04:58:43Z</time>
      </trkpt>
      <trkpt lat="43.60915" lon="1.32619">
        <ele>187</ele>
        <time>2024-06-13T04:58:44Z</time>
      </trkpt>
      <trkpt lat="43.60911" lon="1.32624">
        <ele>187</ele>
        <time>2024-06-13T04:58:45Z</time>
      </trkpt>
      <trkpt lat="43.60906" lon="1.32629">
        <ele>187</ele>
        <time>2024-06-13T04:58:46Z</time>
      </trkpt>
      <trkpt lat="43.60899" lon="1.32632">
        <ele>187</ele>
        <time>2024-06-13T04:58:47Z</time>
      </trkpt>
      <trkpt lat="43.60893" lon="1.32636">
        <ele>187</ele>
        <time>2024-06-13T04:58:48Z</time>
      </trkpt>
      <trkpt lat="43.60888" lon="1.32639">
        <ele>187</ele>
        <time>2024-06-13T04:58:49Z</time>
      </trkpt>
      <trkpt lat="43.60882" lon="1.32644">
        <ele>187</ele>
        <time>2024-06-13T04:58:50Z</time>
      </trkpt>
      <trkpt lat="43.60877" lon="1.32649">
        <ele>187</ele>
        <time>2024-06-13T04:58:51Z</time>
      </trkpt>
      <trkpt lat="43.60871" lon="1.32655">
        <ele>187</ele>
        <time>2024-06-13T04:58:52Z</time>
      </trkpt>
      <trkpt lat="43.60867" lon="1.32662">
        <ele>187</ele>
        <time>2024-06-13T04:58:53Z</time>
      </trkpt>
      <trkpt lat="43.60863" lon="1.32669">
        <ele>187</ele>
        <time>2024-06-13T04:58:54Z</time>
      </trkpt>
      <trkpt lat="43.6086" lon="1.32677">
        <ele>187</ele>
        <time>2024-06-13T04:58:55Z</time>
      </trkpt>
      <trkpt lat="43.60858" lon="1.32687">
        <ele>187</ele>
        <time>2024-06-13T04:58:56Z</time>
      </trkpt>
      <trkpt lat="43.60858" lon="1.32694">
        <ele>187</ele>
        <time>2024-06-13T04:58:57Z</time>
      </trkpt>
      <trkpt lat="43.60858" lon="1.32704">
        <ele>187</ele>
        <time>2024-06-13T04:58:58Z</time>
      </trkpt>
      <trkpt lat="43.6086" lon="1.32712">
        <ele>187</ele>
        <time>2024-06-13T04:58:59Z</time>
      </trkpt>
      <trkpt lat="43.60863" lon="1.32721">
        <ele>187</ele>
        <time>2024-06-13T04:59:00Z</time>
      </trkpt>
      <trkpt lat="43.60867" lon="1.32729">
        <ele>187</ele>
        <time>2024-06-13T04:59:01Z</time>
      </trkpt>
      <trkpt lat="43.60871" lon="1.32735">
        <ele>187</ele>
        <time>2024-06-13T04:59:02Z</time>
      </trkpt>
      <trkpt lat="43.60876" lon="1.3274">
        <ele>187</ele>
        <time>2024-06-13T04:59:03Z</time>
      </trkpt>
      <trkpt lat="43.60882" lon="1.32744">
        <ele>187</ele>
        <time>2024-06-13T04:59:04Z</time>
      </trkpt>
      <trkpt lat="43.60889" lon="1.32747">
        <ele>187.2</ele>
        <time>2024-06-13T04:59:05Z</time>
      </trkpt>
      <trkpt lat="43.60895" lon="1.32747">
        <ele>187.2</ele>
        <time>2024-06-13T04:59:06Z</time>
      </trkpt>
      <trkpt lat="43.60902" lon="1.32747">
        <ele>187.2</ele>
        <time>2024-06-13T04:59:07Z</time>
      </trkpt>
      <trkpt lat="43.60908" lon="1.32746">
        <ele>187.2</ele>
        <time>2024-06-13T04:59:08Z</time>
      </trkpt>
      <trkpt lat="43.60915" lon="1.32745">
        <ele>187.2</ele>
        <time>2024-06-13T04:59:09Z</time>
      </trkpt>
      <trkpt lat="43.60921" lon="1.32746">
        <ele>187.2</ele>
        <time>2024-06-13T04:59:10Z</time>
      </trkpt>
      <trkpt lat="43.60927" lon="1.32749">
        <ele>187.2</ele>
        <time>2024-06-13T04:59:11Z</time>
      </trkpt>
      <trkpt lat="43.60933" lon="1.32754">
        <ele>187.2</ele>
        <time>2024-06-13T04:59:12Z</time>
      </trkpt>
      <trkpt lat="43.60938" lon="1.3276">
        <ele>187.2</ele>
        <time>2024-06-13T04:59:13Z</time>
      </trkpt>
      <trkpt lat="43.60942" lon="1.32766">
        <ele>187.2</ele>
        <time>2024-06-13T04:59:14Z</time>
      </trkpt>
      <trkpt lat="43.60947" lon="1.32772">
        <ele>187.2</ele>
        <time>2024-06-13T04:59:15Z</time>
      </trkpt>
      <trkpt lat="43.60952" lon="1.32778">
        <ele>187.2</ele>
        <time>2024-06-13T04:59:16Z</time>
      </trkpt>
      <trkpt lat="43.60957" lon="1.32784">
        <ele>187.2</ele>
        <time>2024-06-13T04:59:17Z</time>
      </trkpt>
      <trkpt lat="43.60962" lon="1.3279">
        <ele>187.2</ele>
        <time>2024-06-13T04:59:18Z</time>
      </trkpt>
      <trkpt lat="43.60966" lon="1.32796">
        <ele>187.2</ele>
        <time>2024-06-13T04:59:19Z</time>
      </trkpt>
      <trkpt lat="43.60971" lon="1.32801">
        <ele>187.2</ele>
        <time>2024-06-13T04:59:20Z</time>
      </trkpt>
      <trkpt lat="43.60976" lon="1.32807">
        <ele>187.2</ele>
        <time>2024-06-13T04:59:21Z</time>
      </trkpt>
      <trkpt lat="43.60981" lon="1.32813">
        <ele>187.2</ele>
        <time>2024-06-13T04:59:22Z</time>
      </trkpt>
      <trkpt lat="43.60986" lon="1.32819">
        <ele>187.2</ele>
        <time>2024-06-13T04:59:23Z</time>
      </trkpt>
      <trkpt lat="43.60991" lon="1.32825">
        <ele>187.2</ele>
        <time>2024-06-13T04:59:24Z</time>
      </trkpt>
      <trkpt lat="43.60995" lon="1.32831">
        <ele>187.2</ele>
        <time>2024-06-13T04:59:25Z</time>
      </trkpt>
      <trkpt lat="43.61" lon="1.32837">
        <ele>187.2</ele>
        <time>2024-06-13T04:59:26Z</time>
      </trkpt>
      <trkpt lat="43.61004" lon="1.32843">
        <ele>187.2</ele>
        <time>2024-06-13T04:59:27Z</time>
      </trkpt>
      <trkpt lat="43.61009" lon="1.32848">
        <ele>187.2</ele>
        <time>2024-06-13T04:59:28Z</time>
      </trkpt>
      <trkpt lat="43.61014" lon="1.32854">
        <ele>187.2</ele>
        <time>2024-06-13T04:59:29Z</time>
      </trkpt>
      <trkpt lat="43.61018" lon="1.3286">
        <ele>187.6</ele>
        <time>2024-06-13T04:59:30Z</time>
      </trkpt>
      <trkpt lat="43.61022" lon="1.32866">
        <ele>187.6</ele>
        <time>2024-06-13T04:59:31Z</time>
      </trkpt>
      <trkpt lat="43.61027" lon="1.32872">
        <ele>187.6</ele>
        <time>2024-06-13T04:59:32Z</time>
      </trkpt>
      <trkpt lat="43.61031" lon="1.32878">
        <ele>187.6</ele>
        <time>2024-06-13T04:59:33Z</time>
      </trkpt>
      <trkpt lat="43.61036" lon="1.32884">
        <ele>187.6</ele>
        <time>2024-06-13T04:59:34Z</time>
      </trkpt>
      <trkpt lat="43.61041" lon="1.32889">
        <ele>187.6</ele>
        <time>2024-06-13T04:59:35Z</time>
      </trkpt>
      <trkpt lat="43.61046" lon="1.32895">
        <ele>187.6</ele>
        <time>2024-06-13T04:59:36Z</time>
      </trkpt>
      <trkpt lat="43.6105" lon="1.329">
        <ele>187.8</ele>
        <time>2024-06-13T04:59:37Z</time>
      </trkpt>
      <trkpt lat="43.61055" lon="1.32906">
        <ele>187.8</ele>
        <time>2024-06-13T04:59:38Z</time>
      </trkpt>
      <trkpt lat="43.6106" lon="1.32911">
        <ele>187.8</ele>
        <time>2024-06-13T04:59:39Z</time>
      </trkpt>
      <trkpt lat="43.61064" lon="1.32917">
        <ele>187.8</ele>
        <time>2024-06-13T04:59:40Z</time>
      </trkpt>
      <trkpt lat="43.61067" lon="1.32924">
        <ele>187.8</ele>
        <time>2024-06-13T04:59:41Z</time>
      </trkpt>
      <trkpt lat="43.61069" lon="1.32931">
        <ele>187.8</ele>
        <time>2024-06-13T04:59:42Z</time>
      </trkpt>
      <trkpt lat="43.61072" lon="1.32937">
        <ele>187.8</ele>
        <time>2024-06-13T04:59:43Z</time>
      </trkpt>
      <trkpt lat="43.61077" lon="1.32942">
        <ele>187.8</ele>
        <time>2024-06-13T04:59:44Z</time>
      </trkpt>
      <trkpt lat="43.61082" lon="1.32946">
        <ele>187.8</ele>
        <time>2024-06-13T04:59:45Z</time>
      </trkpt>
      <trkpt lat="43.61088" lon="1.3295">
        <ele>187.8</ele>
        <time>2024-06-13T04:59:46Z</time>
      </trkpt>
      <trkpt lat="43.61094" lon="1.32954">
        <ele>187.8</ele>
        <time>2024-06-13T04:59:47Z</time>
      </trkpt>
      <trkpt lat="43.61099" lon="1.32959">
        <ele>187.8</ele>
        <time>2024-06-13T04:59:48Z</time>
      </trkpt>
      <trkpt lat="43.61105" lon="1.32965">
        <ele>187.8</ele>
        <time>2024-06-13T04:59:49Z</time>
      </trkpt>
      <trkpt lat="43.6111" lon="1.32971">
        <ele>187.8</ele>
        <time>2024-06-13T04:59:50Z</time>
      </trkpt>
      <trkpt lat="43.61116" lon="1.32977">
        <ele>187.8</ele>
        <time>2024-06-13T04:59:51Z</time>
      </trkpt>
      <trkpt lat="43.61121" lon="1.32984">
        <ele>187.8</ele>
        <time>2024-06-13T04:59:52Z</time>
      </trkpt>
      <trkpt lat="43.61127" lon="1.32991">
        <ele>187.6</ele>
        <time>2024-06-13T04:59:53Z</time>
      </trkpt>
      <trkpt lat="43.61132" lon="1.32998">
        <ele>187.6</ele>
        <time>2024-06-13T04:59:54Z</time>
      </trkpt>
      <trkpt lat="43.61138" lon="1.33005">
        <ele>187</ele>
        <time>2024-06-13T04:59:55Z</time>
      </trkpt>
      <trkpt lat="43.61143" lon="1.33011">
        <ele>186.6</ele>
        <time>2024-06-13T04:59:56Z</time>
      </trkpt>
      <trkpt lat="43.61148" lon="1.33018">
        <ele>186.2</ele>
        <time>2024-06-13T04:59:57Z</time>
      </trkpt>
      <trkpt lat="43.61153" lon="1.33024">
        <ele>186</ele>
        <time>2024-06-13T04:59:58Z</time>
      </trkpt>
      <trkpt lat="43.61158" lon="1.33031">
        <ele>185.6</ele>
        <time>2024-06-13T04:59:59Z</time>
      </trkpt>
      <trkpt lat="43.61163" lon="1.33037">
        <ele>185.4</ele>
        <time>2024-06-13T05:00:00Z</time>
      </trkpt>
      <trkpt lat="43.61169" lon="1.33043">
        <ele>185.4</ele>
        <time>2024-06-13T05:00:01Z</time>
      </trkpt>
      <trkpt lat="43.61174" lon="1.3305">
        <ele>185.2</ele>
        <time>2024-06-13T05:00:02Z</time>
      </trkpt>
      <trkpt lat="43.61179" lon="1.33056">
        <ele>185.2</ele>
        <time>2024-06-13T05:00:03Z</time>
      </trkpt>
      <trkpt lat="43.61184" lon="1.33061">
        <ele>185.2</ele>
        <time>2024-06-13T05:00:04Z</time>
      </trkpt>
      <trkpt lat="43.6119" lon="1.33067">
        <ele>185.2</ele>
        <time>2024-06-13T05:00:05Z</time>
      </trkpt>
      <trkpt lat="43.61195" lon="1.33072">
        <ele>185</ele>
        <time>2024-06-13T05:00:06Z</time>
      </trkpt>
      <trkpt lat="43.612" lon="1.33076">
        <ele>185</ele>
        <time>2024-06-13T05:00:07Z</time>
      </trkpt>
      <trkpt lat="43.61206" lon="1.33081">
        <ele>185</ele>
        <time>2024-06-13T05:00:08Z</time>
      </trkpt>
      <trkpt lat="43.61211" lon="1.33085">
        <ele>185</ele>
        <time>2024-06-13T05:00:09Z</time>
      </trkpt>
      <trkpt lat="43.61217" lon="1.33089">
        <ele>185</ele>
        <time>2024-06-13T05:00:10Z</time>
      </trkpt>
      <trkpt lat="43.61223" lon="1.33093">
        <ele>185.2</ele>
        <time>2024-06-13T05:00:11Z</time>
      </trkpt>
      <trkpt lat="43.61228" lon="1.33095">
        <ele>185.2</ele>
        <time>2024-06-13T05:00:12Z</time>
      </trkpt>
      <trkpt lat="43.61234" lon="1.33098">
        <ele>185.4</ele>
        <time>2024-06-13T05:00:13Z</time>
      </trkpt>
      <trkpt lat="43.61239" lon="1.33102">
        <ele>185.4</ele>
        <time>2024-06-13T05:00:14Z</time>
      </trkpt>
      <trkpt lat="43.61245" lon="1.33106">
        <ele>185.6</ele>
        <time>2024-06-13T05:00:15Z</time>
      </trkpt>
      <trkpt lat="43.61249" lon="1.33111">
        <ele>185.6</ele>
        <time>2024-06-13T05:00:16Z</time>
      </trkpt>
      <trkpt lat="43.61252" lon="1.33119">
        <ele>185.8</ele>
        <time>2024-06-13T05:00:17Z</time>
      </trkpt>
      <trkpt lat="43.61255" lon="1.33126">
        <ele>185.8</ele>
        <time>2024-06-13T05:00:18Z</time>
      </trkpt>
      <trkpt lat="43.61257" lon="1.33135">
        <ele>185.8</ele>
        <time>2024-06-13T05:00:19Z</time>
      </trkpt>
      <trkpt lat="43.61259" lon="1.33143">
        <ele>186</ele>
        <time>2024-06-13T05:00:20Z</time>
      </trkpt>
      <trkpt lat="43.61261" lon="1.33151">
        <ele>186</ele>
        <time>2024-06-13T05:00:21Z</time>
      </trkpt>
      <trkpt lat="43.61263" lon="1.33159">
        <ele>186</ele>
        <time>2024-06-13T05:00:22Z</time>
      </trkpt>
      <trkpt lat="43.61266" lon="1.33167">
        <ele>186</ele>
        <time>2024-06-13T05:00:23Z</time>
      </trkpt>
      <trkpt lat="43.61269" lon="1.33174">
        <ele>186.2</ele>
        <time>2024-06-13T05:00:24Z</time>
      </trkpt>
      <trkpt lat="43.61274" lon="1.3318">
        <ele>186.2</ele>
        <time>2024-06-13T05:00:25Z</time>
      </trkpt>
      <trkpt lat="43.6128" lon="1.33185">
        <ele>186.2</ele>
        <time>2024-06-13T05:00:26Z</time>
      </trkpt>
      <trkpt lat="43.61286" lon="1.33187">
        <ele>186.2</ele>
        <time>2024-06-13T05:00:27Z</time>
      </trkpt>
      <trkpt lat="43.61293" lon="1.33188">
        <ele>186.2</ele>
        <time>2024-06-13T05:00:28Z</time>
      </trkpt>
      <trkpt lat="43.61299" lon="1.33188">
        <ele>186.2</ele>
        <time>2024-06-13T05:00:29Z</time>
      </trkpt>
      <trkpt lat="43.61305" lon="1.33185">
        <ele>186.2</ele>
        <time>2024-06-13T05:00:30Z</time>
      </trkpt>
      <trkpt lat="43.61311" lon="1.33181">
        <ele>186.2</ele>
        <time>2024-06-13T05:00:31Z</time>
      </trkpt>
      <trkpt lat="43.61316" lon="1.33175">
        <ele>186.2</ele>
        <time>2024-06-13T05:00:32Z</time>
      </trkpt>
      <trkpt lat="43.6132" lon="1.33168">
        <ele>186.2</ele>
        <time>2024-06-13T05:00:33Z</time>
      </trkpt>
      <trkpt lat="43.61325" lon="1.33161">
        <ele>186.2</ele>
        <time>2024-06-13T05:00:34Z</time>
      </trkpt>
      <trkpt lat="43.61329" lon="1.33154">
        <ele>186.2</ele>
        <time>2024-06-13T05:00:35Z</time>
      </trkpt>
      <trkpt lat="43.61333" lon="1.33148">
        <ele>186.2</ele>
        <time>2024-06-13T05:00:36Z</time>
      </trkpt>
      <trkpt lat="43.61338" lon="1.33142">
        <ele>186.2</ele>
        <time>2024-06-13T05:00:37Z</time>
      </trkpt>
      <trkpt lat="43.61344" lon="1.33138">
        <ele>186</ele>
        <time>2024-06-13T05:00:38Z</time>
      </trkpt>
      <trkpt lat="43.6135" lon="1.33137">
        <ele>186</ele>
        <time>2024-06-13T05:00:39Z</time>
      </trkpt>
      <trkpt lat="43.61357" lon="1.33137">
        <ele>186</ele>
        <time>2024-06-13T05:00:40Z</time>
      </trkpt>
      <trkpt lat="43.61363" lon="1.33138">
        <ele>186</ele>
        <time>2024-06-13T05:00:41Z</time>
      </trkpt>
      <trkpt lat="43.6137" lon="1.33138">
        <ele>186</ele>
        <time>2024-06-13T05:00:42Z</time>
      </trkpt>
      <trkpt lat="43.61377" lon="1.3314">
        <ele>186</ele>
        <time>2024-06-13T05:00:43Z</time>
      </trkpt>
      <trkpt lat="43.61383" lon="1.33141">
        <ele>186</ele>
        <time>2024-06-13T05:00:44Z</time>
      </trkpt>
      <trkpt lat="43.61389" lon="1.33143">
        <ele>186</ele>
        <time>2024-06-13T05:00:45Z</time>
      </trkpt>
      <trkpt lat="43.61396" lon="1.33145">
        <ele>186</ele>
        <time>2024-06-13T05:00:46Z</time>
      </trkpt>
      <trkpt lat="43.61402" lon="1.33146">
        <ele>186</ele>
        <time>2024-06-13T05:00:47Z</time>
      </trkpt>
      <trkpt lat="43.61408" lon="1.33149">
        <ele>186</ele>
        <time>2024-06-13T05:00:48Z</time>
      </trkpt>
      <trkpt lat="43.61414" lon="1.33152">
        <ele>186</ele>
        <time>2024-06-13T05:00:49Z</time>
      </trkpt>
      <trkpt lat="43.6142" lon="1.33155">
        <ele>186</ele>
        <time>2024-06-13T05:00:50Z</time>
      </trkpt>
      <trkpt lat="43.61426" lon="1.33158">
        <ele>186.2</ele>
        <time>2024-06-13T05:00:51Z</time>
      </trkpt>
      <trkpt lat="43.61432" lon="1.33162">
        <ele>186.2</ele>
        <time>2024-06-13T05:00:52Z</time>
      </trkpt>
      <trkpt lat="43.61438" lon="1.33166">
        <ele>186.2</ele>
        <time>2024-06-13T05:00:53Z</time>
      </trkpt>
      <trkpt lat="43.61444" lon="1.3317">
        <ele>186.6</ele>
        <time>2024-06-13T05:00:54Z</time>
      </trkpt>
      <trkpt lat="43.6145" lon="1.33174">
        <ele>186.6</ele>
        <time>2024-06-13T05:00:55Z</time>
      </trkpt>
      <trkpt lat="43.61455" lon="1.33178">
        <ele>186.6</ele>
        <time>2024-06-13T05:00:56Z</time>
      </trkpt>
      <trkpt lat="43.61461" lon="1.33182">
        <ele>186.6</ele>
        <time>2024-06-13T05:00:57Z</time>
      </trkpt>
      <trkpt lat="43.61467" lon="1.33186">
        <ele>186.6</ele>
        <time>2024-06-13T05:00:58Z</time>
      </trkpt>
      <trkpt lat="43.61472" lon="1.3319">
        <ele>186.6</ele>
        <time>2024-06-13T05:00:59Z</time>
      </trkpt>
      <trkpt lat="43.61478" lon="1.33194">
        <ele>186.6</ele>
        <time>2024-06-13T05:01:00Z</time>
      </trkpt>
      <trkpt lat="43.61484" lon="1.33198">
        <ele>186.6</ele>
        <time>2024-06-13T05:01:01Z</time>
      </trkpt>
      <trkpt lat="43.6149" lon="1.33202">
        <ele>186.6</ele>
        <time>2024-06-13T05:01:02Z</time>
      </trkpt>
      <trkpt lat="43.61496" lon="1.33206">
        <ele>186.6</ele>
        <time>2024-06-13T05:01:03Z</time>
      </trkpt>
      <trkpt lat="43.61503" lon="1.3321">
        <ele>186.6</ele>
        <time>2024-06-13T05:01:04Z</time>
      </trkpt>
      <trkpt lat="43.61509" lon="1.33214">
        <ele>186.6</ele>
        <time>2024-06-13T05:01:05Z</time>
      </trkpt>
      <trkpt lat="43.61515" lon="1.33218">
        <ele>186.6</ele>
        <time>2024-06-13T05:01:06Z</time>
      </trkpt>
      <trkpt lat="43.61521" lon="1.33222">
        <ele>186.6</ele>
        <time>2024-06-13T05:01:07Z</time>
      </trkpt>
      <trkpt lat="43.61527" lon="1.33226">
        <ele>186.6</ele>
        <time>2024-06-13T05:01:08Z</time>
      </trkpt>
      <trkpt lat="43.61533" lon="1.3323">
        <ele>186.6</ele>
        <time>2024-06-13T05:01:09Z</time>
      </trkpt>
      <trkpt lat="43.6154" lon="1.33234">
        <ele>186.6</ele>
        <time>2024-06-13T05:01:10Z</time>
      </trkpt>
      <trkpt lat="43.61546" lon="1.33237">
        <ele>186.6</ele>
        <time>2024-06-13T05:01:11Z</time>
      </trkpt>
      <trkpt lat="43.61553" lon="1.33241">
        <ele>186.6</ele>
        <time>2024-06-13T05:01:12Z</time>
      </trkpt>
      <trkpt lat="43.61559" lon="1.33244">
        <ele>186.6</ele>
        <time>2024-06-13T05:01:13Z</time>
      </trkpt>
      <trkpt lat="43.61565" lon="1.33247">
        <ele>186.6</ele>
        <time>2024-06-13T05:01:14Z</time>
      </trkpt>
      <trkpt lat="43.61572" lon="1.3325">
        <ele>186.2</ele>
        <time>2024-06-13T05:01:15Z</time>
      </trkpt>
      <trkpt lat="43.61577" lon="1.33254">
        <ele>186.2</ele>
        <time>2024-06-13T05:01:16Z</time>
      </trkpt>
      <trkpt lat="43.61581" lon="1.33259">
        <ele>186</ele>
        <time>2024-06-13T05:01:17Z</time>
      </trkpt>
      <trkpt lat="43.61586" lon="1.33265">
        <ele>186</ele>
        <time>2024-06-13T05:01:18Z</time>
      </trkpt>
      <trkpt lat="43.6159" lon="1.33272">
        <ele>185.8</ele>
        <time>2024-06-13T05:01:19Z</time>
      </trkpt>
      <trkpt lat="43.61595" lon="1.33277">
        <ele>185.8</ele>
        <time>2024-06-13T05:01:20Z</time>
      </trkpt>
      <trkpt lat="43.616" lon="1.33282">
        <ele>185.8</ele>
        <time>2024-06-13T05:01:21Z</time>
      </trkpt>
      <trkpt lat="43.61606" lon="1.33285">
        <ele>185.6</ele>
        <time>2024-06-13T05:01:22Z</time>
      </trkpt>
      <trkpt lat="43.61612" lon="1.33288">
        <ele>185.6</ele>
        <time>2024-06-13T05:01:23Z</time>
      </trkpt>
      <trkpt lat="43.61618" lon="1.3329">
        <ele>185.6</ele>
        <time>2024-06-13T05:01:24Z</time>
      </trkpt>
      <trkpt lat="43.61624" lon="1.33292">
        <ele>185.6</ele>
        <time>2024-06-13T05:01:25Z</time>
      </trkpt>
      <trkpt lat="43.6163" lon="1.33293">
        <ele>185.6</ele>
        <time>2024-06-13T05:01:26Z</time>
      </trkpt>
      <trkpt lat="43.61636" lon="1.33294">
        <ele>185.6</ele>
        <time>2024-06-13T05:01:27Z</time>
      </trkpt>
      <trkpt lat="43.61642" lon="1.33297">
        <ele>185.6</ele>
        <time>2024-06-13T05:01:28Z</time>
      </trkpt>
      <trkpt lat="43.61647" lon="1.33301">
        <ele>185.6</ele>
        <time>2024-06-13T05:01:29Z</time>
      </trkpt>
      <trkpt lat="43.61652" lon="1.33306">
        <ele>185.6</ele>
        <time>2024-06-13T05:01:30Z</time>
      </trkpt>
      <trkpt lat="43.61656" lon="1.33311">
        <ele>185.8</ele>
        <time>2024-06-13T05:01:31Z</time>
      </trkpt>
      <trkpt lat="43.61662" lon="1.33313">
        <ele>185.8</ele>
        <time>2024-06-13T05:01:32Z</time>
      </trkpt>
      <trkpt lat="43.61668" lon="1.33313">
        <ele>185.8</ele>
        <time>2024-06-13T05:01:33Z</time>
      </trkpt>
      <trkpt lat="43.61674" lon="1.33312">
        <ele>185.8</ele>
        <time>2024-06-13T05:01:34Z</time>
      </trkpt>
      <trkpt lat="43.6168" lon="1.33312">
        <ele>185.8</ele>
        <time>2024-06-13T05:01:35Z</time>
      </trkpt>
      <trkpt lat="43.61686" lon="1.33314">
        <ele>185.8</ele>
        <time>2024-06-13T05:01:36Z</time>
      </trkpt>
      <trkpt lat="43.61692" lon="1.33318">
        <ele>185.8</ele>
        <time>2024-06-13T05:01:37Z</time>
      </trkpt>
      <trkpt lat="43.61697" lon="1.33321">
        <ele>185.8</ele>
        <time>2024-06-13T05:01:38Z</time>
      </trkpt>
      <trkpt lat="43.61703" lon="1.33324">
        <ele>186</ele>
        <time>2024-06-13T05:01:39Z</time>
      </trkpt>
      <trkpt lat="43.61709" lon="1.33327">
        <ele>186</ele>
        <time>2024-06-13T05:01:40Z</time>
      </trkpt>
      <trkpt lat="43.61714" lon="1.3333">
        <ele>186</ele>
        <time>2024-06-13T05:01:41Z</time>
      </trkpt>
      <trkpt lat="43.6172" lon="1.33333">
        <ele>186</ele>
        <time>2024-06-13T05:01:42Z</time>
      </trkpt>
      <trkpt lat="43.61726" lon="1.33336">
        <ele>186</ele>
        <time>2024-06-13T05:01:43Z</time>
      </trkpt>
      <trkpt lat="43.61732" lon="1.3334">
        <ele>186.2</ele>
        <time>2024-06-13T05:01:44Z</time>
      </trkpt>
      <trkpt lat="43.61738" lon="1.33343">
        <ele>186.2</ele>
        <time>2024-06-13T05:01:45Z</time>
      </trkpt>
      <trkpt lat="43.61744" lon="1.33346">
        <ele>186.2</ele>
        <time>2024-06-13T05:01:46Z</time>
      </trkpt>
      <trkpt lat="43.6175" lon="1.3335">
        <ele>186.2</ele>
        <time>2024-06-13T05:01:47Z</time>
      </trkpt>
      <trkpt lat="43.61756" lon="1.33353">
        <ele>186.2</ele>
        <time>2024-06-13T05:01:48Z</time>
      </trkpt>
      <trkpt lat="43.61761" lon="1.33357">
        <ele>186.2</ele>
        <time>2024-06-13T05:01:49Z</time>
      </trkpt>
      <trkpt lat="43.61767" lon="1.3336">
        <ele>186.2</ele>
        <time>2024-06-13T05:01:50Z</time>
      </trkpt>
      <trkpt lat="43.61773" lon="1.33363">
        <ele>186.2</ele>
        <time>2024-06-13T05:01:51Z</time>
      </trkpt>
      <trkpt lat="43.61779" lon="1.33366">
        <ele>186.2</ele>
        <time>2024-06-13T05:01:52Z</time>
      </trkpt>
      <trkpt lat="43.61785" lon="1.33369">
        <ele>186.2</ele>
        <time>2024-06-13T05:01:53Z</time>
      </trkpt>
      <trkpt lat="43.6179" lon="1.33372">
        <ele>186.2</ele>
        <time>2024-06-13T05:01:54Z</time>
      </trkpt>
      <trkpt lat="43.61796" lon="1.33375">
        <ele>186.4</ele>
        <time>2024-06-13T05:01:55Z</time>
      </trkpt>
      <trkpt lat="43.61802" lon="1.33378">
        <ele>186.4</ele>
        <time>2024-06-13T05:01:56Z</time>
      </trkpt>
      <trkpt lat="43.61807" lon="1.33381">
        <ele>186.4</ele>
        <time>2024-06-13T05:01:57Z</time>
      </trkpt>
      <trkpt lat="43.61812" lon="1.33384">
        <ele>186.4</ele>
        <time>2024-06-13T05:01:58Z</time>
      </trkpt>
      <trkpt lat="43.61819" lon="1.33389">
        <ele>186.4</ele>
        <time>2024-06-13T05:01:59Z</time>
      </trkpt>
      <trkpt lat="43.61824" lon="1.33393">
        <ele>186.4</ele>
        <time>2024-06-13T05:02:00Z</time>
      </trkpt>
      <trkpt lat="43.61827" lon="1.33397">
        <ele>186.4</ele>
        <time>2024-06-13T05:02:01Z</time>
      </trkpt>
      <trkpt lat="43.61831" lon="1.33403">
        <ele>186.2</ele>
        <time>2024-06-13T05:02:02Z</time>
      </trkpt>
      <trkpt lat="43.61834" lon="1.3341">
        <ele>186.2</ele>
        <time>2024-06-13T05:02:03Z</time>
      </trkpt>
      <trkpt lat="43.61837" lon="1.33417">
        <ele>186.2</ele>
        <time>2024-06-13T05:02:04Z</time>
      </trkpt>
      <trkpt lat="43.61841" lon="1.33427">
        <ele>186.2</ele>
        <time>2024-06-13T05:02:05Z</time>
      </trkpt>
      <trkpt lat="43.61843" lon="1.33433">
        <ele>186</ele>
        <time>2024-06-13T05:02:06Z</time>
      </trkpt>
      <trkpt lat="43.61847" lon="1.3344">
        <ele>186</ele>
        <time>2024-06-13T05:02:07Z</time>
      </trkpt>
      <trkpt lat="43.61851" lon="1.33447">
        <ele>185.8</ele>
        <time>2024-06-13T05:02:08Z</time>
      </trkpt>
      <trkpt lat="43.61855" lon="1.33454">
        <ele>185.6</ele>
        <time>2024-06-13T05:02:09Z</time>
      </trkpt>
      <trkpt lat="43.6186" lon="1.33461">
        <ele>185.6</ele>
        <time>2024-06-13T05:02:10Z</time>
      </trkpt>
      <trkpt lat="43.61865" lon="1.3347">
        <ele>185.4</ele>
        <time>2024-06-13T05:02:11Z</time>
      </trkpt>
      <trkpt lat="43.61869" lon="1.33477">
        <ele>185.4</ele>
        <time>2024-06-13T05:02:12Z</time>
      </trkpt>
      <trkpt lat="43.61873" lon="1.33483">
        <ele>185.2</ele>
        <time>2024-06-13T05:02:13Z</time>
      </trkpt>
      <trkpt lat="43.61877" lon="1.33491">
        <ele>185.2</ele>
        <time>2024-06-13T05:02:14Z</time>
      </trkpt>
      <trkpt lat="43.61881" lon="1.33499">
        <ele>185.2</ele>
        <time>2024-06-13T05:02:15Z</time>
      </trkpt>
      <trkpt lat="43.61885" lon="1.33506">
        <ele>185</ele>
        <time>2024-06-13T05:02:16Z</time>
      </trkpt>
      <trkpt lat="43.61891" lon="1.33514">
        <ele>184.8</ele>
        <time>2024-06-13T05:02:17Z</time>
      </trkpt>
      <trkpt lat="43.61894" lon="1.3352">
        <ele>184.6</ele>
        <time>2024-06-13T05:02:18Z</time>
      </trkpt>
      <trkpt lat="43.61898" lon="1.33526">
        <ele>184.6</ele>
        <time>2024-06-13T05:02:19Z</time>
      </trkpt>
      <trkpt lat="43.61904" lon="1.33532">
        <ele>184.4</ele>
        <time>2024-06-13T05:02:20Z</time>
      </trkpt>
      <trkpt lat="43.61908" lon="1.33535">
        <ele>184.4</ele>
        <time>2024-06-13T05:02:21Z</time>
      </trkpt>
      <trkpt lat="43.61913" lon="1.33539">
        <ele>184.4</ele>
        <time>2024-06-13T05:02:22Z</time>
      </trkpt>
      <trkpt lat="43.61916" lon="1.33543">
        <ele>184.2</ele>
        <time>2024-06-13T05:02:23Z</time>
      </trkpt>
      <trkpt lat="43.61918" lon="1.33548">
        <ele>184.2</ele>
        <time>2024-06-13T05:02:24Z</time>
      </trkpt>
      <trkpt lat="43.61918" lon="1.33554">
        <ele>184.2</ele>
        <time>2024-06-13T05:02:25Z</time>
      </trkpt>
      <trkpt lat="43.61917" lon="1.33562">
        <ele>184.2</ele>
        <time>2024-06-13T05:02:26Z</time>
      </trkpt>
      <trkpt lat="43.61917" lon="1.33569">
        <ele>184</ele>
        <time>2024-06-13T05:02:27Z</time>
      </trkpt>
      <trkpt lat="43.61919" lon="1.33575">
        <ele>184</ele>
        <time>2024-06-13T05:02:28Z</time>
      </trkpt>
      <trkpt lat="43.61922" lon="1.3358">
        <ele>184</ele>
        <time>2024-06-13T05:02:29Z</time>
      </trkpt>
      <trkpt lat="43.61926" lon="1.33585">
        <ele>184</ele>
        <time>2024-06-13T05:02:30Z</time>
      </trkpt>
      <trkpt lat="43.61931" lon="1.3359">
        <ele>184</ele>
        <time>2024-06-13T05:02:31Z</time>
      </trkpt>
      <trkpt lat="43.61936" lon="1.33594">
        <ele>183.8</ele>
        <time>2024-06-13T05:02:32Z</time>
      </trkpt>
      <trkpt lat="43.61941" lon="1.33598">
        <ele>183.8</ele>
        <time>2024-06-13T05:02:33Z</time>
      </trkpt>
      <trkpt lat="43.61946" lon="1.33602">
        <ele>183.8</ele>
        <time>2024-06-13T05:02:34Z</time>
      </trkpt>
      <trkpt lat="43.61951" lon="1.33607">
        <ele>183.8</ele>
        <time>2024-06-13T05:02:35Z</time>
      </trkpt>
      <trkpt lat="43.61956" lon="1.33613">
        <ele>183.8</ele>
        <time>2024-06-13T05:02:36Z</time>
      </trkpt>
      <trkpt lat="43.6196" lon="1.3362">
        <ele>183.8</ele>
        <time>2024-06-13T05:02:37Z</time>
      </trkpt>
      <trkpt lat="43.61963" lon="1.33626">
        <ele>183.8</ele>
        <time>2024-06-13T05:02:38Z</time>
      </trkpt>
      <trkpt lat="43.61966" lon="1.33631">
        <ele>183.6</ele>
        <time>2024-06-13T05:02:39Z</time>
      </trkpt>
      <trkpt lat="43.61969" lon="1.33637">
        <ele>183.6</ele>
        <time>2024-06-13T05:02:40Z</time>
      </trkpt>
      <trkpt lat="43.61971" lon="1.33642">
        <ele>183.6</ele>
        <time>2024-06-13T05:02:41Z</time>
      </trkpt>
      <trkpt lat="43.61973" lon="1.33646">
        <ele>183.6</ele>
        <time>2024-06-13T05:02:42Z</time>
      </trkpt>
      <trkpt lat="43.61974" lon="1.33649">
        <ele>183.6</ele>
        <time>2024-06-13T05:02:43Z</time>
      </trkpt>
      <trkpt lat="43.61974" lon="1.33652">
        <ele>183.6</ele>
        <time>2024-06-13T05:02:44Z</time>
      </trkpt>
      <trkpt lat="43.61974" lon="1.33656">
        <ele>183.6</ele>
        <time>2024-06-13T05:02:45Z</time>
      </trkpt>
      <trkpt lat="43.61973" lon="1.3366">
        <ele>183.6</ele>
        <time>2024-06-13T05:02:46Z</time>
      </trkpt>
      <trkpt lat="43.61972" lon="1.33665">
        <ele>183.6</ele>
        <time>2024-06-13T05:02:47Z</time>
      </trkpt>
      <trkpt lat="43.61972" lon="1.33669">
        <ele>183.6</ele>
        <time>2024-06-13T05:02:48Z</time>
      </trkpt>
      <trkpt lat="43.61972" lon="1.33674">
        <ele>183.6</ele>
        <time>2024-06-13T05:02:49Z</time>
      </trkpt>
      <trkpt lat="43.61973" lon="1.3368">
        <ele>183.6</ele>
        <time>2024-06-13T05:02:50Z</time>
      </trkpt>
      <trkpt lat="43.61972" lon="1.33685">
        <ele>183.6</ele>
        <time>2024-06-13T05:02:51Z</time>
      </trkpt>
      <trkpt lat="43.61969" lon="1.33689">
        <ele>183.6</ele>
        <time>2024-06-13T05:02:52Z</time>
      </trkpt>
      <trkpt lat="43.61966" lon="1.33693">
        <ele>183.6</ele>
        <time>2024-06-13T05:02:53Z</time>
      </trkpt>
      <trkpt lat="43.61961" lon="1.33697">
        <ele>183.6</ele>
        <time>2024-06-13T05:02:54Z</time>
      </trkpt>
      <trkpt lat="43.61957" lon="1.337">
        <ele>183.6</ele>
        <time>2024-06-13T05:02:55Z</time>
      </trkpt>
      <trkpt lat="43.61952" lon="1.33704">
        <ele>183.6</ele>
        <time>2024-06-13T05:02:56Z</time>
      </trkpt>
      <trkpt lat="43.61948" lon="1.33708">
        <ele>183.6</ele>
        <time>2024-06-13T05:02:57Z</time>
      </trkpt>
      <trkpt lat="43.61944" lon="1.33712">
        <ele>183.4</ele>
        <time>2024-06-13T05:02:58Z</time>
      </trkpt>
      <trkpt lat="43.6194" lon="1.33717">
        <ele>183.4</ele>
        <time>2024-06-13T05:02:59Z</time>
      </trkpt>
      <trkpt lat="43.61936" lon="1.33724">
        <ele>183.4</ele>
        <time>2024-06-13T05:03:00Z</time>
      </trkpt>
      <trkpt lat="43.61934" lon="1.33731">
        <ele>183.4</ele>
        <time>2024-06-13T05:03:01Z</time>
      </trkpt>
      <trkpt lat="43.61931" lon="1.33738">
        <ele>183.4</ele>
        <time>2024-06-13T05:03:02Z</time>
      </trkpt>
      <trkpt lat="43.61928" lon="1.33745">
        <ele>183.4</ele>
        <time>2024-06-13T05:03:03Z</time>
      </trkpt>
      <trkpt lat="43.61925" lon="1.33753">
        <ele>183.2</ele>
        <time>2024-06-13T05:03:04Z</time>
      </trkpt>
      <trkpt lat="43.61923" lon="1.33761">
        <ele>183.2</ele>
        <time>2024-06-13T05:03:05Z</time>
      </trkpt>
      <trkpt lat="43.61919" lon="1.33768">
        <ele>183.2</ele>
        <time>2024-06-13T05:03:06Z</time>
      </trkpt>
      <trkpt lat="43.61916" lon="1.33776">
        <ele>183</ele>
        <time>2024-06-13T05:03:07Z</time>
      </trkpt>
      <trkpt lat="43.61913" lon="1.33784">
        <ele>183</ele>
        <time>2024-06-13T05:03:08Z</time>
      </trkpt>
      <trkpt lat="43.6191" lon="1.33791">
        <ele>183</ele>
        <time>2024-06-13T05:03:09Z</time>
      </trkpt>
      <trkpt lat="43.61906" lon="1.33797">
        <ele>183</ele>
        <time>2024-06-13T05:03:10Z</time>
      </trkpt>
      <trkpt lat="43.61902" lon="1.33804">
        <ele>183</ele>
        <time>2024-06-13T05:03:11Z</time>
      </trkpt>
      <trkpt lat="43.61897" lon="1.3381">
        <ele>182.8</ele>
        <time>2024-06-13T05:03:12Z</time>
      </trkpt>
      <trkpt lat="43.61893" lon="1.33816">
        <ele>182.8</ele>
        <time>2024-06-13T05:03:13Z</time>
      </trkpt>
      <trkpt lat="43.61888" lon="1.33823">
        <ele>182.8</ele>
        <time>2024-06-13T05:03:14Z</time>
      </trkpt>
      <trkpt lat="43.61884" lon="1.33829">
        <ele>182.8</ele>
        <time>2024-06-13T05:03:15Z</time>
      </trkpt>
      <trkpt lat="43.61879" lon="1.33835">
        <ele>182.8</ele>
        <time>2024-06-13T05:03:16Z</time>
      </trkpt>
      <trkpt lat="43.61874" lon="1.33841">
        <ele>182.8</ele>
        <time>2024-06-13T05:03:17Z</time>
      </trkpt>
      <trkpt lat="43.6187" lon="1.33848">
        <ele>182.8</ele>
        <time>2024-06-13T05:03:18Z</time>
      </trkpt>
      <trkpt lat="43.61865" lon="1.33854">
        <ele>182.8</ele>
        <time>2024-06-13T05:03:19Z</time>
      </trkpt>
      <trkpt lat="43.61861" lon="1.3386">
        <ele>182.6</ele>
        <time>2024-06-13T05:03:20Z</time>
      </trkpt>
      <trkpt lat="43.61857" lon="1.33867">
        <ele>182.6</ele>
        <time>2024-06-13T05:03:21Z</time>
      </trkpt>
      <trkpt lat="43.61853" lon="1.33875">
        <ele>182.6</ele>
        <time>2024-06-13T05:03:22Z</time>
      </trkpt>
      <trkpt lat="43.6185" lon="1.33882">
        <ele>182.6</ele>
        <time>2024-06-13T05:03:23Z</time>
      </trkpt>
      <trkpt lat="43.61847" lon="1.3389">
        <ele>182.4</ele>
        <time>2024-06-13T05:03:24Z</time>
      </trkpt>
      <trkpt lat="43.61846" lon="1.33899">
        <ele>182.2</ele>
        <time>2024-06-13T05:03:25Z</time>
      </trkpt>
      <trkpt lat="43.61844" lon="1.33908">
        <ele>182.2</ele>
        <time>2024-06-13T05:03:26Z</time>
      </trkpt>
      <trkpt lat="43.61842" lon="1.33916">
        <ele>182</ele>
        <time>2024-06-13T05:03:27Z</time>
      </trkpt>
      <trkpt lat="43.61839" lon="1.33924">
        <ele>182</ele>
        <time>2024-06-13T05:03:28Z</time>
      </trkpt>
      <trkpt lat="43.61835" lon="1.3393">
        <ele>181.8</ele>
        <time>2024-06-13T05:03:29Z</time>
      </trkpt>
      <trkpt lat="43.6183" lon="1.33933">
        <ele>181.8</ele>
        <time>2024-06-13T05:03:30Z</time>
      </trkpt>
      <trkpt lat="43.61824" lon="1.33935">
        <ele>181.4</ele>
        <time>2024-06-13T05:03:31Z</time>
      </trkpt>
      <trkpt lat="43.61819" lon="1.33939">
        <ele>181.2</ele>
        <time>2024-06-13T05:03:32Z</time>
      </trkpt>
      <trkpt lat="43.61815" lon="1.33944">
        <ele>181.2</ele>
        <time>2024-06-13T05:03:33Z</time>
      </trkpt>
      <trkpt lat="43.61811" lon="1.33951">
        <ele>181</ele>
        <time>2024-06-13T05:03:34Z</time>
      </trkpt>
      <trkpt lat="43.61805" lon="1.33958">
        <ele>181</ele>
        <time>2024-06-13T05:03:35Z</time>
      </trkpt>
      <trkpt lat="43.61799" lon="1.33964">
        <ele>180.8</ele>
        <time>2024-06-13T05:03:36Z</time>
      </trkpt>
      <trkpt lat="43.61793" lon="1.33971">
        <ele>180.8</ele>
        <time>2024-06-13T05:03:37Z</time>
      </trkpt>
      <trkpt lat="43.61786" lon="1.33977">
        <ele>180.6</ele>
        <time>2024-06-13T05:03:38Z</time>
      </trkpt>
      <trkpt lat="43.6178" lon="1.33983">
        <ele>180.4</ele>
        <time>2024-06-13T05:03:39Z</time>
      </trkpt>
      <trkpt lat="43.61774" lon="1.33988">
        <ele>179.8</ele>
        <time>2024-06-13T05:03:40Z</time>
      </trkpt>
      <trkpt lat="43.61769" lon="1.33991">
        <ele>179.2</ele>
        <time>2024-06-13T05:03:41Z</time>
      </trkpt>
      <trkpt lat="43.61764" lon="1.33993">
        <ele>178.4</ele>
        <time>2024-06-13T05:03:42Z</time>
      </trkpt>
      <trkpt lat="43.6176" lon="1.33996">
        <ele>177.2</ele>
        <time>2024-06-13T05:03:43Z</time>
      </trkpt>
      <trkpt lat="43.6176" lon="1.34001">
        <ele>176.8</ele>
        <time>2024-06-13T05:03:44Z</time>
      </trkpt>
      <trkpt lat="43.61761" lon="1.34006">
        <ele>175.8</ele>
        <time>2024-06-13T05:03:45Z</time>
      </trkpt>
      <trkpt lat="43.61763" lon="1.34013">
        <ele>175.4</ele>
        <time>2024-06-13T05:03:46Z</time>
      </trkpt>
      <trkpt lat="43.61765" lon="1.3402">
        <ele>174.4</ele>
        <time>2024-06-13T05:03:47Z</time>
      </trkpt>
      <trkpt lat="43.61768" lon="1.34028">
        <ele>174</ele>
        <time>2024-06-13T05:03:48Z</time>
      </trkpt>
      <trkpt lat="43.6177" lon="1.34037">
        <ele>173.4</ele>
        <time>2024-06-13T05:03:49Z</time>
      </trkpt>
      <trkpt lat="43.61773" lon="1.34047">
        <ele>173.2</ele>
        <time>2024-06-13T05:03:50Z</time>
      </trkpt>
      <trkpt lat="43.61776" lon="1.34057">
        <ele>173</ele>
        <time>2024-06-13T05:03:51Z</time>
      </trkpt>
      <trkpt lat="43.61779" lon="1.34068">
        <ele>172.6</ele>
        <time>2024-06-13T05:03:52Z</time>
      </trkpt>
      <trkpt lat="43.61782" lon="1.34079">
        <ele>172.2</ele>
        <time>2024-06-13T05:03:53Z</time>
      </trkpt>
      <trkpt lat="43.61785" lon="1.3409">
        <ele>171.4</ele>
        <time>2024-06-13T05:03:54Z</time>
      </trkpt>
      <trkpt lat="43.61788" lon="1.34102">
        <ele>170.8</ele>
        <time>2024-06-13T05:03:55Z</time>
      </trkpt>
      <trkpt lat="43.61792" lon="1.34113">
        <ele>170</ele>
        <time>2024-06-13T05:03:56Z</time>
      </trkpt>
      <trkpt lat="43.61794" lon="1.34124">
        <ele>169.6</ele>
        <time>2024-06-13T05:03:57Z</time>
      </trkpt>
      <trkpt lat="43.61797" lon="1.34135">
        <ele>168.8</ele>
        <time>2024-06-13T05:03:58Z</time>
      </trkpt>
      <trkpt lat="43.618" lon="1.34145">
        <ele>168.4</ele>
        <time>2024-06-13T05:03:59Z</time>
      </trkpt>
      <trkpt lat="43.61804" lon="1.34154">
        <ele>167.4</ele>
        <time>2024-06-13T05:04:00Z</time>
      </trkpt>
      <trkpt lat="43.61809" lon="1.34162">
        <ele>167</ele>
        <time>2024-06-13T05:04:01Z</time>
      </trkpt>
      <trkpt lat="43.61814" lon="1.34169">
        <ele>166.2</ele>
        <time>2024-06-13T05:04:02Z</time>
      </trkpt>
      <trkpt lat="43.6182" lon="1.34176">
        <ele>165.6</ele>
        <time>2024-06-13T05:04:03Z</time>
      </trkpt>
      <trkpt lat="43.61826" lon="1.34183">
        <ele>165.4</ele>
        <time>2024-06-13T05:04:04Z</time>
      </trkpt>
      <trkpt lat="43.61831" lon="1.34191">
        <ele>165.2</ele>
        <time>2024-06-13T05:04:05Z</time>
      </trkpt>
      <trkpt lat="43.61836" lon="1.34198">
        <ele>165</ele>
        <time>2024-06-13T05:04:06Z</time>
      </trkpt>
      <trkpt lat="43.61842" lon="1.34205">
        <ele>164.8</ele>
        <time>2024-06-13T05:04:07Z</time>
      </trkpt>
      <trkpt lat="43.61849" lon="1.34213">
        <ele>164.6</ele>
        <time>2024-06-13T05:04:08Z</time>
      </trkpt>
      <trkpt lat="43.61853" lon="1.34219">
        <ele>164.4</ele>
        <time>2024-06-13T05:04:09Z</time>
      </trkpt>
      <trkpt lat="43.61859" lon="1.34226">
        <ele>164.2</ele>
        <time>2024-06-13T05:04:10Z</time>
      </trkpt>
      <trkpt lat="43.61865" lon="1.34232">
        <ele>164.2</ele>
        <time>2024-06-13T05:04:11Z</time>
      </trkpt>
      <trkpt lat="43.61872" lon="1.3424">
        <ele>164.2</ele>
        <time>2024-06-13T05:04:12Z</time>
      </trkpt>
      <trkpt lat="43.61877" lon="1.34246">
        <ele>164</ele>
        <time>2024-06-13T05:04:13Z</time>
      </trkpt>
      <trkpt lat="43.61882" lon="1.34252">
        <ele>163.8</ele>
        <time>2024-06-13T05:04:14Z</time>
      </trkpt>
      <trkpt lat="43.61888" lon="1.34259">
        <ele>163.8</ele>
        <time>2024-06-13T05:04:15Z</time>
      </trkpt>
      <trkpt lat="43.61893" lon="1.34265">
        <ele>163.6</ele>
        <time>2024-06-13T05:04:16Z</time>
      </trkpt>
      <trkpt lat="43.61899" lon="1.34272">
        <ele>163.6</ele>
        <time>2024-06-13T05:04:17Z</time>
      </trkpt>
      <trkpt lat="43.61904" lon="1.34278">
        <ele>163.6</ele>
        <time>2024-06-13T05:04:18Z</time>
      </trkpt>
      <trkpt lat="43.61909" lon="1.34285">
        <ele>163.6</ele>
        <time>2024-06-13T05:04:19Z</time>
      </trkpt>
      <trkpt lat="43.61915" lon="1.34291">
        <ele>163.4</ele>
        <time>2024-06-13T05:04:20Z</time>
      </trkpt>
      <trkpt lat="43.6192" lon="1.34297">
        <ele>163.4</ele>
        <time>2024-06-13T05:04:21Z</time>
      </trkpt>
      <trkpt lat="43.61926" lon="1.34303">
        <ele>163.2</ele>
        <time>2024-06-13T05:04:22Z</time>
      </trkpt>
      <trkpt lat="43.61932" lon="1.34309">
        <ele>163.2</ele>
        <time>2024-06-13T05:04:23Z</time>
      </trkpt>
      <trkpt lat="43.61938" lon="1.34315">
        <ele>163</ele>
        <time>2024-06-13T05:04:24Z</time>
      </trkpt>
      <trkpt lat="43.61944" lon="1.34321">
        <ele>163</ele>
        <time>2024-06-13T05:04:25Z</time>
      </trkpt>
      <trkpt lat="43.61949" lon="1.34327">
        <ele>162.8</ele>
        <time>2024-06-13T05:04:26Z</time>
      </trkpt>
      <trkpt lat="43.61955" lon="1.34333">
        <ele>162.6</ele>
        <time>2024-06-13T05:04:27Z</time>
      </trkpt>
      <trkpt lat="43.61961" lon="1.34339">
        <ele>162.6</ele>
        <time>2024-06-13T05:04:28Z</time>
      </trkpt>
      <trkpt lat="43.61966" lon="1.34343">
        <ele>162.6</ele>
        <time>2024-06-13T05:04:29Z</time>
      </trkpt>
      <trkpt lat="43.61972" lon="1.34347">
        <ele>162.6</ele>
        <time>2024-06-13T05:04:30Z</time>
      </trkpt>
      <trkpt lat="43.61976" lon="1.34353">
        <ele>162.4</ele>
        <time>2024-06-13T05:04:31Z</time>
      </trkpt>
      <trkpt lat="43.61981" lon="1.34358">
        <ele>162.4</ele>
        <time>2024-06-13T05:04:32Z</time>
      </trkpt>
      <trkpt lat="43.61985" lon="1.34362">
        <ele>162.2</ele>
        <time>2024-06-13T05:04:33Z</time>
      </trkpt>
      <trkpt lat="43.61989" lon="1.34366">
        <ele>162.2</ele>
        <time>2024-06-13T05:04:34Z</time>
      </trkpt>
      <trkpt lat="43.61993" lon="1.3437">
        <ele>162.2</ele>
        <time>2024-06-13T05:04:35Z</time>
      </trkpt>
      <trkpt lat="43.61996" lon="1.34374">
        <ele>162.2</ele>
        <time>2024-06-13T05:04:36Z</time>
      </trkpt>
      <trkpt lat="43.62" lon="1.34378">
        <ele>162</ele>
        <time>2024-06-13T05:04:37Z</time>
      </trkpt>
      <trkpt lat="43.62004" lon="1.34382">
        <ele>162</ele>
        <time>2024-06-13T05:04:38Z</time>
      </trkpt>
      <trkpt lat="43.62008" lon="1.34388">
        <ele>162</ele>
        <time>2024-06-13T05:04:39Z</time>
      </trkpt>
      <trkpt lat="43.62012" lon="1.34394">
        <ele>162</ele>
        <time>2024-06-13T05:04:40Z</time>
      </trkpt>
      <trkpt lat="43.62016" lon="1.344">
        <ele>162</ele>
        <time>2024-06-13T05:04:41Z</time>
      </trkpt>
      <trkpt lat="43.62021" lon="1.34406">
        <ele>162</ele>
        <time>2024-06-13T05:04:42Z</time>
      </trkpt>
      <trkpt lat="43.62025" lon="1.34412">
        <ele>161.8</ele>
        <time>2024-06-13T05:04:43Z</time>
      </trkpt>
      <trkpt lat="43.62028" lon="1.34418">
        <ele>161.8</ele>
        <time>2024-06-13T05:04:44Z</time>
      </trkpt>
      <trkpt lat="43.6203" lon="1.34426">
        <ele>161.6</ele>
        <time>2024-06-13T05:04:45Z</time>
      </trkpt>
      <trkpt lat="43.62031" lon="1.34433">
        <ele>161.6</ele>
        <time>2024-06-13T05:04:46Z</time>
      </trkpt>
      <trkpt lat="43.6203" lon="1.3444">
        <ele>161.6</ele>
        <time>2024-06-13T05:04:47Z</time>
      </trkpt>
      <trkpt lat="43.62028" lon="1.34447">
        <ele>161.6</ele>
        <time>2024-06-13T05:04:48Z</time>
      </trkpt>
      <trkpt lat="43.62025" lon="1.34453">
        <ele>161.4</ele>
        <time>2024-06-13T05:04:49Z</time>
      </trkpt>
      <trkpt lat="43.62024" lon="1.34455">
        <ele>161.4</ele>
        <time>2024-06-13T05:04:50Z</time>
      </trkpt>
      <trkpt lat="43.62023" lon="1.34457">
        <ele>161.2</ele>
        <time>2024-06-13T05:04:51Z</time>
      </trkpt>
      <trkpt lat="43.62023" lon="1.34459">
        <ele>161</ele>
        <time>2024-06-13T05:04:52Z</time>
      </trkpt>
      <trkpt lat="43.62024" lon="1.34461">
        <ele>161</ele>
        <time>2024-06-13T05:04:53Z</time>
      </trkpt>
      <trkpt lat="43.62027" lon="1.34463">
        <ele>161</ele>
        <time>2024-06-13T05:04:54Z</time>
      </trkpt>
      <trkpt lat="43.6203" lon="1.34462">
        <ele>161</ele>
        <time>2024-06-13T05:04:55Z</time>
      </trkpt>
      <trkpt lat="43.62034" lon="1.34459">
        <ele>160.8</ele>
        <time>2024-06-13T05:04:56Z</time>
      </trkpt>
      <trkpt lat="43.62037" lon="1.34457">
        <ele>160.8</ele>
        <time>2024-06-13T05:04:57Z</time>
      </trkpt>
      <trkpt lat="43.62042" lon="1.34455">
        <ele>160.6</ele>
        <time>2024-06-13T05:04:58Z</time>
      </trkpt>
      <trkpt lat="43.62047" lon="1.34454">
        <ele>160.6</ele>
        <time>2024-06-13T05:04:59Z</time>
      </trkpt>
      <trkpt lat="43.62052" lon="1.34454">
        <ele>160.6</ele>
        <time>2024-06-13T05:05:00Z</time>
      </trkpt>
      <trkpt lat="43.62058" lon="1.34454">
        <ele>160.4</ele>
        <time>2024-06-13T05:05:01Z</time>
      </trkpt>
      <trkpt lat="43.62064" lon="1.34454">
        <ele>160.4</ele>
        <time>2024-06-13T05:05:02Z</time>
      </trkpt>
      <trkpt lat="43.6207" lon="1.34456">
        <ele>160.4</ele>
        <time>2024-06-13T05:05:03Z</time>
      </trkpt>
      <trkpt lat="43.62075" lon="1.34459">
        <ele>160.4</ele>
        <time>2024-06-13T05:05:04Z</time>
      </trkpt>
      <trkpt lat="43.6208" lon="1.34463">
        <ele>160.4</ele>
        <time>2024-06-13T05:05:05Z</time>
      </trkpt>
      <trkpt lat="43.62085" lon="1.34468">
        <ele>160.4</ele>
        <time>2024-06-13T05:05:06Z</time>
      </trkpt>
      <trkpt lat="43.6209" lon="1.34474">
        <ele>160.4</ele>
        <time>2024-06-13T05:05:07Z</time>
      </trkpt>
      <trkpt lat="43.62095" lon="1.3448">
        <ele>160.4</ele>
        <time>2024-06-13T05:05:08Z</time>
      </trkpt>
      <trkpt lat="43.621" lon="1.34485">
        <ele>160.4</ele>
        <time>2024-06-13T05:05:09Z</time>
      </trkpt>
      <trkpt lat="43.62106" lon="1.34492">
        <ele>160.4</ele>
        <time>2024-06-13T05:05:10Z</time>
      </trkpt>
      <trkpt lat="43.6211" lon="1.34496">
        <ele>160.4</ele>
        <time>2024-06-13T05:05:11Z</time>
      </trkpt>
      <trkpt lat="43.62115" lon="1.34502">
        <ele>160.4</ele>
        <time>2024-06-13T05:05:12Z</time>
      </trkpt>
      <trkpt lat="43.6212" lon="1.34507">
        <ele>160.4</ele>
        <time>2024-06-13T05:05:13Z</time>
      </trkpt>
      <trkpt lat="43.62126" lon="1.34512">
        <ele>160.2</ele>
        <time>2024-06-13T05:05:14Z</time>
      </trkpt>
      <trkpt lat="43.62132" lon="1.34518">
        <ele>160</ele>
        <time>2024-06-13T05:05:15Z</time>
      </trkpt>
      <trkpt lat="43.62138" lon="1.34523">
        <ele>160</ele>
        <time>2024-06-13T05:05:16Z</time>
      </trkpt>
      <trkpt lat="43.62143" lon="1.34528">
        <ele>160</ele>
        <time>2024-06-13T05:05:17Z</time>
      </trkpt>
      <trkpt lat="43.62149" lon="1.34534">
        <ele>160</ele>
        <time>2024-06-13T05:05:18Z</time>
      </trkpt>
      <trkpt lat="43.62154" lon="1.34539">
        <ele>160</ele>
        <time>2024-06-13T05:05:19Z</time>
      </trkpt>
      <trkpt lat="43.6216" lon="1.34544">
        <ele>160</ele>
        <time>2024-06-13T05:05:20Z</time>
      </trkpt>
      <trkpt lat="43.62166" lon="1.3455">
        <ele>159.8</ele>
        <time>2024-06-13T05:05:21Z</time>
      </trkpt>
      <trkpt lat="43.62171" lon="1.34554">
        <ele>159.8</ele>
        <time>2024-06-13T05:05:22Z</time>
      </trkpt>
      <trkpt lat="43.62177" lon="1.34558">
        <ele>159.8</ele>
        <time>2024-06-13T05:05:23Z</time>
      </trkpt>
      <trkpt lat="43.62182" lon="1.34562">
        <ele>159.8</ele>
        <time>2024-06-13T05:05:24Z</time>
      </trkpt>
      <trkpt lat="43.62188" lon="1.34567">
        <ele>159.8</ele>
        <time>2024-06-13T05:05:25Z</time>
      </trkpt>
      <trkpt lat="43.62193" lon="1.34571">
        <ele>159.8</ele>
        <time>2024-06-13T05:05:26Z</time>
      </trkpt>
      <trkpt lat="43.62198" lon="1.34575">
        <ele>159.6</ele>
        <time>2024-06-13T05:05:27Z</time>
      </trkpt>
      <trkpt lat="43.62204" lon="1.34579">
        <ele>159.6</ele>
        <time>2024-06-13T05:05:28Z</time>
      </trkpt>
      <trkpt lat="43.6221" lon="1.34583">
        <ele>159.6</ele>
        <time>2024-06-13T05:05:29Z</time>
      </trkpt>
      <trkpt lat="43.62216" lon="1.34587">
        <ele>159.6</ele>
        <time>2024-06-13T05:05:30Z</time>
      </trkpt>
      <trkpt lat="43.62221" lon="1.34591">
        <ele>159.6</ele>
        <time>2024-06-13T05:05:31Z</time>
      </trkpt>
      <trkpt lat="43.62227" lon="1.34595">
        <ele>159.6</ele>
        <time>2024-06-13T05:05:32Z</time>
      </trkpt>
      <trkpt lat="43.62233" lon="1.34599">
        <ele>159.6</ele>
        <time>2024-06-13T05:05:33Z</time>
      </trkpt>
      <trkpt lat="43.62238" lon="1.34603">
        <ele>159.4</ele>
        <time>2024-06-13T05:05:34Z</time>
      </trkpt>
      <trkpt lat="43.62244" lon="1.34607">
        <ele>159.4</ele>
        <time>2024-06-13T05:05:35Z</time>
      </trkpt>
      <trkpt lat="43.62251" lon="1.34611">
        <ele>159.4</ele>
        <time>2024-06-13T05:05:36Z</time>
      </trkpt>
      <trkpt lat="43.62257" lon="1.34615">
        <ele>159.2</ele>
        <time>2024-06-13T05:05:37Z</time>
      </trkpt>
      <trkpt lat="43.62263" lon="1.34618">
        <ele>159.2</ele>
        <time>2024-06-13T05:05:38Z</time>
      </trkpt>
      <trkpt lat="43.6227" lon="1.34622">
        <ele>159.2</ele>
        <time>2024-06-13T05:05:39Z</time>
      </trkpt>
      <trkpt lat="43.62276" lon="1.34625">
        <ele>159.2</ele>
        <time>2024-06-13T05:05:40Z</time>
      </trkpt>
      <trkpt lat="43.62283" lon="1.34628">
        <ele>159</ele>
        <time>2024-06-13T05:05:41Z</time>
      </trkpt>
      <trkpt lat="43.62289" lon="1.34631">
        <ele>159</ele>
        <time>2024-06-13T05:05:42Z</time>
      </trkpt>
      <trkpt lat="43.62295" lon="1.34634">
        <ele>159</ele>
        <time>2024-06-13T05:05:43Z</time>
      </trkpt>
      <trkpt lat="43.62301" lon="1.34637">
        <ele>159</ele>
        <time>2024-06-13T05:05:44Z</time>
      </trkpt>
      <trkpt lat="43.62307" lon="1.3464">
        <ele>158.8</ele>
        <time>2024-06-13T05:05:45Z</time>
      </trkpt>
      <trkpt lat="43.62314" lon="1.34642">
        <ele>158.8</ele>
        <time>2024-06-13T05:05:46Z</time>
      </trkpt>
      <trkpt lat="43.6232" lon="1.34645">
        <ele>158.8</ele>
        <time>2024-06-13T05:05:47Z</time>
      </trkpt>
      <trkpt lat="43.62326" lon="1.34648">
        <ele>158.8</ele>
        <time>2024-06-13T05:05:48Z</time>
      </trkpt>
      <trkpt lat="43.62332" lon="1.34651">
        <ele>158.8</ele>
        <time>2024-06-13T05:05:49Z</time>
      </trkpt>
      <trkpt lat="43.62338" lon="1.34653">
        <ele>158.8</ele>
        <time>2024-06-13T05:05:50Z</time>
      </trkpt>
      <trkpt lat="43.62344" lon="1.34656">
        <ele>158.8</ele>
        <time>2024-06-13T05:05:51Z</time>
      </trkpt>
      <trkpt lat="43.6235" lon="1.34659">
        <ele>158.8</ele>
        <time>2024-06-13T05:05:52Z</time>
      </trkpt>
      <trkpt lat="43.62357" lon="1.34661">
        <ele>158.8</ele>
        <time>2024-06-13T05:05:53Z</time>
      </trkpt>
      <trkpt lat="43.62362" lon="1.34665">
        <ele>158.8</ele>
        <time>2024-06-13T05:05:54Z</time>
      </trkpt>
      <trkpt lat="43.62368" lon="1.34668">
        <ele>158.8</ele>
        <time>2024-06-13T05:05:55Z</time>
      </trkpt>
      <trkpt lat="43.62373" lon="1.34674">
        <ele>158.6</ele>
        <time>2024-06-13T05:05:56Z</time>
      </trkpt>
      <trkpt lat="43.62377" lon="1.3468">
        <ele>158.6</ele>
        <time>2024-06-13T05:05:57Z</time>
      </trkpt>
      <trkpt lat="43.62381" lon="1.34687">
        <ele>158.6</ele>
        <time>2024-06-13T05:05:58Z</time>
      </trkpt>
      <trkpt lat="43.62385" lon="1.34692">
        <ele>158.6</ele>
        <time>2024-06-13T05:05:59Z</time>
      </trkpt>
      <trkpt lat="43.62391" lon="1.34695">
        <ele>158.6</ele>
        <time>2024-06-13T05:06:00Z</time>
      </trkpt>
      <trkpt lat="43.62398" lon="1.34697">
        <ele>158.6</ele>
        <time>2024-06-13T05:06:01Z</time>
      </trkpt>
      <trkpt lat="43.62404" lon="1.34695">
        <ele>158.6</ele>
        <time>2024-06-13T05:06:02Z</time>
      </trkpt>
      <trkpt lat="43.6241" lon="1.34692">
        <ele>158.6</ele>
        <time>2024-06-13T05:06:03Z</time>
      </trkpt>
      <trkpt lat="43.62415" lon="1.34689">
        <ele>158.6</ele>
        <time>2024-06-13T05:06:04Z</time>
      </trkpt>
      <trkpt lat="43.62421" lon="1.34686">
        <ele>158.6</ele>
        <time>2024-06-13T05:06:05Z</time>
      </trkpt>
      <trkpt lat="43.62427" lon="1.34685">
        <ele>158.6</ele>
        <time>2024-06-13T05:06:06Z</time>
      </trkpt>
      <trkpt lat="43.62434" lon="1.34685">
        <ele>158.6</ele>
        <time>2024-06-13T05:06:07Z</time>
      </trkpt>
      <trkpt lat="43.62441" lon="1.34685">
        <ele>158.6</ele>
        <time>2024-06-13T05:06:08Z</time>
      </trkpt>
      <trkpt lat="43.62447" lon="1.34686">
        <ele>158.6</ele>
        <time>2024-06-13T05:06:09Z</time>
      </trkpt>
      <trkpt lat="43.62453" lon="1.34686">
        <ele>158.6</ele>
        <time>2024-06-13T05:06:10Z</time>
      </trkpt>
      <trkpt lat="43.6246" lon="1.34687">
        <ele>158.6</ele>
        <time>2024-06-13T05:06:11Z</time>
      </trkpt>
      <trkpt lat="43.62466" lon="1.34687">
        <ele>158.6</ele>
        <time>2024-06-13T05:06:12Z</time>
      </trkpt>
      <trkpt lat="43.62472" lon="1.34687">
        <ele>158.6</ele>
        <time>2024-06-13T05:06:13Z</time>
      </trkpt>
      <trkpt lat="43.62477" lon="1.34687">
        <ele>158.6</ele>
        <time>2024-06-13T05:06:14Z</time>
      </trkpt>
      <trkpt lat="43.62483" lon="1.34687">
        <ele>158.6</ele>
        <time>2024-06-13T05:06:15Z</time>
      </trkpt>
      <trkpt lat="43.62489" lon="1.34688">
        <ele>158.4</ele>
        <time>2024-06-13T05:06:16Z</time>
      </trkpt>
      <trkpt lat="43.62495" lon="1.3469">
        <ele>158.4</ele>
        <time>2024-06-13T05:06:17Z</time>
      </trkpt>
      <trkpt lat="43.62499" lon="1.34694">
        <ele>158.4</ele>
        <time>2024-06-13T05:06:18Z</time>
      </trkpt>
      <trkpt lat="43.62503" lon="1.34702">
        <ele>158.4</ele>
        <time>2024-06-13T05:06:19Z</time>
      </trkpt>
      <trkpt lat="43.62506" lon="1.34709">
        <ele>158.4</ele>
        <time>2024-06-13T05:06:20Z</time>
      </trkpt>
      <trkpt lat="43.62506" lon="1.34713">
        <ele>158.4</ele>
        <time>2024-06-13T05:06:21Z</time>
      </trkpt>
      <trkpt lat="43.62507" lon="1.34719">
        <ele>158.4</ele>
        <time>2024-06-13T05:06:22Z</time>
      </trkpt>
      <trkpt lat="43.62508" lon="1.34725">
        <ele>158.4</ele>
        <time>2024-06-13T05:06:23Z</time>
      </trkpt>
      <trkpt lat="43.62509" lon="1.3473">
        <ele>158.4</ele>
        <time>2024-06-13T05:06:24Z</time>
      </trkpt>
      <trkpt lat="43.62509" lon="1.34734">
        <ele>158.4</ele>
        <time>2024-06-13T05:06:25Z</time>
      </trkpt>
      <trkpt lat="43.62509" lon="1.34737">
        <ele>158.4</ele>
        <time>2024-06-13T05:06:26Z</time>
      </trkpt>
      <trkpt lat="43.62509" lon="1.34739">
        <ele>158.4</ele>
        <time>2024-06-13T05:06:27Z</time>
      </trkpt>
      <trkpt lat="43.62509" lon="1.3474">
        <ele>158.2</ele>
        <time>2024-06-13T05:06:28Z</time>
      </trkpt>
      <trkpt lat="43.62509" lon="1.3474">
        <ele>158.2</ele>
        <time>2024-06-13T05:06:29Z</time>
      </trkpt>
      <trkpt lat="43.62509" lon="1.3474">
        <ele>158.2</ele>
        <time>2024-06-13T05:06:30Z</time>
      </trkpt>
      <trkpt lat="43.62509" lon="1.3474">
        <ele>158.2</ele>
        <time>2024-06-13T05:06:31Z</time>
      </trkpt>
      <trkpt lat="43.62506" lon="1.34747">
        <ele>158</ele>
        <time>2024-06-13T05:06:37Z</time>
      </trkpt>
      <trkpt lat="43.62506" lon="1.34752">
        <ele>158</ele>
        <time>2024-06-13T05:06:38Z</time>
      </trkpt>
      <trkpt lat="43.62505" lon="1.34756">
        <ele>158</ele>
        <time>2024-06-13T05:06:39Z</time>
      </trkpt>
      <trkpt lat="43.62504" lon="1.34761">
        <ele>157.8</ele>
        <time>2024-06-13T05:06:40Z</time>
      </trkpt>
      <trkpt lat="43.62501" lon="1.34764">
        <ele>157.8</ele>
        <time>2024-06-13T05:06:41Z</time>
      </trkpt>
      <trkpt lat="43.62497" lon="1.34765">
        <ele>157.8</ele>
        <time>2024-06-13T05:06:42Z</time>
      </trkpt>
      <trkpt lat="43.62494" lon="1.34765">
        <ele>157.8</ele>
        <time>2024-06-13T05:06:43Z</time>
      </trkpt>
      <trkpt lat="43.62491" lon="1.34765">
        <ele>157.8</ele>
        <time>2024-06-13T05:06:44Z</time>
      </trkpt>
      <trkpt lat="43.62489" lon="1.34765">
        <ele>157.8</ele>
        <time>2024-06-13T05:06:45Z</time>
      </trkpt>
      <trkpt lat="43.62487" lon="1.34764">
        <ele>157.8</ele>
        <time>2024-06-13T05:06:46Z</time>
      </trkpt>
      <trkpt lat="43.62485" lon="1.34764">
        <ele>157.8</ele>
        <time>2024-06-13T05:06:47Z</time>
      </trkpt>
      <trkpt lat="43.62482" lon="1.34764">
        <ele>157.8</ele>
        <time>2024-06-13T05:06:48Z</time>
      </trkpt>
      <trkpt lat="43.62478" lon="1.34765">
        <ele>157.8</ele>
        <time>2024-06-13T05:06:49Z</time>
      </trkpt>
      <trkpt lat="43.62474" lon="1.34765">
        <ele>157.8</ele>
        <time>2024-06-13T05:06:50Z</time>
      </trkpt>
      <trkpt lat="43.6247" lon="1.34766">
        <ele>157.8</ele>
        <time>2024-06-13T05:06:51Z</time>
      </trkpt>
      <trkpt lat="43.62465" lon="1.34767">
        <ele>157.8</ele>
        <time>2024-06-13T05:06:52Z</time>
      </trkpt>
      <trkpt lat="43.62461" lon="1.34768">
        <ele>157.8</ele>
        <time>2024-06-13T05:06:53Z</time>
      </trkpt>
      <trkpt lat="43.62456" lon="1.34769">
        <ele>157.8</ele>
        <time>2024-06-13T05:06:54Z</time>
      </trkpt>
      <trkpt lat="43.62451" lon="1.3477">
        <ele>157.8</ele>
        <time>2024-06-13T05:06:55Z</time>
      </trkpt>
      <trkpt lat="43.62445" lon="1.34772">
        <ele>157.8</ele>
        <time>2024-06-13T05:06:56Z</time>
      </trkpt>
      <trkpt lat="43.6244" lon="1.34774">
        <ele>158</ele>
        <time>2024-06-13T05:06:57Z</time>
      </trkpt>
      <trkpt lat="43.62436" lon="1.34775">
        <ele>158</ele>
        <time>2024-06-13T05:06:58Z</time>
      </trkpt>
      <trkpt lat="43.62431" lon="1.34775">
        <ele>158</ele>
        <time>2024-06-13T05:06:59Z</time>
      </trkpt>
      <trkpt lat="43.62425" lon="1.34776">
        <ele>158</ele>
        <time>2024-06-13T05:07:00Z</time>
      </trkpt>
      <trkpt lat="43.6242" lon="1.34776">
        <ele>158</ele>
        <time>2024-06-13T05:07:01Z</time>
      </trkpt>
      <trkpt lat="43.62415" lon="1.34777">
        <ele>158</ele>
        <time>2024-06-13T05:07:02Z</time>
      </trkpt>
      <trkpt lat="43.62409" lon="1.34775">
        <ele>158</ele>
        <time>2024-06-13T05:07:03Z</time>
      </trkpt>
      <trkpt lat="43.62403" lon="1.34775">
        <ele>158</ele>
        <time>2024-06-13T05:07:04Z</time>
      </trkpt>
      <trkpt lat="43.62397" lon="1.34775">
        <ele>158.2</ele>
        <time>2024-06-13T05:07:05Z</time>
      </trkpt>
      <trkpt lat="43.62392" lon="1.34776">
        <ele>158.2</ele>
        <time>2024-06-13T05:07:06Z</time>
      </trkpt>
      <trkpt lat="43.62386" lon="1.34777">
        <ele>158.2</ele>
        <time>2024-06-13T05:07:07Z</time>
      </trkpt>
      <trkpt lat="43.62381" lon="1.34777">
        <ele>158.4</ele>
        <time>2024-06-13T05:07:08Z</time>
      </trkpt>
      <trkpt lat="43.62375" lon="1.34777">
        <ele>158.4</ele>
        <time>2024-06-13T05:07:09Z</time>
      </trkpt>
      <trkpt lat="43.62369" lon="1.34778">
        <ele>158.4</ele>
        <time>2024-06-13T05:07:10Z</time>
      </trkpt>
      <trkpt lat="43.62363" lon="1.34778">
        <ele>158.4</ele>
        <time>2024-06-13T05:07:11Z</time>
      </trkpt>
      <trkpt lat="43.62359" lon="1.34778">
        <ele>158.6</ele>
        <time>2024-06-13T05:07:12Z</time>
      </trkpt>
      <trkpt lat="43.62353" lon="1.34779">
        <ele>158.6</ele>
        <time>2024-06-13T05:07:13Z</time>
      </trkpt>
      <trkpt lat="43.62346" lon="1.34781">
        <ele>158.8</ele>
        <time>2024-06-13T05:07:14Z</time>
      </trkpt>
      <trkpt lat="43.62342" lon="1.34784">
        <ele>158.8</ele>
        <time>2024-06-13T05:07:15Z</time>
      </trkpt>
      <trkpt lat="43.62336" lon="1.34787">
        <ele>158.8</ele>
        <time>2024-06-13T05:07:16Z</time>
      </trkpt>
      <trkpt lat="43.62332" lon="1.34791">
        <ele>159</ele>
        <time>2024-06-13T05:07:17Z</time>
      </trkpt>
      <trkpt lat="43.62327" lon="1.34795">
        <ele>159</ele>
        <time>2024-06-13T05:07:18Z</time>
      </trkpt>
      <trkpt lat="43.6232" lon="1.34801">
        <ele>159</ele>
        <time>2024-06-13T05:07:19Z</time>
      </trkpt>
      <trkpt lat="43.62316" lon="1.34804">
        <ele>159</ele>
        <time>2024-06-13T05:07:20Z</time>
      </trkpt>
      <trkpt lat="43.62311" lon="1.34809">
        <ele>159</ele>
        <time>2024-06-13T05:07:21Z</time>
      </trkpt>
      <trkpt lat="43.62306" lon="1.34814">
        <ele>159</ele>
        <time>2024-06-13T05:07:22Z</time>
      </trkpt>
      <trkpt lat="43.62301" lon="1.34819">
        <ele>159</ele>
        <time>2024-06-13T05:07:23Z</time>
      </trkpt>
      <trkpt lat="43.62295" lon="1.34825">
        <ele>158.8</ele>
        <time>2024-06-13T05:07:24Z</time>
      </trkpt>
      <trkpt lat="43.62289" lon="1.34831">
        <ele>158.8</ele>
        <time>2024-06-13T05:07:25Z</time>
      </trkpt>
      <trkpt lat="43.62284" lon="1.34836">
        <ele>158.8</ele>
        <time>2024-06-13T05:07:26Z</time>
      </trkpt>
      <trkpt lat="43.6228" lon="1.3484">
        <ele>158.8</ele>
        <time>2024-06-13T05:07:27Z</time>
      </trkpt>
      <trkpt lat="43.62275" lon="1.34845">
        <ele>158.6</ele>
        <time>2024-06-13T05:07:28Z</time>
      </trkpt>
      <trkpt lat="43.62271" lon="1.34851">
        <ele>158.6</ele>
        <time>2024-06-13T05:07:29Z</time>
      </trkpt>
      <trkpt lat="43.62265" lon="1.34856">
        <ele>158.4</ele>
        <time>2024-06-13T05:07:30Z</time>
      </trkpt>
      <trkpt lat="43.62261" lon="1.34861">
        <ele>158.2</ele>
        <time>2024-06-13T05:07:31Z</time>
      </trkpt>
      <trkpt lat="43.62257" lon="1.34866">
        <ele>158</ele>
        <time>2024-06-13T05:07:32Z</time>
      </trkpt>
      <trkpt lat="43.62255" lon="1.3487">
        <ele>158</ele>
        <time>2024-06-13T05:07:33Z</time>
      </trkpt>
      <trkpt lat="43.62254" lon="1.34874">
        <ele>157.8</ele>
        <time>2024-06-13T05:07:34Z</time>
      </trkpt>
      <trkpt lat="43.62254" lon="1.3488">
        <ele>157.8</ele>
        <time>2024-06-13T05:07:35Z</time>
      </trkpt>
      <trkpt lat="43.62253" lon="1.34885">
        <ele>157.8</ele>
        <time>2024-06-13T05:07:36Z</time>
      </trkpt>
      <trkpt lat="43.62253" lon="1.3489">
        <ele>157.8</ele>
        <time>2024-06-13T05:07:37Z</time>
      </trkpt>
      <trkpt lat="43.62254" lon="1.34896">
        <ele>157.6</ele>
        <time>2024-06-13T05:07:38Z</time>
      </trkpt>
      <trkpt lat="43.62254" lon="1.34901">
        <ele>157.6</ele>
        <time>2024-06-13T05:07:39Z</time>
      </trkpt>
      <trkpt lat="43.62254" lon="1.34908">
        <ele>157.6</ele>
        <time>2024-06-13T05:07:40Z</time>
      </trkpt>
      <trkpt lat="43.62254" lon="1.34914">
        <ele>157.4</ele>
        <time>2024-06-13T05:07:41Z</time>
      </trkpt>
      <trkpt lat="43.62254" lon="1.3492">
        <ele>157.4</ele>
        <time>2024-06-13T05:07:42Z</time>
      </trkpt>
      <trkpt lat="43.62254" lon="1.34926">
        <ele>157.2</ele>
        <time>2024-06-13T05:07:43Z</time>
      </trkpt>
      <trkpt lat="43.62255" lon="1.34932">
        <ele>157</ele>
        <time>2024-06-13T05:07:44Z</time>
      </trkpt>
      <trkpt lat="43.62255" lon="1.34938">
        <ele>157</ele>
        <time>2024-06-13T05:07:45Z</time>
      </trkpt>
      <trkpt lat="43.62255" lon="1.34944">
        <ele>157</ele>
        <time>2024-06-13T05:07:46Z</time>
      </trkpt>
      <trkpt lat="43.62255" lon="1.3495">
        <ele>157</ele>
        <time>2024-06-13T05:07:47Z</time>
      </trkpt>
      <trkpt lat="43.62256" lon="1.34957">
        <ele>156.8</ele>
        <time>2024-06-13T05:07:48Z</time>
      </trkpt>
      <trkpt lat="43.62256" lon="1.34963">
        <ele>156.8</ele>
        <time>2024-06-13T05:07:49Z</time>
      </trkpt>
      <trkpt lat="43.62256" lon="1.34969">
        <ele>156.8</ele>
        <time>2024-06-13T05:07:50Z</time>
      </trkpt>
      <trkpt lat="43.62257" lon="1.34975">
        <ele>156.8</ele>
        <time>2024-06-13T05:07:51Z</time>
      </trkpt>
      <trkpt lat="43.62257" lon="1.34981">
        <ele>156.6</ele>
        <time>2024-06-13T05:07:52Z</time>
      </trkpt>
      <trkpt lat="43.62257" lon="1.34986">
        <ele>156.6</ele>
        <time>2024-06-13T05:07:53Z</time>
      </trkpt>
      <trkpt lat="43.62257" lon="1.34992">
        <ele>156.6</ele>
        <time>2024-06-13T05:07:54Z</time>
      </trkpt>
      <trkpt lat="43.62257" lon="1.34997">
        <ele>156.6</ele>
        <time>2024-06-13T05:07:55Z</time>
      </trkpt>
      <trkpt lat="43.62257" lon="1.35003">
        <ele>156.6</ele>
        <time>2024-06-13T05:07:56Z</time>
      </trkpt>
      <trkpt lat="43.62258" lon="1.35008">
        <ele>156.6</ele>
        <time>2024-06-13T05:07:57Z</time>
      </trkpt>
      <trkpt lat="43.62258" lon="1.35015">
        <ele>156.6</ele>
        <time>2024-06-13T05:07:58Z</time>
      </trkpt>
      <trkpt lat="43.62259" lon="1.35021">
        <ele>156.6</ele>
        <time>2024-06-13T05:07:59Z</time>
      </trkpt>
      <trkpt lat="43.62259" lon="1.35028">
        <ele>156.6</ele>
        <time>2024-06-13T05:08:00Z</time>
      </trkpt>
      <trkpt lat="43.62259" lon="1.35034">
        <ele>156.6</ele>
        <time>2024-06-13T05:08:01Z</time>
      </trkpt>
      <trkpt lat="43.62259" lon="1.3504">
        <ele>156.6</ele>
        <time>2024-06-13T05:08:02Z</time>
      </trkpt>
      <trkpt lat="43.6226" lon="1.35046">
        <ele>156.6</ele>
        <time>2024-06-13T05:08:03Z</time>
      </trkpt>
      <trkpt lat="43.6226" lon="1.35053">
        <ele>156.6</ele>
        <time>2024-06-13T05:08:04Z</time>
      </trkpt>
      <trkpt lat="43.6226" lon="1.35059">
        <ele>156.6</ele>
        <time>2024-06-13T05:08:05Z</time>
      </trkpt>
      <trkpt lat="43.6226" lon="1.35064">
        <ele>156.6</ele>
        <time>2024-06-13T05:08:06Z</time>
      </trkpt>
      <trkpt lat="43.6226" lon="1.35071">
        <ele>156.6</ele>
        <time>2024-06-13T05:08:07Z</time>
      </trkpt>
      <trkpt lat="43.62261" lon="1.35076">
        <ele>156.6</ele>
        <time>2024-06-13T05:08:08Z</time>
      </trkpt>
      <trkpt lat="43.62261" lon="1.35083">
        <ele>156.6</ele>
        <time>2024-06-13T05:08:09Z</time>
      </trkpt>
      <trkpt lat="43.62261" lon="1.35089">
        <ele>156.6</ele>
        <time>2024-06-13T05:08:10Z</time>
      </trkpt>
      <trkpt lat="43.62262" lon="1.35095">
        <ele>156.6</ele>
        <time>2024-06-13T05:08:11Z</time>
      </trkpt>
      <trkpt lat="43.62262" lon="1.35101">
        <ele>156.6</ele>
        <time>2024-06-13T05:08:12Z</time>
      </trkpt>
      <trkpt lat="43.62262" lon="1.35107">
        <ele>156.6</ele>
        <time>2024-06-13T05:08:13Z</time>
      </trkpt>
      <trkpt lat="43.62263" lon="1.35113">
        <ele>156.6</ele>
        <time>2024-06-13T05:08:14Z</time>
      </trkpt>
      <trkpt lat="43.62264" lon="1.35118">
        <ele>156.6</ele>
        <time>2024-06-13T05:08:15Z</time>
      </trkpt>
      <trkpt lat="43.62265" lon="1.35124">
        <ele>156.6</ele>
        <time>2024-06-13T05:08:16Z</time>
      </trkpt>
      <trkpt lat="43.62265" lon="1.3513">
        <ele>156.6</ele>
        <time>2024-06-13T05:08:17Z</time>
      </trkpt>
      <trkpt lat="43.62266" lon="1.35135">
        <ele>156.6</ele>
        <time>2024-06-13T05:08:18Z</time>
      </trkpt>
      <trkpt lat="43.62266" lon="1.35139">
        <ele>156.6</ele>
        <time>2024-06-13T05:08:19Z</time>
      </trkpt>
      <trkpt lat="43.62266" lon="1.35144">
        <ele>156.6</ele>
        <time>2024-06-13T05:08:20Z</time>
      </trkpt>
      <trkpt lat="43.62267" lon="1.35148">
        <ele>156.6</ele>
        <time>2024-06-13T05:08:21Z</time>
      </trkpt>
      <trkpt lat="43.62267" lon="1.35149">
        <ele>156.6</ele>
        <time>2024-06-13T05:08:22Z</time>
      </trkpt>
      <trkpt lat="43.62267" lon="1.35149">
        <ele>156.6</ele>
        <time>2024-06-13T05:08:23Z</time>
      </trkpt>
      <trkpt lat="43.62267" lon="1.35149">
        <ele>156.6</ele>
        <time>2024-06-13T05:08:24Z</time>
      </trkpt>
      <trkpt lat="43.62212" lon="1.35131">
        <ele>188.8</ele>
        <time>2024-06-13T14:16:30Z</time>
      </trkpt>
      <trkpt lat="43.62214" lon="1.35137">
        <ele>188.8</ele>
        <time>2024-06-13T14:16:31Z</time>
      </trkpt>
      <trkpt lat="43.62215" lon="1.35163">
        <ele>189</ele>
        <time>2024-06-13T14:16:41Z</time>
      </trkpt>
      <trkpt lat="43.62214" lon="1.35166">
        <ele>189</ele>
        <time>2024-06-13T14:16:42Z</time>
      </trkpt>
      <trkpt lat="43.62211" lon="1.3517">
        <ele>189</ele>
        <time>2024-06-13T14:16:43Z</time>
      </trkpt>
      <trkpt lat="43.6221" lon="1.35173">
        <ele>189</ele>
        <time>2024-06-13T14:16:44Z</time>
      </trkpt>
      <trkpt lat="43.62207" lon="1.35175">
        <ele>189</ele>
        <time>2024-06-13T14:16:45Z</time>
      </trkpt>
      <trkpt lat="43.62205" lon="1.35177">
        <ele>189</ele>
        <time>2024-06-13T14:16:46Z</time>
      </trkpt>
      <trkpt lat="43.62202" lon="1.35178">
        <ele>189</ele>
        <time>2024-06-13T14:16:47Z</time>
      </trkpt>
      <trkpt lat="43.62201" lon="1.35177">
        <ele>189</ele>
        <time>2024-06-13T14:16:48Z</time>
      </trkpt>
      <trkpt lat="43.622" lon="1.35174">
        <ele>189</ele>
        <time>2024-06-13T14:16:49Z</time>
      </trkpt>
      <trkpt lat="43.62198" lon="1.35172">
        <ele>189.2</ele>
        <time>2024-06-13T14:16:50Z</time>
      </trkpt>
      <trkpt lat="43.62196" lon="1.35169">
        <ele>189.2</ele>
        <time>2024-06-13T14:16:51Z</time>
      </trkpt>
      <trkpt lat="43.62194" lon="1.35166">
        <ele>189.2</ele>
        <time>2024-06-13T14:16:52Z</time>
      </trkpt>
      <trkpt lat="43.62192" lon="1.35163">
        <ele>189.2</ele>
        <time>2024-06-13T14:16:53Z</time>
      </trkpt>
      <trkpt lat="43.62189" lon="1.3516">
        <ele>189.2</ele>
        <time>2024-06-13T14:16:54Z</time>
      </trkpt>
      <trkpt lat="43.62187" lon="1.35159">
        <ele>189.4</ele>
        <time>2024-06-13T14:16:55Z</time>
      </trkpt>
      <trkpt lat="43.62185" lon="1.35159">
        <ele>189.4</ele>
        <time>2024-06-13T14:16:56Z</time>
      </trkpt>
      <trkpt lat="43.62182" lon="1.3516">
        <ele>189.6</ele>
        <time>2024-06-13T14:16:57Z</time>
      </trkpt>
      <trkpt lat="43.62182" lon="1.3516">
        <ele>189.6</ele>
        <time>2024-06-13T14:16:58Z</time>
      </trkpt>
      <trkpt lat="43.62178" lon="1.35165">
        <ele>189.6</ele>
        <time>2024-06-13T14:16:59Z</time>
      </trkpt>
      <trkpt lat="43.62175" lon="1.35169">
        <ele>189.8</ele>
        <time>2024-06-13T14:17:00Z</time>
      </trkpt>
      <trkpt lat="43.62172" lon="1.35172">
        <ele>189.8</ele>
        <time>2024-06-13T14:17:01Z</time>
      </trkpt>
      <trkpt lat="43.62169" lon="1.35175">
        <ele>189.8</ele>
        <time>2024-06-13T14:17:02Z</time>
      </trkpt>
      <trkpt lat="43.62166" lon="1.35178">
        <ele>190</ele>
        <time>2024-06-13T14:17:03Z</time>
      </trkpt>
      <trkpt lat="43.62162" lon="1.3518">
        <ele>190.2</ele>
        <time>2024-06-13T14:17:04Z</time>
      </trkpt>
      <trkpt lat="43.62158" lon="1.3518">
        <ele>190.4</ele>
        <time>2024-06-13T14:17:05Z</time>
      </trkpt>
      <trkpt lat="43.62155" lon="1.35179">
        <ele>190.4</ele>
        <time>2024-06-13T14:17:06Z</time>
      </trkpt>
      <trkpt lat="43.62152" lon="1.35176">
        <ele>190.4</ele>
        <time>2024-06-13T14:17:07Z</time>
      </trkpt>
      <trkpt lat="43.62149" lon="1.3517">
        <ele>190.6</ele>
        <time>2024-06-13T14:17:08Z</time>
      </trkpt>
      <trkpt lat="43.62149" lon="1.3517">
        <ele>190.6</ele>
        <time>2024-06-13T14:17:09Z</time>
      </trkpt>
      <trkpt lat="43.62151" lon="1.35164">
        <ele>190.8</ele>
        <time>2024-06-13T14:17:10Z</time>
      </trkpt>
      <trkpt lat="43.62151" lon="1.35159">
        <ele>190.8</ele>
        <time>2024-06-13T14:17:11Z</time>
      </trkpt>
      <trkpt lat="43.6215" lon="1.35154">
        <ele>190.8</ele>
        <time>2024-06-13T14:17:12Z</time>
      </trkpt>
      <trkpt lat="43.62147" lon="1.35147">
        <ele>191</ele>
        <time>2024-06-13T14:17:13Z</time>
      </trkpt>
      <trkpt lat="43.62145" lon="1.35139">
        <ele>191</ele>
        <time>2024-06-13T14:17:14Z</time>
      </trkpt>
      <trkpt lat="43.62142" lon="1.35131">
        <ele>191</ele>
        <time>2024-06-13T14:17:15Z</time>
      </trkpt>
      <trkpt lat="43.62137" lon="1.35118">
        <ele>191</ele>
        <time>2024-06-13T14:17:16Z</time>
      </trkpt>
      <trkpt lat="43.62137" lon="1.35118">
        <ele>191.2</ele>
        <time>2024-06-13T14:17:17Z</time>
      </trkpt>
      <trkpt lat="43.62136" lon="1.35111">
        <ele>191.2</ele>
        <time>2024-06-13T14:17:18Z</time>
      </trkpt>
      <trkpt lat="43.62134" lon="1.35104">
        <ele>191.2</ele>
        <time>2024-06-13T14:17:19Z</time>
      </trkpt>
      <trkpt lat="43.62132" lon="1.35097">
        <ele>191.2</ele>
        <time>2024-06-13T14:17:20Z</time>
      </trkpt>
      <trkpt lat="43.62131" lon="1.3509">
        <ele>191.2</ele>
        <time>2024-06-13T14:17:21Z</time>
      </trkpt>
      <trkpt lat="43.62131" lon="1.35075">
        <ele>191.2</ele>
        <time>2024-06-13T14:17:22Z</time>
      </trkpt>
      <trkpt lat="43.62132" lon="1.35067">
        <ele>191.2</ele>
        <time>2024-06-13T14:17:23Z</time>
      </trkpt>
      <trkpt lat="43.62133" lon="1.35059">
        <ele>191.2</ele>
        <time>2024-06-13T14:17:24Z</time>
      </trkpt>
      <trkpt lat="43.62135" lon="1.35052">
        <ele>191.2</ele>
        <time>2024-06-13T14:17:25Z</time>
      </trkpt>
      <trkpt lat="43.62135" lon="1.35052">
        <ele>191.2</ele>
        <time>2024-06-13T14:17:26Z</time>
      </trkpt>
      <trkpt lat="43.62138" lon="1.35037">
        <ele>191.4</ele>
        <time>2024-06-13T14:17:27Z</time>
      </trkpt>
      <trkpt lat="43.62139" lon="1.35029">
        <ele>191.4</ele>
        <time>2024-06-13T14:17:28Z</time>
      </trkpt>
      <trkpt lat="43.6214" lon="1.35021">
        <ele>191.4</ele>
        <time>2024-06-13T14:17:29Z</time>
      </trkpt>
      <trkpt lat="43.62141" lon="1.35013">
        <ele>191.4</ele>
        <time>2024-06-13T14:17:30Z</time>
      </trkpt>
      <trkpt lat="43.62143" lon="1.35005">
        <ele>191.4</ele>
        <time>2024-06-13T14:17:31Z</time>
      </trkpt>
      <trkpt lat="43.62146" lon="1.34998">
        <ele>191.4</ele>
        <time>2024-06-13T14:17:32Z</time>
      </trkpt>
      <trkpt lat="43.6215" lon="1.34991">
        <ele>191.4</ele>
        <time>2024-06-13T14:17:33Z</time>
      </trkpt>
      <trkpt lat="43.62154" lon="1.34984">
        <ele>191.4</ele>
        <time>2024-06-13T14:17:34Z</time>
      </trkpt>
      <trkpt lat="43.62154" lon="1.34984">
        <ele>191.4</ele>
        <time>2024-06-13T14:17:35Z</time>
      </trkpt>
      <trkpt lat="43.62162" lon="1.34972">
        <ele>191.4</ele>
        <time>2024-06-13T14:17:36Z</time>
      </trkpt>
      <trkpt lat="43.62167" lon="1.34967">
        <ele>191.4</ele>
        <time>2024-06-13T14:17:37Z</time>
      </trkpt>
      <trkpt lat="43.62172" lon="1.34961">
        <ele>191.4</ele>
        <time>2024-06-13T14:17:38Z</time>
      </trkpt>
      <trkpt lat="43.62177" lon="1.34956">
        <ele>191.2</ele>
        <time>2024-06-13T14:17:39Z</time>
      </trkpt>
      <trkpt lat="43.62182" lon="1.3495">
        <ele>191.2</ele>
        <time>2024-06-13T14:17:40Z</time>
      </trkpt>
      <trkpt lat="43.62187" lon="1.34945">
        <ele>191</ele>
        <time>2024-06-13T14:17:41Z</time>
      </trkpt>
      <trkpt lat="43.62187" lon="1.34945">
        <ele>190.8</ele>
        <time>2024-06-13T14:17:42Z</time>
      </trkpt>
      <trkpt lat="43.62197" lon="1.34934">
        <ele>190.8</ele>
        <time>2024-06-13T14:17:43Z</time>
      </trkpt>
      <trkpt lat="43.62202" lon="1.34929">
        <ele>190.8</ele>
        <time>2024-06-13T14:17:44Z</time>
      </trkpt>
      <trkpt lat="43.62208" lon="1.34924">
        <ele>190.8</ele>
        <time>2024-06-13T14:17:45Z</time>
      </trkpt>
      <trkpt lat="43.62213" lon="1.34918">
        <ele>190.8</ele>
        <time>2024-06-13T14:17:46Z</time>
      </trkpt>
      <trkpt lat="43.62219" lon="1.34913">
        <ele>190.6</ele>
        <time>2024-06-13T14:17:47Z</time>
      </trkpt>
      <trkpt lat="43.62224" lon="1.34908">
        <ele>190.6</ele>
        <time>2024-06-13T14:17:48Z</time>
      </trkpt>
      <trkpt lat="43.6223" lon="1.34902">
        <ele>190.6</ele>
        <time>2024-06-13T14:17:49Z</time>
      </trkpt>
      <trkpt lat="43.62235" lon="1.34897">
        <ele>190.6</ele>
        <time>2024-06-13T14:17:50Z</time>
      </trkpt>
      <trkpt lat="43.6224" lon="1.34891">
        <ele>190.4</ele>
        <time>2024-06-13T14:17:51Z</time>
      </trkpt>
      <trkpt lat="43.62246" lon="1.34886">
        <ele>190.4</ele>
        <time>2024-06-13T14:17:52Z</time>
      </trkpt>
      <trkpt lat="43.62251" lon="1.34881">
        <ele>190.4</ele>
        <time>2024-06-13T14:17:53Z</time>
      </trkpt>
      <trkpt lat="43.62251" lon="1.34881">
        <ele>190.4</ele>
        <time>2024-06-13T14:17:54Z</time>
      </trkpt>
      <trkpt lat="43.62262" lon="1.34871">
        <ele>190.2</ele>
        <time>2024-06-13T14:17:55Z</time>
      </trkpt>
      <trkpt lat="43.62262" lon="1.34871">
        <ele>190.2</ele>
        <time>2024-06-13T14:17:56Z</time>
      </trkpt>
      <trkpt lat="43.62272" lon="1.34861">
        <ele>190.2</ele>
        <time>2024-06-13T14:17:57Z</time>
      </trkpt>
      <trkpt lat="43.62278" lon="1.34856">
        <ele>190.2</ele>
        <time>2024-06-13T14:17:58Z</time>
      </trkpt>
      <trkpt lat="43.62283" lon="1.34851">
        <ele>190.2</ele>
        <time>2024-06-13T14:17:59Z</time>
      </trkpt>
      <trkpt lat="43.62283" lon="1.34851">
        <ele>190.2</ele>
        <time>2024-06-13T14:18:00Z</time>
      </trkpt>
      <trkpt lat="43.62288" lon="1.34846">
        <ele>190.2</ele>
        <time>2024-06-13T14:18:01Z</time>
      </trkpt>
      <trkpt lat="43.62298" lon="1.34837">
        <ele>190.4</ele>
        <time>2024-06-13T14:18:02Z</time>
      </trkpt>
      <trkpt lat="43.62298" lon="1.34837">
        <ele>190.4</ele>
        <time>2024-06-13T14:18:03Z</time>
      </trkpt>
      <trkpt lat="43.62309" lon="1.34827">
        <ele>190.4</ele>
        <time>2024-06-13T14:18:04Z</time>
      </trkpt>
      <trkpt lat="43.62313" lon="1.34822">
        <ele>190.6</ele>
        <time>2024-06-13T14:18:05Z</time>
      </trkpt>
      <trkpt lat="43.62318" lon="1.34817">
        <ele>190.8</ele>
        <time>2024-06-13T14:18:06Z</time>
      </trkpt>
      <trkpt lat="43.62323" lon="1.34813">
        <ele>190.8</ele>
        <time>2024-06-13T14:18:07Z</time>
      </trkpt>
      <trkpt lat="43.62328" lon="1.34808">
        <ele>191</ele>
        <time>2024-06-13T14:18:08Z</time>
      </trkpt>
      <trkpt lat="43.62333" lon="1.34803">
        <ele>191</ele>
        <time>2024-06-13T14:18:09Z</time>
      </trkpt>
      <trkpt lat="43.62333" lon="1.34803">
        <ele>191</ele>
        <time>2024-06-13T14:18:10Z</time>
      </trkpt>
      <trkpt lat="43.62343" lon="1.34795">
        <ele>191.2</ele>
        <time>2024-06-13T14:18:11Z</time>
      </trkpt>
      <trkpt lat="43.62343" lon="1.34795">
        <ele>191.2</ele>
        <time>2024-06-13T14:18:12Z</time>
      </trkpt>
      <trkpt lat="43.62354" lon="1.34789">
        <ele>191.2</ele>
        <time>2024-06-13T14:18:13Z</time>
      </trkpt>
      <trkpt lat="43.6236" lon="1.34787">
        <ele>191.4</ele>
        <time>2024-06-13T14:18:14Z</time>
      </trkpt>
      <trkpt lat="43.62366" lon="1.34786">
        <ele>191.6</ele>
        <time>2024-06-13T14:18:15Z</time>
      </trkpt>
      <trkpt lat="43.62372" lon="1.34785">
        <ele>191.6</ele>
        <time>2024-06-13T14:18:16Z</time>
      </trkpt>
      <trkpt lat="43.62378" lon="1.34785">
        <ele>191.6</ele>
        <time>2024-06-13T14:18:17Z</time>
      </trkpt>
      <trkpt lat="43.62384" lon="1.34784">
        <ele>191.6</ele>
        <time>2024-06-13T14:18:18Z</time>
      </trkpt>
      <trkpt lat="43.62384" lon="1.34784">
        <ele>191.6</ele>
        <time>2024-06-13T14:18:19Z</time>
      </trkpt>
      <trkpt lat="43.62397" lon="1.34783">
        <ele>191.6</ele>
        <time>2024-06-13T14:18:20Z</time>
      </trkpt>
      <trkpt lat="43.62397" lon="1.34783">
        <ele>191.8</ele>
        <time>2024-06-13T14:18:21Z</time>
      </trkpt>
      <trkpt lat="43.6241" lon="1.34782">
        <ele>191.8</ele>
        <time>2024-06-13T14:18:22Z</time>
      </trkpt>
      <trkpt lat="43.62416" lon="1.34782">
        <ele>191.8</ele>
        <time>2024-06-13T14:18:23Z</time>
      </trkpt>
      <trkpt lat="43.62423" lon="1.34782">
        <ele>191.8</ele>
        <time>2024-06-13T14:18:24Z</time>
      </trkpt>
      <trkpt lat="43.62429" lon="1.34782">
        <ele>191.8</ele>
        <time>2024-06-13T14:18:25Z</time>
      </trkpt>
      <trkpt lat="43.62435" lon="1.34782">
        <ele>191.6</ele>
        <time>2024-06-13T14:18:26Z</time>
      </trkpt>
      <trkpt lat="43.62441" lon="1.34781">
        <ele>191.6</ele>
        <time>2024-06-13T14:18:27Z</time>
      </trkpt>
      <trkpt lat="43.62447" lon="1.34781">
        <ele>191.6</ele>
        <time>2024-06-13T14:18:28Z</time>
      </trkpt>
      <trkpt lat="43.62454" lon="1.34781">
        <ele>191.6</ele>
        <time>2024-06-13T14:18:29Z</time>
      </trkpt>
      <trkpt lat="43.6246" lon="1.3478">
        <ele>191.6</ele>
        <time>2024-06-13T14:18:30Z</time>
      </trkpt>
      <trkpt lat="43.62468" lon="1.3478">
        <ele>191.4</ele>
        <time>2024-06-13T14:18:31Z</time>
      </trkpt>
      <trkpt lat="43.62472" lon="1.3478">
        <ele>191.4</ele>
        <time>2024-06-13T14:18:32Z</time>
      </trkpt>
      <trkpt lat="43.62478" lon="1.3478">
        <ele>191.2</ele>
        <time>2024-06-13T14:18:33Z</time>
      </trkpt>
      <trkpt lat="43.62483" lon="1.3478">
        <ele>191.2</ele>
        <time>2024-06-13T14:18:34Z</time>
      </trkpt>
      <trkpt lat="43.62488" lon="1.34779">
        <ele>191</ele>
        <time>2024-06-13T14:18:35Z</time>
      </trkpt>
      <trkpt lat="43.62494" lon="1.34779">
        <ele>191</ele>
        <time>2024-06-13T14:18:36Z</time>
      </trkpt>
      <trkpt lat="43.625" lon="1.3478">
        <ele>191</ele>
        <time>2024-06-13T14:18:37Z</time>
      </trkpt>
      <trkpt lat="43.62505" lon="1.34782">
        <ele>190.8</ele>
        <time>2024-06-13T14:18:38Z</time>
      </trkpt>
      <trkpt lat="43.6251" lon="1.34785">
        <ele>190.8</ele>
        <time>2024-06-13T14:18:39Z</time>
      </trkpt>
      <trkpt lat="43.62516" lon="1.34787">
        <ele>190.8</ele>
        <time>2024-06-13T14:18:40Z</time>
      </trkpt>
      <trkpt lat="43.62521" lon="1.34786">
        <ele>190.6</ele>
        <time>2024-06-13T14:18:41Z</time>
      </trkpt>
      <trkpt lat="43.62525" lon="1.34783">
        <ele>190.6</ele>
        <time>2024-06-13T14:18:42Z</time>
      </trkpt>
      <trkpt lat="43.62529" lon="1.34777">
        <ele>190.4</ele>
        <time>2024-06-13T14:18:43Z</time>
      </trkpt>
      <trkpt lat="43.62531" lon="1.3477">
        <ele>190.4</ele>
        <time>2024-06-13T14:18:44Z</time>
      </trkpt>
      <trkpt lat="43.62532" lon="1.34764">
        <ele>190.6</ele>
        <time>2024-06-13T14:18:45Z</time>
      </trkpt>
      <trkpt lat="43.62532" lon="1.34758">
        <ele>190.6</ele>
        <time>2024-06-13T14:18:46Z</time>
      </trkpt>
      <trkpt lat="43.62533" lon="1.34752">
        <ele>190.6</ele>
        <time>2024-06-13T14:18:47Z</time>
      </trkpt>
      <trkpt lat="43.62533" lon="1.34748">
        <ele>190.6</ele>
        <time>2024-06-13T14:18:48Z</time>
      </trkpt>
      <trkpt lat="43.62533" lon="1.34745">
        <ele>190.6</ele>
        <time>2024-06-13T14:18:49Z</time>
      </trkpt>
      <trkpt lat="43.62533" lon="1.34743">
        <ele>190.6</ele>
        <time>2024-06-13T14:18:50Z</time>
      </trkpt>
      <trkpt lat="43.62533" lon="1.34742">
        <ele>190.8</ele>
        <time>2024-06-13T14:18:51Z</time>
      </trkpt>
      <trkpt lat="43.62533" lon="1.34742">
        <ele>190.8</ele>
        <time>2024-06-13T14:18:52Z</time>
      </trkpt>
      <trkpt lat="43.62533" lon="1.34742">
        <ele>190.8</ele>
        <time>2024-06-13T14:18:53Z</time>
      </trkpt>
      <trkpt lat="43.62533" lon="1.3473">
        <ele>191</ele>
        <time>2024-06-13T14:18:58Z</time>
      </trkpt>
      <trkpt lat="43.62533" lon="1.34726">
        <ele>191</ele>
        <time>2024-06-13T14:18:59Z</time>
      </trkpt>
      <trkpt lat="43.62533" lon="1.34726">
        <ele>191</ele>
        <time>2024-06-13T14:19:00Z</time>
      </trkpt>
      <trkpt lat="43.62533" lon="1.34722">
        <ele>191</ele>
        <time>2024-06-13T14:19:01Z</time>
      </trkpt>
      <trkpt lat="43.62534" lon="1.34713">
        <ele>191</ele>
        <time>2024-06-13T14:19:02Z</time>
      </trkpt>
      <trkpt lat="43.62537" lon="1.34709">
        <ele>191</ele>
        <time>2024-06-13T14:19:03Z</time>
      </trkpt>
      <trkpt lat="43.62539" lon="1.34704">
        <ele>191</ele>
        <time>2024-06-13T14:19:04Z</time>
      </trkpt>
      <trkpt lat="43.62541" lon="1.34699">
        <ele>191</ele>
        <time>2024-06-13T14:19:05Z</time>
      </trkpt>
      <trkpt lat="43.62541" lon="1.34699">
        <ele>191</ele>
        <time>2024-06-13T14:19:06Z</time>
      </trkpt>
      <trkpt lat="43.62543" lon="1.34687">
        <ele>191</ele>
        <time>2024-06-13T14:19:07Z</time>
      </trkpt>
      <trkpt lat="43.62544" lon="1.34682">
        <ele>191</ele>
        <time>2024-06-13T14:19:08Z</time>
      </trkpt>
      <trkpt lat="43.62544" lon="1.34677">
        <ele>191</ele>
        <time>2024-06-13T14:19:09Z</time>
      </trkpt>
      <trkpt lat="43.62545" lon="1.34672">
        <ele>191.2</ele>
        <time>2024-06-13T14:19:10Z</time>
      </trkpt>
      <trkpt lat="43.62548" lon="1.34669">
        <ele>191.2</ele>
        <time>2024-06-13T14:19:11Z</time>
      </trkpt>
      <trkpt lat="43.62548" lon="1.34665">
        <ele>191.2</ele>
        <time>2024-06-13T14:19:12Z</time>
      </trkpt>
      <trkpt lat="43.6255" lon="1.34662">
        <ele>191.4</ele>
        <time>2024-06-13T14:19:13Z</time>
      </trkpt>
      <trkpt lat="43.62553" lon="1.34661">
        <ele>191.4</ele>
        <time>2024-06-13T14:19:14Z</time>
      </trkpt>
      <trkpt lat="43.62553" lon="1.34661">
        <ele>191.4</ele>
        <time>2024-06-13T14:19:15Z</time>
      </trkpt>
      <trkpt lat="43.62561" lon="1.34663">
        <ele>191.4</ele>
        <time>2024-06-13T14:19:16Z</time>
      </trkpt>
      <trkpt lat="43.62561" lon="1.34663">
        <ele>191.4</ele>
        <time>2024-06-13T14:19:17Z</time>
      </trkpt>
      <trkpt lat="43.6257" lon="1.34662">
        <ele>191.4</ele>
        <time>2024-06-13T14:19:18Z</time>
      </trkpt>
      <trkpt lat="43.62575" lon="1.34662">
        <ele>191.4</ele>
        <time>2024-06-13T14:19:19Z</time>
      </trkpt>
      <trkpt lat="43.6258" lon="1.34662">
        <ele>191.4</ele>
        <time>2024-06-13T14:19:20Z</time>
      </trkpt>
      <trkpt lat="43.62584" lon="1.34661">
        <ele>191.4</ele>
        <time>2024-06-13T14:19:21Z</time>
      </trkpt>
      <trkpt lat="43.62584" lon="1.34661">
        <ele>191.4</ele>
        <time>2024-06-13T14:19:22Z</time>
      </trkpt>
      <trkpt lat="43.62594" lon="1.34662">
        <ele>191.4</ele>
        <time>2024-06-13T14:19:23Z</time>
      </trkpt>
      <trkpt lat="43.626" lon="1.34661">
        <ele>191.4</ele>
        <time>2024-06-13T14:19:24Z</time>
      </trkpt>
      <trkpt lat="43.62606" lon="1.34661">
        <ele>191.2</ele>
        <time>2024-06-13T14:19:25Z</time>
      </trkpt>
      <trkpt lat="43.62612" lon="1.3466">
        <ele>191.2</ele>
        <time>2024-06-13T14:19:26Z</time>
      </trkpt>
      <trkpt lat="43.62618" lon="1.3466">
        <ele>191.2</ele>
        <time>2024-06-13T14:19:27Z</time>
      </trkpt>
      <trkpt lat="43.62625" lon="1.34659">
        <ele>191.2</ele>
        <time>2024-06-13T14:19:28Z</time>
      </trkpt>
      <trkpt lat="43.62631" lon="1.34659">
        <ele>191.2</ele>
        <time>2024-06-13T14:19:29Z</time>
      </trkpt>
      <trkpt lat="43.62638" lon="1.34659">
        <ele>191.2</ele>
        <time>2024-06-13T14:19:30Z</time>
      </trkpt>
      <trkpt lat="43.62643" lon="1.34659">
        <ele>191.2</ele>
        <time>2024-06-13T14:19:31Z</time>
      </trkpt>
      <trkpt lat="43.62649" lon="1.34658">
        <ele>191.2</ele>
        <time>2024-06-13T14:19:32Z</time>
      </trkpt>
      <trkpt lat="43.62658" lon="1.34658">
        <ele>191.2</ele>
        <time>2024-06-13T14:19:33Z</time>
      </trkpt>
      <trkpt lat="43.62664" lon="1.34657">
        <ele>191.2</ele>
        <time>2024-06-13T14:19:34Z</time>
      </trkpt>
      <trkpt lat="43.62671" lon="1.34656">
        <ele>191.2</ele>
        <time>2024-06-13T14:19:35Z</time>
      </trkpt>
      <trkpt lat="43.62676" lon="1.34656">
        <ele>191.2</ele>
        <time>2024-06-13T14:19:36Z</time>
      </trkpt>
      <trkpt lat="43.62682" lon="1.34656">
        <ele>191.2</ele>
        <time>2024-06-13T14:19:37Z</time>
      </trkpt>
      <trkpt lat="43.6269" lon="1.34655">
        <ele>191.2</ele>
        <time>2024-06-13T14:19:38Z</time>
      </trkpt>
      <trkpt lat="43.62696" lon="1.34655">
        <ele>191.2</ele>
        <time>2024-06-13T14:19:39Z</time>
      </trkpt>
      <trkpt lat="43.62702" lon="1.34655">
        <ele>191.2</ele>
        <time>2024-06-13T14:19:40Z</time>
      </trkpt>
      <trkpt lat="43.62707" lon="1.34654">
        <ele>191.2</ele>
        <time>2024-06-13T14:19:41Z</time>
      </trkpt>
      <trkpt lat="43.62713" lon="1.34654">
        <ele>191.2</ele>
        <time>2024-06-13T14:19:42Z</time>
      </trkpt>
      <trkpt lat="43.62719" lon="1.34654">
        <ele>191</ele>
        <time>2024-06-13T14:19:43Z</time>
      </trkpt>
      <trkpt lat="43.62727" lon="1.34654">
        <ele>191</ele>
        <time>2024-06-13T14:19:44Z</time>
      </trkpt>
      <trkpt lat="43.62732" lon="1.34654">
        <ele>191</ele>
        <time>2024-06-13T14:19:45Z</time>
      </trkpt>
      <trkpt lat="43.62737" lon="1.34653">
        <ele>191</ele>
        <time>2024-06-13T14:19:46Z</time>
      </trkpt>
      <trkpt lat="43.62742" lon="1.34652">
        <ele>191</ele>
        <time>2024-06-13T14:19:47Z</time>
      </trkpt>
      <trkpt lat="43.62746" lon="1.34652">
        <ele>191</ele>
        <time>2024-06-13T14:19:48Z</time>
      </trkpt>
      <trkpt lat="43.62751" lon="1.34653">
        <ele>191</ele>
        <time>2024-06-13T14:19:49Z</time>
      </trkpt>
      <trkpt lat="43.62755" lon="1.34653">
        <ele>191</ele>
        <time>2024-06-13T14:19:50Z</time>
      </trkpt>
      <trkpt lat="43.62759" lon="1.34653">
        <ele>191.2</ele>
        <time>2024-06-13T14:19:51Z</time>
      </trkpt>
      <trkpt lat="43.62763" lon="1.34653">
        <ele>191.2</ele>
        <time>2024-06-13T14:19:52Z</time>
      </trkpt>
      <trkpt lat="43.62763" lon="1.34653">
        <ele>191.2</ele>
        <time>2024-06-13T14:19:53Z</time>
      </trkpt>
      <trkpt lat="43.62773" lon="1.34651">
        <ele>191.2</ele>
        <time>2024-06-13T14:19:54Z</time>
      </trkpt>
      <trkpt lat="43.62778" lon="1.34651">
        <ele>191.2</ele>
        <time>2024-06-13T14:19:55Z</time>
      </trkpt>
      <trkpt lat="43.62783" lon="1.3465">
        <ele>191.2</ele>
        <time>2024-06-13T14:19:56Z</time>
      </trkpt>
      <trkpt lat="43.62783" lon="1.3465">
        <ele>191.2</ele>
        <time>2024-06-13T14:19:57Z</time>
      </trkpt>
      <trkpt lat="43.62793" lon="1.3465">
        <ele>191.2</ele>
        <time>2024-06-13T14:19:58Z</time>
      </trkpt>
      <trkpt lat="43.62799" lon="1.3465">
        <ele>191.2</ele>
        <time>2024-06-13T14:19:59Z</time>
      </trkpt>
      <trkpt lat="43.62805" lon="1.3465">
        <ele>191.2</ele>
        <time>2024-06-13T14:20:00Z</time>
      </trkpt>
      <trkpt lat="43.6281" lon="1.34649">
        <ele>191.2</ele>
        <time>2024-06-13T14:20:01Z</time>
      </trkpt>
      <trkpt lat="43.62816" lon="1.34649">
        <ele>191</ele>
        <time>2024-06-13T14:20:02Z</time>
      </trkpt>
      <trkpt lat="43.62822" lon="1.34649">
        <ele>191</ele>
        <time>2024-06-13T14:20:03Z</time>
      </trkpt>
      <trkpt lat="43.62828" lon="1.34649">
        <ele>191</ele>
        <time>2024-06-13T14:20:04Z</time>
      </trkpt>
      <trkpt lat="43.62834" lon="1.34648">
        <ele>191</ele>
        <time>2024-06-13T14:20:05Z</time>
      </trkpt>
      <trkpt lat="43.6284" lon="1.34648">
        <ele>191</ele>
        <time>2024-06-13T14:20:06Z</time>
      </trkpt>
      <trkpt lat="43.62846" lon="1.34647">
        <ele>191</ele>
        <time>2024-06-13T14:20:07Z</time>
      </trkpt>
      <trkpt lat="43.62852" lon="1.34647">
        <ele>191</ele>
        <time>2024-06-13T14:20:08Z</time>
      </trkpt>
      <trkpt lat="43.62858" lon="1.34646">
        <ele>191</ele>
        <time>2024-06-13T14:20:09Z</time>
      </trkpt>
      <trkpt lat="43.62866" lon="1.34646">
        <ele>191</ele>
        <time>2024-06-13T14:20:10Z</time>
      </trkpt>
      <trkpt lat="43.62872" lon="1.34646">
        <ele>191</ele>
        <time>2024-06-13T14:20:11Z</time>
      </trkpt>
      <trkpt lat="43.62877" lon="1.34646">
        <ele>191</ele>
        <time>2024-06-13T14:20:12Z</time>
      </trkpt>
      <trkpt lat="43.62884" lon="1.34645">
        <ele>191</ele>
        <time>2024-06-13T14:20:13Z</time>
      </trkpt>
      <trkpt lat="43.6289" lon="1.34644">
        <ele>191</ele>
        <time>2024-06-13T14:20:14Z</time>
      </trkpt>
      <trkpt lat="43.62897" lon="1.34642">
        <ele>191</ele>
        <time>2024-06-13T14:20:15Z</time>
      </trkpt>
      <trkpt lat="43.62903" lon="1.34641">
        <ele>191</ele>
        <time>2024-06-13T14:20:16Z</time>
      </trkpt>
      <trkpt lat="43.6291" lon="1.34639">
        <ele>191</ele>
        <time>2024-06-13T14:20:17Z</time>
      </trkpt>
      <trkpt lat="43.62915" lon="1.34637">
        <ele>191</ele>
        <time>2024-06-13T14:20:18Z</time>
      </trkpt>
      <trkpt lat="43.62921" lon="1.34635">
        <ele>191</ele>
        <time>2024-06-13T14:20:19Z</time>
      </trkpt>
      <trkpt lat="43.62928" lon="1.34632">
        <ele>191</ele>
        <time>2024-06-13T14:20:20Z</time>
      </trkpt>
      <trkpt lat="43.62934" lon="1.34629">
        <ele>191</ele>
        <time>2024-06-13T14:20:21Z</time>
      </trkpt>
      <trkpt lat="43.62939" lon="1.34625">
        <ele>191</ele>
        <time>2024-06-13T14:20:22Z</time>
      </trkpt>
      <trkpt lat="43.62944" lon="1.34622">
        <ele>191</ele>
        <time>2024-06-13T14:20:23Z</time>
      </trkpt>
      <trkpt lat="43.62949" lon="1.34618">
        <ele>191</ele>
        <time>2024-06-13T14:20:24Z</time>
      </trkpt>
      <trkpt lat="43.62954" lon="1.34614">
        <ele>191</ele>
        <time>2024-06-13T14:20:25Z</time>
      </trkpt>
      <trkpt lat="43.6296" lon="1.3461">
        <ele>191</ele>
        <time>2024-06-13T14:20:26Z</time>
      </trkpt>
      <trkpt lat="43.62964" lon="1.34608">
        <ele>191</ele>
        <time>2024-06-13T14:20:27Z</time>
      </trkpt>
      <trkpt lat="43.62967" lon="1.34608">
        <ele>191.2</ele>
        <time>2024-06-13T14:20:28Z</time>
      </trkpt>
      <trkpt lat="43.62971" lon="1.34607">
        <ele>191.2</ele>
        <time>2024-06-13T14:20:29Z</time>
      </trkpt>
      <trkpt lat="43.62974" lon="1.34606">
        <ele>191.2</ele>
        <time>2024-06-13T14:20:30Z</time>
      </trkpt>
      <trkpt lat="43.62977" lon="1.34601">
        <ele>191.2</ele>
        <time>2024-06-13T14:20:31Z</time>
      </trkpt>
      <trkpt lat="43.62978" lon="1.34596">
        <ele>191.2</ele>
        <time>2024-06-13T14:20:32Z</time>
      </trkpt>
      <trkpt lat="43.62978" lon="1.3459">
        <ele>191.2</ele>
        <time>2024-06-13T14:20:33Z</time>
      </trkpt>
      <trkpt lat="43.62979" lon="1.34586">
        <ele>191.2</ele>
        <time>2024-06-13T14:20:34Z</time>
      </trkpt>
      <trkpt lat="43.62979" lon="1.34579">
        <ele>191.2</ele>
        <time>2024-06-13T14:20:35Z</time>
      </trkpt>
      <trkpt lat="43.6298" lon="1.34571">
        <ele>191</ele>
        <time>2024-06-13T14:20:36Z</time>
      </trkpt>
      <trkpt lat="43.6298" lon="1.34563">
        <ele>191</ele>
        <time>2024-06-13T14:20:37Z</time>
      </trkpt>
      <trkpt lat="43.62981" lon="1.34556">
        <ele>190.8</ele>
        <time>2024-06-13T14:20:38Z</time>
      </trkpt>
      <trkpt lat="43.62981" lon="1.34556">
        <ele>190.8</ele>
        <time>2024-06-13T14:20:39Z</time>
      </trkpt>
      <trkpt lat="43.62982" lon="1.34542">
        <ele>190.8</ele>
        <time>2024-06-13T14:20:40Z</time>
      </trkpt>
      <trkpt lat="43.62983" lon="1.34533">
        <ele>190.8</ele>
        <time>2024-06-13T14:20:41Z</time>
      </trkpt>
      <trkpt lat="43.62983" lon="1.34525">
        <ele>190.8</ele>
        <time>2024-06-13T14:20:42Z</time>
      </trkpt>
      <trkpt lat="43.62984" lon="1.34518">
        <ele>190.8</ele>
        <time>2024-06-13T14:20:43Z</time>
      </trkpt>
      <trkpt lat="43.62984" lon="1.34512">
        <ele>190.8</ele>
        <time>2024-06-13T14:20:44Z</time>
      </trkpt>
      <trkpt lat="43.62985" lon="1.34504">
        <ele>190.8</ele>
        <time>2024-06-13T14:20:45Z</time>
      </trkpt>
      <trkpt lat="43.62985" lon="1.34494">
        <ele>190.8</ele>
        <time>2024-06-13T14:20:46Z</time>
      </trkpt>
      <trkpt lat="43.62986" lon="1.34486">
        <ele>191</ele>
        <time>2024-06-13T14:20:47Z</time>
      </trkpt>
      <trkpt lat="43.62986" lon="1.34478">
        <ele>191</ele>
        <time>2024-06-13T14:20:48Z</time>
      </trkpt>
      <trkpt lat="43.62987" lon="1.34472">
        <ele>191</ele>
        <time>2024-06-13T14:20:49Z</time>
      </trkpt>
      <trkpt lat="43.62988" lon="1.34464">
        <ele>191.2</ele>
        <time>2024-06-13T14:20:50Z</time>
      </trkpt>
      <trkpt lat="43.62988" lon="1.34456">
        <ele>191.2</ele>
        <time>2024-06-13T14:20:51Z</time>
      </trkpt>
      <trkpt lat="43.62989" lon="1.34446">
        <ele>191.4</ele>
        <time>2024-06-13T14:20:52Z</time>
      </trkpt>
      <trkpt lat="43.6299" lon="1.34438">
        <ele>191.6</ele>
        <time>2024-06-13T14:20:53Z</time>
      </trkpt>
      <trkpt lat="43.62991" lon="1.34431">
        <ele>191.6</ele>
        <time>2024-06-13T14:20:54Z</time>
      </trkpt>
      <trkpt lat="43.62992" lon="1.34422">
        <ele>191.8</ele>
        <time>2024-06-13T14:20:55Z</time>
      </trkpt>
      <trkpt lat="43.62994" lon="1.34416">
        <ele>191.8</ele>
        <time>2024-06-13T14:20:56Z</time>
      </trkpt>
      <trkpt lat="43.62997" lon="1.34407">
        <ele>191.8</ele>
        <time>2024-06-13T14:20:57Z</time>
      </trkpt>
      <trkpt lat="43.63001" lon="1.34401">
        <ele>191.8</ele>
        <time>2024-06-13T14:20:58Z</time>
      </trkpt>
      <trkpt lat="43.63005" lon="1.34396">
        <ele>191.8</ele>
        <time>2024-06-13T14:20:59Z</time>
      </trkpt>
      <trkpt lat="43.63009" lon="1.34392">
        <ele>191.8</ele>
        <time>2024-06-13T14:21:00Z</time>
      </trkpt>
      <trkpt lat="43.63014" lon="1.34389">
        <ele>191.8</ele>
        <time>2024-06-13T14:21:01Z</time>
      </trkpt>
      <trkpt lat="43.63021" lon="1.34386">
        <ele>192</ele>
        <time>2024-06-13T14:21:02Z</time>
      </trkpt>
      <trkpt lat="43.63027" lon="1.34384">
        <ele>192</ele>
        <time>2024-06-13T14:21:03Z</time>
      </trkpt>
      <trkpt lat="43.63033" lon="1.34384">
        <ele>192.2</ele>
        <time>2024-06-13T14:21:04Z</time>
      </trkpt>
      <trkpt lat="43.63038" lon="1.34384">
        <ele>192.2</ele>
        <time>2024-06-13T14:21:05Z</time>
      </trkpt>
      <trkpt lat="43.63043" lon="1.34384">
        <ele>192.2</ele>
        <time>2024-06-13T14:21:06Z</time>
      </trkpt>
      <trkpt lat="43.63049" lon="1.34384">
        <ele>192.2</ele>
        <time>2024-06-13T14:21:07Z</time>
      </trkpt>
      <trkpt lat="43.63049" lon="1.34384">
        <ele>192.2</ele>
        <time>2024-06-13T14:21:08Z</time>
      </trkpt>
      <trkpt lat="43.63055" lon="1.34384">
        <ele>192.4</ele>
        <time>2024-06-13T14:21:09Z</time>
      </trkpt>
      <trkpt lat="43.63067" lon="1.34385">
        <ele>192.4</ele>
        <time>2024-06-13T14:21:10Z</time>
      </trkpt>
      <trkpt lat="43.63073" lon="1.34385">
        <ele>192.4</ele>
        <time>2024-06-13T14:21:11Z</time>
      </trkpt>
      <trkpt lat="43.63079" lon="1.34386">
        <ele>192.4</ele>
        <time>2024-06-13T14:21:12Z</time>
      </trkpt>
      <trkpt lat="43.63085" lon="1.34386">
        <ele>192.4</ele>
        <time>2024-06-13T14:21:13Z</time>
      </trkpt>
      <trkpt lat="43.63091" lon="1.34386">
        <ele>192.6</ele>
        <time>2024-06-13T14:21:14Z</time>
      </trkpt>
      <trkpt lat="43.63097" lon="1.34386">
        <ele>192.6</ele>
        <time>2024-06-13T14:21:15Z</time>
      </trkpt>
      <trkpt lat="43.63103" lon="1.34387">
        <ele>192.6</ele>
        <time>2024-06-13T14:21:16Z</time>
      </trkpt>
      <trkpt lat="43.63109" lon="1.34387">
        <ele>192.8</ele>
        <time>2024-06-13T14:21:17Z</time>
      </trkpt>
      <trkpt lat="43.63115" lon="1.34387">
        <ele>193</ele>
        <time>2024-06-13T14:21:18Z</time>
      </trkpt>
      <trkpt lat="43.63115" lon="1.34387">
        <ele>193.2</ele>
        <time>2024-06-13T14:21:19Z</time>
      </trkpt>
      <trkpt lat="43.63127" lon="1.34387">
        <ele>193.2</ele>
        <time>2024-06-13T14:21:20Z</time>
      </trkpt>
      <trkpt lat="43.63133" lon="1.34388">
        <ele>193.2</ele>
        <time>2024-06-13T14:21:21Z</time>
      </trkpt>
      <trkpt lat="43.63138" lon="1.34388">
        <ele>193.2</ele>
        <time>2024-06-13T14:21:22Z</time>
      </trkpt>
      <trkpt lat="43.63144" lon="1.34388">
        <ele>193.2</ele>
        <time>2024-06-13T14:21:23Z</time>
      </trkpt>
      <trkpt lat="43.6315" lon="1.34388">
        <ele>193.4</ele>
        <time>2024-06-13T14:21:24Z</time>
      </trkpt>
      <trkpt lat="43.63156" lon="1.34388">
        <ele>193.4</ele>
        <time>2024-06-13T14:21:25Z</time>
      </trkpt>
      <trkpt lat="43.63162" lon="1.34388">
        <ele>193.4</ele>
        <time>2024-06-13T14:21:26Z</time>
      </trkpt>
      <trkpt lat="43.63168" lon="1.34388">
        <ele>193.4</ele>
        <time>2024-06-13T14:21:27Z</time>
      </trkpt>
      <trkpt lat="43.63173" lon="1.34389">
        <ele>193.4</ele>
        <time>2024-06-13T14:21:28Z</time>
      </trkpt>
      <trkpt lat="43.63179" lon="1.34389">
        <ele>193.4</ele>
        <time>2024-06-13T14:21:29Z</time>
      </trkpt>
      <trkpt lat="43.63185" lon="1.34389">
        <ele>193.4</ele>
        <time>2024-06-13T14:21:30Z</time>
      </trkpt>
      <trkpt lat="43.63191" lon="1.34389">
        <ele>193.4</ele>
        <time>2024-06-13T14:21:31Z</time>
      </trkpt>
      <trkpt lat="43.63197" lon="1.34389">
        <ele>193.4</ele>
        <time>2024-06-13T14:21:32Z</time>
      </trkpt>
      <trkpt lat="43.63203" lon="1.34389">
        <ele>193.4</ele>
        <time>2024-06-13T14:21:33Z</time>
      </trkpt>
      <trkpt lat="43.6321" lon="1.3439">
        <ele>193.6</ele>
        <time>2024-06-13T14:21:34Z</time>
      </trkpt>
      <trkpt lat="43.63216" lon="1.34391">
        <ele>193.6</ele>
        <time>2024-06-13T14:21:35Z</time>
      </trkpt>
      <trkpt lat="43.63222" lon="1.34391">
        <ele>193.6</ele>
        <time>2024-06-13T14:21:36Z</time>
      </trkpt>
      <trkpt lat="43.63228" lon="1.34391">
        <ele>193.8</ele>
        <time>2024-06-13T14:21:37Z</time>
      </trkpt>
      <trkpt lat="43.63234" lon="1.34391">
        <ele>193.8</ele>
        <time>2024-06-13T14:21:38Z</time>
      </trkpt>
      <trkpt lat="43.63241" lon="1.3439">
        <ele>193.8</ele>
        <time>2024-06-13T14:21:39Z</time>
      </trkpt>
      <trkpt lat="43.63247" lon="1.3439">
        <ele>193.8</ele>
        <time>2024-06-13T14:21:40Z</time>
      </trkpt>
      <trkpt lat="43.63253" lon="1.3439">
        <ele>193.8</ele>
        <time>2024-06-13T14:21:41Z</time>
      </trkpt>
      <trkpt lat="43.63259" lon="1.3439">
        <ele>193.8</ele>
        <time>2024-06-13T14:21:42Z</time>
      </trkpt>
      <trkpt lat="43.63265" lon="1.3439">
        <ele>194</ele>
        <time>2024-06-13T14:21:43Z</time>
      </trkpt>
      <trkpt lat="43.63271" lon="1.34391">
        <ele>194</ele>
        <time>2024-06-13T14:21:44Z</time>
      </trkpt>
      <trkpt lat="43.63277" lon="1.34391">
        <ele>194</ele>
        <time>2024-06-13T14:21:45Z</time>
      </trkpt>
      <trkpt lat="43.63283" lon="1.34391">
        <ele>194</ele>
        <time>2024-06-13T14:21:46Z</time>
      </trkpt>
      <trkpt lat="43.63289" lon="1.34392">
        <ele>194</ele>
        <time>2024-06-13T14:21:47Z</time>
      </trkpt>
      <trkpt lat="43.63296" lon="1.34392">
        <ele>194</ele>
        <time>2024-06-13T14:21:48Z</time>
      </trkpt>
      <trkpt lat="43.63302" lon="1.34393">
        <ele>194.2</ele>
        <time>2024-06-13T14:21:49Z</time>
      </trkpt>
      <trkpt lat="43.63309" lon="1.34393">
        <ele>194.2</ele>
        <time>2024-06-13T14:21:50Z</time>
      </trkpt>
      <trkpt lat="43.63315" lon="1.34394">
        <ele>194.2</ele>
        <time>2024-06-13T14:21:51Z</time>
      </trkpt>
      <trkpt lat="43.63322" lon="1.34395">
        <ele>194.2</ele>
        <time>2024-06-13T14:21:52Z</time>
      </trkpt>
      <trkpt lat="43.63328" lon="1.34396">
        <ele>194.2</ele>
        <time>2024-06-13T14:21:53Z</time>
      </trkpt>
      <trkpt lat="43.63335" lon="1.34397">
        <ele>194.2</ele>
        <time>2024-06-13T14:21:54Z</time>
      </trkpt>
      <trkpt lat="43.63342" lon="1.34398">
        <ele>194.2</ele>
        <time>2024-06-13T14:21:55Z</time>
      </trkpt>
      <trkpt lat="43.63348" lon="1.34399">
        <ele>194</ele>
        <time>2024-06-13T14:21:56Z</time>
      </trkpt>
      <trkpt lat="43.63355" lon="1.34401">
        <ele>194</ele>
        <time>2024-06-13T14:21:57Z</time>
      </trkpt>
      <trkpt lat="43.63362" lon="1.34404">
        <ele>194</ele>
        <time>2024-06-13T14:21:58Z</time>
      </trkpt>
      <trkpt lat="43.63369" lon="1.34406">
        <ele>194</ele>
        <time>2024-06-13T14:21:59Z</time>
      </trkpt>
      <trkpt lat="43.63376" lon="1.34409">
        <ele>194</ele>
        <time>2024-06-13T14:22:00Z</time>
      </trkpt>
      <trkpt lat="43.63382" lon="1.34411">
        <ele>193.8</ele>
        <time>2024-06-13T14:22:01Z</time>
      </trkpt>
      <trkpt lat="43.63389" lon="1.34414">
        <ele>193.8</ele>
        <time>2024-06-13T14:22:02Z</time>
      </trkpt>
      <trkpt lat="43.63396" lon="1.34417">
        <ele>193.8</ele>
        <time>2024-06-13T14:22:03Z</time>
      </trkpt>
      <trkpt lat="43.63402" lon="1.34421">
        <ele>193.6</ele>
        <time>2024-06-13T14:22:04Z</time>
      </trkpt>
      <trkpt lat="43.63409" lon="1.34424">
        <ele>193.6</ele>
        <time>2024-06-13T14:22:05Z</time>
      </trkpt>
      <trkpt lat="43.63416" lon="1.34427">
        <ele>193.6</ele>
        <time>2024-06-13T14:22:06Z</time>
      </trkpt>
      <trkpt lat="43.63423" lon="1.34431">
        <ele>193.4</ele>
        <time>2024-06-13T14:22:07Z</time>
      </trkpt>
      <trkpt lat="43.6343" lon="1.34435">
        <ele>193.4</ele>
        <time>2024-06-13T14:22:08Z</time>
      </trkpt>
      <trkpt lat="43.63437" lon="1.34438">
        <ele>193.4</ele>
        <time>2024-06-13T14:22:09Z</time>
      </trkpt>
      <trkpt lat="43.63443" lon="1.34442">
        <ele>193.4</ele>
        <time>2024-06-13T14:22:10Z</time>
      </trkpt>
      <trkpt lat="43.6345" lon="1.34446">
        <ele>193.4</ele>
        <time>2024-06-13T14:22:11Z</time>
      </trkpt>
      <trkpt lat="43.63456" lon="1.3445">
        <ele>193.4</ele>
        <time>2024-06-13T14:22:12Z</time>
      </trkpt>
      <trkpt lat="43.63462" lon="1.34454">
        <ele>193.2</ele>
        <time>2024-06-13T14:22:13Z</time>
      </trkpt>
      <trkpt lat="43.63466" lon="1.34459">
        <ele>193.2</ele>
        <time>2024-06-13T14:22:14Z</time>
      </trkpt>
      <trkpt lat="43.63471" lon="1.34468">
        <ele>193</ele>
        <time>2024-06-13T14:22:15Z</time>
      </trkpt>
      <trkpt lat="43.63474" lon="1.34478">
        <ele>192.8</ele>
        <time>2024-06-13T14:22:16Z</time>
      </trkpt>
      <trkpt lat="43.63475" lon="1.34488">
        <ele>192.8</ele>
        <time>2024-06-13T14:22:17Z</time>
      </trkpt>
      <trkpt lat="43.63475" lon="1.34497">
        <ele>192.6</ele>
        <time>2024-06-13T14:22:18Z</time>
      </trkpt>
      <trkpt lat="43.63473" lon="1.34507">
        <ele>192.4</ele>
        <time>2024-06-13T14:22:19Z</time>
      </trkpt>
      <trkpt lat="43.63471" lon="1.34515">
        <ele>192.4</ele>
        <time>2024-06-13T14:22:20Z</time>
      </trkpt>
      <trkpt lat="43.63468" lon="1.34524">
        <ele>192.2</ele>
        <time>2024-06-13T14:22:21Z</time>
      </trkpt>
      <trkpt lat="43.63463" lon="1.34534">
        <ele>192.2</ele>
        <time>2024-06-13T14:22:22Z</time>
      </trkpt>
      <trkpt lat="43.63459" lon="1.3454">
        <ele>192</ele>
        <time>2024-06-13T14:22:23Z</time>
      </trkpt>
      <trkpt lat="43.63455" lon="1.34548">
        <ele>191.8</ele>
        <time>2024-06-13T14:22:24Z</time>
      </trkpt>
      <trkpt lat="43.63452" lon="1.34556">
        <ele>191.6</ele>
        <time>2024-06-13T14:22:25Z</time>
      </trkpt>
      <trkpt lat="43.63449" lon="1.34564">
        <ele>191.4</ele>
        <time>2024-06-13T14:22:26Z</time>
      </trkpt>
      <trkpt lat="43.63446" lon="1.34573">
        <ele>191.2</ele>
        <time>2024-06-13T14:22:27Z</time>
      </trkpt>
      <trkpt lat="43.63445" lon="1.34584">
        <ele>191.2</ele>
        <time>2024-06-13T14:22:28Z</time>
      </trkpt>
      <trkpt lat="43.63446" lon="1.34593">
        <ele>191.2</ele>
        <time>2024-06-13T14:22:29Z</time>
      </trkpt>
      <trkpt lat="43.63448" lon="1.34602">
        <ele>191</ele>
        <time>2024-06-13T14:22:30Z</time>
      </trkpt>
      <trkpt lat="43.63452" lon="1.3461">
        <ele>191</ele>
        <time>2024-06-13T14:22:31Z</time>
      </trkpt>
      <trkpt lat="43.63457" lon="1.34617">
        <ele>191.2</ele>
        <time>2024-06-13T14:22:32Z</time>
      </trkpt>
      <trkpt lat="43.63462" lon="1.34622">
        <ele>191</ele>
        <time>2024-06-13T14:22:33Z</time>
      </trkpt>
      <trkpt lat="43.63469" lon="1.34625">
        <ele>191</ele>
        <time>2024-06-13T14:22:34Z</time>
      </trkpt>
      <trkpt lat="43.63476" lon="1.34625">
        <ele>191</ele>
        <time>2024-06-13T14:22:35Z</time>
      </trkpt>
      <trkpt lat="43.63483" lon="1.34625">
        <ele>191.2</ele>
        <time>2024-06-13T14:22:36Z</time>
      </trkpt>
      <trkpt lat="43.6349" lon="1.34624">
        <ele>191.2</ele>
        <time>2024-06-13T14:22:37Z</time>
      </trkpt>
      <trkpt lat="43.63497" lon="1.34624">
        <ele>191.2</ele>
        <time>2024-06-13T14:22:38Z</time>
      </trkpt>
      <trkpt lat="43.63504" lon="1.34624">
        <ele>191.2</ele>
        <time>2024-06-13T14:22:39Z</time>
      </trkpt>
      <trkpt lat="43.63511" lon="1.34623">
        <ele>191.2</ele>
        <time>2024-06-13T14:22:40Z</time>
      </trkpt>
      <trkpt lat="43.63518" lon="1.34623">
        <ele>191.2</ele>
        <time>2024-06-13T14:22:41Z</time>
      </trkpt>
      <trkpt lat="43.63525" lon="1.34623">
        <ele>191</ele>
        <time>2024-06-13T14:22:42Z</time>
      </trkpt>
      <trkpt lat="43.63532" lon="1.34622">
        <ele>191</ele>
        <time>2024-06-13T14:22:43Z</time>
      </trkpt>
      <trkpt lat="43.63539" lon="1.34622">
        <ele>191</ele>
        <time>2024-06-13T14:22:44Z</time>
      </trkpt>
      <trkpt lat="43.63546" lon="1.34621">
        <ele>191</ele>
        <time>2024-06-13T14:22:45Z</time>
      </trkpt>
      <trkpt lat="43.63554" lon="1.3462">
        <ele>190.8</ele>
        <time>2024-06-13T14:22:46Z</time>
      </trkpt>
      <trkpt lat="43.63561" lon="1.3462">
        <ele>190.8</ele>
        <time>2024-06-13T14:22:47Z</time>
      </trkpt>
      <trkpt lat="43.63568" lon="1.3462">
        <ele>190.8</ele>
        <time>2024-06-13T14:22:48Z</time>
      </trkpt>
      <trkpt lat="43.63575" lon="1.3462">
        <ele>190.8</ele>
        <time>2024-06-13T14:22:49Z</time>
      </trkpt>
      <trkpt lat="43.63582" lon="1.3462">
        <ele>190.6</ele>
        <time>2024-06-13T14:22:50Z</time>
      </trkpt>
      <trkpt lat="43.63589" lon="1.34619">
        <ele>190.6</ele>
        <time>2024-06-13T14:22:51Z</time>
      </trkpt>
      <trkpt lat="43.63589" lon="1.34619">
        <ele>190.4</ele>
        <time>2024-06-13T14:22:52Z</time>
      </trkpt>
      <trkpt lat="43.63603" lon="1.34619">
        <ele>190.4</ele>
        <time>2024-06-13T14:22:53Z</time>
      </trkpt>
      <trkpt lat="43.63611" lon="1.34619">
        <ele>190.4</ele>
        <time>2024-06-13T14:22:54Z</time>
      </trkpt>
      <trkpt lat="43.63618" lon="1.34618">
        <ele>190.4</ele>
        <time>2024-06-13T14:22:55Z</time>
      </trkpt>
      <trkpt lat="43.63625" lon="1.34618">
        <ele>190.2</ele>
        <time>2024-06-13T14:22:56Z</time>
      </trkpt>
      <trkpt lat="43.63633" lon="1.34619">
        <ele>190.2</ele>
        <time>2024-06-13T14:22:57Z</time>
      </trkpt>
      <trkpt lat="43.6364" lon="1.34619">
        <ele>190</ele>
        <time>2024-06-13T14:22:58Z</time>
      </trkpt>
      <trkpt lat="43.63647" lon="1.34619">
        <ele>190</ele>
        <time>2024-06-13T14:22:59Z</time>
      </trkpt>
      <trkpt lat="43.63654" lon="1.3462">
        <ele>189.8</ele>
        <time>2024-06-13T14:23:00Z</time>
      </trkpt>
      <trkpt lat="43.63661" lon="1.3462">
        <ele>189.8</ele>
        <time>2024-06-13T14:23:01Z</time>
      </trkpt>
      <trkpt lat="43.63668" lon="1.3462">
        <ele>189.8</ele>
        <time>2024-06-13T14:23:02Z</time>
      </trkpt>
      <trkpt lat="43.63675" lon="1.34621">
        <ele>189.8</ele>
        <time>2024-06-13T14:23:03Z</time>
      </trkpt>
      <trkpt lat="43.63683" lon="1.34621">
        <ele>189.8</ele>
        <time>2024-06-13T14:23:04Z</time>
      </trkpt>
      <trkpt lat="43.6369" lon="1.34621">
        <ele>189.8</ele>
        <time>2024-06-13T14:23:05Z</time>
      </trkpt>
      <trkpt lat="43.63697" lon="1.34622">
        <ele>189.8</ele>
        <time>2024-06-13T14:23:06Z</time>
      </trkpt>
      <trkpt lat="43.63704" lon="1.34622">
        <ele>189.8</ele>
        <time>2024-06-13T14:23:07Z</time>
      </trkpt>
      <trkpt lat="43.63711" lon="1.34623">
        <ele>189.8</ele>
        <time>2024-06-13T14:23:08Z</time>
      </trkpt>
      <trkpt lat="43.63718" lon="1.34622">
        <ele>189.8</ele>
        <time>2024-06-13T14:23:09Z</time>
      </trkpt>
      <trkpt lat="43.63718" lon="1.34622">
        <ele>189.8</ele>
        <time>2024-06-13T14:23:10Z</time>
      </trkpt>
      <trkpt lat="43.63732" lon="1.34623">
        <ele>189.8</ele>
        <time>2024-06-13T14:23:11Z</time>
      </trkpt>
      <trkpt lat="43.63739" lon="1.34623">
        <ele>189.8</ele>
        <time>2024-06-13T14:23:12Z</time>
      </trkpt>
      <trkpt lat="43.63746" lon="1.34623">
        <ele>189.6</ele>
        <time>2024-06-13T14:23:13Z</time>
      </trkpt>
      <trkpt lat="43.63753" lon="1.34623">
        <ele>189.6</ele>
        <time>2024-06-13T14:23:14Z</time>
      </trkpt>
      <trkpt lat="43.6376" lon="1.34623">
        <ele>189.6</ele>
        <time>2024-06-13T14:23:15Z</time>
      </trkpt>
      <trkpt lat="43.63767" lon="1.34623">
        <ele>189.6</ele>
        <time>2024-06-13T14:23:16Z</time>
      </trkpt>
      <trkpt lat="43.63774" lon="1.34622">
        <ele>189.6</ele>
        <time>2024-06-13T14:23:17Z</time>
      </trkpt>
      <trkpt lat="43.63781" lon="1.34621">
        <ele>189.6</ele>
        <time>2024-06-13T14:23:18Z</time>
      </trkpt>
      <trkpt lat="43.63788" lon="1.3462">
        <ele>189.4</ele>
        <time>2024-06-13T14:23:19Z</time>
      </trkpt>
      <trkpt lat="43.63796" lon="1.34618">
        <ele>189.2</ele>
        <time>2024-06-13T14:23:20Z</time>
      </trkpt>
      <trkpt lat="43.63803" lon="1.34616">
        <ele>189.2</ele>
        <time>2024-06-13T14:23:21Z</time>
      </trkpt>
      <trkpt lat="43.6381" lon="1.34615">
        <ele>189.2</ele>
        <time>2024-06-13T14:23:22Z</time>
      </trkpt>
      <trkpt lat="43.63817" lon="1.34612">
        <ele>189.2</ele>
        <time>2024-06-13T14:23:23Z</time>
      </trkpt>
      <trkpt lat="43.63824" lon="1.3461">
        <ele>189.2</ele>
        <time>2024-06-13T14:23:24Z</time>
      </trkpt>
      <trkpt lat="43.6383" lon="1.34608">
        <ele>189.2</ele>
        <time>2024-06-13T14:23:25Z</time>
      </trkpt>
      <trkpt lat="43.63837" lon="1.34606">
        <ele>189.2</ele>
        <time>2024-06-13T14:23:26Z</time>
      </trkpt>
      <trkpt lat="43.63843" lon="1.34603">
        <ele>189.2</ele>
        <time>2024-06-13T14:23:27Z</time>
      </trkpt>
      <trkpt lat="43.6385" lon="1.346">
        <ele>189.2</ele>
        <time>2024-06-13T14:23:28Z</time>
      </trkpt>
      <trkpt lat="43.63856" lon="1.34597">
        <ele>189.2</ele>
        <time>2024-06-13T14:23:29Z</time>
      </trkpt>
      <trkpt lat="43.63863" lon="1.34594">
        <ele>189.2</ele>
        <time>2024-06-13T14:23:30Z</time>
      </trkpt>
      <trkpt lat="43.63869" lon="1.34591">
        <ele>189.2</ele>
        <time>2024-06-13T14:23:31Z</time>
      </trkpt>
      <trkpt lat="43.63875" lon="1.34588">
        <ele>189.2</ele>
        <time>2024-06-13T14:23:32Z</time>
      </trkpt>
      <trkpt lat="43.63881" lon="1.34584">
        <ele>189.2</ele>
        <time>2024-06-13T14:23:33Z</time>
      </trkpt>
      <trkpt lat="43.63886" lon="1.3458">
        <ele>189.2</ele>
        <time>2024-06-13T14:23:34Z</time>
      </trkpt>
      <trkpt lat="43.63892" lon="1.34577">
        <ele>189.2</ele>
        <time>2024-06-13T14:23:35Z</time>
      </trkpt>
      <trkpt lat="43.63898" lon="1.34573">
        <ele>189.4</ele>
        <time>2024-06-13T14:23:36Z</time>
      </trkpt>
      <trkpt lat="43.63904" lon="1.34569">
        <ele>189.4</ele>
        <time>2024-06-13T14:23:37Z</time>
      </trkpt>
      <trkpt lat="43.63909" lon="1.34565">
        <ele>189.4</ele>
        <time>2024-06-13T14:23:38Z</time>
      </trkpt>
      <trkpt lat="43.63915" lon="1.3456">
        <ele>189.4</ele>
        <time>2024-06-13T14:23:39Z</time>
      </trkpt>
      <trkpt lat="43.6392" lon="1.34556">
        <ele>189.6</ele>
        <time>2024-06-13T14:23:40Z</time>
      </trkpt>
      <trkpt lat="43.63926" lon="1.34552">
        <ele>189.8</ele>
        <time>2024-06-13T14:23:41Z</time>
      </trkpt>
      <trkpt lat="43.63931" lon="1.34547">
        <ele>189.8</ele>
        <time>2024-06-13T14:23:42Z</time>
      </trkpt>
      <trkpt lat="43.63937" lon="1.34542">
        <ele>189.8</ele>
        <time>2024-06-13T14:23:43Z</time>
      </trkpt>
      <trkpt lat="43.63942" lon="1.34538">
        <ele>190</ele>
        <time>2024-06-13T14:23:44Z</time>
      </trkpt>
      <trkpt lat="43.63947" lon="1.34533">
        <ele>190</ele>
        <time>2024-06-13T14:23:45Z</time>
      </trkpt>
      <trkpt lat="43.63952" lon="1.34527">
        <ele>190</ele>
        <time>2024-06-13T14:23:46Z</time>
      </trkpt>
      <trkpt lat="43.63957" lon="1.34522">
        <ele>190</ele>
        <time>2024-06-13T14:23:47Z</time>
      </trkpt>
      <trkpt lat="43.63962" lon="1.34517">
        <ele>190.2</ele>
        <time>2024-06-13T14:23:48Z</time>
      </trkpt>
      <trkpt lat="43.63967" lon="1.34511">
        <ele>190.2</ele>
        <time>2024-06-13T14:23:49Z</time>
      </trkpt>
      <trkpt lat="43.63971" lon="1.34506">
        <ele>190.2</ele>
        <time>2024-06-13T14:23:50Z</time>
      </trkpt>
      <trkpt lat="43.63976" lon="1.345">
        <ele>190.2</ele>
        <time>2024-06-13T14:23:51Z</time>
      </trkpt>
      <trkpt lat="43.63981" lon="1.34494">
        <ele>190.4</ele>
        <time>2024-06-13T14:23:52Z</time>
      </trkpt>
      <trkpt lat="43.63985" lon="1.3449">
        <ele>190.6</ele>
        <time>2024-06-13T14:23:53Z</time>
      </trkpt>
      <trkpt lat="43.63991" lon="1.34483">
        <ele>190.6</ele>
        <time>2024-06-13T14:23:54Z</time>
      </trkpt>
      <trkpt lat="43.63996" lon="1.34477">
        <ele>190.6</ele>
        <time>2024-06-13T14:23:55Z</time>
      </trkpt>
      <trkpt lat="43.64001" lon="1.34471">
        <ele>190.8</ele>
        <time>2024-06-13T14:23:56Z</time>
      </trkpt>
      <trkpt lat="43.64006" lon="1.34466">
        <ele>190.8</ele>
        <time>2024-06-13T14:23:57Z</time>
      </trkpt>
      <trkpt lat="43.64011" lon="1.3446">
        <ele>191</ele>
        <time>2024-06-13T14:23:58Z</time>
      </trkpt>
      <trkpt lat="43.64016" lon="1.34454">
        <ele>191</ele>
        <time>2024-06-13T14:23:59Z</time>
      </trkpt>
      <trkpt lat="43.64021" lon="1.34449">
        <ele>191.2</ele>
        <time>2024-06-13T14:24:00Z</time>
      </trkpt>
      <trkpt lat="43.64026" lon="1.34443">
        <ele>191.2</ele>
        <time>2024-06-13T14:24:01Z</time>
      </trkpt>
      <trkpt lat="43.64031" lon="1.34438">
        <ele>191.2</ele>
        <time>2024-06-13T14:24:02Z</time>
      </trkpt>
      <trkpt lat="43.64036" lon="1.34432">
        <ele>191.2</ele>
        <time>2024-06-13T14:24:03Z</time>
      </trkpt>
      <trkpt lat="43.6404" lon="1.34427">
        <ele>191.4</ele>
        <time>2024-06-13T14:24:04Z</time>
      </trkpt>
      <trkpt lat="43.64045" lon="1.34422">
        <ele>191.4</ele>
        <time>2024-06-13T14:24:05Z</time>
      </trkpt>
      <trkpt lat="43.6405" lon="1.34416">
        <ele>191.2</ele>
        <time>2024-06-13T14:24:06Z</time>
      </trkpt>
      <trkpt lat="43.64055" lon="1.34411">
        <ele>191.2</ele>
        <time>2024-06-13T14:24:07Z</time>
      </trkpt>
      <trkpt lat="43.6406" lon="1.34404">
        <ele>191.4</ele>
        <time>2024-06-13T14:24:08Z</time>
      </trkpt>
      <trkpt lat="43.64065" lon="1.34399">
        <ele>191.4</ele>
        <time>2024-06-13T14:24:09Z</time>
      </trkpt>
      <trkpt lat="43.6407" lon="1.34393">
        <ele>191.4</ele>
        <time>2024-06-13T14:24:10Z</time>
      </trkpt>
      <trkpt lat="43.64074" lon="1.34388">
        <ele>191.6</ele>
        <time>2024-06-13T14:24:11Z</time>
      </trkpt>
      <trkpt lat="43.64079" lon="1.34382">
        <ele>191.8</ele>
        <time>2024-06-13T14:24:12Z</time>
      </trkpt>
      <trkpt lat="43.64084" lon="1.34377">
        <ele>191.8</ele>
        <time>2024-06-13T14:24:13Z</time>
      </trkpt>
      <trkpt lat="43.64089" lon="1.34371">
        <ele>192</ele>
        <time>2024-06-13T14:24:14Z</time>
      </trkpt>
      <trkpt lat="43.64093" lon="1.34366">
        <ele>192</ele>
        <time>2024-06-13T14:24:15Z</time>
      </trkpt>
      <trkpt lat="43.64098" lon="1.3436">
        <ele>192</ele>
        <time>2024-06-13T14:24:16Z</time>
      </trkpt>
      <trkpt lat="43.64103" lon="1.34354">
        <ele>192.2</ele>
        <time>2024-06-13T14:24:17Z</time>
      </trkpt>
      <trkpt lat="43.64107" lon="1.34348">
        <ele>192.2</ele>
        <time>2024-06-13T14:24:18Z</time>
      </trkpt>
      <trkpt lat="43.64112" lon="1.34343">
        <ele>192.4</ele>
        <time>2024-06-13T14:24:19Z</time>
      </trkpt>
      <trkpt lat="43.64117" lon="1.34337">
        <ele>192.6</ele>
        <time>2024-06-13T14:24:20Z</time>
      </trkpt>
      <trkpt lat="43.64117" lon="1.34337">
        <ele>192.8</ele>
        <time>2024-06-13T14:24:21Z</time>
      </trkpt>
      <trkpt lat="43.64126" lon="1.34327">
        <ele>192.8</ele>
        <time>2024-06-13T14:24:22Z</time>
      </trkpt>
      <trkpt lat="43.64126" lon="1.34327">
        <ele>192.8</ele>
        <time>2024-06-13T14:24:23Z</time>
      </trkpt>
      <trkpt lat="43.64135" lon="1.34316">
        <ele>193</ele>
        <time>2024-06-13T14:24:24Z</time>
      </trkpt>
      <trkpt lat="43.6414" lon="1.34311">
        <ele>193</ele>
        <time>2024-06-13T14:24:25Z</time>
      </trkpt>
      <trkpt lat="43.64145" lon="1.34305">
        <ele>193.2</ele>
        <time>2024-06-13T14:24:26Z</time>
      </trkpt>
      <trkpt lat="43.64149" lon="1.343">
        <ele>193.2</ele>
        <time>2024-06-13T14:24:27Z</time>
      </trkpt>
      <trkpt lat="43.64154" lon="1.34294">
        <ele>193.2</ele>
        <time>2024-06-13T14:24:28Z</time>
      </trkpt>
      <trkpt lat="43.64159" lon="1.34288">
        <ele>193.2</ele>
        <time>2024-06-13T14:24:29Z</time>
      </trkpt>
      <trkpt lat="43.64159" lon="1.34288">
        <ele>193.4</ele>
        <time>2024-06-13T14:24:30Z</time>
      </trkpt>
      <trkpt lat="43.64168" lon="1.34277">
        <ele>193.4</ele>
        <time>2024-06-13T14:24:31Z</time>
      </trkpt>
      <trkpt lat="43.64173" lon="1.34272">
        <ele>193.4</ele>
        <time>2024-06-13T14:24:32Z</time>
      </trkpt>
      <trkpt lat="43.64178" lon="1.34266">
        <ele>193.4</ele>
        <time>2024-06-13T14:24:33Z</time>
      </trkpt>
      <trkpt lat="43.64183" lon="1.3426">
        <ele>193.4</ele>
        <time>2024-06-13T14:24:34Z</time>
      </trkpt>
      <trkpt lat="43.64188" lon="1.34254">
        <ele>193.4</ele>
        <time>2024-06-13T14:24:35Z</time>
      </trkpt>
      <trkpt lat="43.64192" lon="1.3425">
        <ele>193.4</ele>
        <time>2024-06-13T14:24:36Z</time>
      </trkpt>
      <trkpt lat="43.64198" lon="1.34243">
        <ele>193.4</ele>
        <time>2024-06-13T14:24:37Z</time>
      </trkpt>
      <trkpt lat="43.64202" lon="1.34237">
        <ele>193.6</ele>
        <time>2024-06-13T14:24:38Z</time>
      </trkpt>
      <trkpt lat="43.64207" lon="1.34231">
        <ele>193.6</ele>
        <time>2024-06-13T14:24:39Z</time>
      </trkpt>
      <trkpt lat="43.64211" lon="1.34225">
        <ele>193.6</ele>
        <time>2024-06-13T14:24:40Z</time>
      </trkpt>
      <trkpt lat="43.64216" lon="1.34218">
        <ele>193.6</ele>
        <time>2024-06-13T14:24:41Z</time>
      </trkpt>
      <trkpt lat="43.6422" lon="1.34212">
        <ele>193.6</ele>
        <time>2024-06-13T14:24:42Z</time>
      </trkpt>
      <trkpt lat="43.64224" lon="1.34206">
        <ele>193.6</ele>
        <time>2024-06-13T14:24:43Z</time>
      </trkpt>
      <trkpt lat="43.64228" lon="1.34199">
        <ele>193.6</ele>
        <time>2024-06-13T14:24:44Z</time>
      </trkpt>
      <trkpt lat="43.64232" lon="1.34192">
        <ele>193.8</ele>
        <time>2024-06-13T14:24:45Z</time>
      </trkpt>
      <trkpt lat="43.64236" lon="1.34184">
        <ele>193.8</ele>
        <time>2024-06-13T14:24:46Z</time>
      </trkpt>
      <trkpt lat="43.64239" lon="1.34176">
        <ele>193.8</ele>
        <time>2024-06-13T14:24:47Z</time>
      </trkpt>
      <trkpt lat="43.64243" lon="1.34169">
        <ele>193.8</ele>
        <time>2024-06-13T14:24:48Z</time>
      </trkpt>
      <trkpt lat="43.64247" lon="1.34161">
        <ele>194</ele>
        <time>2024-06-13T14:24:49Z</time>
      </trkpt>
      <trkpt lat="43.6425" lon="1.34153">
        <ele>194</ele>
        <time>2024-06-13T14:24:50Z</time>
      </trkpt>
      <trkpt lat="43.64254" lon="1.34146">
        <ele>194</ele>
        <time>2024-06-13T14:24:51Z</time>
      </trkpt>
      <trkpt lat="43.64257" lon="1.34139">
        <ele>194</ele>
        <time>2024-06-13T14:24:52Z</time>
      </trkpt>
      <trkpt lat="43.64261" lon="1.34132">
        <ele>194</ele>
        <time>2024-06-13T14:24:53Z</time>
      </trkpt>
      <trkpt lat="43.64265" lon="1.34125">
        <ele>194</ele>
        <time>2024-06-13T14:24:54Z</time>
      </trkpt>
      <trkpt lat="43.64268" lon="1.34117">
        <ele>194</ele>
        <time>2024-06-13T14:24:55Z</time>
      </trkpt>
      <trkpt lat="43.64272" lon="1.3411">
        <ele>194</ele>
        <time>2024-06-13T14:24:56Z</time>
      </trkpt>
      <trkpt lat="43.64276" lon="1.34102">
        <ele>194</ele>
        <time>2024-06-13T14:24:57Z</time>
      </trkpt>
      <trkpt lat="43.64279" lon="1.34095">
        <ele>194</ele>
        <time>2024-06-13T14:24:58Z</time>
      </trkpt>
      <trkpt lat="43.64283" lon="1.34088">
        <ele>194</ele>
        <time>2024-06-13T14:24:59Z</time>
      </trkpt>
      <trkpt lat="43.64287" lon="1.3408">
        <ele>194</ele>
        <time>2024-06-13T14:25:00Z</time>
      </trkpt>
      <trkpt lat="43.64291" lon="1.34073">
        <ele>194</ele>
        <time>2024-06-13T14:25:01Z</time>
      </trkpt>
      <trkpt lat="43.64295" lon="1.34066">
        <ele>194</ele>
        <time>2024-06-13T14:25:02Z</time>
      </trkpt>
      <trkpt lat="43.64299" lon="1.34058">
        <ele>194</ele>
        <time>2024-06-13T14:25:03Z</time>
      </trkpt>
      <trkpt lat="43.64303" lon="1.34051">
        <ele>194</ele>
        <time>2024-06-13T14:25:04Z</time>
      </trkpt>
      <trkpt lat="43.64307" lon="1.34043">
        <ele>194</ele>
        <time>2024-06-13T14:25:05Z</time>
      </trkpt>
      <trkpt lat="43.64311" lon="1.34035">
        <ele>194</ele>
        <time>2024-06-13T14:25:06Z</time>
      </trkpt>
      <trkpt lat="43.64314" lon="1.34029">
        <ele>194</ele>
        <time>2024-06-13T14:25:07Z</time>
      </trkpt>
      <trkpt lat="43.64318" lon="1.3402">
        <ele>194.2</ele>
        <time>2024-06-13T14:25:08Z</time>
      </trkpt>
      <trkpt lat="43.64318" lon="1.3402">
        <ele>194.2</ele>
        <time>2024-06-13T14:25:09Z</time>
      </trkpt>
      <trkpt lat="43.64325" lon="1.34005">
        <ele>194.2</ele>
        <time>2024-06-13T14:25:10Z</time>
      </trkpt>
      <trkpt lat="43.64329" lon="1.33998">
        <ele>194.2</ele>
        <time>2024-06-13T14:25:11Z</time>
      </trkpt>
      <trkpt lat="43.64333" lon="1.33991">
        <ele>194.2</ele>
        <time>2024-06-13T14:25:12Z</time>
      </trkpt>
      <trkpt lat="43.64336" lon="1.33985">
        <ele>194.2</ele>
        <time>2024-06-13T14:25:13Z</time>
      </trkpt>
      <trkpt lat="43.64341" lon="1.33975">
        <ele>194.2</ele>
        <time>2024-06-13T14:25:14Z</time>
      </trkpt>
      <trkpt lat="43.64344" lon="1.33967">
        <ele>194.2</ele>
        <time>2024-06-13T14:25:15Z</time>
      </trkpt>
      <trkpt lat="43.64348" lon="1.3396">
        <ele>194.2</ele>
        <time>2024-06-13T14:25:16Z</time>
      </trkpt>
      <trkpt lat="43.64352" lon="1.33952">
        <ele>194.4</ele>
        <time>2024-06-13T14:25:17Z</time>
      </trkpt>
      <trkpt lat="43.64355" lon="1.33946">
        <ele>194.4</ele>
        <time>2024-06-13T14:25:18Z</time>
      </trkpt>
      <trkpt lat="43.64359" lon="1.33937">
        <ele>194.4</ele>
        <time>2024-06-13T14:25:19Z</time>
      </trkpt>
      <trkpt lat="43.64363" lon="1.33929">
        <ele>194.4</ele>
        <time>2024-06-13T14:25:20Z</time>
      </trkpt>
      <trkpt lat="43.64367" lon="1.33922">
        <ele>194.2</ele>
        <time>2024-06-13T14:25:21Z</time>
      </trkpt>
      <trkpt lat="43.64371" lon="1.33915">
        <ele>194.2</ele>
        <time>2024-06-13T14:25:22Z</time>
      </trkpt>
      <trkpt lat="43.64375" lon="1.33909">
        <ele>194.2</ele>
        <time>2024-06-13T14:25:23Z</time>
      </trkpt>
      <trkpt lat="43.64379" lon="1.33901">
        <ele>194.2</ele>
        <time>2024-06-13T14:25:24Z</time>
      </trkpt>
      <trkpt lat="43.64383" lon="1.33894">
        <ele>194.2</ele>
        <time>2024-06-13T14:25:25Z</time>
      </trkpt>
      <trkpt lat="43.64387" lon="1.33887">
        <ele>194.2</ele>
        <time>2024-06-13T14:25:26Z</time>
      </trkpt>
      <trkpt lat="43.64391" lon="1.3388">
        <ele>194.2</ele>
        <time>2024-06-13T14:25:27Z</time>
      </trkpt>
      <trkpt lat="43.64395" lon="1.33874">
        <ele>194.2</ele>
        <time>2024-06-13T14:25:28Z</time>
      </trkpt>
      <trkpt lat="43.64399" lon="1.33867">
        <ele>194.2</ele>
        <time>2024-06-13T14:25:29Z</time>
      </trkpt>
      <trkpt lat="43.64402" lon="1.3386">
        <ele>194.2</ele>
        <time>2024-06-13T14:25:30Z</time>
      </trkpt>
      <trkpt lat="43.64406" lon="1.33854">
        <ele>194.2</ele>
        <time>2024-06-13T14:25:31Z</time>
      </trkpt>
      <trkpt lat="43.6441" lon="1.33846">
        <ele>194.2</ele>
        <time>2024-06-13T14:25:32Z</time>
      </trkpt>
      <trkpt lat="43.64413" lon="1.33839">
        <ele>194.4</ele>
        <time>2024-06-13T14:25:33Z</time>
      </trkpt>
      <trkpt lat="43.64416" lon="1.33832">
        <ele>194.4</ele>
        <time>2024-06-13T14:25:34Z</time>
      </trkpt>
      <trkpt lat="43.64419" lon="1.33825">
        <ele>194.4</ele>
        <time>2024-06-13T14:25:35Z</time>
      </trkpt>
      <trkpt lat="43.64422" lon="1.33818">
        <ele>194.4</ele>
        <time>2024-06-13T14:25:36Z</time>
      </trkpt>
      <trkpt lat="43.64426" lon="1.33812">
        <ele>194.4</ele>
        <time>2024-06-13T14:25:37Z</time>
      </trkpt>
      <trkpt lat="43.64429" lon="1.33807">
        <ele>194.4</ele>
        <time>2024-06-13T14:25:38Z</time>
      </trkpt>
      <trkpt lat="43.64434" lon="1.338">
        <ele>194.4</ele>
        <time>2024-06-13T14:25:39Z</time>
      </trkpt>
      <trkpt lat="43.64438" lon="1.33794">
        <ele>194.4</ele>
        <time>2024-06-13T14:25:40Z</time>
      </trkpt>
      <trkpt lat="43.64441" lon="1.33789">
        <ele>194.4</ele>
        <time>2024-06-13T14:25:41Z</time>
      </trkpt>
      <trkpt lat="43.64445" lon="1.33785">
        <ele>194.4</ele>
        <time>2024-06-13T14:25:42Z</time>
      </trkpt>
      <trkpt lat="43.64448" lon="1.3378">
        <ele>194.4</ele>
        <time>2024-06-13T14:25:43Z</time>
      </trkpt>
      <trkpt lat="43.64451" lon="1.33776">
        <ele>194.4</ele>
        <time>2024-06-13T14:25:44Z</time>
      </trkpt>
      <trkpt lat="43.64452" lon="1.33772">
        <ele>194.4</ele>
        <time>2024-06-13T14:25:45Z</time>
      </trkpt>
      <trkpt lat="43.64453" lon="1.3377">
        <ele>194.4</ele>
        <time>2024-06-13T14:25:46Z</time>
      </trkpt>
      <trkpt lat="43.64451" lon="1.33769">
        <ele>194.4</ele>
        <time>2024-06-13T14:25:47Z</time>
      </trkpt>
      <trkpt lat="43.64447" lon="1.3377">
        <ele>194.6</ele>
        <time>2024-06-13T14:25:48Z</time>
      </trkpt>
      <trkpt lat="43.64444" lon="1.3377">
        <ele>194.6</ele>
        <time>2024-06-13T14:25:49Z</time>
      </trkpt>
      <trkpt lat="43.64441" lon="1.33769">
        <ele>194.6</ele>
        <time>2024-06-13T14:25:50Z</time>
      </trkpt>
      <trkpt lat="43.64439" lon="1.33766">
        <ele>194.6</ele>
        <time>2024-06-13T14:25:51Z</time>
      </trkpt>
      <trkpt lat="43.64439" lon="1.33762">
        <ele>194.6</ele>
        <time>2024-06-13T14:25:52Z</time>
      </trkpt>
      <trkpt lat="43.6444" lon="1.33758">
        <ele>194.6</ele>
        <time>2024-06-13T14:25:53Z</time>
      </trkpt>
      <trkpt lat="43.64442" lon="1.33753">
        <ele>194.6</ele>
        <time>2024-06-13T14:25:54Z</time>
      </trkpt>
      <trkpt lat="43.64443" lon="1.33748">
        <ele>194.6</ele>
        <time>2024-06-13T14:25:55Z</time>
      </trkpt>
      <trkpt lat="43.64443" lon="1.33743">
        <ele>194.6</ele>
        <time>2024-06-13T14:25:56Z</time>
      </trkpt>
      <trkpt lat="43.64446" lon="1.33736">
        <ele>194.6</ele>
        <time>2024-06-13T14:25:57Z</time>
      </trkpt>
      <trkpt lat="43.64448" lon="1.3373">
        <ele>194.6</ele>
        <time>2024-06-13T14:25:58Z</time>
      </trkpt>
      <trkpt lat="43.6445" lon="1.33725">
        <ele>194.6</ele>
        <time>2024-06-13T14:25:59Z</time>
      </trkpt>
      <trkpt lat="43.64452" lon="1.33719">
        <ele>194.6</ele>
        <time>2024-06-13T14:26:00Z</time>
      </trkpt>
      <trkpt lat="43.64454" lon="1.33712">
        <ele>194.6</ele>
        <time>2024-06-13T14:26:01Z</time>
      </trkpt>
      <trkpt lat="43.64456" lon="1.33705">
        <ele>194.6</ele>
        <time>2024-06-13T14:26:02Z</time>
      </trkpt>
      <trkpt lat="43.64459" lon="1.33698">
        <ele>194.6</ele>
        <time>2024-06-13T14:26:03Z</time>
      </trkpt>
      <trkpt lat="43.64461" lon="1.3369">
        <ele>194.6</ele>
        <time>2024-06-13T14:26:04Z</time>
      </trkpt>
      <trkpt lat="43.64463" lon="1.33683">
        <ele>194.6</ele>
        <time>2024-06-13T14:26:05Z</time>
      </trkpt>
      <trkpt lat="43.64464" lon="1.33677">
        <ele>194.6</ele>
        <time>2024-06-13T14:26:06Z</time>
      </trkpt>
      <trkpt lat="43.64465" lon="1.3367">
        <ele>194.6</ele>
        <time>2024-06-13T14:26:07Z</time>
      </trkpt>
      <trkpt lat="43.64467" lon="1.33664">
        <ele>194.8</ele>
        <time>2024-06-13T14:26:08Z</time>
      </trkpt>
      <trkpt lat="43.64469" lon="1.33656">
        <ele>194.8</ele>
        <time>2024-06-13T14:26:09Z</time>
      </trkpt>
      <trkpt lat="43.6447" lon="1.33646">
        <ele>195</ele>
        <time>2024-06-13T14:26:10Z</time>
      </trkpt>
      <trkpt lat="43.64471" lon="1.33639">
        <ele>195</ele>
        <time>2024-06-13T14:26:11Z</time>
      </trkpt>
      <trkpt lat="43.64473" lon="1.33631">
        <ele>195.2</ele>
        <time>2024-06-13T14:26:12Z</time>
      </trkpt>
      <trkpt lat="43.64476" lon="1.33623">
        <ele>195.4</ele>
        <time>2024-06-13T14:26:13Z</time>
      </trkpt>
      <trkpt lat="43.64479" lon="1.33615">
        <ele>195.4</ele>
        <time>2024-06-13T14:26:14Z</time>
      </trkpt>
      <trkpt lat="43.6448" lon="1.33608">
        <ele>195.4</ele>
        <time>2024-06-13T14:26:15Z</time>
      </trkpt>
      <trkpt lat="43.64482" lon="1.336">
        <ele>195.6</ele>
        <time>2024-06-13T14:26:16Z</time>
      </trkpt>
      <trkpt lat="43.64483" lon="1.33593">
        <ele>195.6</ele>
        <time>2024-06-13T14:26:17Z</time>
      </trkpt>
      <trkpt lat="43.64485" lon="1.33585">
        <ele>195.8</ele>
        <time>2024-06-13T14:26:18Z</time>
      </trkpt>
      <trkpt lat="43.64487" lon="1.33578">
        <ele>195.8</ele>
        <time>2024-06-13T14:26:19Z</time>
      </trkpt>
      <trkpt lat="43.6449" lon="1.33571">
        <ele>196</ele>
        <time>2024-06-13T14:26:20Z</time>
      </trkpt>
      <trkpt lat="43.64492" lon="1.33567">
        <ele>196.2</ele>
        <time>2024-06-13T14:26:21Z</time>
      </trkpt>
      <trkpt lat="43.64495" lon="1.33562">
        <ele>196.4</ele>
        <time>2024-06-13T14:26:22Z</time>
      </trkpt>
      <trkpt lat="43.64497" lon="1.33556">
        <ele>196.6</ele>
        <time>2024-06-13T14:26:23Z</time>
      </trkpt>
      <trkpt lat="43.64497" lon="1.33556">
        <ele>197</ele>
        <time>2024-06-13T14:26:24Z</time>
      </trkpt>
      <trkpt lat="43.64499" lon="1.33547">
        <ele>197.2</ele>
        <time>2024-06-13T14:26:25Z</time>
      </trkpt>
      <trkpt lat="43.64501" lon="1.33542">
        <ele>197.4</ele>
        <time>2024-06-13T14:26:26Z</time>
      </trkpt>
      <trkpt lat="43.64503" lon="1.33537">
        <ele>197.6</ele>
        <time>2024-06-13T14:26:27Z</time>
      </trkpt>
      <trkpt lat="43.64504" lon="1.33529">
        <ele>197.8</ele>
        <time>2024-06-13T14:26:28Z</time>
      </trkpt>
      <trkpt lat="43.64506" lon="1.33525">
        <ele>198</ele>
        <time>2024-06-13T14:26:29Z</time>
      </trkpt>
      <trkpt lat="43.64507" lon="1.3352">
        <ele>198.2</ele>
        <time>2024-06-13T14:26:30Z</time>
      </trkpt>
      <trkpt lat="43.64509" lon="1.33515">
        <ele>198.6</ele>
        <time>2024-06-13T14:26:31Z</time>
      </trkpt>
      <trkpt lat="43.64511" lon="1.3351">
        <ele>198.8</ele>
        <time>2024-06-13T14:26:32Z</time>
      </trkpt>
      <trkpt lat="43.64513" lon="1.33504">
        <ele>199</ele>
        <time>2024-06-13T14:26:33Z</time>
      </trkpt>
      <trkpt lat="43.64514" lon="1.33498">
        <ele>199.2</ele>
        <time>2024-06-13T14:26:34Z</time>
      </trkpt>
      <trkpt lat="43.64515" lon="1.33495">
        <ele>199.4</ele>
        <time>2024-06-13T14:26:35Z</time>
      </trkpt>
      <trkpt lat="43.64516" lon="1.33493">
        <ele>199.6</ele>
        <time>2024-06-13T14:26:36Z</time>
      </trkpt>
      <trkpt lat="43.64516" lon="1.33489">
        <ele>199.6</ele>
        <time>2024-06-13T14:26:37Z</time>
      </trkpt>
      <trkpt lat="43.64517" lon="1.33485">
        <ele>200</ele>
        <time>2024-06-13T14:26:38Z</time>
      </trkpt>
      <trkpt lat="43.64519" lon="1.33481">
        <ele>200.4</ele>
        <time>2024-06-13T14:26:39Z</time>
      </trkpt>
      <trkpt lat="43.6452" lon="1.33478">
        <ele>200.6</ele>
        <time>2024-06-13T14:26:40Z</time>
      </trkpt>
      <trkpt lat="43.64521" lon="1.33473">
        <ele>200.8</ele>
        <time>2024-06-13T14:26:41Z</time>
      </trkpt>
      <trkpt lat="43.64521" lon="1.33466">
        <ele>201</ele>
        <time>2024-06-13T14:26:42Z</time>
      </trkpt>
      <trkpt lat="43.64523" lon="1.33462">
        <ele>201.2</ele>
        <time>2024-06-13T14:26:43Z</time>
      </trkpt>
      <trkpt lat="43.64524" lon="1.33457">
        <ele>201.2</ele>
        <time>2024-06-13T14:26:44Z</time>
      </trkpt>
      <trkpt lat="43.64525" lon="1.33453">
        <ele>201.4</ele>
        <time>2024-06-13T14:26:45Z</time>
      </trkpt>
      <trkpt lat="43.64527" lon="1.3345">
        <ele>201.8</ele>
        <time>2024-06-13T14:26:46Z</time>
      </trkpt>
      <trkpt lat="43.6453" lon="1.33445">
        <ele>202</ele>
        <time>2024-06-13T14:26:47Z</time>
      </trkpt>
      <trkpt lat="43.64532" lon="1.3344">
        <ele>202.4</ele>
        <time>2024-06-13T14:26:48Z</time>
      </trkpt>
      <trkpt lat="43.64531" lon="1.33433">
        <ele>202.4</ele>
        <time>2024-06-13T14:26:49Z</time>
      </trkpt>
      <trkpt lat="43.64529" lon="1.33426">
        <ele>203</ele>
        <time>2024-06-13T14:26:50Z</time>
      </trkpt>
      <trkpt lat="43.6453" lon="1.3342">
        <ele>203.2</ele>
        <time>2024-06-13T14:26:51Z</time>
      </trkpt>
      <trkpt lat="43.64532" lon="1.33414">
        <ele>203.6</ele>
        <time>2024-06-13T14:26:52Z</time>
      </trkpt>
      <trkpt lat="43.64535" lon="1.33409">
        <ele>204</ele>
        <time>2024-06-13T14:26:53Z</time>
      </trkpt>
      <trkpt lat="43.64537" lon="1.33404">
        <ele>204.2</ele>
        <time>2024-06-13T14:26:54Z</time>
      </trkpt>
      <trkpt lat="43.64539" lon="1.33399">
        <ele>204.6</ele>
        <time>2024-06-13T14:26:55Z</time>
      </trkpt>
      <trkpt lat="43.64541" lon="1.33395">
        <ele>204.6</ele>
        <time>2024-06-13T14:26:56Z</time>
      </trkpt>
      <trkpt lat="43.64542" lon="1.3339">
        <ele>204.8</ele>
        <time>2024-06-13T14:26:57Z</time>
      </trkpt>
      <trkpt lat="43.64542" lon="1.33386">
        <ele>205.2</ele>
        <time>2024-06-13T14:26:58Z</time>
      </trkpt>
      <trkpt lat="43.64542" lon="1.33381">
        <ele>205.4</ele>
        <time>2024-06-13T14:26:59Z</time>
      </trkpt>
      <trkpt lat="43.64544" lon="1.33376">
        <ele>206</ele>
        <time>2024-06-13T14:27:00Z</time>
      </trkpt>
      <trkpt lat="43.64545" lon="1.33372">
        <ele>206.4</ele>
        <time>2024-06-13T14:27:01Z</time>
      </trkpt>
      <trkpt lat="43.64547" lon="1.33368">
        <ele>206.8</ele>
        <time>2024-06-13T14:27:02Z</time>
      </trkpt>
      <trkpt lat="43.64549" lon="1.33364">
        <ele>207</ele>
        <time>2024-06-13T14:27:03Z</time>
      </trkpt>
      <trkpt lat="43.64552" lon="1.33362">
        <ele>207.2</ele>
        <time>2024-06-13T14:27:04Z</time>
      </trkpt>
      <trkpt lat="43.64555" lon="1.33355">
        <ele>207.6</ele>
        <time>2024-06-13T14:27:05Z</time>
      </trkpt>
      <trkpt lat="43.64558" lon="1.33351">
        <ele>207.6</ele>
        <time>2024-06-13T14:27:06Z</time>
      </trkpt>
      <trkpt lat="43.64562" lon="1.33348">
        <ele>208</ele>
        <time>2024-06-13T14:27:07Z</time>
      </trkpt>
      <trkpt lat="43.64564" lon="1.33343">
        <ele>208</ele>
        <time>2024-06-13T14:27:08Z</time>
      </trkpt>
      <trkpt lat="43.64566" lon="1.33339">
        <ele>208.4</ele>
        <time>2024-06-13T14:27:09Z</time>
      </trkpt>
      <trkpt lat="43.64569" lon="1.33335">
        <ele>208.6</ele>
        <time>2024-06-13T14:27:10Z</time>
      </trkpt>
      <trkpt lat="43.64572" lon="1.3333">
        <ele>209</ele>
        <time>2024-06-13T14:27:11Z</time>
      </trkpt>
      <trkpt lat="43.64574" lon="1.33324">
        <ele>209.4</ele>
        <time>2024-06-13T14:27:12Z</time>
      </trkpt>
      <trkpt lat="43.64577" lon="1.33318">
        <ele>209.4</ele>
        <time>2024-06-13T14:27:13Z</time>
      </trkpt>
      <trkpt lat="43.6458" lon="1.33312">
        <ele>209.8</ele>
        <time>2024-06-13T14:27:14Z</time>
      </trkpt>
      <trkpt lat="43.64583" lon="1.33307">
        <ele>210</ele>
        <time>2024-06-13T14:27:15Z</time>
      </trkpt>
      <trkpt lat="43.64585" lon="1.33299">
        <ele>210.2</ele>
        <time>2024-06-13T14:27:16Z</time>
      </trkpt>
      <trkpt lat="43.64587" lon="1.33292">
        <ele>210.4</ele>
        <time>2024-06-13T14:27:17Z</time>
      </trkpt>
      <trkpt lat="43.6459" lon="1.33285">
        <ele>210.4</ele>
        <time>2024-06-13T14:27:18Z</time>
      </trkpt>
      <trkpt lat="43.64594" lon="1.33279">
        <ele>210.6</ele>
        <time>2024-06-13T14:27:19Z</time>
      </trkpt>
      <trkpt lat="43.64597" lon="1.33271">
        <ele>210.6</ele>
        <time>2024-06-13T14:27:20Z</time>
      </trkpt>
      <trkpt lat="43.646" lon="1.33265">
        <ele>211</ele>
        <time>2024-06-13T14:27:21Z</time>
      </trkpt>
      <trkpt lat="43.64604" lon="1.3326">
        <ele>211</ele>
        <time>2024-06-13T14:27:22Z</time>
      </trkpt>
      <trkpt lat="43.64607" lon="1.33255">
        <ele>211.2</ele>
        <time>2024-06-13T14:27:23Z</time>
      </trkpt>
      <trkpt lat="43.64611" lon="1.33247">
        <ele>211.4</ele>
        <time>2024-06-13T14:27:24Z</time>
      </trkpt>
      <trkpt lat="43.64614" lon="1.33241">
        <ele>211.4</ele>
        <time>2024-06-13T14:27:25Z</time>
      </trkpt>
      <trkpt lat="43.64617" lon="1.33235">
        <ele>211.4</ele>
        <time>2024-06-13T14:27:26Z</time>
      </trkpt>
      <trkpt lat="43.6462" lon="1.33228">
        <ele>211.6</ele>
        <time>2024-06-13T14:27:27Z</time>
      </trkpt>
      <trkpt lat="43.64623" lon="1.33222">
        <ele>211.6</ele>
        <time>2024-06-13T14:27:28Z</time>
      </trkpt>
      <trkpt lat="43.64626" lon="1.33217">
        <ele>211.6</ele>
        <time>2024-06-13T14:27:29Z</time>
      </trkpt>
      <trkpt lat="43.6463" lon="1.33209">
        <ele>211.6</ele>
        <time>2024-06-13T14:27:30Z</time>
      </trkpt>
      <trkpt lat="43.64633" lon="1.33201">
        <ele>211.8</ele>
        <time>2024-06-13T14:27:31Z</time>
      </trkpt>
      <trkpt lat="43.64636" lon="1.33194">
        <ele>211.8</ele>
        <time>2024-06-13T14:27:32Z</time>
      </trkpt>
      <trkpt lat="43.6464" lon="1.33186">
        <ele>212</ele>
        <time>2024-06-13T14:27:33Z</time>
      </trkpt>
      <trkpt lat="43.64643" lon="1.33179">
        <ele>212</ele>
        <time>2024-06-13T14:27:34Z</time>
      </trkpt>
      <trkpt lat="43.64646" lon="1.33173">
        <ele>212</ele>
        <time>2024-06-13T14:27:35Z</time>
      </trkpt>
      <trkpt lat="43.6465" lon="1.33164">
        <ele>212</ele>
        <time>2024-06-13T14:27:36Z</time>
      </trkpt>
      <trkpt lat="43.64652" lon="1.33156">
        <ele>212</ele>
        <time>2024-06-13T14:27:37Z</time>
      </trkpt>
      <trkpt lat="43.64655" lon="1.33149">
        <ele>211.8</ele>
        <time>2024-06-13T14:27:38Z</time>
      </trkpt>
      <trkpt lat="43.64658" lon="1.33142">
        <ele>211.8</ele>
        <time>2024-06-13T14:27:39Z</time>
      </trkpt>
      <trkpt lat="43.64661" lon="1.33135">
        <ele>211.8</ele>
        <time>2024-06-13T14:27:40Z</time>
      </trkpt>
      <trkpt lat="43.64664" lon="1.33128">
        <ele>211.8</ele>
        <time>2024-06-13T14:27:41Z</time>
      </trkpt>
      <trkpt lat="43.64667" lon="1.3312">
        <ele>211.8</ele>
        <time>2024-06-13T14:27:42Z</time>
      </trkpt>
      <trkpt lat="43.6467" lon="1.33113">
        <ele>211.8</ele>
        <time>2024-06-13T14:27:43Z</time>
      </trkpt>
      <trkpt lat="43.64673" lon="1.33106">
        <ele>211.8</ele>
        <time>2024-06-13T14:27:44Z</time>
      </trkpt>
      <trkpt lat="43.64675" lon="1.331">
        <ele>211.8</ele>
        <time>2024-06-13T14:27:45Z</time>
      </trkpt>
      <trkpt lat="43.64676" lon="1.33097">
        <ele>211.8</ele>
        <time>2024-06-13T14:27:46Z</time>
      </trkpt>
      <trkpt lat="43.64677" lon="1.33094">
        <ele>211.8</ele>
        <time>2024-06-13T14:27:47Z</time>
      </trkpt>
      <trkpt lat="43.64678" lon="1.33093">
        <ele>211.8</ele>
        <time>2024-06-13T14:27:48Z</time>
      </trkpt>
      <trkpt lat="43.64678" lon="1.33092">
        <ele>211.8</ele>
        <time>2024-06-13T14:27:49Z</time>
      </trkpt>
      <trkpt lat="43.64679" lon="1.33092">
        <ele>211.8</ele>
        <time>2024-06-13T14:27:50Z</time>
      </trkpt>
      <trkpt lat="43.6468" lon="1.3309">
        <ele>211.8</ele>
        <time>2024-06-13T14:27:51Z</time>
      </trkpt>
      <trkpt lat="43.64681" lon="1.33088">
        <ele>211.6</ele>
        <time>2024-06-13T14:27:52Z</time>
      </trkpt>
      <trkpt lat="43.64684" lon="1.33086">
        <ele>211.6</ele>
        <time>2024-06-13T14:27:53Z</time>
      </trkpt>
      <trkpt lat="43.64687" lon="1.33084">
        <ele>211.6</ele>
        <time>2024-06-13T14:27:54Z</time>
      </trkpt>
      <trkpt lat="43.6469" lon="1.33081">
        <ele>211.6</ele>
        <time>2024-06-13T14:27:55Z</time>
      </trkpt>
      <trkpt lat="43.64693" lon="1.33078">
        <ele>211.6</ele>
        <time>2024-06-13T14:27:56Z</time>
      </trkpt>
      <trkpt lat="43.64697" lon="1.33074">
        <ele>211.6</ele>
        <time>2024-06-13T14:27:57Z</time>
      </trkpt>
      <trkpt lat="43.647" lon="1.33071">
        <ele>211.6</ele>
        <time>2024-06-13T14:27:58Z</time>
      </trkpt>
      <trkpt lat="43.64705" lon="1.33067">
        <ele>211.6</ele>
        <time>2024-06-13T14:27:59Z</time>
      </trkpt>
      <trkpt lat="43.64708" lon="1.33064">
        <ele>211.4</ele>
        <time>2024-06-13T14:28:00Z</time>
      </trkpt>
      <trkpt lat="43.64713" lon="1.3306">
        <ele>211.4</ele>
        <time>2024-06-13T14:28:01Z</time>
      </trkpt>
      <trkpt lat="43.64718" lon="1.33055">
        <ele>211.4</ele>
        <time>2024-06-13T14:28:02Z</time>
      </trkpt>
      <trkpt lat="43.64722" lon="1.33051">
        <ele>211.4</ele>
        <time>2024-06-13T14:28:03Z</time>
      </trkpt>
      <trkpt lat="43.64727" lon="1.33048">
        <ele>211.4</ele>
        <time>2024-06-13T14:28:04Z</time>
      </trkpt>
      <trkpt lat="43.64732" lon="1.33044">
        <ele>211.4</ele>
        <time>2024-06-13T14:28:05Z</time>
      </trkpt>
      <trkpt lat="43.64736" lon="1.3304">
        <ele>211.4</ele>
        <time>2024-06-13T14:28:06Z</time>
      </trkpt>
      <trkpt lat="43.64742" lon="1.33035">
        <ele>211.2</ele>
        <time>2024-06-13T14:28:07Z</time>
      </trkpt>
      <trkpt lat="43.64747" lon="1.3303">
        <ele>211.2</ele>
        <time>2024-06-13T14:28:08Z</time>
      </trkpt>
      <trkpt lat="43.64751" lon="1.33026">
        <ele>211.2</ele>
        <time>2024-06-13T14:28:09Z</time>
      </trkpt>
      <trkpt lat="43.64756" lon="1.33022">
        <ele>211.2</ele>
        <time>2024-06-13T14:28:10Z</time>
      </trkpt>
      <trkpt lat="43.64761" lon="1.33018">
        <ele>211.2</ele>
        <time>2024-06-13T14:28:11Z</time>
      </trkpt>
      <trkpt lat="43.64765" lon="1.33014">
        <ele>211.2</ele>
        <time>2024-06-13T14:28:12Z</time>
      </trkpt>
      <trkpt lat="43.6477" lon="1.3301">
        <ele>211.2</ele>
        <time>2024-06-13T14:28:13Z</time>
      </trkpt>
      <trkpt lat="43.64774" lon="1.33007">
        <ele>211.2</ele>
        <time>2024-06-13T14:28:14Z</time>
      </trkpt>
      <trkpt lat="43.64778" lon="1.33003">
        <ele>211.2</ele>
        <time>2024-06-13T14:28:15Z</time>
      </trkpt>
      <trkpt lat="43.64782" lon="1.32999">
        <ele>211.2</ele>
        <time>2024-06-13T14:28:16Z</time>
      </trkpt>
      <trkpt lat="43.64787" lon="1.32993">
        <ele>211.2</ele>
        <time>2024-06-13T14:28:17Z</time>
      </trkpt>
      <trkpt lat="43.64791" lon="1.32988">
        <ele>211.2</ele>
        <time>2024-06-13T14:28:18Z</time>
      </trkpt>
      <trkpt lat="43.64795" lon="1.32983">
        <ele>211.2</ele>
        <time>2024-06-13T14:28:19Z</time>
      </trkpt>
      <trkpt lat="43.64799" lon="1.32977">
        <ele>211.2</ele>
        <time>2024-06-13T14:28:20Z</time>
      </trkpt>
      <trkpt lat="43.64803" lon="1.32971">
        <ele>211.2</ele>
        <time>2024-06-13T14:28:21Z</time>
      </trkpt>
      <trkpt lat="43.64807" lon="1.32965">
        <ele>211.2</ele>
        <time>2024-06-13T14:28:22Z</time>
      </trkpt>
      <trkpt lat="43.6481" lon="1.32958">
        <ele>211.2</ele>
        <time>2024-06-13T14:28:23Z</time>
      </trkpt>
      <trkpt lat="43.64814" lon="1.32951">
        <ele>211</ele>
        <time>2024-06-13T14:28:24Z</time>
      </trkpt>
      <trkpt lat="43.64818" lon="1.32943">
        <ele>211</ele>
        <time>2024-06-13T14:28:25Z</time>
      </trkpt>
      <trkpt lat="43.64822" lon="1.32935">
        <ele>211</ele>
        <time>2024-06-13T14:28:26Z</time>
      </trkpt>
      <trkpt lat="43.64826" lon="1.32926">
        <ele>210.8</ele>
        <time>2024-06-13T14:28:27Z</time>
      </trkpt>
      <trkpt lat="43.64829" lon="1.32916">
        <ele>210.8</ele>
        <time>2024-06-13T14:28:28Z</time>
      </trkpt>
      <trkpt lat="43.64832" lon="1.32906">
        <ele>210.6</ele>
        <time>2024-06-13T14:28:29Z</time>
      </trkpt>
      <trkpt lat="43.64835" lon="1.32895">
        <ele>210.4</ele>
        <time>2024-06-13T14:28:30Z</time>
      </trkpt>
      <trkpt lat="43.64837" lon="1.32884">
        <ele>210.4</ele>
        <time>2024-06-13T14:28:31Z</time>
      </trkpt>
      <trkpt lat="43.6484" lon="1.32871">
        <ele>209.8</ele>
        <time>2024-06-13T14:28:32Z</time>
      </trkpt>
      <trkpt lat="43.64842" lon="1.32858">
        <ele>209.6</ele>
        <time>2024-06-13T14:28:33Z</time>
      </trkpt>
      <trkpt lat="43.64845" lon="1.32843">
        <ele>209.2</ele>
        <time>2024-06-13T14:28:34Z</time>
      </trkpt>
      <trkpt lat="43.64847" lon="1.32827">
        <ele>208.2</ele>
        <time>2024-06-13T14:28:35Z</time>
      </trkpt>
      <trkpt lat="43.6485" lon="1.32811">
        <ele>207.8</ele>
        <time>2024-06-13T14:28:36Z</time>
      </trkpt>
      <trkpt lat="43.64852" lon="1.32795">
        <ele>206.8</ele>
        <time>2024-06-13T14:28:37Z</time>
      </trkpt>
      <trkpt lat="43.64854" lon="1.32781">
        <ele>206.2</ele>
        <time>2024-06-13T14:28:38Z</time>
      </trkpt>
      <trkpt lat="43.64856" lon="1.32768">
        <ele>204.8</ele>
        <time>2024-06-13T14:28:39Z</time>
      </trkpt>
      <trkpt lat="43.64858" lon="1.32759">
        <ele>204.2</ele>
        <time>2024-06-13T14:28:40Z</time>
      </trkpt>
      <trkpt lat="43.64859" lon="1.32747">
        <ele>202.8</ele>
        <time>2024-06-13T14:28:41Z</time>
      </trkpt>
      <trkpt lat="43.6486" lon="1.32736">
        <ele>201.6</ele>
        <time>2024-06-13T14:28:42Z</time>
      </trkpt>
      <trkpt lat="43.64859" lon="1.32725">
        <ele>200.6</ele>
        <time>2024-06-13T14:28:43Z</time>
      </trkpt>
      <trkpt lat="43.64855" lon="1.32714">
        <ele>199.4</ele>
        <time>2024-06-13T14:28:44Z</time>
      </trkpt>
      <trkpt lat="43.64851" lon="1.32705">
        <ele>198.8</ele>
        <time>2024-06-13T14:28:45Z</time>
      </trkpt>
      <trkpt lat="43.64848" lon="1.32697">
        <ele>197.8</ele>
        <time>2024-06-13T14:28:46Z</time>
      </trkpt>
      <trkpt lat="43.64845" lon="1.32687">
        <ele>197.4</ele>
        <time>2024-06-13T14:28:47Z</time>
      </trkpt>
      <trkpt lat="43.6484" lon="1.32676">
        <ele>196.6</ele>
        <time>2024-06-13T14:28:48Z</time>
      </trkpt>
      <trkpt lat="43.64836" lon="1.32665">
        <ele>196</ele>
        <time>2024-06-13T14:28:49Z</time>
      </trkpt>
      <trkpt lat="43.6483" lon="1.3265">
        <ele>195.6</ele>
        <time>2024-06-13T14:28:50Z</time>
      </trkpt>
      <trkpt lat="43.64825" lon="1.32639">
        <ele>195.4</ele>
        <time>2024-06-13T14:28:51Z</time>
      </trkpt>
      <trkpt lat="43.6482" lon="1.32627">
        <ele>195.2</ele>
        <time>2024-06-13T14:28:52Z</time>
      </trkpt>
      <trkpt lat="43.64814" lon="1.32614">
        <ele>194.8</ele>
        <time>2024-06-13T14:28:53Z</time>
      </trkpt>
      <trkpt lat="43.64809" lon="1.32601">
        <ele>194</ele>
        <time>2024-06-13T14:28:54Z</time>
      </trkpt>
      <trkpt lat="43.64803" lon="1.32588">
        <ele>193.4</ele>
        <time>2024-06-13T14:28:55Z</time>
      </trkpt>
      <trkpt lat="43.64799" lon="1.32575">
        <ele>192.2</ele>
        <time>2024-06-13T14:28:56Z</time>
      </trkpt>
      <trkpt lat="43.64796" lon="1.3256">
        <ele>191.8</ele>
        <time>2024-06-13T14:28:57Z</time>
      </trkpt>
      <trkpt lat="43.64794" lon="1.32547">
        <ele>191</ele>
        <time>2024-06-13T14:28:58Z</time>
      </trkpt>
      <trkpt lat="43.64793" lon="1.32533">
        <ele>190.6</ele>
        <time>2024-06-13T14:28:59Z</time>
      </trkpt>
      <trkpt lat="43.64793" lon="1.32524">
        <ele>189.8</ele>
        <time>2024-06-13T14:29:00Z</time>
      </trkpt>
      <trkpt lat="43.64792" lon="1.32514">
        <ele>188.8</ele>
        <time>2024-06-13T14:29:01Z</time>
      </trkpt>
      <trkpt lat="43.64792" lon="1.32506">
        <ele>188.4</ele>
        <time>2024-06-13T14:29:02Z</time>
      </trkpt>
      <trkpt lat="43.64791" lon="1.32499">
        <ele>188</ele>
        <time>2024-06-13T14:29:03Z</time>
      </trkpt>
      <trkpt lat="43.6479" lon="1.32494">
        <ele>187.8</ele>
        <time>2024-06-13T14:29:04Z</time>
      </trkpt>
      <trkpt lat="43.64788" lon="1.32492">
        <ele>187.6</ele>
        <time>2024-06-13T14:29:05Z</time>
      </trkpt>
      <trkpt lat="43.64788" lon="1.32493">
        <ele>187.6</ele>
        <time>2024-06-13T14:29:06Z</time>
      </trkpt>
      <trkpt lat="43.64789" lon="1.32497">
        <ele>187.4</ele>
        <time>2024-06-13T14:29:07Z</time>
      </trkpt>
      <trkpt lat="43.64789" lon="1.32502">
        <ele>187.4</ele>
        <time>2024-06-13T14:29:08Z</time>
      </trkpt>
      <trkpt lat="43.64788" lon="1.32506">
        <ele>187.2</ele>
        <time>2024-06-13T14:29:09Z</time>
      </trkpt>
      <trkpt lat="43.64785" lon="1.32506">
        <ele>187.2</ele>
        <time>2024-06-13T14:29:10Z</time>
      </trkpt>
      <trkpt lat="43.64781" lon="1.32506">
        <ele>187</ele>
        <time>2024-06-13T14:29:11Z</time>
      </trkpt>
      <trkpt lat="43.64775" lon="1.32505">
        <ele>186.4</ele>
        <time>2024-06-13T14:29:12Z</time>
      </trkpt>
      <trkpt lat="43.64769" lon="1.32505">
        <ele>186.2</ele>
        <time>2024-06-13T14:29:13Z</time>
      </trkpt>
      <trkpt lat="43.64762" lon="1.32504">
        <ele>185.6</ele>
        <time>2024-06-13T14:29:14Z</time>
      </trkpt>
      <trkpt lat="43.64757" lon="1.32504">
        <ele>184.8</ele>
        <time>2024-06-13T14:29:15Z</time>
      </trkpt>
      <trkpt lat="43.6475" lon="1.32503">
        <ele>184.2</ele>
        <time>2024-06-13T14:29:16Z</time>
      </trkpt>
      <trkpt lat="43.64745" lon="1.32503">
        <ele>183.4</ele>
        <time>2024-06-13T14:29:17Z</time>
      </trkpt>
      <trkpt lat="43.6474" lon="1.32501">
        <ele>183.2</ele>
        <time>2024-06-13T14:29:18Z</time>
      </trkpt>
      <trkpt lat="43.64735" lon="1.32499">
        <ele>183</ele>
        <time>2024-06-13T14:29:19Z</time>
      </trkpt>
      <trkpt lat="43.64732" lon="1.32495">
        <ele>182.6</ele>
        <time>2024-06-13T14:29:20Z</time>
      </trkpt>
      <trkpt lat="43.64729" lon="1.3249">
        <ele>182.6</ele>
        <time>2024-06-13T14:29:21Z</time>
      </trkpt>
      <trkpt lat="43.64726" lon="1.32484">
        <ele>182.2</ele>
        <time>2024-06-13T14:29:22Z</time>
      </trkpt>
      <trkpt lat="43.64723" lon="1.32479">
        <ele>182.2</ele>
        <time>2024-06-13T14:29:23Z</time>
      </trkpt>
      <trkpt lat="43.64723" lon="1.32479">
        <ele>182</ele>
        <time>2024-06-13T14:29:24Z</time>
      </trkpt>
      <trkpt lat="43.64714" lon="1.32471">
        <ele>182</ele>
        <time>2024-06-13T14:29:25Z</time>
      </trkpt>
      <trkpt lat="43.64709" lon="1.32469">
        <ele>181.6</ele>
        <time>2024-06-13T14:29:26Z</time>
      </trkpt>
      <trkpt lat="43.64705" lon="1.32466">
        <ele>181.4</ele>
        <time>2024-06-13T14:29:27Z</time>
      </trkpt>
      <trkpt lat="43.64701" lon="1.32463">
        <ele>181.4</ele>
        <time>2024-06-13T14:29:28Z</time>
      </trkpt>
      <trkpt lat="43.64696" lon="1.3246">
        <ele>181.4</ele>
        <time>2024-06-13T14:29:29Z</time>
      </trkpt>
      <trkpt lat="43.64692" lon="1.32456">
        <ele>181.2</ele>
        <time>2024-06-13T14:29:30Z</time>
      </trkpt>
      <trkpt lat="43.64692" lon="1.32456">
        <ele>181.2</ele>
        <time>2024-06-13T14:29:31Z</time>
      </trkpt>
      <trkpt lat="43.64682" lon="1.3245">
        <ele>181.2</ele>
        <time>2024-06-13T14:29:32Z</time>
      </trkpt>
      <trkpt lat="43.64677" lon="1.32447">
        <ele>181.4</ele>
        <time>2024-06-13T14:29:33Z</time>
      </trkpt>
      <trkpt lat="43.64673" lon="1.32444">
        <ele>181.4</ele>
        <time>2024-06-13T14:29:34Z</time>
      </trkpt>
      <trkpt lat="43.64668" lon="1.32441">
        <ele>181.4</ele>
        <time>2024-06-13T14:29:35Z</time>
      </trkpt>
      <trkpt lat="43.64664" lon="1.32437">
        <ele>181.6</ele>
        <time>2024-06-13T14:29:36Z</time>
      </trkpt>
      <trkpt lat="43.64659" lon="1.32434">
        <ele>181.8</ele>
        <time>2024-06-13T14:29:37Z</time>
      </trkpt>
      <trkpt lat="43.64655" lon="1.32431">
        <ele>181.8</ele>
        <time>2024-06-13T14:29:38Z</time>
      </trkpt>
      <trkpt lat="43.64655" lon="1.32431">
        <ele>181.8</ele>
        <time>2024-06-13T14:29:39Z</time>
      </trkpt>
      <trkpt lat="43.64647" lon="1.32426">
        <ele>182</ele>
        <time>2024-06-13T14:29:40Z</time>
      </trkpt>
      <trkpt lat="43.64643" lon="1.32423">
        <ele>182</ele>
        <time>2024-06-13T14:29:41Z</time>
      </trkpt>
      <trkpt lat="43.64638" lon="1.32419">
        <ele>182</ele>
        <time>2024-06-13T14:29:42Z</time>
      </trkpt>
      <trkpt lat="43.64633" lon="1.32416">
        <ele>182</ele>
        <time>2024-06-13T14:29:43Z</time>
      </trkpt>
      <trkpt lat="43.64628" lon="1.32412">
        <ele>182</ele>
        <time>2024-06-13T14:29:44Z</time>
      </trkpt>
      <trkpt lat="43.64622" lon="1.32409">
        <ele>182</ele>
        <time>2024-06-13T14:29:45Z</time>
      </trkpt>
      <trkpt lat="43.64617" lon="1.32405">
        <ele>182</ele>
        <time>2024-06-13T14:29:46Z</time>
      </trkpt>
      <trkpt lat="43.64613" lon="1.32402">
        <ele>182</ele>
        <time>2024-06-13T14:29:47Z</time>
      </trkpt>
      <trkpt lat="43.64607" lon="1.32398">
        <ele>182.2</ele>
        <time>2024-06-13T14:29:48Z</time>
      </trkpt>
      <trkpt lat="43.64602" lon="1.32394">
        <ele>182.2</ele>
        <time>2024-06-13T14:29:49Z</time>
      </trkpt>
      <trkpt lat="43.64598" lon="1.3239">
        <ele>182.2</ele>
        <time>2024-06-13T14:29:50Z</time>
      </trkpt>
      <trkpt lat="43.64593" lon="1.32385">
        <ele>182.2</ele>
        <time>2024-06-13T14:29:51Z</time>
      </trkpt>
      <trkpt lat="43.64588" lon="1.3238">
        <ele>182.2</ele>
        <time>2024-06-13T14:29:52Z</time>
      </trkpt>
      <trkpt lat="43.64584" lon="1.32376">
        <ele>182.2</ele>
        <time>2024-06-13T14:29:53Z</time>
      </trkpt>
      <trkpt lat="43.64579" lon="1.32372">
        <ele>182.4</ele>
        <time>2024-06-13T14:29:54Z</time>
      </trkpt>
      <trkpt lat="43.64575" lon="1.32369">
        <ele>182.4</ele>
        <time>2024-06-13T14:29:55Z</time>
      </trkpt>
      <trkpt lat="43.64575" lon="1.32369">
        <ele>182.4</ele>
        <time>2024-06-13T14:29:56Z</time>
      </trkpt>
      <trkpt lat="43.64572" lon="1.32368">
        <ele>182.4</ele>
        <time>2024-06-13T14:29:57Z</time>
      </trkpt>
      <trkpt lat="43.64571" lon="1.32368">
        <ele>182.4</ele>
        <time>2024-06-13T14:29:58Z</time>
      </trkpt>
      <trkpt lat="43.64569" lon="1.32367">
        <ele>182.4</ele>
        <time>2024-06-13T14:29:59Z</time>
      </trkpt>
      <trkpt lat="43.64566" lon="1.32366">
        <ele>182.6</ele>
        <time>2024-06-13T14:30:00Z</time>
      </trkpt>
      <trkpt lat="43.64566" lon="1.32366">
        <ele>182.6</ele>
        <time>2024-06-13T14:30:01Z</time>
      </trkpt>
      <trkpt lat="43.6456" lon="1.32362">
        <ele>182.6</ele>
        <time>2024-06-13T14:30:02Z</time>
      </trkpt>
      <trkpt lat="43.64556" lon="1.32359">
        <ele>182.6</ele>
        <time>2024-06-13T14:30:03Z</time>
      </trkpt>
      <trkpt lat="43.64552" lon="1.32357">
        <ele>182.6</ele>
        <time>2024-06-13T14:30:04Z</time>
      </trkpt>
      <trkpt lat="43.64548" lon="1.32355">
        <ele>182.6</ele>
        <time>2024-06-13T14:30:05Z</time>
      </trkpt>
      <trkpt lat="43.64544" lon="1.32352">
        <ele>182.6</ele>
        <time>2024-06-13T14:30:06Z</time>
      </trkpt>
      <trkpt lat="43.64539" lon="1.32349">
        <ele>182.6</ele>
        <time>2024-06-13T14:30:07Z</time>
      </trkpt>
      <trkpt lat="43.64534" lon="1.32346">
        <ele>182.6</ele>
        <time>2024-06-13T14:30:08Z</time>
      </trkpt>
      <trkpt lat="43.6453" lon="1.32343">
        <ele>182.6</ele>
        <time>2024-06-13T14:30:09Z</time>
      </trkpt>
      <trkpt lat="43.64525" lon="1.32341">
        <ele>182.6</ele>
        <time>2024-06-13T14:30:10Z</time>
      </trkpt>
      <trkpt lat="43.6452" lon="1.32338">
        <ele>182.6</ele>
        <time>2024-06-13T14:30:11Z</time>
      </trkpt>
      <trkpt lat="43.64516" lon="1.32335">
        <ele>182.6</ele>
        <time>2024-06-13T14:30:12Z</time>
      </trkpt>
      <trkpt lat="43.64511" lon="1.32333">
        <ele>182.6</ele>
        <time>2024-06-13T14:30:13Z</time>
      </trkpt>
      <trkpt lat="43.64506" lon="1.3233">
        <ele>182.8</ele>
        <time>2024-06-13T14:30:14Z</time>
      </trkpt>
      <trkpt lat="43.64501" lon="1.32327">
        <ele>182.8</ele>
        <time>2024-06-13T14:30:15Z</time>
      </trkpt>
      <trkpt lat="43.64496" lon="1.32325">
        <ele>182.8</ele>
        <time>2024-06-13T14:30:16Z</time>
      </trkpt>
      <trkpt lat="43.64491" lon="1.32322">
        <ele>182.8</ele>
        <time>2024-06-13T14:30:17Z</time>
      </trkpt>
      <trkpt lat="43.64487" lon="1.32318">
        <ele>182.8</ele>
        <time>2024-06-13T14:30:18Z</time>
      </trkpt>
      <trkpt lat="43.64482" lon="1.32315">
        <ele>183</ele>
        <time>2024-06-13T14:30:19Z</time>
      </trkpt>
      <trkpt lat="43.64482" lon="1.32315">
        <ele>183</ele>
        <time>2024-06-13T14:30:20Z</time>
      </trkpt>
      <trkpt lat="43.64471" lon="1.32308">
        <ele>183</ele>
        <time>2024-06-13T14:30:21Z</time>
      </trkpt>
      <trkpt lat="43.64471" lon="1.32308">
        <ele>183</ele>
        <time>2024-06-13T14:30:22Z</time>
      </trkpt>
      <trkpt lat="43.64461" lon="1.323">
        <ele>183</ele>
        <time>2024-06-13T14:30:23Z</time>
      </trkpt>
      <trkpt lat="43.64456" lon="1.32296">
        <ele>183.2</ele>
        <time>2024-06-13T14:30:24Z</time>
      </trkpt>
      <trkpt lat="43.64451" lon="1.32291">
        <ele>183.2</ele>
        <time>2024-06-13T14:30:25Z</time>
      </trkpt>
      <trkpt lat="43.64451" lon="1.32291">
        <ele>183.2</ele>
        <time>2024-06-13T14:30:26Z</time>
      </trkpt>
      <trkpt lat="43.64441" lon="1.3228">
        <ele>183.2</ele>
        <time>2024-06-13T14:30:27Z</time>
      </trkpt>
      <trkpt lat="43.64437" lon="1.32274">
        <ele>183.4</ele>
        <time>2024-06-13T14:30:28Z</time>
      </trkpt>
      <trkpt lat="43.64432" lon="1.32267">
        <ele>183.4</ele>
        <time>2024-06-13T14:30:29Z</time>
      </trkpt>
      <trkpt lat="43.64428" lon="1.32261">
        <ele>183.6</ele>
        <time>2024-06-13T14:30:30Z</time>
      </trkpt>
      <trkpt lat="43.64424" lon="1.32256">
        <ele>183.6</ele>
        <time>2024-06-13T14:30:31Z</time>
      </trkpt>
      <trkpt lat="43.6442" lon="1.3225">
        <ele>183.6</ele>
        <time>2024-06-13T14:30:32Z</time>
      </trkpt>
      <trkpt lat="43.64416" lon="1.32244">
        <ele>183.8</ele>
        <time>2024-06-13T14:30:33Z</time>
      </trkpt>
      <trkpt lat="43.64412" lon="1.32239">
        <ele>183.8</ele>
        <time>2024-06-13T14:30:34Z</time>
      </trkpt>
      <trkpt lat="43.64409" lon="1.32234">
        <ele>183.8</ele>
        <time>2024-06-13T14:30:35Z</time>
      </trkpt>
      <trkpt lat="43.64404" lon="1.32228">
        <ele>184</ele>
        <time>2024-06-13T14:30:36Z</time>
      </trkpt>
      <trkpt lat="43.64401" lon="1.32222">
        <ele>184.4</ele>
        <time>2024-06-13T14:30:37Z</time>
      </trkpt>
      <trkpt lat="43.64399" lon="1.32217">
        <ele>184.4</ele>
        <time>2024-06-13T14:30:38Z</time>
      </trkpt>
      <trkpt lat="43.64396" lon="1.32212">
        <ele>184.6</ele>
        <time>2024-06-13T14:30:39Z</time>
      </trkpt>
      <trkpt lat="43.64393" lon="1.32206">
        <ele>184.8</ele>
        <time>2024-06-13T14:30:40Z</time>
      </trkpt>
      <trkpt lat="43.64389" lon="1.32201">
        <ele>185</ele>
        <time>2024-06-13T14:30:41Z</time>
      </trkpt>
      <trkpt lat="43.64386" lon="1.32196">
        <ele>185.4</ele>
        <time>2024-06-13T14:30:42Z</time>
      </trkpt>
      <trkpt lat="43.64383" lon="1.32191">
        <ele>185.8</ele>
        <time>2024-06-13T14:30:43Z</time>
      </trkpt>
      <trkpt lat="43.64379" lon="1.32185">
        <ele>185.8</ele>
        <time>2024-06-13T14:30:44Z</time>
      </trkpt>
      <trkpt lat="43.64376" lon="1.3218">
        <ele>186</ele>
        <time>2024-06-13T14:30:45Z</time>
      </trkpt>
      <trkpt lat="43.64372" lon="1.32174">
        <ele>186.4</ele>
        <time>2024-06-13T14:30:46Z</time>
      </trkpt>
      <trkpt lat="43.64369" lon="1.32168">
        <ele>186.4</ele>
        <time>2024-06-13T14:30:47Z</time>
      </trkpt>
      <trkpt lat="43.64366" lon="1.32162">
        <ele>186.8</ele>
        <time>2024-06-13T14:30:48Z</time>
      </trkpt>
      <trkpt lat="43.64363" lon="1.32156">
        <ele>187.2</ele>
        <time>2024-06-13T14:30:49Z</time>
      </trkpt>
      <trkpt lat="43.6436" lon="1.3215">
        <ele>187.6</ele>
        <time>2024-06-13T14:30:50Z</time>
      </trkpt>
      <trkpt lat="43.64356" lon="1.32144">
        <ele>187.6</ele>
        <time>2024-06-13T14:30:51Z</time>
      </trkpt>
      <trkpt lat="43.64356" lon="1.32144">
        <ele>187.8</ele>
        <time>2024-06-13T14:30:52Z</time>
      </trkpt>
      <trkpt lat="43.6435" lon="1.32131">
        <ele>187.8</ele>
        <time>2024-06-13T14:30:53Z</time>
      </trkpt>
      <trkpt lat="43.64347" lon="1.32125">
        <ele>188.2</ele>
        <time>2024-06-13T14:30:54Z</time>
      </trkpt>
      <trkpt lat="43.64344" lon="1.32119">
        <ele>188.2</ele>
        <time>2024-06-13T14:30:55Z</time>
      </trkpt>
      <trkpt lat="43.64341" lon="1.32112">
        <ele>188.2</ele>
        <time>2024-06-13T14:30:56Z</time>
      </trkpt>
      <trkpt lat="43.64337" lon="1.32106">
        <ele>188.4</ele>
        <time>2024-06-13T14:30:57Z</time>
      </trkpt>
      <trkpt lat="43.64337" lon="1.32106">
        <ele>188.4</ele>
        <time>2024-06-13T14:30:58Z</time>
      </trkpt>
      <trkpt lat="43.6433" lon="1.32092">
        <ele>188.6</ele>
        <time>2024-06-13T14:30:59Z</time>
      </trkpt>
      <trkpt lat="43.64327" lon="1.32085">
        <ele>188.6</ele>
        <time>2024-06-13T14:31:00Z</time>
      </trkpt>
      <trkpt lat="43.64324" lon="1.32078">
        <ele>188.6</ele>
        <time>2024-06-13T14:31:01Z</time>
      </trkpt>
      <trkpt lat="43.64322" lon="1.32071">
        <ele>188.6</ele>
        <time>2024-06-13T14:31:02Z</time>
      </trkpt>
      <trkpt lat="43.64319" lon="1.32064">
        <ele>188.6</ele>
        <time>2024-06-13T14:31:03Z</time>
      </trkpt>
      <trkpt lat="43.64316" lon="1.32057">
        <ele>188.6</ele>
        <time>2024-06-13T14:31:04Z</time>
      </trkpt>
      <trkpt lat="43.64313" lon="1.32051">
        <ele>188.8</ele>
        <time>2024-06-13T14:31:05Z</time>
      </trkpt>
      <trkpt lat="43.64311" lon="1.32044">
        <ele>188.8</ele>
        <time>2024-06-13T14:31:06Z</time>
      </trkpt>
      <trkpt lat="43.64308" lon="1.32036">
        <ele>188.8</ele>
        <time>2024-06-13T14:31:07Z</time>
      </trkpt>
      <trkpt lat="43.64306" lon="1.32029">
        <ele>189</ele>
        <time>2024-06-13T14:31:08Z</time>
      </trkpt>
      <trkpt lat="43.64303" lon="1.32022">
        <ele>189</ele>
        <time>2024-06-13T14:31:09Z</time>
      </trkpt>
      <trkpt lat="43.64301" lon="1.32014">
        <ele>189</ele>
        <time>2024-06-13T14:31:10Z</time>
      </trkpt>
      <trkpt lat="43.64298" lon="1.32007">
        <ele>189</ele>
        <time>2024-06-13T14:31:11Z</time>
      </trkpt>
      <trkpt lat="43.64295" lon="1.31999">
        <ele>189.2</ele>
        <time>2024-06-13T14:31:12Z</time>
      </trkpt>
      <trkpt lat="43.64292" lon="1.31992">
        <ele>189.2</ele>
        <time>2024-06-13T14:31:13Z</time>
      </trkpt>
      <trkpt lat="43.6429" lon="1.31984">
        <ele>189.4</ele>
        <time>2024-06-13T14:31:14Z</time>
      </trkpt>
      <trkpt lat="43.64287" lon="1.31977">
        <ele>189.6</ele>
        <time>2024-06-13T14:31:15Z</time>
      </trkpt>
      <trkpt lat="43.64284" lon="1.31969">
        <ele>189.6</ele>
        <time>2024-06-13T14:31:16Z</time>
      </trkpt>
      <trkpt lat="43.64282" lon="1.31961">
        <ele>189.6</ele>
        <time>2024-06-13T14:31:17Z</time>
      </trkpt>
      <trkpt lat="43.6428" lon="1.31953">
        <ele>189.6</ele>
        <time>2024-06-13T14:31:18Z</time>
      </trkpt>
      <trkpt lat="43.64278" lon="1.31945">
        <ele>189.6</ele>
        <time>2024-06-13T14:31:19Z</time>
      </trkpt>
      <trkpt lat="43.64278" lon="1.31945">
        <ele>189.6</ele>
        <time>2024-06-13T14:31:20Z</time>
      </trkpt>
      <trkpt lat="43.64272" lon="1.31932">
        <ele>189.6</ele>
        <time>2024-06-13T14:31:21Z</time>
      </trkpt>
      <trkpt lat="43.64267" lon="1.31927">
        <ele>189.6</ele>
        <time>2024-06-13T14:31:22Z</time>
      </trkpt>
      <trkpt lat="43.64262" lon="1.31922">
        <ele>189.6</ele>
        <time>2024-06-13T14:31:23Z</time>
      </trkpt>
      <trkpt lat="43.64256" lon="1.31917">
        <ele>189.6</ele>
        <time>2024-06-13T14:31:24Z</time>
      </trkpt>
      <trkpt lat="43.64249" lon="1.31911">
        <ele>189.4</ele>
        <time>2024-06-13T14:31:25Z</time>
      </trkpt>
      <trkpt lat="43.64242" lon="1.31905">
        <ele>189.2</ele>
        <time>2024-06-13T14:31:26Z</time>
      </trkpt>
      <trkpt lat="43.64234" lon="1.31899">
        <ele>188.6</ele>
        <time>2024-06-13T14:31:27Z</time>
      </trkpt>
      <trkpt lat="43.64227" lon="1.31894">
        <ele>188.2</ele>
        <time>2024-06-13T14:31:28Z</time>
      </trkpt>
      <trkpt lat="43.6422" lon="1.31888">
        <ele>187.6</ele>
        <time>2024-06-13T14:31:29Z</time>
      </trkpt>
      <trkpt lat="43.64213" lon="1.31884">
        <ele>187</ele>
        <time>2024-06-13T14:31:30Z</time>
      </trkpt>
      <trkpt lat="43.64205" lon="1.31878">
        <ele>186.6</ele>
        <time>2024-06-13T14:31:31Z</time>
      </trkpt>
      <trkpt lat="43.64198" lon="1.31873">
        <ele>186.2</ele>
        <time>2024-06-13T14:31:32Z</time>
      </trkpt>
      <trkpt lat="43.64192" lon="1.31869">
        <ele>186</ele>
        <time>2024-06-13T14:31:33Z</time>
      </trkpt>
      <trkpt lat="43.64186" lon="1.31865">
        <ele>185.6</ele>
        <time>2024-06-13T14:31:34Z</time>
      </trkpt>
      <trkpt lat="43.6418" lon="1.31861">
        <ele>185.2</ele>
        <time>2024-06-13T14:31:35Z</time>
      </trkpt>
      <trkpt lat="43.64175" lon="1.31859">
        <ele>185</ele>
        <time>2024-06-13T14:31:36Z</time>
      </trkpt>
      <trkpt lat="43.64169" lon="1.31857">
        <ele>184.8</ele>
        <time>2024-06-13T14:31:37Z</time>
      </trkpt>
      <trkpt lat="43.64163" lon="1.31855">
        <ele>184.8</ele>
        <time>2024-06-13T14:31:38Z</time>
      </trkpt>
      <trkpt lat="43.64157" lon="1.31853">
        <ele>184.8</ele>
        <time>2024-06-13T14:31:39Z</time>
      </trkpt>
      <trkpt lat="43.64151" lon="1.3185">
        <ele>184.6</ele>
        <time>2024-06-13T14:31:40Z</time>
      </trkpt>
      <trkpt lat="43.64151" lon="1.3185">
        <ele>184.6</ele>
        <time>2024-06-13T14:31:41Z</time>
      </trkpt>
      <trkpt lat="43.64138" lon="1.31845">
        <ele>184.6</ele>
        <time>2024-06-13T14:31:42Z</time>
      </trkpt>
      <trkpt lat="43.64132" lon="1.31842">
        <ele>184.6</ele>
        <time>2024-06-13T14:31:43Z</time>
      </trkpt>
      <trkpt lat="43.64125" lon="1.31839">
        <ele>184.4</ele>
        <time>2024-06-13T14:31:44Z</time>
      </trkpt>
      <trkpt lat="43.64119" lon="1.31836">
        <ele>184.4</ele>
        <time>2024-06-13T14:31:45Z</time>
      </trkpt>
      <trkpt lat="43.64112" lon="1.31832">
        <ele>184.2</ele>
        <time>2024-06-13T14:31:46Z</time>
      </trkpt>
      <trkpt lat="43.64106" lon="1.31829">
        <ele>184</ele>
        <time>2024-06-13T14:31:47Z</time>
      </trkpt>
      <trkpt lat="43.64099" lon="1.31825">
        <ele>184</ele>
        <time>2024-06-13T14:31:48Z</time>
      </trkpt>
      <trkpt lat="43.64093" lon="1.31821">
        <ele>184</ele>
        <time>2024-06-13T14:31:49Z</time>
      </trkpt>
      <trkpt lat="43.64087" lon="1.31818">
        <ele>184</ele>
        <time>2024-06-13T14:31:50Z</time>
      </trkpt>
      <trkpt lat="43.64082" lon="1.31814">
        <ele>183.8</ele>
        <time>2024-06-13T14:31:51Z</time>
      </trkpt>
      <trkpt lat="43.64076" lon="1.31811">
        <ele>183.8</ele>
        <time>2024-06-13T14:31:52Z</time>
      </trkpt>
      <trkpt lat="43.64071" lon="1.31807">
        <ele>183.8</ele>
        <time>2024-06-13T14:31:53Z</time>
      </trkpt>
      <trkpt lat="43.64065" lon="1.31804">
        <ele>183.8</ele>
        <time>2024-06-13T14:31:54Z</time>
      </trkpt>
      <trkpt lat="43.64059" lon="1.318">
        <ele>183.8</ele>
        <time>2024-06-13T14:31:55Z</time>
      </trkpt>
      <trkpt lat="43.64053" lon="1.31797">
        <ele>183.8</ele>
        <time>2024-06-13T14:31:56Z</time>
      </trkpt>
      <trkpt lat="43.64046" lon="1.31794">
        <ele>184</ele>
        <time>2024-06-13T14:31:57Z</time>
      </trkpt>
      <trkpt lat="43.64039" lon="1.3179">
        <ele>184</ele>
        <time>2024-06-13T14:31:58Z</time>
      </trkpt>
      <trkpt lat="43.64033" lon="1.31787">
        <ele>184</ele>
        <time>2024-06-13T14:31:59Z</time>
      </trkpt>
      <trkpt lat="43.64026" lon="1.31783">
        <ele>184</ele>
        <time>2024-06-13T14:32:00Z</time>
      </trkpt>
      <trkpt lat="43.6402" lon="1.3178">
        <ele>184</ele>
        <time>2024-06-13T14:32:01Z</time>
      </trkpt>
      <trkpt lat="43.64013" lon="1.31777">
        <ele>184</ele>
        <time>2024-06-13T14:32:02Z</time>
      </trkpt>
      <trkpt lat="43.64007" lon="1.31774">
        <ele>184</ele>
        <time>2024-06-13T14:32:03Z</time>
      </trkpt>
      <trkpt lat="43.64001" lon="1.31771">
        <ele>184</ele>
        <time>2024-06-13T14:32:04Z</time>
      </trkpt>
      <trkpt lat="43.63995" lon="1.31768">
        <ele>184</ele>
        <time>2024-06-13T14:32:05Z</time>
      </trkpt>
      <trkpt lat="43.63988" lon="1.31764">
        <ele>184</ele>
        <time>2024-06-13T14:32:06Z</time>
      </trkpt>
      <trkpt lat="43.63981" lon="1.31761">
        <ele>184</ele>
        <time>2024-06-13T14:32:07Z</time>
      </trkpt>
      <trkpt lat="43.63974" lon="1.31757">
        <ele>184</ele>
        <time>2024-06-13T14:32:08Z</time>
      </trkpt>
      <trkpt lat="43.63968" lon="1.31753">
        <ele>184</ele>
        <time>2024-06-13T14:32:09Z</time>
      </trkpt>
      <trkpt lat="43.63961" lon="1.31749">
        <ele>184</ele>
        <time>2024-06-13T14:32:10Z</time>
      </trkpt>
      <trkpt lat="43.63955" lon="1.31744">
        <ele>184</ele>
        <time>2024-06-13T14:32:11Z</time>
      </trkpt>
      <trkpt lat="43.63949" lon="1.31739">
        <ele>184</ele>
        <time>2024-06-13T14:32:12Z</time>
      </trkpt>
      <trkpt lat="43.63943" lon="1.31735">
        <ele>184</ele>
        <time>2024-06-13T14:32:13Z</time>
      </trkpt>
      <trkpt lat="43.63937" lon="1.3173">
        <ele>184.2</ele>
        <time>2024-06-13T14:32:14Z</time>
      </trkpt>
      <trkpt lat="43.63931" lon="1.31725">
        <ele>184.2</ele>
        <time>2024-06-13T14:32:15Z</time>
      </trkpt>
      <trkpt lat="43.63925" lon="1.3172">
        <ele>184.2</ele>
        <time>2024-06-13T14:32:16Z</time>
      </trkpt>
      <trkpt lat="43.63919" lon="1.31714">
        <ele>184.2</ele>
        <time>2024-06-13T14:32:17Z</time>
      </trkpt>
      <trkpt lat="43.63913" lon="1.31709">
        <ele>184.4</ele>
        <time>2024-06-13T14:32:18Z</time>
      </trkpt>
      <trkpt lat="43.63907" lon="1.31704">
        <ele>184.4</ele>
        <time>2024-06-13T14:32:19Z</time>
      </trkpt>
      <trkpt lat="43.63901" lon="1.31699">
        <ele>184.4</ele>
        <time>2024-06-13T14:32:20Z</time>
      </trkpt>
      <trkpt lat="43.63895" lon="1.31694">
        <ele>184.4</ele>
        <time>2024-06-13T14:32:21Z</time>
      </trkpt>
      <trkpt lat="43.63889" lon="1.31688">
        <ele>184.4</ele>
        <time>2024-06-13T14:32:22Z</time>
      </trkpt>
      <trkpt lat="43.63883" lon="1.31682">
        <ele>184.4</ele>
        <time>2024-06-13T14:32:23Z</time>
      </trkpt>
      <trkpt lat="43.63877" lon="1.31676">
        <ele>184.4</ele>
        <time>2024-06-13T14:32:24Z</time>
      </trkpt>
      <trkpt lat="43.63871" lon="1.3167">
        <ele>184.4</ele>
        <time>2024-06-13T14:32:25Z</time>
      </trkpt>
      <trkpt lat="43.63864" lon="1.31663">
        <ele>184.4</ele>
        <time>2024-06-13T14:32:26Z</time>
      </trkpt>
      <trkpt lat="43.63858" lon="1.31657">
        <ele>184.4</ele>
        <time>2024-06-13T14:32:27Z</time>
      </trkpt>
      <trkpt lat="43.63852" lon="1.3165">
        <ele>184.4</ele>
        <time>2024-06-13T14:32:28Z</time>
      </trkpt>
      <trkpt lat="43.63845" lon="1.31642">
        <ele>184.4</ele>
        <time>2024-06-13T14:32:29Z</time>
      </trkpt>
      <trkpt lat="43.63839" lon="1.31636">
        <ele>184.4</ele>
        <time>2024-06-13T14:32:30Z</time>
      </trkpt>
      <trkpt lat="43.63834" lon="1.31629">
        <ele>184.4</ele>
        <time>2024-06-13T14:32:31Z</time>
      </trkpt>
      <trkpt lat="43.63829" lon="1.31623">
        <ele>184.4</ele>
        <time>2024-06-13T14:32:32Z</time>
      </trkpt>
      <trkpt lat="43.63824" lon="1.31615">
        <ele>184.4</ele>
        <time>2024-06-13T14:32:33Z</time>
      </trkpt>
      <trkpt lat="43.6382" lon="1.31607">
        <ele>184.4</ele>
        <time>2024-06-13T14:32:34Z</time>
      </trkpt>
      <trkpt lat="43.63815" lon="1.31598">
        <ele>184.4</ele>
        <time>2024-06-13T14:32:35Z</time>
      </trkpt>
      <trkpt lat="43.63811" lon="1.3159">
        <ele>184.4</ele>
        <time>2024-06-13T14:32:36Z</time>
      </trkpt>
      <trkpt lat="43.63807" lon="1.31581">
        <ele>184.4</ele>
        <time>2024-06-13T14:32:37Z</time>
      </trkpt>
      <trkpt lat="43.63803" lon="1.31574">
        <ele>184.4</ele>
        <time>2024-06-13T14:32:38Z</time>
      </trkpt>
      <trkpt lat="43.638" lon="1.31568">
        <ele>184.4</ele>
        <time>2024-06-13T14:32:39Z</time>
      </trkpt>
      <trkpt lat="43.63797" lon="1.31561">
        <ele>184.4</ele>
        <time>2024-06-13T14:32:40Z</time>
      </trkpt>
      <trkpt lat="43.63794" lon="1.31553">
        <ele>184.6</ele>
        <time>2024-06-13T14:32:41Z</time>
      </trkpt>
      <trkpt lat="43.63791" lon="1.31547">
        <ele>184.6</ele>
        <time>2024-06-13T14:32:42Z</time>
      </trkpt>
      <trkpt lat="43.63787" lon="1.3154">
        <ele>184.8</ele>
        <time>2024-06-13T14:32:43Z</time>
      </trkpt>
      <trkpt lat="43.63783" lon="1.31532">
        <ele>185</ele>
        <time>2024-06-13T14:32:44Z</time>
      </trkpt>
      <trkpt lat="43.6378" lon="1.31526">
        <ele>185.2</ele>
        <time>2024-06-13T14:32:45Z</time>
      </trkpt>
      <trkpt lat="43.63776" lon="1.31518">
        <ele>185.4</ele>
        <time>2024-06-13T14:32:46Z</time>
      </trkpt>
      <trkpt lat="43.63772" lon="1.31511">
        <ele>185.4</ele>
        <time>2024-06-13T14:32:47Z</time>
      </trkpt>
      <trkpt lat="43.63768" lon="1.31504">
        <ele>185.6</ele>
        <time>2024-06-13T14:32:48Z</time>
      </trkpt>
      <trkpt lat="43.63764" lon="1.31497">
        <ele>185.6</ele>
        <time>2024-06-13T14:32:49Z</time>
      </trkpt>
      <trkpt lat="43.63761" lon="1.3149">
        <ele>185.8</ele>
        <time>2024-06-13T14:32:50Z</time>
      </trkpt>
      <trkpt lat="43.63758" lon="1.31484">
        <ele>185.8</ele>
        <time>2024-06-13T14:32:51Z</time>
      </trkpt>
      <trkpt lat="43.63755" lon="1.31479">
        <ele>186</ele>
        <time>2024-06-13T14:32:52Z</time>
      </trkpt>
      <trkpt lat="43.63753" lon="1.31475">
        <ele>186.2</ele>
        <time>2024-06-13T14:32:53Z</time>
      </trkpt>
      <trkpt lat="43.63751" lon="1.31471">
        <ele>186.2</ele>
        <time>2024-06-13T14:32:54Z</time>
      </trkpt>
      <trkpt lat="43.63749" lon="1.31468">
        <ele>186.4</ele>
        <time>2024-06-13T14:32:55Z</time>
      </trkpt>
      <trkpt lat="43.63748" lon="1.31465">
        <ele>186.4</ele>
        <time>2024-06-13T14:32:56Z</time>
      </trkpt>
      <trkpt lat="43.63746" lon="1.31463">
        <ele>186.4</ele>
        <time>2024-06-13T14:32:57Z</time>
      </trkpt>
      <trkpt lat="43.63745" lon="1.3146">
        <ele>186.4</ele>
        <time>2024-06-13T14:32:58Z</time>
      </trkpt>
      <trkpt lat="43.63744" lon="1.31458">
        <ele>186.6</ele>
        <time>2024-06-13T14:32:59Z</time>
      </trkpt>
      <trkpt lat="43.63743" lon="1.31455">
        <ele>186.6</ele>
        <time>2024-06-13T14:33:00Z</time>
      </trkpt>
      <trkpt lat="43.63742" lon="1.31452">
        <ele>186.6</ele>
        <time>2024-06-13T14:33:01Z</time>
      </trkpt>
      <trkpt lat="43.6374" lon="1.31448">
        <ele>186.6</ele>
        <time>2024-06-13T14:33:02Z</time>
      </trkpt>
      <trkpt lat="43.63738" lon="1.31444">
        <ele>186.6</ele>
        <time>2024-06-13T14:33:03Z</time>
      </trkpt>
      <trkpt lat="43.63736" lon="1.3144">
        <ele>186.6</ele>
        <time>2024-06-13T14:33:04Z</time>
      </trkpt>
      <trkpt lat="43.63734" lon="1.31436">
        <ele>186.6</ele>
        <time>2024-06-13T14:33:05Z</time>
      </trkpt>
      <trkpt lat="43.63732" lon="1.31431">
        <ele>186.6</ele>
        <time>2024-06-13T14:33:06Z</time>
      </trkpt>
      <trkpt lat="43.63731" lon="1.31427">
        <ele>186.6</ele>
        <time>2024-06-13T14:33:07Z</time>
      </trkpt>
      <trkpt lat="43.63729" lon="1.31422">
        <ele>186.6</ele>
        <time>2024-06-13T14:33:08Z</time>
      </trkpt>
      <trkpt lat="43.63727" lon="1.31417">
        <ele>186.8</ele>
        <time>2024-06-13T14:33:09Z</time>
      </trkpt>
      <trkpt lat="43.63724" lon="1.31411">
        <ele>186.8</ele>
        <time>2024-06-13T14:33:10Z</time>
      </trkpt>
      <trkpt lat="43.63722" lon="1.31405">
        <ele>186.8</ele>
        <time>2024-06-13T14:33:11Z</time>
      </trkpt>
      <trkpt lat="43.6372" lon="1.31399">
        <ele>186.8</ele>
        <time>2024-06-13T14:33:12Z</time>
      </trkpt>
      <trkpt lat="43.63718" lon="1.31391">
        <ele>186.8</ele>
        <time>2024-06-13T14:33:13Z</time>
      </trkpt>
      <trkpt lat="43.63716" lon="1.31384">
        <ele>186.8</ele>
        <time>2024-06-13T14:33:14Z</time>
      </trkpt>
      <trkpt lat="43.63713" lon="1.31377">
        <ele>186.8</ele>
        <time>2024-06-13T14:33:15Z</time>
      </trkpt>
      <trkpt lat="43.63711" lon="1.31371">
        <ele>186.8</ele>
        <time>2024-06-13T14:33:16Z</time>
      </trkpt>
      <trkpt lat="43.63709" lon="1.31364">
        <ele>186.8</ele>
        <time>2024-06-13T14:33:17Z</time>
      </trkpt>
      <trkpt lat="43.63707" lon="1.31355">
        <ele>186.8</ele>
        <time>2024-06-13T14:33:18Z</time>
      </trkpt>
      <trkpt lat="43.63706" lon="1.31349">
        <ele>186.8</ele>
        <time>2024-06-13T14:33:19Z</time>
      </trkpt>
      <trkpt lat="43.63703" lon="1.31341">
        <ele>186.8</ele>
        <time>2024-06-13T14:33:20Z</time>
      </trkpt>
      <trkpt lat="43.63701" lon="1.31333">
        <ele>186.8</ele>
        <time>2024-06-13T14:33:21Z</time>
      </trkpt>
      <trkpt lat="43.63699" lon="1.31325">
        <ele>186.8</ele>
        <time>2024-06-13T14:33:22Z</time>
      </trkpt>
      <trkpt lat="43.63697" lon="1.31317">
        <ele>186.8</ele>
        <time>2024-06-13T14:33:23Z</time>
      </trkpt>
      <trkpt lat="43.63695" lon="1.31308">
        <ele>187</ele>
        <time>2024-06-13T14:33:24Z</time>
      </trkpt>
      <trkpt lat="43.63693" lon="1.313">
        <ele>187</ele>
        <time>2024-06-13T14:33:25Z</time>
      </trkpt>
      <trkpt lat="43.63691" lon="1.31292">
        <ele>187</ele>
        <time>2024-06-13T14:33:26Z</time>
      </trkpt>
      <trkpt lat="43.63688" lon="1.31284">
        <ele>187</ele>
        <time>2024-06-13T14:33:27Z</time>
      </trkpt>
      <trkpt lat="43.63686" lon="1.31275">
        <ele>187</ele>
        <time>2024-06-13T14:33:28Z</time>
      </trkpt>
      <trkpt lat="43.63684" lon="1.31266">
        <ele>187.2</ele>
        <time>2024-06-13T14:33:29Z</time>
      </trkpt>
      <trkpt lat="43.63682" lon="1.31258">
        <ele>187.2</ele>
        <time>2024-06-13T14:33:30Z</time>
      </trkpt>
      <trkpt lat="43.6368" lon="1.31251">
        <ele>187.2</ele>
        <time>2024-06-13T14:33:31Z</time>
      </trkpt>
      <trkpt lat="43.63677" lon="1.31244">
        <ele>187.2</ele>
        <time>2024-06-13T14:33:32Z</time>
      </trkpt>
      <trkpt lat="43.63674" lon="1.31237">
        <ele>187.2</ele>
        <time>2024-06-13T14:33:33Z</time>
      </trkpt>
      <trkpt lat="43.6367" lon="1.31231">
        <ele>187.2</ele>
        <time>2024-06-13T14:33:34Z</time>
      </trkpt>
      <trkpt lat="43.63665" lon="1.31224">
        <ele>187.2</ele>
        <time>2024-06-13T14:33:35Z</time>
      </trkpt>
      <trkpt lat="43.6366" lon="1.31219">
        <ele>187.2</ele>
        <time>2024-06-13T14:33:36Z</time>
      </trkpt>
      <trkpt lat="43.63656" lon="1.31213">
        <ele>187.4</ele>
        <time>2024-06-13T14:33:37Z</time>
      </trkpt>
      <trkpt lat="43.63652" lon="1.31206">
        <ele>187.4</ele>
        <time>2024-06-13T14:33:38Z</time>
      </trkpt>
      <trkpt lat="43.63649" lon="1.31199">
        <ele>187.4</ele>
        <time>2024-06-13T14:33:39Z</time>
      </trkpt>
      <trkpt lat="43.63646" lon="1.31192">
        <ele>187.6</ele>
        <time>2024-06-13T14:33:40Z</time>
      </trkpt>
      <trkpt lat="43.63642" lon="1.31186">
        <ele>187.6</ele>
        <time>2024-06-13T14:33:41Z</time>
      </trkpt>
      <trkpt lat="43.63639" lon="1.31179">
        <ele>187.6</ele>
        <time>2024-06-13T14:33:42Z</time>
      </trkpt>
      <trkpt lat="43.63635" lon="1.31172">
        <ele>187.6</ele>
        <time>2024-06-13T14:33:43Z</time>
      </trkpt>
      <trkpt lat="43.63632" lon="1.31165">
        <ele>187.8</ele>
        <time>2024-06-13T14:33:44Z</time>
      </trkpt>
      <trkpt lat="43.63629" lon="1.31156">
        <ele>187.8</ele>
        <time>2024-06-13T14:33:45Z</time>
      </trkpt>
      <trkpt lat="43.63626" lon="1.31148">
        <ele>187.8</ele>
        <time>2024-06-13T14:33:46Z</time>
      </trkpt>
      <trkpt lat="43.63622" lon="1.3114">
        <ele>187.8</ele>
        <time>2024-06-13T14:33:47Z</time>
      </trkpt>
      <trkpt lat="43.6362" lon="1.31135">
        <ele>187.8</ele>
        <time>2024-06-13T14:33:48Z</time>
      </trkpt>
      <trkpt lat="43.63617" lon="1.31128">
        <ele>187.8</ele>
        <time>2024-06-13T14:33:49Z</time>
      </trkpt>
      <trkpt lat="43.63613" lon="1.3112">
        <ele>187.8</ele>
        <time>2024-06-13T14:33:50Z</time>
      </trkpt>
      <trkpt lat="43.63609" lon="1.31114">
        <ele>187.8</ele>
        <time>2024-06-13T14:33:51Z</time>
      </trkpt>
      <trkpt lat="43.63606" lon="1.31109">
        <ele>187.6</ele>
        <time>2024-06-13T14:33:52Z</time>
      </trkpt>
      <trkpt lat="43.63601" lon="1.31103">
        <ele>187.6</ele>
        <time>2024-06-13T14:33:53Z</time>
      </trkpt>
      <trkpt lat="43.63597" lon="1.31096">
        <ele>187.6</ele>
        <time>2024-06-13T14:33:54Z</time>
      </trkpt>
      <trkpt lat="43.63593" lon="1.31089">
        <ele>187.4</ele>
        <time>2024-06-13T14:33:55Z</time>
      </trkpt>
      <trkpt lat="43.63588" lon="1.31082">
        <ele>187.4</ele>
        <time>2024-06-13T14:33:56Z</time>
      </trkpt>
      <trkpt lat="43.63583" lon="1.31075">
        <ele>187.4</ele>
        <time>2024-06-13T14:33:57Z</time>
      </trkpt>
      <trkpt lat="43.63579" lon="1.31068">
        <ele>187.4</ele>
        <time>2024-06-13T14:33:58Z</time>
      </trkpt>
      <trkpt lat="43.63575" lon="1.31061">
        <ele>187.2</ele>
        <time>2024-06-13T14:33:59Z</time>
      </trkpt>
      <trkpt lat="43.6357" lon="1.31053">
        <ele>187.2</ele>
        <time>2024-06-13T14:34:00Z</time>
      </trkpt>
      <trkpt lat="43.63566" lon="1.31047">
        <ele>187.2</ele>
        <time>2024-06-13T14:34:01Z</time>
      </trkpt>
      <trkpt lat="43.63562" lon="1.3104">
        <ele>187.2</ele>
        <time>2024-06-13T14:34:02Z</time>
      </trkpt>
      <trkpt lat="43.63559" lon="1.31035">
        <ele>187.2</ele>
        <time>2024-06-13T14:34:03Z</time>
      </trkpt>
      <trkpt lat="43.63554" lon="1.31028">
        <ele>187.2</ele>
        <time>2024-06-13T14:34:04Z</time>
      </trkpt>
      <trkpt lat="43.63549" lon="1.31019">
        <ele>187.2</ele>
        <time>2024-06-13T14:34:05Z</time>
      </trkpt>
      <trkpt lat="43.63545" lon="1.31012">
        <ele>187</ele>
        <time>2024-06-13T14:34:06Z</time>
      </trkpt>
      <trkpt lat="43.63542" lon="1.31007">
        <ele>187</ele>
        <time>2024-06-13T14:34:07Z</time>
      </trkpt>
      <trkpt lat="43.63538" lon="1.31">
        <ele>187</ele>
        <time>2024-06-13T14:34:08Z</time>
      </trkpt>
      <trkpt lat="43.63533" lon="1.30993">
        <ele>187</ele>
        <time>2024-06-13T14:34:09Z</time>
      </trkpt>
      <trkpt lat="43.63528" lon="1.30987">
        <ele>187</ele>
        <time>2024-06-13T14:34:10Z</time>
      </trkpt>
      <trkpt lat="43.63521" lon="1.3098">
        <ele>187</ele>
        <time>2024-06-13T14:34:11Z</time>
      </trkpt>
      <trkpt lat="43.63514" lon="1.30975">
        <ele>187</ele>
        <time>2024-06-13T14:34:12Z</time>
      </trkpt>
      <trkpt lat="43.63508" lon="1.30971">
        <ele>187.2</ele>
        <time>2024-06-13T14:34:13Z</time>
      </trkpt>
      <trkpt lat="43.63501" lon="1.30967">
        <ele>187.2</ele>
        <time>2024-06-13T14:34:14Z</time>
      </trkpt>
      <trkpt lat="43.63494" lon="1.30963">
        <ele>187.2</ele>
        <time>2024-06-13T14:34:15Z</time>
      </trkpt>
      <trkpt lat="43.63487" lon="1.30959">
        <ele>187.2</ele>
        <time>2024-06-13T14:34:16Z</time>
      </trkpt>
      <trkpt lat="43.63481" lon="1.30955">
        <ele>187.2</ele>
        <time>2024-06-13T14:34:17Z</time>
      </trkpt>
      <trkpt lat="43.63475" lon="1.30952">
        <ele>187.2</ele>
        <time>2024-06-13T14:34:18Z</time>
      </trkpt>
      <trkpt lat="43.6347" lon="1.30949">
        <ele>187.2</ele>
        <time>2024-06-13T14:34:19Z</time>
      </trkpt>
      <trkpt lat="43.63463" lon="1.30945">
        <ele>187.4</ele>
        <time>2024-06-13T14:34:20Z</time>
      </trkpt>
      <trkpt lat="43.63457" lon="1.30941">
        <ele>187.4</ele>
        <time>2024-06-13T14:34:21Z</time>
      </trkpt>
      <trkpt lat="43.63449" lon="1.30937">
        <ele>187.4</ele>
        <time>2024-06-13T14:34:22Z</time>
      </trkpt>
      <trkpt lat="43.63443" lon="1.30933">
        <ele>187.4</ele>
        <time>2024-06-13T14:34:23Z</time>
      </trkpt>
      <trkpt lat="43.63438" lon="1.30931">
        <ele>187.4</ele>
        <time>2024-06-13T14:34:24Z</time>
      </trkpt>
      <trkpt lat="43.63432" lon="1.30926">
        <ele>187.4</ele>
        <time>2024-06-13T14:34:25Z</time>
      </trkpt>
      <trkpt lat="43.63426" lon="1.30922">
        <ele>187.4</ele>
        <time>2024-06-13T14:34:26Z</time>
      </trkpt>
      <trkpt lat="43.63419" lon="1.30916">
        <ele>187.4</ele>
        <time>2024-06-13T14:34:27Z</time>
      </trkpt>
      <trkpt lat="43.63414" lon="1.3091">
        <ele>187.4</ele>
        <time>2024-06-13T14:34:28Z</time>
      </trkpt>
      <trkpt lat="43.6341" lon="1.30905">
        <ele>187.4</ele>
        <time>2024-06-13T14:34:29Z</time>
      </trkpt>
      <trkpt lat="43.63406" lon="1.30899">
        <ele>187.4</ele>
        <time>2024-06-13T14:34:30Z</time>
      </trkpt>
      <trkpt lat="43.63401" lon="1.30893">
        <ele>187.4</ele>
        <time>2024-06-13T14:34:31Z</time>
      </trkpt>
      <trkpt lat="43.63395" lon="1.30885">
        <ele>187.4</ele>
        <time>2024-06-13T14:34:32Z</time>
      </trkpt>
      <trkpt lat="43.63392" lon="1.3088">
        <ele>187.4</ele>
        <time>2024-06-13T14:34:33Z</time>
      </trkpt>
      <trkpt lat="43.63387" lon="1.30874">
        <ele>187.4</ele>
        <time>2024-06-13T14:34:34Z</time>
      </trkpt>
      <trkpt lat="43.63383" lon="1.30867">
        <ele>187.4</ele>
        <time>2024-06-13T14:34:35Z</time>
      </trkpt>
      <trkpt lat="43.63378" lon="1.30861">
        <ele>187.4</ele>
        <time>2024-06-13T14:34:36Z</time>
      </trkpt>
      <trkpt lat="43.63373" lon="1.30854">
        <ele>187.4</ele>
        <time>2024-06-13T14:34:37Z</time>
      </trkpt>
      <trkpt lat="43.63368" lon="1.30846">
        <ele>187.6</ele>
        <time>2024-06-13T14:34:38Z</time>
      </trkpt>
      <trkpt lat="43.63363" lon="1.30839">
        <ele>187.6</ele>
        <time>2024-06-13T14:34:39Z</time>
      </trkpt>
      <trkpt lat="43.6336" lon="1.30834">
        <ele>187.6</ele>
        <time>2024-06-13T14:34:40Z</time>
      </trkpt>
      <trkpt lat="43.63355" lon="1.30827">
        <ele>187.8</ele>
        <time>2024-06-13T14:34:41Z</time>
      </trkpt>
      <trkpt lat="43.63349" lon="1.30819">
        <ele>187.8</ele>
        <time>2024-06-13T14:34:42Z</time>
      </trkpt>
      <trkpt lat="43.63344" lon="1.30812">
        <ele>187.8</ele>
        <time>2024-06-13T14:34:43Z</time>
      </trkpt>
      <trkpt lat="43.63339" lon="1.30805">
        <ele>187.8</ele>
        <time>2024-06-13T14:34:44Z</time>
      </trkpt>
      <trkpt lat="43.63335" lon="1.308">
        <ele>187.8</ele>
        <time>2024-06-13T14:34:45Z</time>
      </trkpt>
      <trkpt lat="43.63331" lon="1.30793">
        <ele>187.8</ele>
        <time>2024-06-13T14:34:46Z</time>
      </trkpt>
      <trkpt lat="43.63326" lon="1.30786">
        <ele>187.8</ele>
        <time>2024-06-13T14:34:47Z</time>
      </trkpt>
      <trkpt lat="43.63321" lon="1.30778">
        <ele>187.8</ele>
        <time>2024-06-13T14:34:48Z</time>
      </trkpt>
      <trkpt lat="43.63316" lon="1.30771">
        <ele>187.8</ele>
        <time>2024-06-13T14:34:49Z</time>
      </trkpt>
      <trkpt lat="43.63313" lon="1.30766">
        <ele>187.8</ele>
        <time>2024-06-13T14:34:50Z</time>
      </trkpt>
      <trkpt lat="43.63309" lon="1.3076">
        <ele>187.8</ele>
        <time>2024-06-13T14:34:51Z</time>
      </trkpt>
      <trkpt lat="43.63305" lon="1.30755">
        <ele>187.8</ele>
        <time>2024-06-13T14:34:52Z</time>
      </trkpt>
      <trkpt lat="43.633" lon="1.30749">
        <ele>187.8</ele>
        <time>2024-06-13T14:34:53Z</time>
      </trkpt>
      <trkpt lat="43.63296" lon="1.30744">
        <ele>187.8</ele>
        <time>2024-06-13T14:34:54Z</time>
      </trkpt>
      <trkpt lat="43.63292" lon="1.30737">
        <ele>187.8</ele>
        <time>2024-06-13T14:34:55Z</time>
      </trkpt>
      <trkpt lat="43.6329" lon="1.30732">
        <ele>188</ele>
        <time>2024-06-13T14:34:56Z</time>
      </trkpt>
      <trkpt lat="43.63289" lon="1.30725">
        <ele>188</ele>
        <time>2024-06-13T14:34:57Z</time>
      </trkpt>
      <trkpt lat="43.63288" lon="1.30717">
        <ele>188</ele>
        <time>2024-06-13T14:34:58Z</time>
      </trkpt>
      <trkpt lat="43.63287" lon="1.3071">
        <ele>188</ele>
        <time>2024-06-13T14:34:59Z</time>
      </trkpt>
      <trkpt lat="43.63286" lon="1.30704">
        <ele>188.2</ele>
        <time>2024-06-13T14:35:00Z</time>
      </trkpt>
      <trkpt lat="43.63286" lon="1.30698">
        <ele>188.2</ele>
        <time>2024-06-13T14:35:01Z</time>
      </trkpt>
      <trkpt lat="43.63285" lon="1.30691">
        <ele>188.2</ele>
        <time>2024-06-13T14:35:02Z</time>
      </trkpt>
      <trkpt lat="43.63283" lon="1.30682">
        <ele>188.2</ele>
        <time>2024-06-13T14:35:03Z</time>
      </trkpt>
      <trkpt lat="43.63281" lon="1.30675">
        <ele>188.4</ele>
        <time>2024-06-13T14:35:04Z</time>
      </trkpt>
      <trkpt lat="43.63279" lon="1.30668">
        <ele>188.4</ele>
        <time>2024-06-13T14:35:05Z</time>
      </trkpt>
      <trkpt lat="43.63278" lon="1.30662">
        <ele>188.6</ele>
        <time>2024-06-13T14:35:06Z</time>
      </trkpt>
      <trkpt lat="43.63278" lon="1.30654">
        <ele>188.8</ele>
        <time>2024-06-13T14:35:07Z</time>
      </trkpt>
      <trkpt lat="43.63277" lon="1.30646">
        <ele>188.8</ele>
        <time>2024-06-13T14:35:08Z</time>
      </trkpt>
      <trkpt lat="43.63276" lon="1.30637">
        <ele>188.8</ele>
        <time>2024-06-13T14:35:09Z</time>
      </trkpt>
      <trkpt lat="43.63276" lon="1.3063">
        <ele>188.8</ele>
        <time>2024-06-13T14:35:10Z</time>
      </trkpt>
      <trkpt lat="43.63276" lon="1.30624">
        <ele>189</ele>
        <time>2024-06-13T14:35:11Z</time>
      </trkpt>
      <trkpt lat="43.63278" lon="1.30617">
        <ele>189</ele>
        <time>2024-06-13T14:35:12Z</time>
      </trkpt>
      <trkpt lat="43.6328" lon="1.3061">
        <ele>189.2</ele>
        <time>2024-06-13T14:35:13Z</time>
      </trkpt>
      <trkpt lat="43.63283" lon="1.30603">
        <ele>189.2</ele>
        <time>2024-06-13T14:35:14Z</time>
      </trkpt>
      <trkpt lat="43.63284" lon="1.30596">
        <ele>189.4</ele>
        <time>2024-06-13T14:35:15Z</time>
      </trkpt>
      <trkpt lat="43.63285" lon="1.30589">
        <ele>189.4</ele>
        <time>2024-06-13T14:35:16Z</time>
      </trkpt>
      <trkpt lat="43.63287" lon="1.30585">
        <ele>189.4</ele>
        <time>2024-06-13T14:35:17Z</time>
      </trkpt>
      <trkpt lat="43.63289" lon="1.30579">
        <ele>189.6</ele>
        <time>2024-06-13T14:35:18Z</time>
      </trkpt>
      <trkpt lat="43.63292" lon="1.30572">
        <ele>189.6</ele>
        <time>2024-06-13T14:35:19Z</time>
      </trkpt>
      <trkpt lat="43.63295" lon="1.30565">
        <ele>189.6</ele>
        <time>2024-06-13T14:35:20Z</time>
      </trkpt>
      <trkpt lat="43.63297" lon="1.30558">
        <ele>189.6</ele>
        <time>2024-06-13T14:35:21Z</time>
      </trkpt>
      <trkpt lat="43.63299" lon="1.30553">
        <ele>189.6</ele>
        <time>2024-06-13T14:35:22Z</time>
      </trkpt>
      <trkpt lat="43.63302" lon="1.30547">
        <ele>189.6</ele>
        <time>2024-06-13T14:35:23Z</time>
      </trkpt>
      <trkpt lat="43.63304" lon="1.30542">
        <ele>189.6</ele>
        <time>2024-06-13T14:35:24Z</time>
      </trkpt>
      <trkpt lat="43.63308" lon="1.30536">
        <ele>189.8</ele>
        <time>2024-06-13T14:35:25Z</time>
      </trkpt>
      <trkpt lat="43.6331" lon="1.30529">
        <ele>190.2</ele>
        <time>2024-06-13T14:35:26Z</time>
      </trkpt>
      <trkpt lat="43.63312" lon="1.3052">
        <ele>190.2</ele>
        <time>2024-06-13T14:35:27Z</time>
      </trkpt>
      <trkpt lat="43.63313" lon="1.3051">
        <ele>190.6</ele>
        <time>2024-06-13T14:35:28Z</time>
      </trkpt>
      <trkpt lat="43.63317" lon="1.30502">
        <ele>190.6</ele>
        <time>2024-06-13T14:35:29Z</time>
      </trkpt>
      <trkpt lat="43.63321" lon="1.30486">
        <ele>190.8</ele>
        <time>2024-06-13T14:35:30Z</time>
      </trkpt>
      <trkpt lat="43.63324" lon="1.30474">
        <ele>190.8</ele>
        <time>2024-06-13T14:35:31Z</time>
      </trkpt>
      <trkpt lat="43.63325" lon="1.30467">
        <ele>190.8</ele>
        <time>2024-06-13T14:35:32Z</time>
      </trkpt>
      <trkpt lat="43.63326" lon="1.30455">
        <ele>190.8</ele>
        <time>2024-06-13T14:35:33Z</time>
      </trkpt>
      <trkpt lat="43.63326" lon="1.30442">
        <ele>190.8</ele>
        <time>2024-06-13T14:35:34Z</time>
      </trkpt>
      <trkpt lat="43.63326" lon="1.30424">
        <ele>190.8</ele>
        <time>2024-06-13T14:35:35Z</time>
      </trkpt>
      <trkpt lat="43.63327" lon="1.30415">
        <ele>190.8</ele>
        <time>2024-06-13T14:35:36Z</time>
      </trkpt>
      <trkpt lat="43.63327" lon="1.30402">
        <ele>190.8</ele>
        <time>2024-06-13T14:35:37Z</time>
      </trkpt>
      <trkpt lat="43.63327" lon="1.30394">
        <ele>190.6</ele>
        <time>2024-06-13T14:35:38Z</time>
      </trkpt>
      <trkpt lat="43.63327" lon="1.30387">
        <ele>190.6</ele>
        <time>2024-06-13T14:35:39Z</time>
      </trkpt>
      <trkpt lat="43.63326" lon="1.30377">
        <ele>190.4</ele>
        <time>2024-06-13T14:35:40Z</time>
      </trkpt>
      <trkpt lat="43.63326" lon="1.30367">
        <ele>190.4</ele>
        <time>2024-06-13T14:35:41Z</time>
      </trkpt>
      <trkpt lat="43.63325" lon="1.30357">
        <ele>190.4</ele>
        <time>2024-06-13T14:35:42Z</time>
      </trkpt>
      <trkpt lat="43.63324" lon="1.30349">
        <ele>190.4</ele>
        <time>2024-06-13T14:35:43Z</time>
      </trkpt>
      <trkpt lat="43.63323" lon="1.30341">
        <ele>190.6</ele>
        <time>2024-06-13T14:35:44Z</time>
      </trkpt>
      <trkpt lat="43.63321" lon="1.30332">
        <ele>190.6</ele>
        <time>2024-06-13T14:35:45Z</time>
      </trkpt>
      <trkpt lat="43.63319" lon="1.30324">
        <ele>190.6</ele>
        <time>2024-06-13T14:35:46Z</time>
      </trkpt>
      <trkpt lat="43.63316" lon="1.30315">
        <ele>190.8</ele>
        <time>2024-06-13T14:35:47Z</time>
      </trkpt>
      <trkpt lat="43.63313" lon="1.30306">
        <ele>190.8</ele>
        <time>2024-06-13T14:35:48Z</time>
      </trkpt>
      <trkpt lat="43.6331" lon="1.30299">
        <ele>191.2</ele>
        <time>2024-06-13T14:35:49Z</time>
      </trkpt>
      <trkpt lat="43.6331" lon="1.30299">
        <ele>191.2</ele>
        <time>2024-06-13T14:35:50Z</time>
      </trkpt>
      <trkpt lat="43.63303" lon="1.30283">
        <ele>191.4</ele>
        <time>2024-06-13T14:35:51Z</time>
      </trkpt>
      <trkpt lat="43.63299" lon="1.30277">
        <ele>191.4</ele>
        <time>2024-06-13T14:35:52Z</time>
      </trkpt>
      <trkpt lat="43.63294" lon="1.30268">
        <ele>191.6</ele>
        <time>2024-06-13T14:35:53Z</time>
      </trkpt>
      <trkpt lat="43.6329" lon="1.3026">
        <ele>191.6</ele>
        <time>2024-06-13T14:35:54Z</time>
      </trkpt>
      <trkpt lat="43.63284" lon="1.30251">
        <ele>191.6</ele>
        <time>2024-06-13T14:35:55Z</time>
      </trkpt>
      <trkpt lat="43.63279" lon="1.30242">
        <ele>191.6</ele>
        <time>2024-06-13T14:35:56Z</time>
      </trkpt>
      <trkpt lat="43.63274" lon="1.30235">
        <ele>191.6</ele>
        <time>2024-06-13T14:35:57Z</time>
      </trkpt>
      <trkpt lat="43.63271" lon="1.30229">
        <ele>191.6</ele>
        <time>2024-06-13T14:35:58Z</time>
      </trkpt>
      <trkpt lat="43.63268" lon="1.30225">
        <ele>191.4</ele>
        <time>2024-06-13T14:35:59Z</time>
      </trkpt>
      <trkpt lat="43.63263" lon="1.30219">
        <ele>191.2</ele>
        <time>2024-06-13T14:36:00Z</time>
      </trkpt>
      <trkpt lat="43.63256" lon="1.30213">
        <ele>191.2</ele>
        <time>2024-06-13T14:36:01Z</time>
      </trkpt>
      <trkpt lat="43.6325" lon="1.30209">
        <ele>191.2</ele>
        <time>2024-06-13T14:36:02Z</time>
      </trkpt>
      <trkpt lat="43.63245" lon="1.30205">
        <ele>191</ele>
        <time>2024-06-13T14:36:03Z</time>
      </trkpt>
      <trkpt lat="43.63239" lon="1.30202">
        <ele>191</ele>
        <time>2024-06-13T14:36:04Z</time>
      </trkpt>
      <trkpt lat="43.63233" lon="1.302">
        <ele>191</ele>
        <time>2024-06-13T14:36:05Z</time>
      </trkpt>
      <trkpt lat="43.63228" lon="1.30198">
        <ele>191</ele>
        <time>2024-06-13T14:36:06Z</time>
      </trkpt>
      <trkpt lat="43.63222" lon="1.30195">
        <ele>191</ele>
        <time>2024-06-13T14:36:07Z</time>
      </trkpt>
      <trkpt lat="43.63217" lon="1.30191">
        <ele>191</ele>
        <time>2024-06-13T14:36:08Z</time>
      </trkpt>
      <trkpt lat="43.63211" lon="1.30188">
        <ele>191</ele>
        <time>2024-06-13T14:36:09Z</time>
      </trkpt>
      <trkpt lat="43.63205" lon="1.30183">
        <ele>191</ele>
        <time>2024-06-13T14:36:10Z</time>
      </trkpt>
      <trkpt lat="43.63199" lon="1.30179">
        <ele>191</ele>
        <time>2024-06-13T14:36:11Z</time>
      </trkpt>
      <trkpt lat="43.63193" lon="1.30174">
        <ele>191</ele>
        <time>2024-06-13T14:36:12Z</time>
      </trkpt>
      <trkpt lat="43.63188" lon="1.3017">
        <ele>191.2</ele>
        <time>2024-06-13T14:36:13Z</time>
      </trkpt>
      <trkpt lat="43.63182" lon="1.30165">
        <ele>191.2</ele>
        <time>2024-06-13T14:36:14Z</time>
      </trkpt>
      <trkpt lat="43.63182" lon="1.30165">
        <ele>191.2</ele>
        <time>2024-06-13T14:36:15Z</time>
      </trkpt>
      <trkpt lat="43.63171" lon="1.30156">
        <ele>191.4</ele>
        <time>2024-06-13T14:36:16Z</time>
      </trkpt>
      <trkpt lat="43.63166" lon="1.30152">
        <ele>191.4</ele>
        <time>2024-06-13T14:36:17Z</time>
      </trkpt>
      <trkpt lat="43.63161" lon="1.30147">
        <ele>191.4</ele>
        <time>2024-06-13T14:36:18Z</time>
      </trkpt>
      <trkpt lat="43.63156" lon="1.30142">
        <ele>191.4</ele>
        <time>2024-06-13T14:36:19Z</time>
      </trkpt>
      <trkpt lat="43.63152" lon="1.30138">
        <ele>191.6</ele>
        <time>2024-06-13T14:36:20Z</time>
      </trkpt>
      <trkpt lat="43.63147" lon="1.30133">
        <ele>191.6</ele>
        <time>2024-06-13T14:36:21Z</time>
      </trkpt>
      <trkpt lat="43.63141" lon="1.30127">
        <ele>191.6</ele>
        <time>2024-06-13T14:36:22Z</time>
      </trkpt>
      <trkpt lat="43.63135" lon="1.30122">
        <ele>191.6</ele>
        <time>2024-06-13T14:36:23Z</time>
      </trkpt>
      <trkpt lat="43.6313" lon="1.30118">
        <ele>191.6</ele>
        <time>2024-06-13T14:36:24Z</time>
      </trkpt>
      <trkpt lat="43.63125" lon="1.30114">
        <ele>191.8</ele>
        <time>2024-06-13T14:36:25Z</time>
      </trkpt>
      <trkpt lat="43.6312" lon="1.30109">
        <ele>191.8</ele>
        <time>2024-06-13T14:36:26Z</time>
      </trkpt>
      <trkpt lat="43.63114" lon="1.30106">
        <ele>191.8</ele>
        <time>2024-06-13T14:36:27Z</time>
      </trkpt>
      <trkpt lat="43.63107" lon="1.30101">
        <ele>191.8</ele>
        <time>2024-06-13T14:36:28Z</time>
      </trkpt>
      <trkpt lat="43.63101" lon="1.30096">
        <ele>191.8</ele>
        <time>2024-06-13T14:36:29Z</time>
      </trkpt>
      <trkpt lat="43.63097" lon="1.30091">
        <ele>191.6</ele>
        <time>2024-06-13T14:36:30Z</time>
      </trkpt>
      <trkpt lat="43.63091" lon="1.30086">
        <ele>191.6</ele>
        <time>2024-06-13T14:36:31Z</time>
      </trkpt>
      <trkpt lat="43.63086" lon="1.3008">
        <ele>191.6</ele>
        <time>2024-06-13T14:36:32Z</time>
      </trkpt>
      <trkpt lat="43.63079" lon="1.30074">
        <ele>191.4</ele>
        <time>2024-06-13T14:36:33Z</time>
      </trkpt>
      <trkpt lat="43.63074" lon="1.30068">
        <ele>191.4</ele>
        <time>2024-06-13T14:36:34Z</time>
      </trkpt>
      <trkpt lat="43.63068" lon="1.30062">
        <ele>191.2</ele>
        <time>2024-06-13T14:36:35Z</time>
      </trkpt>
      <trkpt lat="43.63063" lon="1.30058">
        <ele>191.2</ele>
        <time>2024-06-13T14:36:36Z</time>
      </trkpt>
      <trkpt lat="43.63058" lon="1.30052">
        <ele>191</ele>
        <time>2024-06-13T14:36:37Z</time>
      </trkpt>
      <trkpt lat="43.63052" lon="1.30047">
        <ele>191</ele>
        <time>2024-06-13T14:36:38Z</time>
      </trkpt>
      <trkpt lat="43.63045" lon="1.30043">
        <ele>191</ele>
        <time>2024-06-13T14:36:39Z</time>
      </trkpt>
      <trkpt lat="43.63039" lon="1.30039">
        <ele>190.6</ele>
        <time>2024-06-13T14:36:40Z</time>
      </trkpt>
      <trkpt lat="43.63032" lon="1.30037">
        <ele>190.6</ele>
        <time>2024-06-13T14:36:41Z</time>
      </trkpt>
      <trkpt lat="43.63025" lon="1.30037">
        <ele>190.6</ele>
        <time>2024-06-13T14:36:42Z</time>
      </trkpt>
      <trkpt lat="43.63018" lon="1.30037">
        <ele>190.4</ele>
        <time>2024-06-13T14:36:43Z</time>
      </trkpt>
      <trkpt lat="43.6301" lon="1.30038">
        <ele>190.4</ele>
        <time>2024-06-13T14:36:44Z</time>
      </trkpt>
      <trkpt lat="43.63003" lon="1.3004">
        <ele>190.2</ele>
        <time>2024-06-13T14:36:45Z</time>
      </trkpt>
      <trkpt lat="43.62997" lon="1.30042">
        <ele>190.2</ele>
        <time>2024-06-13T14:36:46Z</time>
      </trkpt>
      <trkpt lat="43.6299" lon="1.30044">
        <ele>190.2</ele>
        <time>2024-06-13T14:36:47Z</time>
      </trkpt>
      <trkpt lat="43.62983" lon="1.30046">
        <ele>190.2</ele>
        <time>2024-06-13T14:36:48Z</time>
      </trkpt>
      <trkpt lat="43.62975" lon="1.30049">
        <ele>190</ele>
        <time>2024-06-13T14:36:49Z</time>
      </trkpt>
      <trkpt lat="43.62968" lon="1.30051">
        <ele>190</ele>
        <time>2024-06-13T14:36:50Z</time>
      </trkpt>
      <trkpt lat="43.62961" lon="1.30053">
        <ele>190</ele>
        <time>2024-06-13T14:36:51Z</time>
      </trkpt>
      <trkpt lat="43.62955" lon="1.30055">
        <ele>190</ele>
        <time>2024-06-13T14:36:52Z</time>
      </trkpt>
      <trkpt lat="43.62948" lon="1.30057">
        <ele>190</ele>
        <time>2024-06-13T14:36:53Z</time>
      </trkpt>
      <trkpt lat="43.6294" lon="1.3006">
        <ele>189.8</ele>
        <time>2024-06-13T14:36:54Z</time>
      </trkpt>
      <trkpt lat="43.62933" lon="1.30063">
        <ele>189.8</ele>
        <time>2024-06-13T14:36:55Z</time>
      </trkpt>
      <trkpt lat="43.62928" lon="1.30065">
        <ele>189.8</ele>
        <time>2024-06-13T14:36:56Z</time>
      </trkpt>
      <trkpt lat="43.62921" lon="1.30066">
        <ele>189.8</ele>
        <time>2024-06-13T14:36:57Z</time>
      </trkpt>
      <trkpt lat="43.62912" lon="1.30066">
        <ele>189.8</ele>
        <time>2024-06-13T14:36:58Z</time>
      </trkpt>
      <trkpt lat="43.62905" lon="1.30065">
        <ele>189.8</ele>
        <time>2024-06-13T14:36:59Z</time>
      </trkpt>
      <trkpt lat="43.62899" lon="1.30062">
        <ele>189.8</ele>
        <time>2024-06-13T14:37:00Z</time>
      </trkpt>
      <trkpt lat="43.62892" lon="1.30059">
        <ele>189.8</ele>
        <time>2024-06-13T14:37:01Z</time>
      </trkpt>
      <trkpt lat="43.62886" lon="1.30055">
        <ele>189.6</ele>
        <time>2024-06-13T14:37:02Z</time>
      </trkpt>
      <trkpt lat="43.6288" lon="1.30052">
        <ele>189.6</ele>
        <time>2024-06-13T14:37:03Z</time>
      </trkpt>
      <trkpt lat="43.62875" lon="1.30049">
        <ele>189.6</ele>
        <time>2024-06-13T14:37:04Z</time>
      </trkpt>
      <trkpt lat="43.62869" lon="1.30046">
        <ele>189.6</ele>
        <time>2024-06-13T14:37:05Z</time>
      </trkpt>
      <trkpt lat="43.62863" lon="1.30043">
        <ele>189.6</ele>
        <time>2024-06-13T14:37:06Z</time>
      </trkpt>
      <trkpt lat="43.62857" lon="1.3004">
        <ele>189.6</ele>
        <time>2024-06-13T14:37:07Z</time>
      </trkpt>
      <trkpt lat="43.62851" lon="1.30037">
        <ele>189.6</ele>
        <time>2024-06-13T14:37:08Z</time>
      </trkpt>
      <trkpt lat="43.62846" lon="1.30035">
        <ele>189.6</ele>
        <time>2024-06-13T14:37:09Z</time>
      </trkpt>
      <trkpt lat="43.62839" lon="1.30031">
        <ele>189.6</ele>
        <time>2024-06-13T14:37:10Z</time>
      </trkpt>
      <trkpt lat="43.62833" lon="1.30028">
        <ele>189.4</ele>
        <time>2024-06-13T14:37:11Z</time>
      </trkpt>
      <trkpt lat="43.62826" lon="1.30025">
        <ele>189.4</ele>
        <time>2024-06-13T14:37:12Z</time>
      </trkpt>
      <trkpt lat="43.6282" lon="1.30022">
        <ele>189.4</ele>
        <time>2024-06-13T14:37:13Z</time>
      </trkpt>
      <trkpt lat="43.62814" lon="1.30018">
        <ele>189.2</ele>
        <time>2024-06-13T14:37:14Z</time>
      </trkpt>
      <trkpt lat="43.62809" lon="1.30013">
        <ele>189.2</ele>
        <time>2024-06-13T14:37:15Z</time>
      </trkpt>
      <trkpt lat="43.62803" lon="1.30008">
        <ele>189</ele>
        <time>2024-06-13T14:37:16Z</time>
      </trkpt>
      <trkpt lat="43.62798" lon="1.30002">
        <ele>189</ele>
        <time>2024-06-13T14:37:17Z</time>
      </trkpt>
      <trkpt lat="43.62793" lon="1.29995">
        <ele>189</ele>
        <time>2024-06-13T14:37:18Z</time>
      </trkpt>
      <trkpt lat="43.62789" lon="1.29989">
        <ele>189</ele>
        <time>2024-06-13T14:37:19Z</time>
      </trkpt>
      <trkpt lat="43.62785" lon="1.29983">
        <ele>189.2</ele>
        <time>2024-06-13T14:37:20Z</time>
      </trkpt>
      <trkpt lat="43.6278" lon="1.29976">
        <ele>189.4</ele>
        <time>2024-06-13T14:37:21Z</time>
      </trkpt>
      <trkpt lat="43.62776" lon="1.29969">
        <ele>189.6</ele>
        <time>2024-06-13T14:37:22Z</time>
      </trkpt>
      <trkpt lat="43.62771" lon="1.29963">
        <ele>189.6</ele>
        <time>2024-06-13T14:37:23Z</time>
      </trkpt>
      <trkpt lat="43.62767" lon="1.29956">
        <ele>189.6</ele>
        <time>2024-06-13T14:37:24Z</time>
      </trkpt>
      <trkpt lat="43.62762" lon="1.29949">
        <ele>189.8</ele>
        <time>2024-06-13T14:37:25Z</time>
      </trkpt>
      <trkpt lat="43.62757" lon="1.29942">
        <ele>189.8</ele>
        <time>2024-06-13T14:37:26Z</time>
      </trkpt>
      <trkpt lat="43.62753" lon="1.29936">
        <ele>189.8</ele>
        <time>2024-06-13T14:37:27Z</time>
      </trkpt>
      <trkpt lat="43.62749" lon="1.29929">
        <ele>189.8</ele>
        <time>2024-06-13T14:37:28Z</time>
      </trkpt>
      <trkpt lat="43.62744" lon="1.29922">
        <ele>189.8</ele>
        <time>2024-06-13T14:37:29Z</time>
      </trkpt>
      <trkpt lat="43.6274" lon="1.29916">
        <ele>190</ele>
        <time>2024-06-13T14:37:30Z</time>
      </trkpt>
      <trkpt lat="43.62735" lon="1.29909">
        <ele>190</ele>
        <time>2024-06-13T14:37:31Z</time>
      </trkpt>
      <trkpt lat="43.62731" lon="1.29903">
        <ele>190</ele>
        <time>2024-06-13T14:37:32Z</time>
      </trkpt>
      <trkpt lat="43.62726" lon="1.29897">
        <ele>190</ele>
        <time>2024-06-13T14:37:33Z</time>
      </trkpt>
      <trkpt lat="43.62722" lon="1.29891">
        <ele>190.2</ele>
        <time>2024-06-13T14:37:34Z</time>
      </trkpt>
      <trkpt lat="43.62718" lon="1.29885">
        <ele>190.2</ele>
        <time>2024-06-13T14:37:35Z</time>
      </trkpt>
      <trkpt lat="43.62714" lon="1.29879">
        <ele>190.2</ele>
        <time>2024-06-13T14:37:36Z</time>
      </trkpt>
      <trkpt lat="43.6271" lon="1.29873">
        <ele>190.4</ele>
        <time>2024-06-13T14:37:37Z</time>
      </trkpt>
      <trkpt lat="43.62705" lon="1.29867">
        <ele>190.4</ele>
        <time>2024-06-13T14:37:38Z</time>
      </trkpt>
      <trkpt lat="43.62701" lon="1.29861">
        <ele>190.6</ele>
        <time>2024-06-13T14:37:39Z</time>
      </trkpt>
      <trkpt lat="43.62697" lon="1.29855">
        <ele>190.6</ele>
        <time>2024-06-13T14:37:40Z</time>
      </trkpt>
      <trkpt lat="43.62693" lon="1.29849">
        <ele>190.6</ele>
        <time>2024-06-13T14:37:41Z</time>
      </trkpt>
      <trkpt lat="43.62688" lon="1.29843">
        <ele>190.8</ele>
        <time>2024-06-13T14:37:42Z</time>
      </trkpt>
      <trkpt lat="43.62684" lon="1.29837">
        <ele>191</ele>
        <time>2024-06-13T14:37:43Z</time>
      </trkpt>
      <trkpt lat="43.62679" lon="1.29832">
        <ele>191.2</ele>
        <time>2024-06-13T14:37:44Z</time>
      </trkpt>
      <trkpt lat="43.62674" lon="1.29827">
        <ele>191.4</ele>
        <time>2024-06-13T14:37:45Z</time>
      </trkpt>
      <trkpt lat="43.62669" lon="1.29822">
        <ele>191.4</ele>
        <time>2024-06-13T14:37:46Z</time>
      </trkpt>
      <trkpt lat="43.62664" lon="1.29818">
        <ele>191.4</ele>
        <time>2024-06-13T14:37:47Z</time>
      </trkpt>
      <trkpt lat="43.62658" lon="1.29813">
        <ele>191.6</ele>
        <time>2024-06-13T14:37:48Z</time>
      </trkpt>
      <trkpt lat="43.62653" lon="1.29808">
        <ele>191.6</ele>
        <time>2024-06-13T14:37:49Z</time>
      </trkpt>
      <trkpt lat="43.62647" lon="1.29804">
        <ele>191.8</ele>
        <time>2024-06-13T14:37:50Z</time>
      </trkpt>
      <trkpt lat="43.62642" lon="1.298">
        <ele>191.8</ele>
        <time>2024-06-13T14:37:51Z</time>
      </trkpt>
      <trkpt lat="43.62636" lon="1.29795">
        <ele>191.8</ele>
        <time>2024-06-13T14:37:52Z</time>
      </trkpt>
      <trkpt lat="43.62631" lon="1.2979">
        <ele>191.8</ele>
        <time>2024-06-13T14:37:53Z</time>
      </trkpt>
      <trkpt lat="43.62626" lon="1.29786">
        <ele>191.8</ele>
        <time>2024-06-13T14:37:54Z</time>
      </trkpt>
      <trkpt lat="43.62621" lon="1.29781">
        <ele>191.8</ele>
        <time>2024-06-13T14:37:55Z</time>
      </trkpt>
      <trkpt lat="43.62616" lon="1.29775">
        <ele>191.8</ele>
        <time>2024-06-13T14:37:56Z</time>
      </trkpt>
      <trkpt lat="43.62611" lon="1.29771">
        <ele>191.8</ele>
        <time>2024-06-13T14:37:57Z</time>
      </trkpt>
      <trkpt lat="43.62606" lon="1.29765">
        <ele>192</ele>
        <time>2024-06-13T14:37:58Z</time>
      </trkpt>
      <trkpt lat="43.626" lon="1.2976">
        <ele>192</ele>
        <time>2024-06-13T14:37:59Z</time>
      </trkpt>
      <trkpt lat="43.62595" lon="1.29755">
        <ele>192.2</ele>
        <time>2024-06-13T14:38:00Z</time>
      </trkpt>
      <trkpt lat="43.62591" lon="1.29751">
        <ele>192.2</ele>
        <time>2024-06-13T14:38:01Z</time>
      </trkpt>
      <trkpt lat="43.62586" lon="1.29746">
        <ele>192.4</ele>
        <time>2024-06-13T14:38:02Z</time>
      </trkpt>
      <trkpt lat="43.62581" lon="1.29741">
        <ele>192.4</ele>
        <time>2024-06-13T14:38:03Z</time>
      </trkpt>
      <trkpt lat="43.62576" lon="1.29736">
        <ele>192.4</ele>
        <time>2024-06-13T14:38:04Z</time>
      </trkpt>
      <trkpt lat="43.62571" lon="1.29731">
        <ele>192.6</ele>
        <time>2024-06-13T14:38:05Z</time>
      </trkpt>
      <trkpt lat="43.62566" lon="1.29726">
        <ele>192.6</ele>
        <time>2024-06-13T14:38:06Z</time>
      </trkpt>
      <trkpt lat="43.62561" lon="1.29722">
        <ele>192.6</ele>
        <time>2024-06-13T14:38:07Z</time>
      </trkpt>
      <trkpt lat="43.62556" lon="1.29717">
        <ele>192.8</ele>
        <time>2024-06-13T14:38:08Z</time>
      </trkpt>
      <trkpt lat="43.62551" lon="1.29711">
        <ele>192.8</ele>
        <time>2024-06-13T14:38:09Z</time>
      </trkpt>
      <trkpt lat="43.62546" lon="1.29706">
        <ele>193</ele>
        <time>2024-06-13T14:38:10Z</time>
      </trkpt>
      <trkpt lat="43.62541" lon="1.297">
        <ele>193</ele>
        <time>2024-06-13T14:38:11Z</time>
      </trkpt>
      <trkpt lat="43.62537" lon="1.29695">
        <ele>193.2</ele>
        <time>2024-06-13T14:38:12Z</time>
      </trkpt>
      <trkpt lat="43.62532" lon="1.29689">
        <ele>193.2</ele>
        <time>2024-06-13T14:38:13Z</time>
      </trkpt>
      <trkpt lat="43.62527" lon="1.29683">
        <ele>193.4</ele>
        <time>2024-06-13T14:38:14Z</time>
      </trkpt>
      <trkpt lat="43.62522" lon="1.29678">
        <ele>193.4</ele>
        <time>2024-06-13T14:38:15Z</time>
      </trkpt>
      <trkpt lat="43.62517" lon="1.29672">
        <ele>193.4</ele>
        <time>2024-06-13T14:38:16Z</time>
      </trkpt>
      <trkpt lat="43.62512" lon="1.29667">
        <ele>193.4</ele>
        <time>2024-06-13T14:38:17Z</time>
      </trkpt>
      <trkpt lat="43.62508" lon="1.29661">
        <ele>193.4</ele>
        <time>2024-06-13T14:38:18Z</time>
      </trkpt>
      <trkpt lat="43.62503" lon="1.29656">
        <ele>193.4</ele>
        <time>2024-06-13T14:38:19Z</time>
      </trkpt>
      <trkpt lat="43.62498" lon="1.2965">
        <ele>193.4</ele>
        <time>2024-06-13T14:38:20Z</time>
      </trkpt>
      <trkpt lat="43.62493" lon="1.29644">
        <ele>193.4</ele>
        <time>2024-06-13T14:38:21Z</time>
      </trkpt>
      <trkpt lat="43.62488" lon="1.29638">
        <ele>193.4</ele>
        <time>2024-06-13T14:38:22Z</time>
      </trkpt>
      <trkpt lat="43.62483" lon="1.29632">
        <ele>193.4</ele>
        <time>2024-06-13T14:38:23Z</time>
      </trkpt>
      <trkpt lat="43.62479" lon="1.29627">
        <ele>193.4</ele>
        <time>2024-06-13T14:38:24Z</time>
      </trkpt>
      <trkpt lat="43.62474" lon="1.29621">
        <ele>193.4</ele>
        <time>2024-06-13T14:38:25Z</time>
      </trkpt>
      <trkpt lat="43.6247" lon="1.29615">
        <ele>193.4</ele>
        <time>2024-06-13T14:38:26Z</time>
      </trkpt>
      <trkpt lat="43.62466" lon="1.29609">
        <ele>193.4</ele>
        <time>2024-06-13T14:38:27Z</time>
      </trkpt>
      <trkpt lat="43.62462" lon="1.29603">
        <ele>193.4</ele>
        <time>2024-06-13T14:38:28Z</time>
      </trkpt>
      <trkpt lat="43.62458" lon="1.29596">
        <ele>193.6</ele>
        <time>2024-06-13T14:38:29Z</time>
      </trkpt>
      <trkpt lat="43.62455" lon="1.29591">
        <ele>193.6</ele>
        <time>2024-06-13T14:38:30Z</time>
      </trkpt>
      <trkpt lat="43.6245" lon="1.29583">
        <ele>193.8</ele>
        <time>2024-06-13T14:38:31Z</time>
      </trkpt>
      <trkpt lat="43.62447" lon="1.29576">
        <ele>193.8</ele>
        <time>2024-06-13T14:38:32Z</time>
      </trkpt>
      <trkpt lat="43.62444" lon="1.2957">
        <ele>194</ele>
        <time>2024-06-13T14:38:33Z</time>
      </trkpt>
      <trkpt lat="43.6244" lon="1.29563">
        <ele>194</ele>
        <time>2024-06-13T14:38:34Z</time>
      </trkpt>
      <trkpt lat="43.62437" lon="1.29556">
        <ele>194</ele>
        <time>2024-06-13T14:38:35Z</time>
      </trkpt>
      <trkpt lat="43.62433" lon="1.2955">
        <ele>194.2</ele>
        <time>2024-06-13T14:38:36Z</time>
      </trkpt>
      <trkpt lat="43.6243" lon="1.29543">
        <ele>194.2</ele>
        <time>2024-06-13T14:38:37Z</time>
      </trkpt>
      <trkpt lat="43.62427" lon="1.29537">
        <ele>194.4</ele>
        <time>2024-06-13T14:38:38Z</time>
      </trkpt>
      <trkpt lat="43.62424" lon="1.29531">
        <ele>194.4</ele>
        <time>2024-06-13T14:38:39Z</time>
      </trkpt>
      <trkpt lat="43.62421" lon="1.29524">
        <ele>194.6</ele>
        <time>2024-06-13T14:38:40Z</time>
      </trkpt>
      <trkpt lat="43.62418" lon="1.29518">
        <ele>194.6</ele>
        <time>2024-06-13T14:38:41Z</time>
      </trkpt>
      <trkpt lat="43.62415" lon="1.29511">
        <ele>194.8</ele>
        <time>2024-06-13T14:38:42Z</time>
      </trkpt>
      <trkpt lat="43.62413" lon="1.29505">
        <ele>195</ele>
        <time>2024-06-13T14:38:43Z</time>
      </trkpt>
      <trkpt lat="43.6241" lon="1.29498">
        <ele>195.2</ele>
        <time>2024-06-13T14:38:44Z</time>
      </trkpt>
      <trkpt lat="43.62407" lon="1.29492">
        <ele>195.4</ele>
        <time>2024-06-13T14:38:45Z</time>
      </trkpt>
      <trkpt lat="43.62405" lon="1.29485">
        <ele>195.4</ele>
        <time>2024-06-13T14:38:46Z</time>
      </trkpt>
      <trkpt lat="43.62403" lon="1.29478">
        <ele>195.6</ele>
        <time>2024-06-13T14:38:47Z</time>
      </trkpt>
      <trkpt lat="43.624" lon="1.29471">
        <ele>195.6</ele>
        <time>2024-06-13T14:38:48Z</time>
      </trkpt>
      <trkpt lat="43.62398" lon="1.29464">
        <ele>196</ele>
        <time>2024-06-13T14:38:49Z</time>
      </trkpt>
      <trkpt lat="43.62396" lon="1.29457">
        <ele>196.4</ele>
        <time>2024-06-13T14:38:50Z</time>
      </trkpt>
      <trkpt lat="43.62393" lon="1.2945">
        <ele>196.4</ele>
        <time>2024-06-13T14:38:51Z</time>
      </trkpt>
      <trkpt lat="43.62392" lon="1.29443">
        <ele>196.8</ele>
        <time>2024-06-13T14:38:52Z</time>
      </trkpt>
      <trkpt lat="43.62391" lon="1.29436">
        <ele>196.8</ele>
        <time>2024-06-13T14:38:53Z</time>
      </trkpt>
      <trkpt lat="43.6239" lon="1.29429">
        <ele>197</ele>
        <time>2024-06-13T14:38:54Z</time>
      </trkpt>
      <trkpt lat="43.62389" lon="1.29423">
        <ele>197.2</ele>
        <time>2024-06-13T14:38:55Z</time>
      </trkpt>
      <trkpt lat="43.62387" lon="1.29416">
        <ele>197.4</ele>
        <time>2024-06-13T14:38:56Z</time>
      </trkpt>
      <trkpt lat="43.62386" lon="1.29409">
        <ele>197.6</ele>
        <time>2024-06-13T14:38:57Z</time>
      </trkpt>
      <trkpt lat="43.62385" lon="1.29402">
        <ele>197.6</ele>
        <time>2024-06-13T14:38:58Z</time>
      </trkpt>
      <trkpt lat="43.62384" lon="1.29394">
        <ele>198</ele>
        <time>2024-06-13T14:38:59Z</time>
      </trkpt>
      <trkpt lat="43.62383" lon="1.29386">
        <ele>198</ele>
        <time>2024-06-13T14:39:00Z</time>
      </trkpt>
      <trkpt lat="43.62381" lon="1.29377">
        <ele>198.2</ele>
        <time>2024-06-13T14:39:01Z</time>
      </trkpt>
      <trkpt lat="43.6238" lon="1.29368">
        <ele>198.2</ele>
        <time>2024-06-13T14:39:02Z</time>
      </trkpt>
      <trkpt lat="43.62378" lon="1.29359">
        <ele>198.2</ele>
        <time>2024-06-13T14:39:03Z</time>
      </trkpt>
      <trkpt lat="43.62376" lon="1.2935">
        <ele>198.2</ele>
        <time>2024-06-13T14:39:04Z</time>
      </trkpt>
      <trkpt lat="43.62375" lon="1.29341">
        <ele>198.2</ele>
        <time>2024-06-13T14:39:05Z</time>
      </trkpt>
      <trkpt lat="43.62373" lon="1.29333">
        <ele>198</ele>
        <time>2024-06-13T14:39:06Z</time>
      </trkpt>
      <trkpt lat="43.62372" lon="1.29322">
        <ele>198</ele>
        <time>2024-06-13T14:39:07Z</time>
      </trkpt>
      <trkpt lat="43.62371" lon="1.29312">
        <ele>197.6</ele>
        <time>2024-06-13T14:39:08Z</time>
      </trkpt>
      <trkpt lat="43.6237" lon="1.29302">
        <ele>197.4</ele>
        <time>2024-06-13T14:39:09Z</time>
      </trkpt>
      <trkpt lat="43.62369" lon="1.29292">
        <ele>197.4</ele>
        <time>2024-06-13T14:39:10Z</time>
      </trkpt>
      <trkpt lat="43.62368" lon="1.29281">
        <ele>197</ele>
        <time>2024-06-13T14:39:11Z</time>
      </trkpt>
      <trkpt lat="43.62367" lon="1.29271">
        <ele>196.8</ele>
        <time>2024-06-13T14:39:12Z</time>
      </trkpt>
      <trkpt lat="43.62366" lon="1.2926">
        <ele>196.6</ele>
        <time>2024-06-13T14:39:13Z</time>
      </trkpt>
      <trkpt lat="43.62364" lon="1.2925">
        <ele>196.4</ele>
        <time>2024-06-13T14:39:14Z</time>
      </trkpt>
      <trkpt lat="43.62362" lon="1.29239">
        <ele>196</ele>
        <time>2024-06-13T14:39:15Z</time>
      </trkpt>
      <trkpt lat="43.6236" lon="1.29229">
        <ele>195.6</ele>
        <time>2024-06-13T14:39:16Z</time>
      </trkpt>
      <trkpt lat="43.62356" lon="1.29219">
        <ele>195.4</ele>
        <time>2024-06-13T14:39:17Z</time>
      </trkpt>
      <trkpt lat="43.62353" lon="1.29209">
        <ele>195</ele>
        <time>2024-06-13T14:39:18Z</time>
      </trkpt>
      <trkpt lat="43.62349" lon="1.292">
        <ele>195</ele>
        <time>2024-06-13T14:39:19Z</time>
      </trkpt>
      <trkpt lat="43.62346" lon="1.2919">
        <ele>194.8</ele>
        <time>2024-06-13T14:39:20Z</time>
      </trkpt>
      <trkpt lat="43.62342" lon="1.2918">
        <ele>194.8</ele>
        <time>2024-06-13T14:39:21Z</time>
      </trkpt>
      <trkpt lat="43.62339" lon="1.29171">
        <ele>194.8</ele>
        <time>2024-06-13T14:39:22Z</time>
      </trkpt>
      <trkpt lat="43.62335" lon="1.29161">
        <ele>194.6</ele>
        <time>2024-06-13T14:39:23Z</time>
      </trkpt>
      <trkpt lat="43.62331" lon="1.29152">
        <ele>194.6</ele>
        <time>2024-06-13T14:39:24Z</time>
      </trkpt>
      <trkpt lat="43.62327" lon="1.29143">
        <ele>194.4</ele>
        <time>2024-06-13T14:39:25Z</time>
      </trkpt>
      <trkpt lat="43.62322" lon="1.29134">
        <ele>194.2</ele>
        <time>2024-06-13T14:39:26Z</time>
      </trkpt>
      <trkpt lat="43.62318" lon="1.29127">
        <ele>194.2</ele>
        <time>2024-06-13T14:39:27Z</time>
      </trkpt>
      <trkpt lat="43.62313" lon="1.29119">
        <ele>194</ele>
        <time>2024-06-13T14:39:28Z</time>
      </trkpt>
      <trkpt lat="43.62309" lon="1.29112">
        <ele>194</ele>
        <time>2024-06-13T14:39:29Z</time>
      </trkpt>
      <trkpt lat="43.62305" lon="1.29105">
        <ele>193.8</ele>
        <time>2024-06-13T14:39:30Z</time>
      </trkpt>
      <trkpt lat="43.62301" lon="1.29098">
        <ele>193.8</ele>
        <time>2024-06-13T14:39:31Z</time>
      </trkpt>
      <trkpt lat="43.62297" lon="1.29092">
        <ele>193.8</ele>
        <time>2024-06-13T14:39:32Z</time>
      </trkpt>
      <trkpt lat="43.62294" lon="1.29086">
        <ele>193.8</ele>
        <time>2024-06-13T14:39:33Z</time>
      </trkpt>
      <trkpt lat="43.62291" lon="1.2908">
        <ele>193.8</ele>
        <time>2024-06-13T14:39:34Z</time>
      </trkpt>
      <trkpt lat="43.62288" lon="1.29074">
        <ele>193.8</ele>
        <time>2024-06-13T14:39:35Z</time>
      </trkpt>
      <trkpt lat="43.62285" lon="1.29068">
        <ele>193.8</ele>
        <time>2024-06-13T14:39:36Z</time>
      </trkpt>
      <trkpt lat="43.62283" lon="1.29063">
        <ele>193.8</ele>
        <time>2024-06-13T14:39:37Z</time>
      </trkpt>
      <trkpt lat="43.6228" lon="1.29058">
        <ele>194</ele>
        <time>2024-06-13T14:39:38Z</time>
      </trkpt>
      <trkpt lat="43.62278" lon="1.29054">
        <ele>194</ele>
        <time>2024-06-13T14:39:39Z</time>
      </trkpt>
      <trkpt lat="43.62276" lon="1.29049">
        <ele>194</ele>
        <time>2024-06-13T14:39:40Z</time>
      </trkpt>
      <trkpt lat="43.62273" lon="1.29045">
        <ele>194</ele>
        <time>2024-06-13T14:39:41Z</time>
      </trkpt>
      <trkpt lat="43.62271" lon="1.29041">
        <ele>194</ele>
        <time>2024-06-13T14:39:42Z</time>
      </trkpt>
      <trkpt lat="43.62269" lon="1.29036">
        <ele>194.2</ele>
        <time>2024-06-13T14:39:43Z</time>
      </trkpt>
      <trkpt lat="43.62268" lon="1.2903">
        <ele>194.2</ele>
        <time>2024-06-13T14:39:44Z</time>
      </trkpt>
      <trkpt lat="43.62267" lon="1.29024">
        <ele>194.2</ele>
        <time>2024-06-13T14:39:45Z</time>
      </trkpt>
      <trkpt lat="43.62266" lon="1.29017">
        <ele>194.4</ele>
        <time>2024-06-13T14:39:46Z</time>
      </trkpt>
      <trkpt lat="43.62265" lon="1.2901">
        <ele>194.4</ele>
        <time>2024-06-13T14:39:47Z</time>
      </trkpt>
      <trkpt lat="43.62265" lon="1.29003">
        <ele>194.4</ele>
        <time>2024-06-13T14:39:48Z</time>
      </trkpt>
      <trkpt lat="43.62265" lon="1.28995">
        <ele>194.4</ele>
        <time>2024-06-13T14:39:49Z</time>
      </trkpt>
      <trkpt lat="43.62264" lon="1.28987">
        <ele>194.4</ele>
        <time>2024-06-13T14:39:50Z</time>
      </trkpt>
      <trkpt lat="43.62264" lon="1.2898">
        <ele>194.4</ele>
        <time>2024-06-13T14:39:51Z</time>
      </trkpt>
      <trkpt lat="43.62263" lon="1.28972">
        <ele>194.4</ele>
        <time>2024-06-13T14:39:52Z</time>
      </trkpt>
      <trkpt lat="43.62262" lon="1.28964">
        <ele>194.4</ele>
        <time>2024-06-13T14:39:53Z</time>
      </trkpt>
      <trkpt lat="43.62262" lon="1.28956">
        <ele>194.4</ele>
        <time>2024-06-13T14:39:54Z</time>
      </trkpt>
      <trkpt lat="43.62261" lon="1.28948">
        <ele>194.2</ele>
        <time>2024-06-13T14:39:55Z</time>
      </trkpt>
      <trkpt lat="43.62261" lon="1.28941">
        <ele>194</ele>
        <time>2024-06-13T14:39:56Z</time>
      </trkpt>
      <trkpt lat="43.6226" lon="1.28934">
        <ele>194</ele>
        <time>2024-06-13T14:39:57Z</time>
      </trkpt>
      <trkpt lat="43.6226" lon="1.28927">
        <ele>193.8</ele>
        <time>2024-06-13T14:39:58Z</time>
      </trkpt>
      <trkpt lat="43.6226" lon="1.2892">
        <ele>193.8</ele>
        <time>2024-06-13T14:39:59Z</time>
      </trkpt>
      <trkpt lat="43.62259" lon="1.28913">
        <ele>193.8</ele>
        <time>2024-06-13T14:40:00Z</time>
      </trkpt>
      <trkpt lat="43.62258" lon="1.28906">
        <ele>193.8</ele>
        <time>2024-06-13T14:40:01Z</time>
      </trkpt>
      <trkpt lat="43.62257" lon="1.28899">
        <ele>193.8</ele>
        <time>2024-06-13T14:40:02Z</time>
      </trkpt>
      <trkpt lat="43.62257" lon="1.28892">
        <ele>193.6</ele>
        <time>2024-06-13T14:40:03Z</time>
      </trkpt>
      <trkpt lat="43.62256" lon="1.28884">
        <ele>193.6</ele>
        <time>2024-06-13T14:40:04Z</time>
      </trkpt>
      <trkpt lat="43.62256" lon="1.28877">
        <ele>193.6</ele>
        <time>2024-06-13T14:40:05Z</time>
      </trkpt>
      <trkpt lat="43.62255" lon="1.2887">
        <ele>193.6</ele>
        <time>2024-06-13T14:40:06Z</time>
      </trkpt>
      <trkpt lat="43.62256" lon="1.28862">
        <ele>193.6</ele>
        <time>2024-06-13T14:40:07Z</time>
      </trkpt>
      <trkpt lat="43.62256" lon="1.28854">
        <ele>193.6</ele>
        <time>2024-06-13T14:40:08Z</time>
      </trkpt>
      <trkpt lat="43.62257" lon="1.28847">
        <ele>193.6</ele>
        <time>2024-06-13T14:40:09Z</time>
      </trkpt>
      <trkpt lat="43.62257" lon="1.28839">
        <ele>193.6</ele>
        <time>2024-06-13T14:40:10Z</time>
      </trkpt>
      <trkpt lat="43.62259" lon="1.28832">
        <ele>193.6</ele>
        <time>2024-06-13T14:40:11Z</time>
      </trkpt>
      <trkpt lat="43.62262" lon="1.28825">
        <ele>193.6</ele>
        <time>2024-06-13T14:40:12Z</time>
      </trkpt>
      <trkpt lat="43.62264" lon="1.28818">
        <ele>193.6</ele>
        <time>2024-06-13T14:40:13Z</time>
      </trkpt>
      <trkpt lat="43.62267" lon="1.28811">
        <ele>193.6</ele>
        <time>2024-06-13T14:40:14Z</time>
      </trkpt>
      <trkpt lat="43.62269" lon="1.28804">
        <ele>193.6</ele>
        <time>2024-06-13T14:40:15Z</time>
      </trkpt>
      <trkpt lat="43.6227" lon="1.28797">
        <ele>193.6</ele>
        <time>2024-06-13T14:40:16Z</time>
      </trkpt>
      <trkpt lat="43.62272" lon="1.28789">
        <ele>193.6</ele>
        <time>2024-06-13T14:40:17Z</time>
      </trkpt>
      <trkpt lat="43.62274" lon="1.28781">
        <ele>193.6</ele>
        <time>2024-06-13T14:40:18Z</time>
      </trkpt>
      <trkpt lat="43.62276" lon="1.28774">
        <ele>193.8</ele>
        <time>2024-06-13T14:40:19Z</time>
      </trkpt>
      <trkpt lat="43.62278" lon="1.28766">
        <ele>193.8</ele>
        <time>2024-06-13T14:40:20Z</time>
      </trkpt>
      <trkpt lat="43.6228" lon="1.28759">
        <ele>193.8</ele>
        <time>2024-06-13T14:40:21Z</time>
      </trkpt>
      <trkpt lat="43.62282" lon="1.28751">
        <ele>193.8</ele>
        <time>2024-06-13T14:40:22Z</time>
      </trkpt>
      <trkpt lat="43.62283" lon="1.28743">
        <ele>193.8</ele>
        <time>2024-06-13T14:40:23Z</time>
      </trkpt>
      <trkpt lat="43.62283" lon="1.28736">
        <ele>194</ele>
        <time>2024-06-13T14:40:24Z</time>
      </trkpt>
      <trkpt lat="43.62282" lon="1.28728">
        <ele>194</ele>
        <time>2024-06-13T14:40:25Z</time>
      </trkpt>
      <trkpt lat="43.62281" lon="1.28722">
        <ele>194</ele>
        <time>2024-06-13T14:40:26Z</time>
      </trkpt>
      <trkpt lat="43.6228" lon="1.28716">
        <ele>194</ele>
        <time>2024-06-13T14:40:27Z</time>
      </trkpt>
      <trkpt lat="43.6228" lon="1.28711">
        <ele>194</ele>
        <time>2024-06-13T14:40:28Z</time>
      </trkpt>
      <trkpt lat="43.6228" lon="1.28707">
        <ele>194</ele>
        <time>2024-06-13T14:40:29Z</time>
      </trkpt>
      <trkpt lat="43.6228" lon="1.28704">
        <ele>194.4</ele>
        <time>2024-06-13T14:40:30Z</time>
      </trkpt>
      <trkpt lat="43.62279" lon="1.28702">
        <ele>195.2</ele>
        <time>2024-06-13T14:40:31Z</time>
      </trkpt>
      <trkpt lat="43.62279" lon="1.28701">
        <ele>195.4</ele>
        <time>2024-06-13T14:40:32Z</time>
      </trkpt>
      <trkpt lat="43.62279" lon="1.287">
        <ele>195.8</ele>
        <time>2024-06-13T14:40:33Z</time>
      </trkpt>
      <trkpt lat="43.62279" lon="1.28699">
        <ele>196</ele>
        <time>2024-06-13T14:40:34Z</time>
      </trkpt>
      <trkpt lat="43.62279" lon="1.28698">
        <ele>196.2</ele>
        <time>2024-06-13T14:40:35Z</time>
      </trkpt>
      <trkpt lat="43.6228" lon="1.28696">
        <ele>196.4</ele>
        <time>2024-06-13T14:40:36Z</time>
      </trkpt>
      <trkpt lat="43.6228" lon="1.28694">
        <ele>196.6</ele>
        <time>2024-06-13T14:40:37Z</time>
      </trkpt>
      <trkpt lat="43.6228" lon="1.28694">
        <ele>196.6</ele>
        <time>2024-06-13T14:40:38Z</time>
      </trkpt>
      <trkpt lat="43.62281" lon="1.28692">
        <ele>196.6</ele>
        <time>2024-06-13T14:40:39Z</time>
      </trkpt>
      <trkpt lat="43.62281" lon="1.2869">
        <ele>196.6</ele>
        <time>2024-06-13T14:40:40Z</time>
      </trkpt>
      <trkpt lat="43.62282" lon="1.28687">
        <ele>196.6</ele>
        <time>2024-06-13T14:40:41Z</time>
      </trkpt>
      <trkpt lat="43.62282" lon="1.28683">
        <ele>196.6</ele>
        <time>2024-06-13T14:40:42Z</time>
      </trkpt>
      <trkpt lat="43.62281" lon="1.28679">
        <ele>196.8</ele>
        <time>2024-06-13T14:40:43Z</time>
      </trkpt>
      <trkpt lat="43.62281" lon="1.28674">
        <ele>196.8</ele>
        <time>2024-06-13T14:40:44Z</time>
      </trkpt>
      <trkpt lat="43.62281" lon="1.28668">
        <ele>196.6</ele>
        <time>2024-06-13T14:40:45Z</time>
      </trkpt>
      <trkpt lat="43.62281" lon="1.28662">
        <ele>196.4</ele>
        <time>2024-06-13T14:40:46Z</time>
      </trkpt>
      <trkpt lat="43.62281" lon="1.28655">
        <ele>196.4</ele>
        <time>2024-06-13T14:40:47Z</time>
      </trkpt>
      <trkpt lat="43.6228" lon="1.28647">
        <ele>196.4</ele>
        <time>2024-06-13T14:40:48Z</time>
      </trkpt>
      <trkpt lat="43.6228" lon="1.28639">
        <ele>196.4</ele>
        <time>2024-06-13T14:40:49Z</time>
      </trkpt>
      <trkpt lat="43.62279" lon="1.28631">
        <ele>196.4</ele>
        <time>2024-06-13T14:40:50Z</time>
      </trkpt>
      <trkpt lat="43.62278" lon="1.28624">
        <ele>196.2</ele>
        <time>2024-06-13T14:40:51Z</time>
      </trkpt>
      <trkpt lat="43.62278" lon="1.28617">
        <ele>196.2</ele>
        <time>2024-06-13T14:40:52Z</time>
      </trkpt>
      <trkpt lat="43.62276" lon="1.28614">
        <ele>196.2</ele>
        <time>2024-06-13T14:40:53Z</time>
      </trkpt>
      <trkpt lat="43.62275" lon="1.28612">
        <ele>196.2</ele>
        <time>2024-06-13T14:40:54Z</time>
      </trkpt>
      <trkpt lat="43.62273" lon="1.28611">
        <ele>196</ele>
        <time>2024-06-13T14:40:55Z</time>
      </trkpt>
      <trkpt lat="43.62271" lon="1.28611">
        <ele>196.2</ele>
        <time>2024-06-13T14:40:56Z</time>
      </trkpt>
      <trkpt lat="43.62269" lon="1.28609">
        <ele>196.2</ele>
        <time>2024-06-13T14:40:57Z</time>
      </trkpt>
      <trkpt lat="43.62267" lon="1.28607">
        <ele>196.2</ele>
        <time>2024-06-13T14:40:58Z</time>
      </trkpt>
      <trkpt lat="43.62265" lon="1.28604">
        <ele>196</ele>
        <time>2024-06-13T14:40:59Z</time>
      </trkpt>
      <trkpt lat="43.62262" lon="1.286">
        <ele>196</ele>
        <time>2024-06-13T14:41:00Z</time>
      </trkpt>
      <trkpt lat="43.62259" lon="1.28596">
        <ele>195.8</ele>
        <time>2024-06-13T14:41:01Z</time>
      </trkpt>
      <trkpt lat="43.62257" lon="1.28591">
        <ele>196</ele>
        <time>2024-06-13T14:41:02Z</time>
      </trkpt>
      <trkpt lat="43.62254" lon="1.28587">
        <ele>196</ele>
        <time>2024-06-13T14:41:03Z</time>
      </trkpt>
      <trkpt lat="43.62251" lon="1.28584">
        <ele>196</ele>
        <time>2024-06-13T14:41:04Z</time>
      </trkpt>
      <trkpt lat="43.62248" lon="1.28579">
        <ele>196</ele>
        <time>2024-06-13T14:41:05Z</time>
      </trkpt>
      <trkpt lat="43.62245" lon="1.28574">
        <ele>196</ele>
        <time>2024-06-13T14:41:06Z</time>
      </trkpt>
      <trkpt lat="43.62241" lon="1.28569">
        <ele>196</ele>
        <time>2024-06-13T14:41:07Z</time>
      </trkpt>
      <trkpt lat="43.62238" lon="1.28563">
        <ele>196</ele>
        <time>2024-06-13T14:41:08Z</time>
      </trkpt>
      <trkpt lat="43.62235" lon="1.28558">
        <ele>196</ele>
        <time>2024-06-13T14:41:09Z</time>
      </trkpt>
      <trkpt lat="43.62231" lon="1.2855">
        <ele>196</ele>
        <time>2024-06-13T14:41:10Z</time>
      </trkpt>
      <trkpt lat="43.62228" lon="1.28542">
        <ele>196</ele>
        <time>2024-06-13T14:41:11Z</time>
      </trkpt>
      <trkpt lat="43.62224" lon="1.28532">
        <ele>195.8</ele>
        <time>2024-06-13T14:41:12Z</time>
      </trkpt>
      <trkpt lat="43.62221" lon="1.28524">
        <ele>195.8</ele>
        <time>2024-06-13T14:41:13Z</time>
      </trkpt>
      <trkpt lat="43.62219" lon="1.28517">
        <ele>195.8</ele>
        <time>2024-06-13T14:41:14Z</time>
      </trkpt>
      <trkpt lat="43.62216" lon="1.28508">
        <ele>195.6</ele>
        <time>2024-06-13T14:41:15Z</time>
      </trkpt>
      <trkpt lat="43.62214" lon="1.28497">
        <ele>195.6</ele>
        <time>2024-06-13T14:41:16Z</time>
      </trkpt>
      <trkpt lat="43.62213" lon="1.28488">
        <ele>195.4</ele>
        <time>2024-06-13T14:41:17Z</time>
      </trkpt>
      <trkpt lat="43.62212" lon="1.28479">
        <ele>195.2</ele>
        <time>2024-06-13T14:41:18Z</time>
      </trkpt>
      <trkpt lat="43.62211" lon="1.28472">
        <ele>195.2</ele>
        <time>2024-06-13T14:41:19Z</time>
      </trkpt>
      <trkpt lat="43.62211" lon="1.28463">
        <ele>195</ele>
        <time>2024-06-13T14:41:20Z</time>
      </trkpt>
      <trkpt lat="43.62211" lon="1.28454">
        <ele>195</ele>
        <time>2024-06-13T14:41:21Z</time>
      </trkpt>
      <trkpt lat="43.6221" lon="1.28443">
        <ele>194.8</ele>
        <time>2024-06-13T14:41:22Z</time>
      </trkpt>
      <trkpt lat="43.6221" lon="1.28434">
        <ele>194.8</ele>
        <time>2024-06-13T14:41:23Z</time>
      </trkpt>
      <trkpt lat="43.6221" lon="1.28427">
        <ele>194.8</ele>
        <time>2024-06-13T14:41:24Z</time>
      </trkpt>
      <trkpt lat="43.6221" lon="1.28418">
        <ele>194.8</ele>
        <time>2024-06-13T14:41:25Z</time>
      </trkpt>
      <trkpt lat="43.6221" lon="1.28409">
        <ele>194.8</ele>
        <time>2024-06-13T14:41:26Z</time>
      </trkpt>
      <trkpt lat="43.6221" lon="1.28398">
        <ele>194.8</ele>
        <time>2024-06-13T14:41:27Z</time>
      </trkpt>
      <trkpt lat="43.6221" lon="1.28389">
        <ele>195</ele>
        <time>2024-06-13T14:41:28Z</time>
      </trkpt>
      <trkpt lat="43.6221" lon="1.2838">
        <ele>195.2</ele>
        <time>2024-06-13T14:41:29Z</time>
      </trkpt>
      <trkpt lat="43.6221" lon="1.28373">
        <ele>195.2</ele>
        <time>2024-06-13T14:41:30Z</time>
      </trkpt>
      <trkpt lat="43.6221" lon="1.28364">
        <ele>195.2</ele>
        <time>2024-06-13T14:41:31Z</time>
      </trkpt>
      <trkpt lat="43.6221" lon="1.28353">
        <ele>195.2</ele>
        <time>2024-06-13T14:41:32Z</time>
      </trkpt>
      <trkpt lat="43.62211" lon="1.28345">
        <ele>195.2</ele>
        <time>2024-06-13T14:41:33Z</time>
      </trkpt>
      <trkpt lat="43.62211" lon="1.28334">
        <ele>195.2</ele>
        <time>2024-06-13T14:41:34Z</time>
      </trkpt>
      <trkpt lat="43.62212" lon="1.28327">
        <ele>195.4</ele>
        <time>2024-06-13T14:41:35Z</time>
      </trkpt>
      <trkpt lat="43.62212" lon="1.28317">
        <ele>195.4</ele>
        <time>2024-06-13T14:41:36Z</time>
      </trkpt>
      <trkpt lat="43.62213" lon="1.28308">
        <ele>195.4</ele>
        <time>2024-06-13T14:41:37Z</time>
      </trkpt>
      <trkpt lat="43.62214" lon="1.28297">
        <ele>195.4</ele>
        <time>2024-06-13T14:41:38Z</time>
      </trkpt>
      <trkpt lat="43.62214" lon="1.28287">
        <ele>195.4</ele>
        <time>2024-06-13T14:41:39Z</time>
      </trkpt>
      <trkpt lat="43.62215" lon="1.2828">
        <ele>195.4</ele>
        <time>2024-06-13T14:41:40Z</time>
      </trkpt>
      <trkpt lat="43.62216" lon="1.2827">
        <ele>195.6</ele>
        <time>2024-06-13T14:41:41Z</time>
      </trkpt>
      <trkpt lat="43.62217" lon="1.28261">
        <ele>195.6</ele>
        <time>2024-06-13T14:41:42Z</time>
      </trkpt>
      <trkpt lat="43.62217" lon="1.28251">
        <ele>195.8</ele>
        <time>2024-06-13T14:41:43Z</time>
      </trkpt>
      <trkpt lat="43.62218" lon="1.28241">
        <ele>195.8</ele>
        <time>2024-06-13T14:41:44Z</time>
      </trkpt>
      <trkpt lat="43.62219" lon="1.28232">
        <ele>195.8</ele>
        <time>2024-06-13T14:41:45Z</time>
      </trkpt>
      <trkpt lat="43.62219" lon="1.28225">
        <ele>195.8</ele>
        <time>2024-06-13T14:41:46Z</time>
      </trkpt>
      <trkpt lat="43.62219" lon="1.28215">
        <ele>196</ele>
        <time>2024-06-13T14:41:47Z</time>
      </trkpt>
      <trkpt lat="43.6222" lon="1.28205">
        <ele>196</ele>
        <time>2024-06-13T14:41:48Z</time>
      </trkpt>
      <trkpt lat="43.62221" lon="1.28197">
        <ele>196</ele>
        <time>2024-06-13T14:41:49Z</time>
      </trkpt>
      <trkpt lat="43.62222" lon="1.28189">
        <ele>196.2</ele>
        <time>2024-06-13T14:41:50Z</time>
      </trkpt>
      <trkpt lat="43.62223" lon="1.2818">
        <ele>196.2</ele>
        <time>2024-06-13T14:41:51Z</time>
      </trkpt>
      <trkpt lat="43.62225" lon="1.28171">
        <ele>196.4</ele>
        <time>2024-06-13T14:41:52Z</time>
      </trkpt>
      <trkpt lat="43.62226" lon="1.28162">
        <ele>196.4</ele>
        <time>2024-06-13T14:41:53Z</time>
      </trkpt>
      <trkpt lat="43.62227" lon="1.28153">
        <ele>196.4</ele>
        <time>2024-06-13T14:41:54Z</time>
      </trkpt>
      <trkpt lat="43.62227" lon="1.28143">
        <ele>196.4</ele>
        <time>2024-06-13T14:41:55Z</time>
      </trkpt>
      <trkpt lat="43.62227" lon="1.28136">
        <ele>196.6</ele>
        <time>2024-06-13T14:41:56Z</time>
      </trkpt>
      <trkpt lat="43.62226" lon="1.28127">
        <ele>196.8</ele>
        <time>2024-06-13T14:41:57Z</time>
      </trkpt>
      <trkpt lat="43.62225" lon="1.28119">
        <ele>196.8</ele>
        <time>2024-06-13T14:41:58Z</time>
      </trkpt>
      <trkpt lat="43.62222" lon="1.2811">
        <ele>196.8</ele>
        <time>2024-06-13T14:41:59Z</time>
      </trkpt>
      <trkpt lat="43.62219" lon="1.28105">
        <ele>197</ele>
        <time>2024-06-13T14:42:00Z</time>
      </trkpt>
      <trkpt lat="43.62216" lon="1.28101">
        <ele>197</ele>
        <time>2024-06-13T14:42:01Z</time>
      </trkpt>
      <trkpt lat="43.62213" lon="1.28101">
        <ele>197.2</ele>
        <time>2024-06-13T14:42:02Z</time>
      </trkpt>
      <trkpt lat="43.62209" lon="1.281">
        <ele>197.2</ele>
        <time>2024-06-13T14:42:03Z</time>
      </trkpt>
      <trkpt lat="43.62205" lon="1.28099">
        <ele>197.4</ele>
        <time>2024-06-13T14:42:04Z</time>
      </trkpt>
      <trkpt lat="43.62202" lon="1.28098">
        <ele>197.8</ele>
        <time>2024-06-13T14:42:05Z</time>
      </trkpt>
      <trkpt lat="43.62199" lon="1.28096">
        <ele>198</ele>
        <time>2024-06-13T14:42:06Z</time>
      </trkpt>
      <trkpt lat="43.62197" lon="1.28094">
        <ele>198.2</ele>
        <time>2024-06-13T14:42:07Z</time>
      </trkpt>
      <trkpt lat="43.62193" lon="1.28093">
        <ele>198.2</ele>
        <time>2024-06-13T14:42:08Z</time>
      </trkpt>
      <trkpt lat="43.62188" lon="1.2809">
        <ele>198.4</ele>
        <time>2024-06-13T14:42:09Z</time>
      </trkpt>
      <trkpt lat="43.62183" lon="1.28089">
        <ele>198.4</ele>
        <time>2024-06-13T14:42:10Z</time>
      </trkpt>
      <trkpt lat="43.62179" lon="1.28088">
        <ele>198.4</ele>
        <time>2024-06-13T14:42:11Z</time>
      </trkpt>
      <trkpt lat="43.62177" lon="1.28088">
        <ele>198.4</ele>
        <time>2024-06-13T14:42:12Z</time>
      </trkpt>
      <trkpt lat="43.62174" lon="1.28087">
        <ele>198.2</ele>
        <time>2024-06-13T14:42:13Z</time>
      </trkpt>
      <trkpt lat="43.62171" lon="1.28087">
        <ele>198.2</ele>
        <time>2024-06-13T14:42:14Z</time>
      </trkpt>
      <trkpt lat="43.62168" lon="1.28087">
        <ele>198</ele>
        <time>2024-06-13T14:42:15Z</time>
      </trkpt>
      <trkpt lat="43.62165" lon="1.28088">
        <ele>197.8</ele>
        <time>2024-06-13T14:42:16Z</time>
      </trkpt>
      <trkpt lat="43.62162" lon="1.28089">
        <ele>197.8</ele>
        <time>2024-06-13T14:42:17Z</time>
      </trkpt>
      <trkpt lat="43.62159" lon="1.28089">
        <ele>197.6</ele>
        <time>2024-06-13T14:42:18Z</time>
      </trkpt>
      <trkpt lat="43.62155" lon="1.2809">
        <ele>197.6</ele>
        <time>2024-06-13T14:42:19Z</time>
      </trkpt>
      <trkpt lat="43.62148" lon="1.28091">
        <ele>197.6</ele>
        <time>2024-06-13T14:42:20Z</time>
      </trkpt>
      <trkpt lat="43.62144" lon="1.28091">
        <ele>197.6</ele>
        <time>2024-06-13T14:42:21Z</time>
      </trkpt>
      <trkpt lat="43.62133" lon="1.28092">
        <ele>197.4</ele>
        <time>2024-06-13T14:42:23Z</time>
      </trkpt>
      <trkpt lat="43.62127" lon="1.28092">
        <ele>197.4</ele>
        <time>2024-06-13T14:42:24Z</time>
      </trkpt>
      <trkpt lat="43.62122" lon="1.28093">
        <ele>197.4</ele>
        <time>2024-06-13T14:42:25Z</time>
      </trkpt>
      <trkpt lat="43.62115" lon="1.28094">
        <ele>197.2</ele>
        <time>2024-06-13T14:42:26Z</time>
      </trkpt>
      <trkpt lat="43.62111" lon="1.28095">
        <ele>197.2</ele>
        <time>2024-06-13T14:42:27Z</time>
      </trkpt>
      <trkpt lat="43.62106" lon="1.28096">
        <ele>197.2</ele>
        <time>2024-06-13T14:42:28Z</time>
      </trkpt>
      <trkpt lat="43.62101" lon="1.28099">
        <ele>197.4</ele>
        <time>2024-06-13T14:42:29Z</time>
      </trkpt>
      <trkpt lat="43.62096" lon="1.28102">
        <ele>197.4</ele>
        <time>2024-06-13T14:42:30Z</time>
      </trkpt>
      <trkpt lat="43.62091" lon="1.28104">
        <ele>197.4</ele>
        <time>2024-06-13T14:42:31Z</time>
      </trkpt>
      <trkpt lat="43.62085" lon="1.28106">
        <ele>197.4</ele>
        <time>2024-06-13T14:42:32Z</time>
      </trkpt>
      <trkpt lat="43.62081" lon="1.28106">
        <ele>197.4</ele>
        <time>2024-06-13T14:42:33Z</time>
      </trkpt>
      <trkpt lat="43.62076" lon="1.28107">
        <ele>197.6</ele>
        <time>2024-06-13T14:42:34Z</time>
      </trkpt>
      <trkpt lat="43.62071" lon="1.28107">
        <ele>197.8</ele>
        <time>2024-06-13T14:42:35Z</time>
      </trkpt>
      <trkpt lat="43.62065" lon="1.28107">
        <ele>197.8</ele>
        <time>2024-06-13T14:42:36Z</time>
      </trkpt>
      <trkpt lat="43.62061" lon="1.28108">
        <ele>197.8</ele>
        <time>2024-06-13T14:42:37Z</time>
      </trkpt>
      <trkpt lat="43.62056" lon="1.28109">
        <ele>198</ele>
        <time>2024-06-13T14:42:38Z</time>
      </trkpt>
      <trkpt lat="43.62051" lon="1.28109">
        <ele>198</ele>
        <time>2024-06-13T14:42:39Z</time>
      </trkpt>
      <trkpt lat="43.62047" lon="1.2811">
        <ele>198.6</ele>
        <time>2024-06-13T14:42:40Z</time>
      </trkpt>
      <trkpt lat="43.62042" lon="1.2811">
        <ele>198.8</ele>
        <time>2024-06-13T14:42:41Z</time>
      </trkpt>
      <trkpt lat="43.62038" lon="1.2811">
        <ele>199.2</ele>
        <time>2024-06-13T14:42:42Z</time>
      </trkpt>
      <trkpt lat="43.62035" lon="1.28108">
        <ele>199.4</ele>
        <time>2024-06-13T14:42:43Z</time>
      </trkpt>
      <trkpt lat="43.62033" lon="1.28105">
        <ele>199.8</ele>
        <time>2024-06-13T14:42:44Z</time>
      </trkpt>
      <trkpt lat="43.62032" lon="1.281">
        <ele>200.2</ele>
        <time>2024-06-13T14:42:45Z</time>
      </trkpt>
      <trkpt lat="43.62031" lon="1.28095">
        <ele>200.4</ele>
        <time>2024-06-13T14:42:46Z</time>
      </trkpt>
      <trkpt lat="43.62029" lon="1.28088">
        <ele>200.8</ele>
        <time>2024-06-13T14:42:47Z</time>
      </trkpt>
      <trkpt lat="43.62028" lon="1.28081">
        <ele>201</ele>
        <time>2024-06-13T14:42:48Z</time>
      </trkpt>
      <trkpt lat="43.62027" lon="1.28076">
        <ele>201.2</ele>
        <time>2024-06-13T14:42:49Z</time>
      </trkpt>
      <trkpt lat="43.62026" lon="1.28069">
        <ele>201.4</ele>
        <time>2024-06-13T14:42:50Z</time>
      </trkpt>
      <trkpt lat="43.62026" lon="1.28062">
        <ele>201.4</ele>
        <time>2024-06-13T14:42:51Z</time>
      </trkpt>
      <trkpt lat="43.62025" lon="1.28054">
        <ele>201.6</ele>
        <time>2024-06-13T14:42:52Z</time>
      </trkpt>
      <trkpt lat="43.62025" lon="1.28046">
        <ele>201.6</ele>
        <time>2024-06-13T14:42:53Z</time>
      </trkpt>
      <trkpt lat="43.62024" lon="1.28041">
        <ele>201.6</ele>
        <time>2024-06-13T14:42:54Z</time>
      </trkpt>
      <trkpt lat="43.62024" lon="1.28041">
        <ele>201.8</ele>
        <time>2024-06-13T14:42:55Z</time>
      </trkpt>
      <trkpt lat="43.62022" lon="1.28026">
        <ele>201.8</ele>
        <time>2024-06-13T14:42:56Z</time>
      </trkpt>
      <trkpt lat="43.62021" lon="1.28018">
        <ele>201.8</ele>
        <time>2024-06-13T14:42:57Z</time>
      </trkpt>
      <trkpt lat="43.6202" lon="1.28009">
        <ele>201.8</ele>
        <time>2024-06-13T14:42:58Z</time>
      </trkpt>
      <trkpt lat="43.62019" lon="1.28002">
        <ele>202</ele>
        <time>2024-06-13T14:42:59Z</time>
      </trkpt>
      <trkpt lat="43.62018" lon="1.27995">
        <ele>202.2</ele>
        <time>2024-06-13T14:43:00Z</time>
      </trkpt>
      <trkpt lat="43.62017" lon="1.27987">
        <ele>202.2</ele>
        <time>2024-06-13T14:43:01Z</time>
      </trkpt>
      <trkpt lat="43.62016" lon="1.27978">
        <ele>202.4</ele>
        <time>2024-06-13T14:43:02Z</time>
      </trkpt>
      <trkpt lat="43.62015" lon="1.27971">
        <ele>202.4</ele>
        <time>2024-06-13T14:43:03Z</time>
      </trkpt>
      <trkpt lat="43.62014" lon="1.27962">
        <ele>202.4</ele>
        <time>2024-06-13T14:43:04Z</time>
      </trkpt>
      <trkpt lat="43.62014" lon="1.27954">
        <ele>202.6</ele>
        <time>2024-06-13T14:43:05Z</time>
      </trkpt>
      <trkpt lat="43.62013" lon="1.27946">
        <ele>202.6</ele>
        <time>2024-06-13T14:43:06Z</time>
      </trkpt>
      <trkpt lat="43.62012" lon="1.27938">
        <ele>202.6</ele>
        <time>2024-06-13T14:43:07Z</time>
      </trkpt>
      <trkpt lat="43.62011" lon="1.2793">
        <ele>202.6</ele>
        <time>2024-06-13T14:43:08Z</time>
      </trkpt>
      <trkpt lat="43.6201" lon="1.27921">
        <ele>202.6</ele>
        <time>2024-06-13T14:43:09Z</time>
      </trkpt>
      <trkpt lat="43.62009" lon="1.27913">
        <ele>202.6</ele>
        <time>2024-06-13T14:43:10Z</time>
      </trkpt>
      <trkpt lat="43.62008" lon="1.27904">
        <ele>202.6</ele>
        <time>2024-06-13T14:43:11Z</time>
      </trkpt>
      <trkpt lat="43.62007" lon="1.27896">
        <ele>202.6</ele>
        <time>2024-06-13T14:43:12Z</time>
      </trkpt>
      <trkpt lat="43.62006" lon="1.27888">
        <ele>202.6</ele>
        <time>2024-06-13T14:43:13Z</time>
      </trkpt>
      <trkpt lat="43.62005" lon="1.2788">
        <ele>202.6</ele>
        <time>2024-06-13T14:43:14Z</time>
      </trkpt>
      <trkpt lat="43.62004" lon="1.27871">
        <ele>202.6</ele>
        <time>2024-06-13T14:43:15Z</time>
      </trkpt>
      <trkpt lat="43.62003" lon="1.27863">
        <ele>202.6</ele>
        <time>2024-06-13T14:43:16Z</time>
      </trkpt>
      <trkpt lat="43.62002" lon="1.27855">
        <ele>202.6</ele>
        <time>2024-06-13T14:43:17Z</time>
      </trkpt>
      <trkpt lat="43.62001" lon="1.27847">
        <ele>202.8</ele>
        <time>2024-06-13T14:43:18Z</time>
      </trkpt>
      <trkpt lat="43.62" lon="1.27838">
        <ele>202.8</ele>
        <time>2024-06-13T14:43:19Z</time>
      </trkpt>
      <trkpt lat="43.61999" lon="1.2783">
        <ele>202.8</ele>
        <time>2024-06-13T14:43:20Z</time>
      </trkpt>
      <trkpt lat="43.61998" lon="1.27821">
        <ele>202.8</ele>
        <time>2024-06-13T14:43:21Z</time>
      </trkpt>
      <trkpt lat="43.61997" lon="1.27812">
        <ele>203</ele>
        <time>2024-06-13T14:43:22Z</time>
      </trkpt>
      <trkpt lat="43.61995" lon="1.27803">
        <ele>203</ele>
        <time>2024-06-13T14:43:23Z</time>
      </trkpt>
      <trkpt lat="43.61995" lon="1.27796">
        <ele>203</ele>
        <time>2024-06-13T14:43:24Z</time>
      </trkpt>
      <trkpt lat="43.61994" lon="1.27787">
        <ele>203</ele>
        <time>2024-06-13T14:43:25Z</time>
      </trkpt>
      <trkpt lat="43.61993" lon="1.27778">
        <ele>203</ele>
        <time>2024-06-13T14:43:26Z</time>
      </trkpt>
      <trkpt lat="43.61992" lon="1.27769">
        <ele>203</ele>
        <time>2024-06-13T14:43:27Z</time>
      </trkpt>
      <trkpt lat="43.61992" lon="1.2776">
        <ele>203</ele>
        <time>2024-06-13T14:43:28Z</time>
      </trkpt>
      <trkpt lat="43.61993" lon="1.27751">
        <ele>203</ele>
        <time>2024-06-13T14:43:29Z</time>
      </trkpt>
      <trkpt lat="43.61995" lon="1.2774">
        <ele>203</ele>
        <time>2024-06-13T14:43:30Z</time>
      </trkpt>
      <trkpt lat="43.61996" lon="1.27732">
        <ele>202.8</ele>
        <time>2024-06-13T14:43:31Z</time>
      </trkpt>
      <trkpt lat="43.61997" lon="1.27723">
        <ele>202.8</ele>
        <time>2024-06-13T14:43:32Z</time>
      </trkpt>
      <trkpt lat="43.61998" lon="1.27713">
        <ele>202.6</ele>
        <time>2024-06-13T14:43:33Z</time>
      </trkpt>
      <trkpt lat="43.61998" lon="1.27702">
        <ele>202.4</ele>
        <time>2024-06-13T14:43:34Z</time>
      </trkpt>
      <trkpt lat="43.61998" lon="1.27693">
        <ele>202.4</ele>
        <time>2024-06-13T14:43:35Z</time>
      </trkpt>
      <trkpt lat="43.61997" lon="1.27684">
        <ele>202.2</ele>
        <time>2024-06-13T14:43:36Z</time>
      </trkpt>
      <trkpt lat="43.61995" lon="1.27677">
        <ele>202.2</ele>
        <time>2024-06-13T14:43:37Z</time>
      </trkpt>
      <trkpt lat="43.61992" lon="1.2767">
        <ele>202.2</ele>
        <time>2024-06-13T14:43:38Z</time>
      </trkpt>
      <trkpt lat="43.61988" lon="1.27666">
        <ele>202.2</ele>
        <time>2024-06-13T14:43:39Z</time>
      </trkpt>
      <trkpt lat="43.61984" lon="1.27662">
        <ele>202</ele>
        <time>2024-06-13T14:43:40Z</time>
      </trkpt>
      <trkpt lat="43.61981" lon="1.27656">
        <ele>202</ele>
        <time>2024-06-13T14:43:41Z</time>
      </trkpt>
      <trkpt lat="43.61978" lon="1.2765">
        <ele>202</ele>
        <time>2024-06-13T14:43:42Z</time>
      </trkpt>
      <trkpt lat="43.61977" lon="1.27643">
        <ele>202.2</ele>
        <time>2024-06-13T14:43:43Z</time>
      </trkpt>
      <trkpt lat="43.61976" lon="1.27636">
        <ele>202.2</ele>
        <time>2024-06-13T14:43:44Z</time>
      </trkpt>
      <trkpt lat="43.61975" lon="1.27628">
        <ele>202.2</ele>
        <time>2024-06-13T14:43:45Z</time>
      </trkpt>
      <trkpt lat="43.61975" lon="1.2762">
        <ele>202.4</ele>
        <time>2024-06-13T14:43:46Z</time>
      </trkpt>
      <trkpt lat="43.61974" lon="1.27612">
        <ele>202.6</ele>
        <time>2024-06-13T14:43:47Z</time>
      </trkpt>
      <trkpt lat="43.61974" lon="1.27604">
        <ele>202.8</ele>
        <time>2024-06-13T14:43:48Z</time>
      </trkpt>
      <trkpt lat="43.61974" lon="1.27596">
        <ele>202.8</ele>
        <time>2024-06-13T14:43:49Z</time>
      </trkpt>
      <trkpt lat="43.61974" lon="1.27587">
        <ele>202.8</ele>
        <time>2024-06-13T14:43:50Z</time>
      </trkpt>
      <trkpt lat="43.61974" lon="1.27578">
        <ele>202.8</ele>
        <time>2024-06-13T14:43:51Z</time>
      </trkpt>
      <trkpt lat="43.61974" lon="1.2757">
        <ele>202.8</ele>
        <time>2024-06-13T14:43:52Z</time>
      </trkpt>
      <trkpt lat="43.61974" lon="1.27561">
        <ele>202.8</ele>
        <time>2024-06-13T14:43:53Z</time>
      </trkpt>
      <trkpt lat="43.61973" lon="1.27552">
        <ele>202.8</ele>
        <time>2024-06-13T14:43:54Z</time>
      </trkpt>
      <trkpt lat="43.61973" lon="1.27543">
        <ele>202.8</ele>
        <time>2024-06-13T14:43:55Z</time>
      </trkpt>
      <trkpt lat="43.61972" lon="1.27533">
        <ele>202.8</ele>
        <time>2024-06-13T14:43:56Z</time>
      </trkpt>
      <trkpt lat="43.61972" lon="1.27524">
        <ele>202.6</ele>
        <time>2024-06-13T14:43:57Z</time>
      </trkpt>
      <trkpt lat="43.61971" lon="1.27514">
        <ele>202.6</ele>
        <time>2024-06-13T14:43:58Z</time>
      </trkpt>
      <trkpt lat="43.61969" lon="1.27504">
        <ele>202.6</ele>
        <time>2024-06-13T14:43:59Z</time>
      </trkpt>
      <trkpt lat="43.61968" lon="1.27494">
        <ele>202.4</ele>
        <time>2024-06-13T14:44:00Z</time>
      </trkpt>
      <trkpt lat="43.61968" lon="1.27485">
        <ele>202.4</ele>
        <time>2024-06-13T14:44:01Z</time>
      </trkpt>
      <trkpt lat="43.61968" lon="1.27476">
        <ele>202.2</ele>
        <time>2024-06-13T14:44:02Z</time>
      </trkpt>
      <trkpt lat="43.61968" lon="1.27467">
        <ele>202.2</ele>
        <time>2024-06-13T14:44:03Z</time>
      </trkpt>
      <trkpt lat="43.61968" lon="1.2746">
        <ele>202.2</ele>
        <time>2024-06-13T14:44:04Z</time>
      </trkpt>
      <trkpt lat="43.61967" lon="1.27451">
        <ele>202.2</ele>
        <time>2024-06-13T14:44:05Z</time>
      </trkpt>
      <trkpt lat="43.61966" lon="1.2744">
        <ele>202.2</ele>
        <time>2024-06-13T14:44:06Z</time>
      </trkpt>
      <trkpt lat="43.61965" lon="1.27431">
        <ele>202.2</ele>
        <time>2024-06-13T14:44:07Z</time>
      </trkpt>
      <trkpt lat="43.61964" lon="1.27422">
        <ele>202.2</ele>
        <time>2024-06-13T14:44:08Z</time>
      </trkpt>
      <trkpt lat="43.61964" lon="1.27415">
        <ele>202.2</ele>
        <time>2024-06-13T14:44:09Z</time>
      </trkpt>
      <trkpt lat="43.61964" lon="1.27406">
        <ele>202.2</ele>
        <time>2024-06-13T14:44:10Z</time>
      </trkpt>
      <trkpt lat="43.61963" lon="1.27394">
        <ele>202.2</ele>
        <time>2024-06-13T14:44:11Z</time>
      </trkpt>
      <trkpt lat="43.61962" lon="1.27385">
        <ele>202.2</ele>
        <time>2024-06-13T14:44:12Z</time>
      </trkpt>
      <trkpt lat="43.61961" lon="1.27376">
        <ele>202.2</ele>
        <time>2024-06-13T14:44:13Z</time>
      </trkpt>
      <trkpt lat="43.6196" lon="1.27366">
        <ele>202.2</ele>
        <time>2024-06-13T14:44:14Z</time>
      </trkpt>
      <trkpt lat="43.61959" lon="1.27357">
        <ele>202.4</ele>
        <time>2024-06-13T14:44:15Z</time>
      </trkpt>
      <trkpt lat="43.61958" lon="1.27347">
        <ele>202.4</ele>
        <time>2024-06-13T14:44:16Z</time>
      </trkpt>
      <trkpt lat="43.61957" lon="1.27338">
        <ele>202.4</ele>
        <time>2024-06-13T14:44:17Z</time>
      </trkpt>
      <trkpt lat="43.61956" lon="1.27328">
        <ele>202.4</ele>
        <time>2024-06-13T14:44:18Z</time>
      </trkpt>
      <trkpt lat="43.61956" lon="1.27319">
        <ele>202.2</ele>
        <time>2024-06-13T14:44:19Z</time>
      </trkpt>
      <trkpt lat="43.61955" lon="1.27309">
        <ele>202.2</ele>
        <time>2024-06-13T14:44:20Z</time>
      </trkpt>
      <trkpt lat="43.61954" lon="1.273">
        <ele>202.2</ele>
        <time>2024-06-13T14:44:21Z</time>
      </trkpt>
      <trkpt lat="43.61953" lon="1.27291">
        <ele>202.2</ele>
        <time>2024-06-13T14:44:22Z</time>
      </trkpt>
      <trkpt lat="43.61951" lon="1.27281">
        <ele>202.2</ele>
        <time>2024-06-13T14:44:23Z</time>
      </trkpt>
      <trkpt lat="43.6195" lon="1.27272">
        <ele>202.2</ele>
        <time>2024-06-13T14:44:24Z</time>
      </trkpt>
      <trkpt lat="43.61949" lon="1.27263">
        <ele>202</ele>
        <time>2024-06-13T14:44:25Z</time>
      </trkpt>
      <trkpt lat="43.61947" lon="1.27253">
        <ele>202</ele>
        <time>2024-06-13T14:44:26Z</time>
      </trkpt>
      <trkpt lat="43.61946" lon="1.27244">
        <ele>202</ele>
        <time>2024-06-13T14:44:27Z</time>
      </trkpt>
      <trkpt lat="43.61945" lon="1.27235">
        <ele>202</ele>
        <time>2024-06-13T14:44:28Z</time>
      </trkpt>
      <trkpt lat="43.61944" lon="1.27225">
        <ele>201.8</ele>
        <time>2024-06-13T14:44:29Z</time>
      </trkpt>
      <trkpt lat="43.61944" lon="1.27216">
        <ele>201.8</ele>
        <time>2024-06-13T14:44:30Z</time>
      </trkpt>
      <trkpt lat="43.61943" lon="1.27207">
        <ele>201.8</ele>
        <time>2024-06-13T14:44:31Z</time>
      </trkpt>
      <trkpt lat="43.61942" lon="1.272">
        <ele>201.8</ele>
        <time>2024-06-13T14:44:32Z</time>
      </trkpt>
      <trkpt lat="43.61941" lon="1.2719">
        <ele>202</ele>
        <time>2024-06-13T14:44:33Z</time>
      </trkpt>
      <trkpt lat="43.6194" lon="1.27181">
        <ele>202</ele>
        <time>2024-06-13T14:44:34Z</time>
      </trkpt>
      <trkpt lat="43.61939" lon="1.27173">
        <ele>202</ele>
        <time>2024-06-13T14:44:35Z</time>
      </trkpt>
      <trkpt lat="43.61938" lon="1.27166">
        <ele>202.2</ele>
        <time>2024-06-13T14:44:36Z</time>
      </trkpt>
      <trkpt lat="43.61937" lon="1.27158">
        <ele>202.4</ele>
        <time>2024-06-13T14:44:37Z</time>
      </trkpt>
      <trkpt lat="43.61936" lon="1.27148">
        <ele>202.4</ele>
        <time>2024-06-13T14:44:38Z</time>
      </trkpt>
      <trkpt lat="43.61935" lon="1.2714">
        <ele>202.4</ele>
        <time>2024-06-13T14:44:39Z</time>
      </trkpt>
      <trkpt lat="43.61934" lon="1.27133">
        <ele>202.4</ele>
        <time>2024-06-13T14:44:40Z</time>
      </trkpt>
      <trkpt lat="43.61934" lon="1.27126">
        <ele>202.4</ele>
        <time>2024-06-13T14:44:41Z</time>
      </trkpt>
      <trkpt lat="43.61932" lon="1.27117">
        <ele>202.6</ele>
        <time>2024-06-13T14:44:42Z</time>
      </trkpt>
      <trkpt lat="43.61932" lon="1.27108">
        <ele>202.6</ele>
        <time>2024-06-13T14:44:43Z</time>
      </trkpt>
      <trkpt lat="43.61931" lon="1.271">
        <ele>202.6</ele>
        <time>2024-06-13T14:44:44Z</time>
      </trkpt>
      <trkpt lat="43.6193" lon="1.27091">
        <ele>202.8</ele>
        <time>2024-06-13T14:44:45Z</time>
      </trkpt>
      <trkpt lat="43.61929" lon="1.27083">
        <ele>202.8</ele>
        <time>2024-06-13T14:44:46Z</time>
      </trkpt>
      <trkpt lat="43.61927" lon="1.27074">
        <ele>202.8</ele>
        <time>2024-06-13T14:44:47Z</time>
      </trkpt>
      <trkpt lat="43.61926" lon="1.27066">
        <ele>203</ele>
        <time>2024-06-13T14:44:48Z</time>
      </trkpt>
      <trkpt lat="43.61925" lon="1.27058">
        <ele>203</ele>
        <time>2024-06-13T14:44:49Z</time>
      </trkpt>
      <trkpt lat="43.61924" lon="1.2705">
        <ele>203.2</ele>
        <time>2024-06-13T14:44:50Z</time>
      </trkpt>
      <trkpt lat="43.61923" lon="1.27042">
        <ele>203.4</ele>
        <time>2024-06-13T14:44:51Z</time>
      </trkpt>
      <trkpt lat="43.61921" lon="1.27034">
        <ele>203.6</ele>
        <time>2024-06-13T14:44:52Z</time>
      </trkpt>
      <trkpt lat="43.6192" lon="1.27026">
        <ele>203.6</ele>
        <time>2024-06-13T14:44:53Z</time>
      </trkpt>
      <trkpt lat="43.61918" lon="1.27018">
        <ele>203.6</ele>
        <time>2024-06-13T14:44:54Z</time>
      </trkpt>
      <trkpt lat="43.61917" lon="1.2701">
        <ele>203.6</ele>
        <time>2024-06-13T14:44:55Z</time>
      </trkpt>
      <trkpt lat="43.61915" lon="1.27003">
        <ele>203.6</ele>
        <time>2024-06-13T14:44:56Z</time>
      </trkpt>
      <trkpt lat="43.61914" lon="1.26996">
        <ele>203.6</ele>
        <time>2024-06-13T14:44:57Z</time>
      </trkpt>
      <trkpt lat="43.61912" lon="1.26988">
        <ele>203.6</ele>
        <time>2024-06-13T14:44:58Z</time>
      </trkpt>
      <trkpt lat="43.6191" lon="1.2698">
        <ele>203.6</ele>
        <time>2024-06-13T14:44:59Z</time>
      </trkpt>
      <trkpt lat="43.61908" lon="1.26972">
        <ele>203.6</ele>
        <time>2024-06-13T14:45:00Z</time>
      </trkpt>
      <trkpt lat="43.61907" lon="1.26965">
        <ele>203.6</ele>
        <time>2024-06-13T14:45:01Z</time>
      </trkpt>
      <trkpt lat="43.61905" lon="1.26957">
        <ele>203.6</ele>
        <time>2024-06-13T14:45:02Z</time>
      </trkpt>
      <trkpt lat="43.61903" lon="1.26949">
        <ele>203.8</ele>
        <time>2024-06-13T14:45:03Z</time>
      </trkpt>
      <trkpt lat="43.61902" lon="1.26943">
        <ele>203.8</ele>
        <time>2024-06-13T14:45:04Z</time>
      </trkpt>
      <trkpt lat="43.61899" lon="1.26934">
        <ele>203.8</ele>
        <time>2024-06-13T14:45:05Z</time>
      </trkpt>
      <trkpt lat="43.61897" lon="1.26926">
        <ele>203.8</ele>
        <time>2024-06-13T14:45:06Z</time>
      </trkpt>
      <trkpt lat="43.61896" lon="1.26918">
        <ele>204</ele>
        <time>2024-06-13T14:45:07Z</time>
      </trkpt>
      <trkpt lat="43.61894" lon="1.2691">
        <ele>204</ele>
        <time>2024-06-13T14:45:08Z</time>
      </trkpt>
      <trkpt lat="43.61893" lon="1.26901">
        <ele>204</ele>
        <time>2024-06-13T14:45:09Z</time>
      </trkpt>
      <trkpt lat="43.6189" lon="1.26889">
        <ele>204</ele>
        <time>2024-06-13T14:45:10Z</time>
      </trkpt>
      <trkpt lat="43.61889" lon="1.26879">
        <ele>204</ele>
        <time>2024-06-13T14:45:11Z</time>
      </trkpt>
      <trkpt lat="43.61888" lon="1.26869">
        <ele>204</ele>
        <time>2024-06-13T14:45:12Z</time>
      </trkpt>
      <trkpt lat="43.61887" lon="1.26862">
        <ele>203.8</ele>
        <time>2024-06-13T14:45:13Z</time>
      </trkpt>
      <trkpt lat="43.61886" lon="1.26852">
        <ele>203.8</ele>
        <time>2024-06-13T14:45:14Z</time>
      </trkpt>
      <trkpt lat="43.61886" lon="1.26842">
        <ele>203.8</ele>
        <time>2024-06-13T14:45:15Z</time>
      </trkpt>
      <trkpt lat="43.61885" lon="1.26833">
        <ele>203.8</ele>
        <time>2024-06-13T14:45:16Z</time>
      </trkpt>
      <trkpt lat="43.61884" lon="1.26825">
        <ele>204</ele>
        <time>2024-06-13T14:45:17Z</time>
      </trkpt>
      <trkpt lat="43.61883" lon="1.26818">
        <ele>204</ele>
        <time>2024-06-13T14:45:18Z</time>
      </trkpt>
      <trkpt lat="43.61882" lon="1.2681">
        <ele>204</ele>
        <time>2024-06-13T14:45:19Z</time>
      </trkpt>
      <trkpt lat="43.61881" lon="1.26801">
        <ele>204</ele>
        <time>2024-06-13T14:45:20Z</time>
      </trkpt>
      <trkpt lat="43.6188" lon="1.26791">
        <ele>204</ele>
        <time>2024-06-13T14:45:21Z</time>
      </trkpt>
      <trkpt lat="43.61879" lon="1.26783">
        <ele>204</ele>
        <time>2024-06-13T14:45:22Z</time>
      </trkpt>
      <trkpt lat="43.61877" lon="1.26775">
        <ele>204.2</ele>
        <time>2024-06-13T14:45:23Z</time>
      </trkpt>
      <trkpt lat="43.61876" lon="1.26768">
        <ele>204.4</ele>
        <time>2024-06-13T14:45:24Z</time>
      </trkpt>
      <trkpt lat="43.61874" lon="1.2676">
        <ele>204.4</ele>
        <time>2024-06-13T14:45:25Z</time>
      </trkpt>
      <trkpt lat="43.61872" lon="1.2675">
        <ele>204.4</ele>
        <time>2024-06-13T14:45:26Z</time>
      </trkpt>
      <trkpt lat="43.61871" lon="1.26742">
        <ele>204.6</ele>
        <time>2024-06-13T14:45:27Z</time>
      </trkpt>
      <trkpt lat="43.61869" lon="1.26733">
        <ele>204.6</ele>
        <time>2024-06-13T14:45:28Z</time>
      </trkpt>
      <trkpt lat="43.61868" lon="1.26726">
        <ele>204.6</ele>
        <time>2024-06-13T14:45:29Z</time>
      </trkpt>
      <trkpt lat="43.61867" lon="1.26717">
        <ele>204.6</ele>
        <time>2024-06-13T14:45:30Z</time>
      </trkpt>
      <trkpt lat="43.61865" lon="1.26708">
        <ele>204.8</ele>
        <time>2024-06-13T14:45:31Z</time>
      </trkpt>
      <trkpt lat="43.61863" lon="1.26697">
        <ele>204.8</ele>
        <time>2024-06-13T14:45:32Z</time>
      </trkpt>
      <trkpt lat="43.61861" lon="1.26688">
        <ele>204.8</ele>
        <time>2024-06-13T14:45:33Z</time>
      </trkpt>
      <trkpt lat="43.6186" lon="1.26681">
        <ele>204.8</ele>
        <time>2024-06-13T14:45:34Z</time>
      </trkpt>
      <trkpt lat="43.61858" lon="1.26671">
        <ele>204.8</ele>
        <time>2024-06-13T14:45:35Z</time>
      </trkpt>
      <trkpt lat="43.61856" lon="1.26662">
        <ele>204.8</ele>
        <time>2024-06-13T14:45:36Z</time>
      </trkpt>
      <trkpt lat="43.61855" lon="1.26652">
        <ele>204.8</ele>
        <time>2024-06-13T14:45:37Z</time>
      </trkpt>
      <trkpt lat="43.61854" lon="1.26643">
        <ele>204.6</ele>
        <time>2024-06-13T14:45:38Z</time>
      </trkpt>
      <trkpt lat="43.61852" lon="1.26634">
        <ele>204.6</ele>
        <time>2024-06-13T14:45:39Z</time>
      </trkpt>
      <trkpt lat="43.61851" lon="1.26627">
        <ele>204.6</ele>
        <time>2024-06-13T14:45:40Z</time>
      </trkpt>
      <trkpt lat="43.6185" lon="1.26618">
        <ele>204.6</ele>
        <time>2024-06-13T14:45:41Z</time>
      </trkpt>
      <trkpt lat="43.61848" lon="1.26608">
        <ele>204.6</ele>
        <time>2024-06-13T14:45:42Z</time>
      </trkpt>
      <trkpt lat="43.61847" lon="1.26599">
        <ele>204.6</ele>
        <time>2024-06-13T14:45:43Z</time>
      </trkpt>
      <trkpt lat="43.61845" lon="1.2659">
        <ele>204.6</ele>
        <time>2024-06-13T14:45:44Z</time>
      </trkpt>
      <trkpt lat="43.61844" lon="1.26582">
        <ele>204.6</ele>
        <time>2024-06-13T14:45:45Z</time>
      </trkpt>
      <trkpt lat="43.61843" lon="1.26575">
        <ele>204.8</ele>
        <time>2024-06-13T14:45:46Z</time>
      </trkpt>
      <trkpt lat="43.61842" lon="1.26567">
        <ele>204.8</ele>
        <time>2024-06-13T14:45:47Z</time>
      </trkpt>
      <trkpt lat="43.6184" lon="1.26557">
        <ele>205</ele>
        <time>2024-06-13T14:45:48Z</time>
      </trkpt>
      <trkpt lat="43.61838" lon="1.26549">
        <ele>205</ele>
        <time>2024-06-13T14:45:49Z</time>
      </trkpt>
      <trkpt lat="43.61837" lon="1.26542">
        <ele>205.2</ele>
        <time>2024-06-13T14:45:50Z</time>
      </trkpt>
      <trkpt lat="43.61836" lon="1.26534">
        <ele>205.2</ele>
        <time>2024-06-13T14:45:51Z</time>
      </trkpt>
      <trkpt lat="43.61834" lon="1.26526">
        <ele>205.2</ele>
        <time>2024-06-13T14:45:52Z</time>
      </trkpt>
      <trkpt lat="43.61833" lon="1.26515">
        <ele>205.4</ele>
        <time>2024-06-13T14:45:53Z</time>
      </trkpt>
      <trkpt lat="43.61831" lon="1.26506">
        <ele>205.4</ele>
        <time>2024-06-13T14:45:54Z</time>
      </trkpt>
      <trkpt lat="43.6183" lon="1.26496">
        <ele>205.4</ele>
        <time>2024-06-13T14:45:55Z</time>
      </trkpt>
      <trkpt lat="43.61828" lon="1.26489">
        <ele>205.4</ele>
        <time>2024-06-13T14:45:56Z</time>
      </trkpt>
      <trkpt lat="43.61826" lon="1.2648">
        <ele>205.4</ele>
        <time>2024-06-13T14:45:57Z</time>
      </trkpt>
      <trkpt lat="43.61824" lon="1.26471">
        <ele>205.4</ele>
        <time>2024-06-13T14:45:58Z</time>
      </trkpt>
      <trkpt lat="43.61822" lon="1.2646">
        <ele>205</ele>
        <time>2024-06-13T14:45:59Z</time>
      </trkpt>
      <trkpt lat="43.6182" lon="1.26451">
        <ele>205</ele>
        <time>2024-06-13T14:46:00Z</time>
      </trkpt>
      <trkpt lat="43.61819" lon="1.26444">
        <ele>204.8</ele>
        <time>2024-06-13T14:46:01Z</time>
      </trkpt>
      <trkpt lat="43.61817" lon="1.26434">
        <ele>204.4</ele>
        <time>2024-06-13T14:46:02Z</time>
      </trkpt>
      <trkpt lat="43.61814" lon="1.26423">
        <ele>204.2</ele>
        <time>2024-06-13T14:46:03Z</time>
      </trkpt>
      <trkpt lat="43.61812" lon="1.26414">
        <ele>204</ele>
        <time>2024-06-13T14:46:04Z</time>
      </trkpt>
      <trkpt lat="43.6181" lon="1.26405">
        <ele>204</ele>
        <time>2024-06-13T14:46:05Z</time>
      </trkpt>
      <trkpt lat="43.61807" lon="1.26396">
        <ele>203.8</ele>
        <time>2024-06-13T14:46:06Z</time>
      </trkpt>
      <trkpt lat="43.61805" lon="1.26387">
        <ele>203.8</ele>
        <time>2024-06-13T14:46:07Z</time>
      </trkpt>
      <trkpt lat="43.61803" lon="1.26378">
        <ele>203.8</ele>
        <time>2024-06-13T14:46:08Z</time>
      </trkpt>
      <trkpt lat="43.61801" lon="1.26369">
        <ele>203.8</ele>
        <time>2024-06-13T14:46:09Z</time>
      </trkpt>
      <trkpt lat="43.61799" lon="1.2636">
        <ele>203.8</ele>
        <time>2024-06-13T14:46:10Z</time>
      </trkpt>
      <trkpt lat="43.61796" lon="1.26351">
        <ele>203.8</ele>
        <time>2024-06-13T14:46:11Z</time>
      </trkpt>
      <trkpt lat="43.61794" lon="1.26342">
        <ele>203.8</ele>
        <time>2024-06-13T14:46:12Z</time>
      </trkpt>
      <trkpt lat="43.61792" lon="1.26333">
        <ele>203.8</ele>
        <time>2024-06-13T14:46:13Z</time>
      </trkpt>
      <trkpt lat="43.6179" lon="1.26325">
        <ele>203.8</ele>
        <time>2024-06-13T14:46:14Z</time>
      </trkpt>
      <trkpt lat="43.61788" lon="1.26316">
        <ele>203.8</ele>
        <time>2024-06-13T14:46:15Z</time>
      </trkpt>
      <trkpt lat="43.61786" lon="1.26308">
        <ele>203.8</ele>
        <time>2024-06-13T14:46:16Z</time>
      </trkpt>
      <trkpt lat="43.61784" lon="1.26301">
        <ele>203.8</ele>
        <time>2024-06-13T14:46:17Z</time>
      </trkpt>
      <trkpt lat="43.61782" lon="1.26292">
        <ele>204</ele>
        <time>2024-06-13T14:46:18Z</time>
      </trkpt>
      <trkpt lat="43.6178" lon="1.26284">
        <ele>204</ele>
        <time>2024-06-13T14:46:19Z</time>
      </trkpt>
      <trkpt lat="43.61778" lon="1.26274">
        <ele>204</ele>
        <time>2024-06-13T14:46:20Z</time>
      </trkpt>
      <trkpt lat="43.61776" lon="1.26265">
        <ele>204</ele>
        <time>2024-06-13T14:46:21Z</time>
      </trkpt>
      <trkpt lat="43.61774" lon="1.26257">
        <ele>204</ele>
        <time>2024-06-13T14:46:22Z</time>
      </trkpt>
      <trkpt lat="43.61773" lon="1.2625">
        <ele>204.4</ele>
        <time>2024-06-13T14:46:23Z</time>
      </trkpt>
      <trkpt lat="43.61771" lon="1.26239">
        <ele>204.4</ele>
        <time>2024-06-13T14:46:24Z</time>
      </trkpt>
      <trkpt lat="43.61769" lon="1.26231">
        <ele>204.6</ele>
        <time>2024-06-13T14:46:25Z</time>
      </trkpt>
      <trkpt lat="43.61767" lon="1.26222">
        <ele>204.6</ele>
        <time>2024-06-13T14:46:26Z</time>
      </trkpt>
      <trkpt lat="43.61765" lon="1.26213">
        <ele>204.6</ele>
        <time>2024-06-13T14:46:27Z</time>
      </trkpt>
      <trkpt lat="43.61764" lon="1.26204">
        <ele>204.8</ele>
        <time>2024-06-13T14:46:28Z</time>
      </trkpt>
      <trkpt lat="43.61763" lon="1.26197">
        <ele>204.8</ele>
        <time>2024-06-13T14:46:29Z</time>
      </trkpt>
      <trkpt lat="43.61762" lon="1.26186">
        <ele>204.8</ele>
        <time>2024-06-13T14:46:30Z</time>
      </trkpt>
      <trkpt lat="43.61762" lon="1.26178">
        <ele>204.8</ele>
        <time>2024-06-13T14:46:31Z</time>
      </trkpt>
      <trkpt lat="43.61762" lon="1.26169">
        <ele>204.8</ele>
        <time>2024-06-13T14:46:32Z</time>
      </trkpt>
      <trkpt lat="43.61761" lon="1.2616">
        <ele>204.8</ele>
        <time>2024-06-13T14:46:33Z</time>
      </trkpt>
      <trkpt lat="43.6176" lon="1.26152">
        <ele>204.8</ele>
        <time>2024-06-13T14:46:34Z</time>
      </trkpt>
      <trkpt lat="43.61758" lon="1.26144">
        <ele>205</ele>
        <time>2024-06-13T14:46:35Z</time>
      </trkpt>
      <trkpt lat="43.61756" lon="1.26135">
        <ele>205</ele>
        <time>2024-06-13T14:46:36Z</time>
      </trkpt>
      <trkpt lat="43.61754" lon="1.26127">
        <ele>204.8</ele>
        <time>2024-06-13T14:46:37Z</time>
      </trkpt>
      <trkpt lat="43.61752" lon="1.26121">
        <ele>204.8</ele>
        <time>2024-06-13T14:46:38Z</time>
      </trkpt>
      <trkpt lat="43.6175" lon="1.26113">
        <ele>204.8</ele>
        <time>2024-06-13T14:46:39Z</time>
      </trkpt>
      <trkpt lat="43.61747" lon="1.26106">
        <ele>204.8</ele>
        <time>2024-06-13T14:46:40Z</time>
      </trkpt>
      <trkpt lat="43.61745" lon="1.26099">
        <ele>204.8</ele>
        <time>2024-06-13T14:46:41Z</time>
      </trkpt>
      <trkpt lat="43.61743" lon="1.2609">
        <ele>204.8</ele>
        <time>2024-06-13T14:46:42Z</time>
      </trkpt>
      <trkpt lat="43.61741" lon="1.26083">
        <ele>204.8</ele>
        <time>2024-06-13T14:46:43Z</time>
      </trkpt>
      <trkpt lat="43.61739" lon="1.26076">
        <ele>204.8</ele>
        <time>2024-06-13T14:46:44Z</time>
      </trkpt>
      <trkpt lat="43.61737" lon="1.26069">
        <ele>205</ele>
        <time>2024-06-13T14:46:45Z</time>
      </trkpt>
      <trkpt lat="43.61736" lon="1.26062">
        <ele>205</ele>
        <time>2024-06-13T14:46:46Z</time>
      </trkpt>
      <trkpt lat="43.61734" lon="1.26056">
        <ele>205</ele>
        <time>2024-06-13T14:46:47Z</time>
      </trkpt>
      <trkpt lat="43.61732" lon="1.26049">
        <ele>205</ele>
        <time>2024-06-13T14:46:48Z</time>
      </trkpt>
      <trkpt lat="43.6173" lon="1.26043">
        <ele>204.8</ele>
        <time>2024-06-13T14:46:49Z</time>
      </trkpt>
      <trkpt lat="43.61728" lon="1.26037">
        <ele>204.8</ele>
        <time>2024-06-13T14:46:50Z</time>
      </trkpt>
      <trkpt lat="43.61726" lon="1.26032">
        <ele>205</ele>
        <time>2024-06-13T14:46:51Z</time>
      </trkpt>
      <trkpt lat="43.61724" lon="1.26026">
        <ele>205</ele>
        <time>2024-06-13T14:46:52Z</time>
      </trkpt>
      <trkpt lat="43.61722" lon="1.2602">
        <ele>205.2</ele>
        <time>2024-06-13T14:46:53Z</time>
      </trkpt>
      <trkpt lat="43.6172" lon="1.26015">
        <ele>205.2</ele>
        <time>2024-06-13T14:46:54Z</time>
      </trkpt>
      <trkpt lat="43.61718" lon="1.26011">
        <ele>205.4</ele>
        <time>2024-06-13T14:46:55Z</time>
      </trkpt>
      <trkpt lat="43.61716" lon="1.26006">
        <ele>205.6</ele>
        <time>2024-06-13T14:46:56Z</time>
      </trkpt>
      <trkpt lat="43.61713" lon="1.26">
        <ele>205.6</ele>
        <time>2024-06-13T14:46:57Z</time>
      </trkpt>
      <trkpt lat="43.6171" lon="1.25996">
        <ele>205.8</ele>
        <time>2024-06-13T14:46:58Z</time>
      </trkpt>
      <trkpt lat="43.61708" lon="1.25991">
        <ele>205.8</ele>
        <time>2024-06-13T14:46:59Z</time>
      </trkpt>
      <trkpt lat="43.61705" lon="1.25987">
        <ele>205.8</ele>
        <time>2024-06-13T14:47:00Z</time>
      </trkpt>
      <trkpt lat="43.61702" lon="1.25984">
        <ele>206</ele>
        <time>2024-06-13T14:47:01Z</time>
      </trkpt>
      <trkpt lat="43.61699" lon="1.25981">
        <ele>206</ele>
        <time>2024-06-13T14:47:02Z</time>
      </trkpt>
      <trkpt lat="43.61696" lon="1.25978">
        <ele>206.2</ele>
        <time>2024-06-13T14:47:03Z</time>
      </trkpt>
      <trkpt lat="43.61692" lon="1.25976">
        <ele>206.2</ele>
        <time>2024-06-13T14:47:04Z</time>
      </trkpt>
      <trkpt lat="43.6169" lon="1.25974">
        <ele>206.4</ele>
        <time>2024-06-13T14:47:05Z</time>
      </trkpt>
      <trkpt lat="43.61686" lon="1.25971">
        <ele>206.6</ele>
        <time>2024-06-13T14:47:06Z</time>
      </trkpt>
      <trkpt lat="43.61683" lon="1.25967">
        <ele>206.8</ele>
        <time>2024-06-13T14:47:07Z</time>
      </trkpt>
      <trkpt lat="43.61681" lon="1.25963">
        <ele>207.4</ele>
        <time>2024-06-13T14:47:08Z</time>
      </trkpt>
      <trkpt lat="43.61679" lon="1.25959">
        <ele>207.6</ele>
        <time>2024-06-13T14:47:09Z</time>
      </trkpt>
      <trkpt lat="43.61677" lon="1.25954">
        <ele>208</ele>
        <time>2024-06-13T14:47:10Z</time>
      </trkpt>
      <trkpt lat="43.61675" lon="1.2595">
        <ele>208.2</ele>
        <time>2024-06-13T14:47:11Z</time>
      </trkpt>
      <trkpt lat="43.61672" lon="1.25945">
        <ele>208.6</ele>
        <time>2024-06-13T14:47:12Z</time>
      </trkpt>
      <trkpt lat="43.61669" lon="1.2594">
        <ele>208.6</ele>
        <time>2024-06-13T14:47:13Z</time>
      </trkpt>
      <trkpt lat="43.61667" lon="1.25935">
        <ele>208.8</ele>
        <time>2024-06-13T14:47:14Z</time>
      </trkpt>
      <trkpt lat="43.61664" lon="1.2593">
        <ele>209</ele>
        <time>2024-06-13T14:47:15Z</time>
      </trkpt>
      <trkpt lat="43.61663" lon="1.25926">
        <ele>209</ele>
        <time>2024-06-13T14:47:16Z</time>
      </trkpt>
      <trkpt lat="43.61661" lon="1.2592">
        <ele>209.4</ele>
        <time>2024-06-13T14:47:17Z</time>
      </trkpt>
      <trkpt lat="43.61658" lon="1.25915">
        <ele>209.4</ele>
        <time>2024-06-13T14:47:18Z</time>
      </trkpt>
      <trkpt lat="43.61657" lon="1.2591">
        <ele>209.8</ele>
        <time>2024-06-13T14:47:19Z</time>
      </trkpt>
      <trkpt lat="43.61655" lon="1.25905">
        <ele>210</ele>
        <time>2024-06-13T14:47:20Z</time>
      </trkpt>
      <trkpt lat="43.61654" lon="1.25901">
        <ele>210.2</ele>
        <time>2024-06-13T14:47:21Z</time>
      </trkpt>
      <trkpt lat="43.61652" lon="1.25895">
        <ele>210.4</ele>
        <time>2024-06-13T14:47:22Z</time>
      </trkpt>
      <trkpt lat="43.6165" lon="1.2589">
        <ele>210.4</ele>
        <time>2024-06-13T14:47:23Z</time>
      </trkpt>
      <trkpt lat="43.61649" lon="1.25884">
        <ele>210.6</ele>
        <time>2024-06-13T14:47:24Z</time>
      </trkpt>
      <trkpt lat="43.61647" lon="1.25879">
        <ele>210.6</ele>
        <time>2024-06-13T14:47:25Z</time>
      </trkpt>
      <trkpt lat="43.61646" lon="1.25875">
        <ele>210.8</ele>
        <time>2024-06-13T14:47:26Z</time>
      </trkpt>
      <trkpt lat="43.61645" lon="1.25872">
        <ele>211</ele>
        <time>2024-06-13T14:47:27Z</time>
      </trkpt>
      <trkpt lat="43.61645" lon="1.25868">
        <ele>211.2</ele>
        <time>2024-06-13T14:47:28Z</time>
      </trkpt>
      <trkpt lat="43.61645" lon="1.25864">
        <ele>211.8</ele>
        <time>2024-06-13T14:47:29Z</time>
      </trkpt>
      <trkpt lat="43.61647" lon="1.25861">
        <ele>212</ele>
        <time>2024-06-13T14:47:30Z</time>
      </trkpt>
      <trkpt lat="43.61648" lon="1.25859">
        <ele>212.4</ele>
        <time>2024-06-13T14:47:31Z</time>
      </trkpt>
      <trkpt lat="43.61649" lon="1.25857">
        <ele>212.6</ele>
        <time>2024-06-13T14:47:32Z</time>
      </trkpt>
      <trkpt lat="43.6165" lon="1.25854">
        <ele>212.8</ele>
        <time>2024-06-13T14:47:33Z</time>
      </trkpt>
      <trkpt lat="43.61651" lon="1.25851">
        <ele>212.8</ele>
        <time>2024-06-13T14:47:34Z</time>
      </trkpt>
      <trkpt lat="43.61651" lon="1.25846">
        <ele>213</ele>
        <time>2024-06-13T14:47:35Z</time>
      </trkpt>
      <trkpt lat="43.6165" lon="1.25841">
        <ele>213</ele>
        <time>2024-06-13T14:47:36Z</time>
      </trkpt>
      <trkpt lat="43.61649" lon="1.25836">
        <ele>213</ele>
        <time>2024-06-13T14:47:37Z</time>
      </trkpt>
      <trkpt lat="43.61645" lon="1.25828">
        <ele>213</ele>
        <time>2024-06-13T14:47:38Z</time>
      </trkpt>
      <trkpt lat="43.61642" lon="1.2582">
        <ele>213</ele>
        <time>2024-06-13T14:47:39Z</time>
      </trkpt>
      <trkpt lat="43.61639" lon="1.25812">
        <ele>212.8</ele>
        <time>2024-06-13T14:47:40Z</time>
      </trkpt>
      <trkpt lat="43.61636" lon="1.25803">
        <ele>212.6</ele>
        <time>2024-06-13T14:47:41Z</time>
      </trkpt>
      <trkpt lat="43.61633" lon="1.25794">
        <ele>212.4</ele>
        <time>2024-06-13T14:47:42Z</time>
      </trkpt>
      <trkpt lat="43.61629" lon="1.25787">
        <ele>212</ele>
        <time>2024-06-13T14:47:43Z</time>
      </trkpt>
      <trkpt lat="43.61624" lon="1.25776">
        <ele>211.6</ele>
        <time>2024-06-13T14:47:44Z</time>
      </trkpt>
      <trkpt lat="43.61621" lon="1.25768">
        <ele>211.2</ele>
        <time>2024-06-13T14:47:45Z</time>
      </trkpt>
      <trkpt lat="43.61617" lon="1.25759">
        <ele>210.8</ele>
        <time>2024-06-13T14:47:46Z</time>
      </trkpt>
      <trkpt lat="43.61613" lon="1.2575">
        <ele>210.6</ele>
        <time>2024-06-13T14:47:47Z</time>
      </trkpt>
      <trkpt lat="43.61609" lon="1.25741">
        <ele>210.4</ele>
        <time>2024-06-13T14:47:48Z</time>
      </trkpt>
      <trkpt lat="43.61606" lon="1.25733">
        <ele>210.2</ele>
        <time>2024-06-13T14:47:49Z</time>
      </trkpt>
      <trkpt lat="43.61601" lon="1.25723">
        <ele>210</ele>
        <time>2024-06-13T14:47:50Z</time>
      </trkpt>
      <trkpt lat="43.61597" lon="1.25713">
        <ele>210</ele>
        <time>2024-06-13T14:47:51Z</time>
      </trkpt>
      <trkpt lat="43.61594" lon="1.25705">
        <ele>209.6</ele>
        <time>2024-06-13T14:47:52Z</time>
      </trkpt>
      <trkpt lat="43.61591" lon="1.25696">
        <ele>209.6</ele>
        <time>2024-06-13T14:47:53Z</time>
      </trkpt>
      <trkpt lat="43.61587" lon="1.25687">
        <ele>209.4</ele>
        <time>2024-06-13T14:47:54Z</time>
      </trkpt>
      <trkpt lat="43.61585" lon="1.25679">
        <ele>209.2</ele>
        <time>2024-06-13T14:47:55Z</time>
      </trkpt>
      <trkpt lat="43.61581" lon="1.25667">
        <ele>209.2</ele>
        <time>2024-06-13T14:47:56Z</time>
      </trkpt>
      <trkpt lat="43.61578" lon="1.25657">
        <ele>209.2</ele>
        <time>2024-06-13T14:47:57Z</time>
      </trkpt>
      <trkpt lat="43.61576" lon="1.25649">
        <ele>209.2</ele>
        <time>2024-06-13T14:47:58Z</time>
      </trkpt>
      <trkpt lat="43.61573" lon="1.25636">
        <ele>209</ele>
        <time>2024-06-13T14:47:59Z</time>
      </trkpt>
      <trkpt lat="43.61571" lon="1.25626">
        <ele>208.8</ele>
        <time>2024-06-13T14:48:00Z</time>
      </trkpt>
      <trkpt lat="43.6157" lon="1.25615">
        <ele>208.6</ele>
        <time>2024-06-13T14:48:01Z</time>
      </trkpt>
      <trkpt lat="43.61568" lon="1.25605">
        <ele>208.4</ele>
        <time>2024-06-13T14:48:02Z</time>
      </trkpt>
      <trkpt lat="43.61567" lon="1.25594">
        <ele>208.2</ele>
        <time>2024-06-13T14:48:03Z</time>
      </trkpt>
      <trkpt lat="43.61567" lon="1.25586">
        <ele>208</ele>
        <time>2024-06-13T14:48:04Z</time>
      </trkpt>
      <trkpt lat="43.61566" lon="1.25575">
        <ele>208</ele>
        <time>2024-06-13T14:48:05Z</time>
      </trkpt>
      <trkpt lat="43.61566" lon="1.25562">
        <ele>207.8</ele>
        <time>2024-06-13T14:48:06Z</time>
      </trkpt>
      <trkpt lat="43.61567" lon="1.25552">
        <ele>207.8</ele>
        <time>2024-06-13T14:48:07Z</time>
      </trkpt>
      <trkpt lat="43.61568" lon="1.25542">
        <ele>207.6</ele>
        <time>2024-06-13T14:48:08Z</time>
      </trkpt>
      <trkpt lat="43.61568" lon="1.25534">
        <ele>207.6</ele>
        <time>2024-06-13T14:48:09Z</time>
      </trkpt>
      <trkpt lat="43.61569" lon="1.25524">
        <ele>207.6</ele>
        <time>2024-06-13T14:48:10Z</time>
      </trkpt>
      <trkpt lat="43.61569" lon="1.25514">
        <ele>207.6</ele>
        <time>2024-06-13T14:48:11Z</time>
      </trkpt>
      <trkpt lat="43.61569" lon="1.25502">
        <ele>207.6</ele>
        <time>2024-06-13T14:48:12Z</time>
      </trkpt>
      <trkpt lat="43.61569" lon="1.25492">
        <ele>207.8</ele>
        <time>2024-06-13T14:48:13Z</time>
      </trkpt>
      <trkpt lat="43.61568" lon="1.25482">
        <ele>207.8</ele>
        <time>2024-06-13T14:48:14Z</time>
      </trkpt>
      <trkpt lat="43.61567" lon="1.25474">
        <ele>207.8</ele>
        <time>2024-06-13T14:48:15Z</time>
      </trkpt>
      <trkpt lat="43.61566" lon="1.25465">
        <ele>208</ele>
        <time>2024-06-13T14:48:16Z</time>
      </trkpt>
      <trkpt lat="43.61564" lon="1.25453">
        <ele>208</ele>
        <time>2024-06-13T14:48:17Z</time>
      </trkpt>
      <trkpt lat="43.61563" lon="1.25443">
        <ele>208</ele>
        <time>2024-06-13T14:48:18Z</time>
      </trkpt>
      <trkpt lat="43.61561" lon="1.25434">
        <ele>208</ele>
        <time>2024-06-13T14:48:19Z</time>
      </trkpt>
      <trkpt lat="43.61561" lon="1.25426">
        <ele>208.2</ele>
        <time>2024-06-13T14:48:20Z</time>
      </trkpt>
      <trkpt lat="43.61559" lon="1.25417">
        <ele>208.2</ele>
        <time>2024-06-13T14:48:21Z</time>
      </trkpt>
      <trkpt lat="43.61558" lon="1.25406">
        <ele>208.2</ele>
        <time>2024-06-13T14:48:22Z</time>
      </trkpt>
      <trkpt lat="43.61558" lon="1.25397">
        <ele>208.4</ele>
        <time>2024-06-13T14:48:23Z</time>
      </trkpt>
      <trkpt lat="43.61557" lon="1.25387">
        <ele>208.4</ele>
        <time>2024-06-13T14:48:24Z</time>
      </trkpt>
      <trkpt lat="43.61557" lon="1.2538">
        <ele>208.6</ele>
        <time>2024-06-13T14:48:25Z</time>
      </trkpt>
      <trkpt lat="43.61556" lon="1.25371">
        <ele>208.6</ele>
        <time>2024-06-13T14:48:26Z</time>
      </trkpt>
      <trkpt lat="43.61556" lon="1.25362">
        <ele>208.8</ele>
        <time>2024-06-13T14:48:27Z</time>
      </trkpt>
      <trkpt lat="43.61556" lon="1.25351">
        <ele>208.8</ele>
        <time>2024-06-13T14:48:28Z</time>
      </trkpt>
      <trkpt lat="43.61556" lon="1.25342">
        <ele>209</ele>
        <time>2024-06-13T14:48:29Z</time>
      </trkpt>
      <trkpt lat="43.61556" lon="1.25335">
        <ele>209.2</ele>
        <time>2024-06-13T14:48:30Z</time>
      </trkpt>
      <trkpt lat="43.61556" lon="1.25326">
        <ele>209.2</ele>
        <time>2024-06-13T14:48:31Z</time>
      </trkpt>
      <trkpt lat="43.61557" lon="1.25315">
        <ele>209.4</ele>
        <time>2024-06-13T14:48:32Z</time>
      </trkpt>
      <trkpt lat="43.61557" lon="1.25306">
        <ele>209.6</ele>
        <time>2024-06-13T14:48:33Z</time>
      </trkpt>
      <trkpt lat="43.61557" lon="1.25296">
        <ele>209.8</ele>
        <time>2024-06-13T14:48:34Z</time>
      </trkpt>
      <trkpt lat="43.61557" lon="1.25287">
        <ele>210</ele>
        <time>2024-06-13T14:48:35Z</time>
      </trkpt>
      <trkpt lat="43.61558" lon="1.25278">
        <ele>210.2</ele>
        <time>2024-06-13T14:48:36Z</time>
      </trkpt>
      <trkpt lat="43.61558" lon="1.25271">
        <ele>210.4</ele>
        <time>2024-06-13T14:48:37Z</time>
      </trkpt>
      <trkpt lat="43.61559" lon="1.25259">
        <ele>210.4</ele>
        <time>2024-06-13T14:48:38Z</time>
      </trkpt>
      <trkpt lat="43.6156" lon="1.2525">
        <ele>210.4</ele>
        <time>2024-06-13T14:48:39Z</time>
      </trkpt>
      <trkpt lat="43.61562" lon="1.25241">
        <ele>210.6</ele>
        <time>2024-06-13T14:48:40Z</time>
      </trkpt>
      <trkpt lat="43.61563" lon="1.25234">
        <ele>210.8</ele>
        <time>2024-06-13T14:48:41Z</time>
      </trkpt>
      <trkpt lat="43.61565" lon="1.25225">
        <ele>210.6</ele>
        <time>2024-06-13T14:48:42Z</time>
      </trkpt>
      <trkpt lat="43.61566" lon="1.25217">
        <ele>210.8</ele>
        <time>2024-06-13T14:48:43Z</time>
      </trkpt>
      <trkpt lat="43.61568" lon="1.25206">
        <ele>210.8</ele>
        <time>2024-06-13T14:48:44Z</time>
      </trkpt>
      <trkpt lat="43.61571" lon="1.25198">
        <ele>211</ele>
        <time>2024-06-13T14:48:45Z</time>
      </trkpt>
      <trkpt lat="43.61573" lon="1.2519">
        <ele>211</ele>
        <time>2024-06-13T14:48:46Z</time>
      </trkpt>
      <trkpt lat="43.61575" lon="1.25183">
        <ele>211</ele>
        <time>2024-06-13T14:48:47Z</time>
      </trkpt>
      <trkpt lat="43.61577" lon="1.25174">
        <ele>211.2</ele>
        <time>2024-06-13T14:48:48Z</time>
      </trkpt>
      <trkpt lat="43.61579" lon="1.25166">
        <ele>211.2</ele>
        <time>2024-06-13T14:48:49Z</time>
      </trkpt>
      <trkpt lat="43.61581" lon="1.25158">
        <ele>211.4</ele>
        <time>2024-06-13T14:48:50Z</time>
      </trkpt>
      <trkpt lat="43.61583" lon="1.2515">
        <ele>211.6</ele>
        <time>2024-06-13T14:48:51Z</time>
      </trkpt>
      <trkpt lat="43.61583" lon="1.25143">
        <ele>211.6</ele>
        <time>2024-06-13T14:48:52Z</time>
      </trkpt>
      <trkpt lat="43.61584" lon="1.25135">
        <ele>211.8</ele>
        <time>2024-06-13T14:48:53Z</time>
      </trkpt>
      <trkpt lat="43.61584" lon="1.25126">
        <ele>212</ele>
        <time>2024-06-13T14:48:54Z</time>
      </trkpt>
      <trkpt lat="43.61583" lon="1.25118">
        <ele>212.2</ele>
        <time>2024-06-13T14:48:55Z</time>
      </trkpt>
      <trkpt lat="43.61582" lon="1.25111">
        <ele>212.4</ele>
        <time>2024-06-13T14:48:56Z</time>
      </trkpt>
      <trkpt lat="43.61581" lon="1.25105">
        <ele>212.4</ele>
        <time>2024-06-13T14:48:57Z</time>
      </trkpt>
      <trkpt lat="43.61579" lon="1.25097">
        <ele>212.8</ele>
        <time>2024-06-13T14:48:58Z</time>
      </trkpt>
      <trkpt lat="43.61577" lon="1.25091">
        <ele>213</ele>
        <time>2024-06-13T14:48:59Z</time>
      </trkpt>
      <trkpt lat="43.61574" lon="1.25084">
        <ele>213.2</ele>
        <time>2024-06-13T14:49:00Z</time>
      </trkpt>
      <trkpt lat="43.61572" lon="1.25077">
        <ele>213.4</ele>
        <time>2024-06-13T14:49:01Z</time>
      </trkpt>
      <trkpt lat="43.61569" lon="1.25071">
        <ele>213.6</ele>
        <time>2024-06-13T14:49:02Z</time>
      </trkpt>
      <trkpt lat="43.61567" lon="1.25066">
        <ele>214</ele>
        <time>2024-06-13T14:49:03Z</time>
      </trkpt>
      <trkpt lat="43.61565" lon="1.2506">
        <ele>214</ele>
        <time>2024-06-13T14:49:04Z</time>
      </trkpt>
      <trkpt lat="43.61562" lon="1.25053">
        <ele>214.2</ele>
        <time>2024-06-13T14:49:05Z</time>
      </trkpt>
      <trkpt lat="43.6156" lon="1.25047">
        <ele>214.2</ele>
        <time>2024-06-13T14:49:06Z</time>
      </trkpt>
      <trkpt lat="43.61558" lon="1.25041">
        <ele>214.6</ele>
        <time>2024-06-13T14:49:07Z</time>
      </trkpt>
      <trkpt lat="43.61557" lon="1.25036">
        <ele>214.6</ele>
        <time>2024-06-13T14:49:08Z</time>
      </trkpt>
      <trkpt lat="43.61557" lon="1.2503">
        <ele>215</ele>
        <time>2024-06-13T14:49:09Z</time>
      </trkpt>
      <trkpt lat="43.61556" lon="1.25023">
        <ele>215.2</ele>
        <time>2024-06-13T14:49:10Z</time>
      </trkpt>
      <trkpt lat="43.61555" lon="1.25018">
        <ele>215.4</ele>
        <time>2024-06-13T14:49:11Z</time>
      </trkpt>
      <trkpt lat="43.61555" lon="1.25013">
        <ele>215.6</ele>
        <time>2024-06-13T14:49:12Z</time>
      </trkpt>
      <trkpt lat="43.61554" lon="1.25009">
        <ele>215.8</ele>
        <time>2024-06-13T14:49:13Z</time>
      </trkpt>
      <trkpt lat="43.61552" lon="1.25005">
        <ele>216.2</ele>
        <time>2024-06-13T14:49:14Z</time>
      </trkpt>
      <trkpt lat="43.61549" lon="1.25002">
        <ele>216.4</ele>
        <time>2024-06-13T14:49:15Z</time>
      </trkpt>
      <trkpt lat="43.61546" lon="1.25">
        <ele>216.8</ele>
        <time>2024-06-13T14:49:16Z</time>
      </trkpt>
      <trkpt lat="43.61542" lon="1.25">
        <ele>217.2</ele>
        <time>2024-06-13T14:49:17Z</time>
      </trkpt>
      <trkpt lat="43.61539" lon="1.24999">
        <ele>217.4</ele>
        <time>2024-06-13T14:49:18Z</time>
      </trkpt>
      <trkpt lat="43.61536" lon="1.24998">
        <ele>217.8</ele>
        <time>2024-06-13T14:49:19Z</time>
      </trkpt>
      <trkpt lat="43.61533" lon="1.24995">
        <ele>218</ele>
        <time>2024-06-13T14:49:20Z</time>
      </trkpt>
      <trkpt lat="43.61531" lon="1.24989">
        <ele>218.4</ele>
        <time>2024-06-13T14:49:21Z</time>
      </trkpt>
      <trkpt lat="43.6153" lon="1.24984">
        <ele>218.6</ele>
        <time>2024-06-13T14:49:22Z</time>
      </trkpt>
      <trkpt lat="43.61529" lon="1.24978">
        <ele>218.8</ele>
        <time>2024-06-13T14:49:23Z</time>
      </trkpt>
      <trkpt lat="43.61528" lon="1.24974">
        <ele>218.8</ele>
        <time>2024-06-13T14:49:24Z</time>
      </trkpt>
      <trkpt lat="43.61528" lon="1.24968">
        <ele>219</ele>
        <time>2024-06-13T14:49:25Z</time>
      </trkpt>
      <trkpt lat="43.61528" lon="1.24963">
        <ele>219.2</ele>
        <time>2024-06-13T14:49:26Z</time>
      </trkpt>
      <trkpt lat="43.61527" lon="1.24957">
        <ele>219.4</ele>
        <time>2024-06-13T14:49:27Z</time>
      </trkpt>
      <trkpt lat="43.61524" lon="1.24954">
        <ele>219.6</ele>
        <time>2024-06-13T14:49:28Z</time>
      </trkpt>
      <trkpt lat="43.61521" lon="1.24953">
        <ele>220</ele>
        <time>2024-06-13T14:49:29Z</time>
      </trkpt>
      <trkpt lat="43.61517" lon="1.24955">
        <ele>220</ele>
        <time>2024-06-13T14:49:30Z</time>
      </trkpt>
      <trkpt lat="43.61513" lon="1.24958">
        <ele>220.2</ele>
        <time>2024-06-13T14:49:31Z</time>
      </trkpt>
      <trkpt lat="43.61508" lon="1.24962">
        <ele>220.2</ele>
        <time>2024-06-13T14:49:32Z</time>
      </trkpt>
      <trkpt lat="43.61503" lon="1.24964">
        <ele>220.4</ele>
        <time>2024-06-13T14:49:33Z</time>
      </trkpt>
      <trkpt lat="43.61499" lon="1.24966">
        <ele>220.6</ele>
        <time>2024-06-13T14:49:34Z</time>
      </trkpt>
      <trkpt lat="43.61495" lon="1.24968">
        <ele>220.6</ele>
        <time>2024-06-13T14:49:35Z</time>
      </trkpt>
      <trkpt lat="43.6149" lon="1.24968">
        <ele>220.8</ele>
        <time>2024-06-13T14:49:36Z</time>
      </trkpt>
      <trkpt lat="43.61484" lon="1.24969">
        <ele>220.8</ele>
        <time>2024-06-13T14:49:37Z</time>
      </trkpt>
      <trkpt lat="43.61478" lon="1.2497">
        <ele>221</ele>
        <time>2024-06-13T14:49:38Z</time>
      </trkpt>
      <trkpt lat="43.61473" lon="1.2497">
        <ele>221.2</ele>
        <time>2024-06-13T14:49:39Z</time>
      </trkpt>
      <trkpt lat="43.61469" lon="1.2497">
        <ele>221.6</ele>
        <time>2024-06-13T14:49:40Z</time>
      </trkpt>
      <trkpt lat="43.61464" lon="1.24969">
        <ele>221.8</ele>
        <time>2024-06-13T14:49:41Z</time>
      </trkpt>
      <trkpt lat="43.61459" lon="1.24968">
        <ele>222</ele>
        <time>2024-06-13T14:49:42Z</time>
      </trkpt>
      <trkpt lat="43.61453" lon="1.24966">
        <ele>222.2</ele>
        <time>2024-06-13T14:49:43Z</time>
      </trkpt>
      <trkpt lat="43.61448" lon="1.24964">
        <ele>222.4</ele>
        <time>2024-06-13T14:49:44Z</time>
      </trkpt>
      <trkpt lat="43.61444" lon="1.24963">
        <ele>222.6</ele>
        <time>2024-06-13T14:49:45Z</time>
      </trkpt>
      <trkpt lat="43.6144" lon="1.24961">
        <ele>222.6</ele>
        <time>2024-06-13T14:49:46Z</time>
      </trkpt>
      <trkpt lat="43.61435" lon="1.24959">
        <ele>222.8</ele>
        <time>2024-06-13T14:49:47Z</time>
      </trkpt>
      <trkpt lat="43.61429" lon="1.24957">
        <ele>223</ele>
        <time>2024-06-13T14:49:48Z</time>
      </trkpt>
      <trkpt lat="43.61424" lon="1.24956">
        <ele>223.2</ele>
        <time>2024-06-13T14:49:49Z</time>
      </trkpt>
      <trkpt lat="43.6142" lon="1.24954">
        <ele>223.2</ele>
        <time>2024-06-13T14:49:50Z</time>
      </trkpt>
      <trkpt lat="43.6142" lon="1.24954">
        <ele>223.4</ele>
        <time>2024-06-13T14:49:51Z</time>
      </trkpt>
      <trkpt lat="43.61412" lon="1.24952">
        <ele>223.6</ele>
        <time>2024-06-13T14:49:52Z</time>
      </trkpt>
      <trkpt lat="43.61406" lon="1.24951">
        <ele>223.6</ele>
        <time>2024-06-13T14:49:53Z</time>
      </trkpt>
      <trkpt lat="43.61401" lon="1.2495">
        <ele>223.8</ele>
        <time>2024-06-13T14:49:54Z</time>
      </trkpt>
      <trkpt lat="43.61396" lon="1.2495">
        <ele>224</ele>
        <time>2024-06-13T14:49:55Z</time>
      </trkpt>
      <trkpt lat="43.61392" lon="1.2495">
        <ele>224</ele>
        <time>2024-06-13T14:49:56Z</time>
      </trkpt>
      <trkpt lat="43.61388" lon="1.24951">
        <ele>224.2</ele>
        <time>2024-06-13T14:49:57Z</time>
      </trkpt>
      <trkpt lat="43.61383" lon="1.24951">
        <ele>224.4</ele>
        <time>2024-06-13T14:49:58Z</time>
      </trkpt>
      <trkpt lat="43.61377" lon="1.24951">
        <ele>224.6</ele>
        <time>2024-06-13T14:49:59Z</time>
      </trkpt>
      <trkpt lat="43.61372" lon="1.24952">
        <ele>224.6</ele>
        <time>2024-06-13T14:50:00Z</time>
      </trkpt>
      <trkpt lat="43.61368" lon="1.24953">
        <ele>225</ele>
        <time>2024-06-13T14:50:01Z</time>
      </trkpt>
      <trkpt lat="43.61363" lon="1.24953">
        <ele>225.2</ele>
        <time>2024-06-13T14:50:02Z</time>
      </trkpt>
      <trkpt lat="43.61358" lon="1.24954">
        <ele>225.4</ele>
        <time>2024-06-13T14:50:03Z</time>
      </trkpt>
      <trkpt lat="43.61351" lon="1.24954">
        <ele>225.6</ele>
        <time>2024-06-13T14:50:04Z</time>
      </trkpt>
      <trkpt lat="43.61346" lon="1.24954">
        <ele>225.8</ele>
        <time>2024-06-13T14:50:05Z</time>
      </trkpt>
      <trkpt lat="43.61341" lon="1.24953">
        <ele>225.8</ele>
        <time>2024-06-13T14:50:06Z</time>
      </trkpt>
      <trkpt lat="43.61337" lon="1.24952">
        <ele>226</ele>
        <time>2024-06-13T14:50:07Z</time>
      </trkpt>
      <trkpt lat="43.61332" lon="1.24951">
        <ele>226.2</ele>
        <time>2024-06-13T14:50:08Z</time>
      </trkpt>
      <trkpt lat="43.61326" lon="1.24949">
        <ele>226.4</ele>
        <time>2024-06-13T14:50:09Z</time>
      </trkpt>
      <trkpt lat="43.6132" lon="1.24948">
        <ele>226.4</ele>
        <time>2024-06-13T14:50:10Z</time>
      </trkpt>
      <trkpt lat="43.61315" lon="1.24946">
        <ele>226.6</ele>
        <time>2024-06-13T14:50:11Z</time>
      </trkpt>
      <trkpt lat="43.61311" lon="1.24944">
        <ele>226.6</ele>
        <time>2024-06-13T14:50:12Z</time>
      </trkpt>
      <trkpt lat="43.61306" lon="1.24942">
        <ele>226.8</ele>
        <time>2024-06-13T14:50:13Z</time>
      </trkpt>
      <trkpt lat="43.61301" lon="1.24939">
        <ele>227</ele>
        <time>2024-06-13T14:50:14Z</time>
      </trkpt>
      <trkpt lat="43.61296" lon="1.24937">
        <ele>227.2</ele>
        <time>2024-06-13T14:50:15Z</time>
      </trkpt>
      <trkpt lat="43.61291" lon="1.24934">
        <ele>227.2</ele>
        <time>2024-06-13T14:50:16Z</time>
      </trkpt>
      <trkpt lat="43.61287" lon="1.24932">
        <ele>227.4</ele>
        <time>2024-06-13T14:50:17Z</time>
      </trkpt>
      <trkpt lat="43.61283" lon="1.2493">
        <ele>227.4</ele>
        <time>2024-06-13T14:50:18Z</time>
      </trkpt>
      <trkpt lat="43.61278" lon="1.24926">
        <ele>227.4</ele>
        <time>2024-06-13T14:50:19Z</time>
      </trkpt>
      <trkpt lat="43.61272" lon="1.24922">
        <ele>227.6</ele>
        <time>2024-06-13T14:50:20Z</time>
      </trkpt>
      <trkpt lat="43.61268" lon="1.24918">
        <ele>227.6</ele>
        <time>2024-06-13T14:50:21Z</time>
      </trkpt>
      <trkpt lat="43.61264" lon="1.24914">
        <ele>227.6</ele>
        <time>2024-06-13T14:50:22Z</time>
      </trkpt>
      <trkpt lat="43.6126" lon="1.2491">
        <ele>227.8</ele>
        <time>2024-06-13T14:50:23Z</time>
      </trkpt>
      <trkpt lat="43.61256" lon="1.24905">
        <ele>227.8</ele>
        <time>2024-06-13T14:50:24Z</time>
      </trkpt>
      <trkpt lat="43.61251" lon="1.249">
        <ele>227.8</ele>
        <time>2024-06-13T14:50:25Z</time>
      </trkpt>
      <trkpt lat="43.61247" lon="1.24895">
        <ele>227.8</ele>
        <time>2024-06-13T14:50:26Z</time>
      </trkpt>
      <trkpt lat="43.61243" lon="1.2489">
        <ele>228</ele>
        <time>2024-06-13T14:50:27Z</time>
      </trkpt>
      <trkpt lat="43.6124" lon="1.24885">
        <ele>228.2</ele>
        <time>2024-06-13T14:50:28Z</time>
      </trkpt>
      <trkpt lat="43.61237" lon="1.2488">
        <ele>228.2</ele>
        <time>2024-06-13T14:50:29Z</time>
      </trkpt>
      <trkpt lat="43.61233" lon="1.24874">
        <ele>228.4</ele>
        <time>2024-06-13T14:50:30Z</time>
      </trkpt>
      <trkpt lat="43.61228" lon="1.24868">
        <ele>228.4</ele>
        <time>2024-06-13T14:50:31Z</time>
      </trkpt>
      <trkpt lat="43.61224" lon="1.24862">
        <ele>228.4</ele>
        <time>2024-06-13T14:50:32Z</time>
      </trkpt>
      <trkpt lat="43.6122" lon="1.24857">
        <ele>228.6</ele>
        <time>2024-06-13T14:50:33Z</time>
      </trkpt>
      <trkpt lat="43.61216" lon="1.24851">
        <ele>228.8</ele>
        <time>2024-06-13T14:50:34Z</time>
      </trkpt>
      <trkpt lat="43.61212" lon="1.24846">
        <ele>228.8</ele>
        <time>2024-06-13T14:50:35Z</time>
      </trkpt>
      <trkpt lat="43.61208" lon="1.2484">
        <ele>228.8</ele>
        <time>2024-06-13T14:50:36Z</time>
      </trkpt>
      <trkpt lat="43.61204" lon="1.24834">
        <ele>228.8</ele>
        <time>2024-06-13T14:50:37Z</time>
      </trkpt>
      <trkpt lat="43.612" lon="1.24828">
        <ele>228.8</ele>
        <time>2024-06-13T14:50:38Z</time>
      </trkpt>
      <trkpt lat="43.61196" lon="1.24821">
        <ele>229</ele>
        <time>2024-06-13T14:50:39Z</time>
      </trkpt>
      <trkpt lat="43.61192" lon="1.24815">
        <ele>229</ele>
        <time>2024-06-13T14:50:40Z</time>
      </trkpt>
      <trkpt lat="43.61189" lon="1.24809">
        <ele>229</ele>
        <time>2024-06-13T14:50:41Z</time>
      </trkpt>
      <trkpt lat="43.61185" lon="1.24803">
        <ele>229</ele>
        <time>2024-06-13T14:50:42Z</time>
      </trkpt>
      <trkpt lat="43.61181" lon="1.24797">
        <ele>229</ele>
        <time>2024-06-13T14:50:43Z</time>
      </trkpt>
      <trkpt lat="43.61177" lon="1.2479">
        <ele>229.2</ele>
        <time>2024-06-13T14:50:44Z</time>
      </trkpt>
      <trkpt lat="43.61173" lon="1.24784">
        <ele>229.2</ele>
        <time>2024-06-13T14:50:45Z</time>
      </trkpt>
      <trkpt lat="43.61169" lon="1.24778">
        <ele>229.2</ele>
        <time>2024-06-13T14:50:46Z</time>
      </trkpt>
      <trkpt lat="43.61166" lon="1.24772">
        <ele>229.2</ele>
        <time>2024-06-13T14:50:47Z</time>
      </trkpt>
      <trkpt lat="43.61162" lon="1.24766">
        <ele>229.4</ele>
        <time>2024-06-13T14:50:48Z</time>
      </trkpt>
      <trkpt lat="43.61159" lon="1.24759">
        <ele>229.4</ele>
        <time>2024-06-13T14:50:49Z</time>
      </trkpt>
      <trkpt lat="43.61155" lon="1.24753">
        <ele>229.4</ele>
        <time>2024-06-13T14:50:50Z</time>
      </trkpt>
      <trkpt lat="43.61151" lon="1.24747">
        <ele>229.2</ele>
        <time>2024-06-13T14:50:51Z</time>
      </trkpt>
      <trkpt lat="43.61147" lon="1.24741">
        <ele>229.2</ele>
        <time>2024-06-13T14:50:52Z</time>
      </trkpt>
      <trkpt lat="43.61144" lon="1.24734">
        <ele>229.2</ele>
        <time>2024-06-13T14:50:53Z</time>
      </trkpt>
      <trkpt lat="43.6114" lon="1.24728">
        <ele>229.2</ele>
        <time>2024-06-13T14:50:54Z</time>
      </trkpt>
      <trkpt lat="43.61136" lon="1.24722">
        <ele>229.2</ele>
        <time>2024-06-13T14:50:55Z</time>
      </trkpt>
      <trkpt lat="43.61133" lon="1.24716">
        <ele>229.2</ele>
        <time>2024-06-13T14:50:56Z</time>
      </trkpt>
      <trkpt lat="43.61129" lon="1.2471">
        <ele>229.2</ele>
        <time>2024-06-13T14:50:57Z</time>
      </trkpt>
      <trkpt lat="43.61125" lon="1.24704">
        <ele>229.4</ele>
        <time>2024-06-13T14:50:58Z</time>
      </trkpt>
      <trkpt lat="43.61122" lon="1.24698">
        <ele>229.6</ele>
        <time>2024-06-13T14:50:59Z</time>
      </trkpt>
      <trkpt lat="43.61117" lon="1.24692">
        <ele>229.8</ele>
        <time>2024-06-13T14:51:00Z</time>
      </trkpt>
      <trkpt lat="43.61113" lon="1.24685">
        <ele>229.6</ele>
        <time>2024-06-13T14:51:01Z</time>
      </trkpt>
      <trkpt lat="43.6111" lon="1.24679">
        <ele>229.8</ele>
        <time>2024-06-13T14:51:02Z</time>
      </trkpt>
      <trkpt lat="43.61106" lon="1.24673">
        <ele>229.8</ele>
        <time>2024-06-13T14:51:03Z</time>
      </trkpt>
      <trkpt lat="43.61102" lon="1.24667">
        <ele>230</ele>
        <time>2024-06-13T14:51:04Z</time>
      </trkpt>
      <trkpt lat="43.61098" lon="1.24661">
        <ele>230</ele>
        <time>2024-06-13T14:51:05Z</time>
      </trkpt>
      <trkpt lat="43.61094" lon="1.24655">
        <ele>230</ele>
        <time>2024-06-13T14:51:06Z</time>
      </trkpt>
      <trkpt lat="43.6109" lon="1.24649">
        <ele>230.2</ele>
        <time>2024-06-13T14:51:07Z</time>
      </trkpt>
      <trkpt lat="43.61086" lon="1.24644">
        <ele>230.2</ele>
        <time>2024-06-13T14:51:08Z</time>
      </trkpt>
      <trkpt lat="43.61082" lon="1.24639">
        <ele>230.2</ele>
        <time>2024-06-13T14:51:09Z</time>
      </trkpt>
      <trkpt lat="43.61078" lon="1.24634">
        <ele>230.2</ele>
        <time>2024-06-13T14:51:10Z</time>
      </trkpt>
      <trkpt lat="43.61074" lon="1.24629">
        <ele>230.2</ele>
        <time>2024-06-13T14:51:11Z</time>
      </trkpt>
      <trkpt lat="43.6107" lon="1.24627">
        <ele>230.4</ele>
        <time>2024-06-13T14:51:12Z</time>
      </trkpt>
      <trkpt lat="43.61067" lon="1.24626">
        <ele>230.4</ele>
        <time>2024-06-13T14:51:13Z</time>
      </trkpt>
      <trkpt lat="43.61064" lon="1.24626">
        <ele>230.4</ele>
        <time>2024-06-13T14:51:14Z</time>
      </trkpt>
      <trkpt lat="43.61061" lon="1.24628">
        <ele>230.4</ele>
        <time>2024-06-13T14:51:15Z</time>
      </trkpt>
      <trkpt lat="43.61058" lon="1.24632">
        <ele>230.4</ele>
        <time>2024-06-13T14:51:16Z</time>
      </trkpt>
      <trkpt lat="43.61055" lon="1.24635">
        <ele>230.4</ele>
        <time>2024-06-13T14:51:17Z</time>
      </trkpt>
      <trkpt lat="43.61051" lon="1.24639">
        <ele>230.4</ele>
        <time>2024-06-13T14:51:18Z</time>
      </trkpt>
      <trkpt lat="43.61048" lon="1.24645">
        <ele>230.4</ele>
        <time>2024-06-13T14:51:19Z</time>
      </trkpt>
      <trkpt lat="43.61044" lon="1.2465">
        <ele>230.4</ele>
        <time>2024-06-13T14:51:20Z</time>
      </trkpt>
      <trkpt lat="43.61041" lon="1.24656">
        <ele>230.4</ele>
        <time>2024-06-13T14:51:21Z</time>
      </trkpt>
      <trkpt lat="43.61037" lon="1.24662">
        <ele>230.4</ele>
        <time>2024-06-13T14:51:22Z</time>
      </trkpt>
      <trkpt lat="43.61033" lon="1.24668">
        <ele>230.4</ele>
        <time>2024-06-13T14:51:23Z</time>
      </trkpt>
      <trkpt lat="43.6103" lon="1.24675">
        <ele>230.4</ele>
        <time>2024-06-13T14:51:24Z</time>
      </trkpt>
      <trkpt lat="43.61026" lon="1.24681">
        <ele>230.4</ele>
        <time>2024-06-13T14:51:25Z</time>
      </trkpt>
      <trkpt lat="43.61022" lon="1.24687">
        <ele>230.4</ele>
        <time>2024-06-13T14:51:26Z</time>
      </trkpt>
      <trkpt lat="43.61018" lon="1.24693">
        <ele>230.4</ele>
        <time>2024-06-13T14:51:27Z</time>
      </trkpt>
      <trkpt lat="43.61013" lon="1.24699">
        <ele>230.6</ele>
        <time>2024-06-13T14:51:28Z</time>
      </trkpt>
      <trkpt lat="43.61009" lon="1.24705">
        <ele>230.6</ele>
        <time>2024-06-13T14:51:29Z</time>
      </trkpt>
      <trkpt lat="43.61004" lon="1.24711">
        <ele>230.6</ele>
        <time>2024-06-13T14:51:30Z</time>
      </trkpt>
      <trkpt lat="43.60999" lon="1.24716">
        <ele>230.6</ele>
        <time>2024-06-13T14:51:31Z</time>
      </trkpt>
      <trkpt lat="43.60994" lon="1.24721">
        <ele>230.6</ele>
        <time>2024-06-13T14:51:32Z</time>
      </trkpt>
      <trkpt lat="43.60989" lon="1.24725">
        <ele>230.6</ele>
        <time>2024-06-13T14:51:33Z</time>
      </trkpt>
      <trkpt lat="43.60983" lon="1.2473">
        <ele>230.6</ele>
        <time>2024-06-13T14:51:34Z</time>
      </trkpt>
      <trkpt lat="43.60977" lon="1.24734">
        <ele>230.6</ele>
        <time>2024-06-13T14:51:35Z</time>
      </trkpt>
      <trkpt lat="43.60972" lon="1.24737">
        <ele>230.8</ele>
        <time>2024-06-13T14:51:36Z</time>
      </trkpt>
      <trkpt lat="43.60966" lon="1.24741">
        <ele>230.8</ele>
        <time>2024-06-13T14:51:37Z</time>
      </trkpt>
      <trkpt lat="43.6096" lon="1.24744">
        <ele>231</ele>
        <time>2024-06-13T14:51:38Z</time>
      </trkpt>
      <trkpt lat="43.60955" lon="1.24748">
        <ele>231</ele>
        <time>2024-06-13T14:51:39Z</time>
      </trkpt>
      <trkpt lat="43.60949" lon="1.24752">
        <ele>231</ele>
        <time>2024-06-13T14:51:40Z</time>
      </trkpt>
      <trkpt lat="43.60943" lon="1.24755">
        <ele>231</ele>
        <time>2024-06-13T14:51:41Z</time>
      </trkpt>
      <trkpt lat="43.60937" lon="1.24759">
        <ele>231</ele>
        <time>2024-06-13T14:51:42Z</time>
      </trkpt>
      <trkpt lat="43.60932" lon="1.24763">
        <ele>231</ele>
        <time>2024-06-13T14:51:43Z</time>
      </trkpt>
      <trkpt lat="43.60926" lon="1.24767">
        <ele>231</ele>
        <time>2024-06-13T14:51:44Z</time>
      </trkpt>
      <trkpt lat="43.6092" lon="1.24771">
        <ele>231</ele>
        <time>2024-06-13T14:51:45Z</time>
      </trkpt>
      <trkpt lat="43.60914" lon="1.24775">
        <ele>231</ele>
        <time>2024-06-13T14:51:46Z</time>
      </trkpt>
      <trkpt lat="43.60908" lon="1.24779">
        <ele>231</ele>
        <time>2024-06-13T14:51:47Z</time>
      </trkpt>
      <trkpt lat="43.60902" lon="1.24783">
        <ele>231</ele>
        <time>2024-06-13T14:51:48Z</time>
      </trkpt>
      <trkpt lat="43.60896" lon="1.24787">
        <ele>231.2</ele>
        <time>2024-06-13T14:51:49Z</time>
      </trkpt>
      <trkpt lat="43.6089" lon="1.2479">
        <ele>231.2</ele>
        <time>2024-06-13T14:51:50Z</time>
      </trkpt>
      <trkpt lat="43.60884" lon="1.24795">
        <ele>231.2</ele>
        <time>2024-06-13T14:51:51Z</time>
      </trkpt>
      <trkpt lat="43.60879" lon="1.24799">
        <ele>231.2</ele>
        <time>2024-06-13T14:51:52Z</time>
      </trkpt>
      <trkpt lat="43.60873" lon="1.24803">
        <ele>231.2</ele>
        <time>2024-06-13T14:51:53Z</time>
      </trkpt>
      <trkpt lat="43.60868" lon="1.24808">
        <ele>231.2</ele>
        <time>2024-06-13T14:51:54Z</time>
      </trkpt>
      <trkpt lat="43.60863" lon="1.24811">
        <ele>231.2</ele>
        <time>2024-06-13T14:51:55Z</time>
      </trkpt>
      <trkpt lat="43.60858" lon="1.24813">
        <ele>231.2</ele>
        <time>2024-06-13T14:51:56Z</time>
      </trkpt>
      <trkpt lat="43.60855" lon="1.24814">
        <ele>231.2</ele>
        <time>2024-06-13T14:51:57Z</time>
      </trkpt>
      <trkpt lat="43.60853" lon="1.2481">
        <ele>231.2</ele>
        <time>2024-06-13T14:51:58Z</time>
      </trkpt>
      <trkpt lat="43.60853" lon="1.24804">
        <ele>231.2</ele>
        <time>2024-06-13T14:51:59Z</time>
      </trkpt>
      <trkpt lat="43.60852" lon="1.24798">
        <ele>231.2</ele>
        <time>2024-06-13T14:52:00Z</time>
      </trkpt>
      <trkpt lat="43.60851" lon="1.24791">
        <ele>231</ele>
        <time>2024-06-13T14:52:01Z</time>
      </trkpt>
      <trkpt lat="43.6085" lon="1.24784">
        <ele>231</ele>
        <time>2024-06-13T14:52:02Z</time>
      </trkpt>
      <trkpt lat="43.60849" lon="1.24777">
        <ele>231</ele>
        <time>2024-06-13T14:52:03Z</time>
      </trkpt>
      <trkpt lat="43.60847" lon="1.2477">
        <ele>231</ele>
        <time>2024-06-13T14:52:04Z</time>
      </trkpt>
      <trkpt lat="43.60846" lon="1.24763">
        <ele>231</ele>
        <time>2024-06-13T14:52:05Z</time>
      </trkpt>
      <trkpt lat="43.60845" lon="1.24755">
        <ele>231</ele>
        <time>2024-06-13T14:52:06Z</time>
      </trkpt>
      <trkpt lat="43.60843" lon="1.24747">
        <ele>231</ele>
        <time>2024-06-13T14:52:07Z</time>
      </trkpt>
      <trkpt lat="43.60841" lon="1.2474">
        <ele>231</ele>
        <time>2024-06-13T14:52:08Z</time>
      </trkpt>
      <trkpt lat="43.60839" lon="1.24732">
        <ele>231</ele>
        <time>2024-06-13T14:52:09Z</time>
      </trkpt>
      <trkpt lat="43.60837" lon="1.24725">
        <ele>231</ele>
        <time>2024-06-13T14:52:10Z</time>
      </trkpt>
      <trkpt lat="43.60835" lon="1.24717">
        <ele>231</ele>
        <time>2024-06-13T14:52:11Z</time>
      </trkpt>
      <trkpt lat="43.60833" lon="1.2471">
        <ele>231</ele>
        <time>2024-06-13T14:52:12Z</time>
      </trkpt>
      <trkpt lat="43.60831" lon="1.24702">
        <ele>231</ele>
        <time>2024-06-13T14:52:13Z</time>
      </trkpt>
      <trkpt lat="43.60829" lon="1.24695">
        <ele>231</ele>
        <time>2024-06-13T14:52:14Z</time>
      </trkpt>
      <trkpt lat="43.60825" lon="1.24687">
        <ele>231</ele>
        <time>2024-06-13T14:52:15Z</time>
      </trkpt>
      <trkpt lat="43.60822" lon="1.2468">
        <ele>231</ele>
        <time>2024-06-13T14:52:16Z</time>
      </trkpt>
      <trkpt lat="43.6082" lon="1.24673">
        <ele>231</ele>
        <time>2024-06-13T14:52:17Z</time>
      </trkpt>
      <trkpt lat="43.60817" lon="1.24665">
        <ele>231</ele>
        <time>2024-06-13T14:52:18Z</time>
      </trkpt>
      <trkpt lat="43.60814" lon="1.24658">
        <ele>231</ele>
        <time>2024-06-13T14:52:19Z</time>
      </trkpt>
      <trkpt lat="43.60811" lon="1.2465">
        <ele>231</ele>
        <time>2024-06-13T14:52:20Z</time>
      </trkpt>
      <trkpt lat="43.60809" lon="1.24642">
        <ele>231</ele>
        <time>2024-06-13T14:52:21Z</time>
      </trkpt>
      <trkpt lat="43.60806" lon="1.24634">
        <ele>231.2</ele>
        <time>2024-06-13T14:52:22Z</time>
      </trkpt>
      <trkpt lat="43.60804" lon="1.24626">
        <ele>231.2</ele>
        <time>2024-06-13T14:52:23Z</time>
      </trkpt>
      <trkpt lat="43.60802" lon="1.24618">
        <ele>231.2</ele>
        <time>2024-06-13T14:52:24Z</time>
      </trkpt>
      <trkpt lat="43.608" lon="1.2461">
        <ele>231.2</ele>
        <time>2024-06-13T14:52:25Z</time>
      </trkpt>
      <trkpt lat="43.60798" lon="1.24602">
        <ele>231.2</ele>
        <time>2024-06-13T14:52:26Z</time>
      </trkpt>
      <trkpt lat="43.60796" lon="1.24594">
        <ele>231.4</ele>
        <time>2024-06-13T14:52:27Z</time>
      </trkpt>
      <trkpt lat="43.60794" lon="1.24586">
        <ele>231.4</ele>
        <time>2024-06-13T14:52:28Z</time>
      </trkpt>
      <trkpt lat="43.60792" lon="1.24578">
        <ele>231.4</ele>
        <time>2024-06-13T14:52:29Z</time>
      </trkpt>
      <trkpt lat="43.6079" lon="1.2457">
        <ele>231.4</ele>
        <time>2024-06-13T14:52:30Z</time>
      </trkpt>
      <trkpt lat="43.60788" lon="1.24562">
        <ele>231.4</ele>
        <time>2024-06-13T14:52:31Z</time>
      </trkpt>
      <trkpt lat="43.60786" lon="1.24554">
        <ele>231.6</ele>
        <time>2024-06-13T14:52:32Z</time>
      </trkpt>
      <trkpt lat="43.60783" lon="1.24546">
        <ele>231.6</ele>
        <time>2024-06-13T14:52:33Z</time>
      </trkpt>
      <trkpt lat="43.60781" lon="1.24539">
        <ele>231.6</ele>
        <time>2024-06-13T14:52:34Z</time>
      </trkpt>
      <trkpt lat="43.60779" lon="1.2453">
        <ele>231.8</ele>
        <time>2024-06-13T14:52:35Z</time>
      </trkpt>
      <trkpt lat="43.60777" lon="1.24523">
        <ele>231.8</ele>
        <time>2024-06-13T14:52:36Z</time>
      </trkpt>
      <trkpt lat="43.60775" lon="1.24515">
        <ele>231.8</ele>
        <time>2024-06-13T14:52:37Z</time>
      </trkpt>
      <trkpt lat="43.60773" lon="1.24507">
        <ele>231.8</ele>
        <time>2024-06-13T14:52:38Z</time>
      </trkpt>
      <trkpt lat="43.6077" lon="1.24499">
        <ele>231.8</ele>
        <time>2024-06-13T14:52:39Z</time>
      </trkpt>
      <trkpt lat="43.60768" lon="1.24492">
        <ele>231.8</ele>
        <time>2024-06-13T14:52:40Z</time>
      </trkpt>
      <trkpt lat="43.60766" lon="1.24484">
        <ele>231.8</ele>
        <time>2024-06-13T14:52:41Z</time>
      </trkpt>
      <trkpt lat="43.60763" lon="1.24476">
        <ele>231.8</ele>
        <time>2024-06-13T14:52:42Z</time>
      </trkpt>
      <trkpt lat="43.6076" lon="1.24469">
        <ele>231.8</ele>
        <time>2024-06-13T14:52:43Z</time>
      </trkpt>
      <trkpt lat="43.60756" lon="1.24462">
        <ele>231.8</ele>
        <time>2024-06-13T14:52:44Z</time>
      </trkpt>
      <trkpt lat="43.60752" lon="1.24456">
        <ele>232</ele>
        <time>2024-06-13T14:52:45Z</time>
      </trkpt>
      <trkpt lat="43.60749" lon="1.2445">
        <ele>232</ele>
        <time>2024-06-13T14:52:46Z</time>
      </trkpt>
      <trkpt lat="43.60745" lon="1.24443">
        <ele>232</ele>
        <time>2024-06-13T14:52:47Z</time>
      </trkpt>
      <trkpt lat="43.60741" lon="1.24437">
        <ele>232</ele>
        <time>2024-06-13T14:52:48Z</time>
      </trkpt>
      <trkpt lat="43.60737" lon="1.24431">
        <ele>232</ele>
        <time>2024-06-13T14:52:49Z</time>
      </trkpt>
      <trkpt lat="43.60733" lon="1.24425">
        <ele>232</ele>
        <time>2024-06-13T14:52:50Z</time>
      </trkpt>
      <trkpt lat="43.6073" lon="1.24419">
        <ele>232</ele>
        <time>2024-06-13T14:52:51Z</time>
      </trkpt>
      <trkpt lat="43.60726" lon="1.24413">
        <ele>232</ele>
        <time>2024-06-13T14:52:52Z</time>
      </trkpt>
      <trkpt lat="43.60722" lon="1.24407">
        <ele>232</ele>
        <time>2024-06-13T14:52:53Z</time>
      </trkpt>
      <trkpt lat="43.60719" lon="1.24401">
        <ele>232</ele>
        <time>2024-06-13T14:52:54Z</time>
      </trkpt>
      <trkpt lat="43.60715" lon="1.24395">
        <ele>232</ele>
        <time>2024-06-13T14:52:55Z</time>
      </trkpt>
      <trkpt lat="43.60711" lon="1.2439">
        <ele>232</ele>
        <time>2024-06-13T14:52:56Z</time>
      </trkpt>
      <trkpt lat="43.60707" lon="1.24386">
        <ele>232</ele>
        <time>2024-06-13T14:52:57Z</time>
      </trkpt>
      <trkpt lat="43.60702" lon="1.24383">
        <ele>232</ele>
        <time>2024-06-13T14:52:58Z</time>
      </trkpt>
      <trkpt lat="43.60697" lon="1.24381">
        <ele>231.8</ele>
        <time>2024-06-13T14:52:59Z</time>
      </trkpt>
      <trkpt lat="43.60691" lon="1.24381">
        <ele>231.8</ele>
        <time>2024-06-13T14:53:00Z</time>
      </trkpt>
      <trkpt lat="43.60686" lon="1.24381">
        <ele>231.8</ele>
        <time>2024-06-13T14:53:01Z</time>
      </trkpt>
      <trkpt lat="43.6068" lon="1.24381">
        <ele>232</ele>
        <time>2024-06-13T14:53:02Z</time>
      </trkpt>
      <trkpt lat="43.60675" lon="1.24381">
        <ele>232</ele>
        <time>2024-06-13T14:53:03Z</time>
      </trkpt>
      <trkpt lat="43.60669" lon="1.24381">
        <ele>232</ele>
        <time>2024-06-13T14:53:04Z</time>
      </trkpt>
      <trkpt lat="43.60664" lon="1.24382">
        <ele>232</ele>
        <time>2024-06-13T14:53:05Z</time>
      </trkpt>
      <trkpt lat="43.6066" lon="1.24384">
        <ele>232</ele>
        <time>2024-06-13T14:53:06Z</time>
      </trkpt>
      <trkpt lat="43.60657" lon="1.24386">
        <ele>232</ele>
        <time>2024-06-13T14:53:07Z</time>
      </trkpt>
      <trkpt lat="43.60654" lon="1.24388">
        <ele>232</ele>
        <time>2024-06-13T14:53:08Z</time>
      </trkpt>
      <trkpt lat="43.60653" lon="1.2439">
        <ele>232</ele>
        <time>2024-06-13T14:53:09Z</time>
      </trkpt>
      <trkpt lat="43.60651" lon="1.24392">
        <ele>232</ele>
        <time>2024-06-13T14:53:10Z</time>
      </trkpt>
      <trkpt lat="43.6065" lon="1.24392">
        <ele>232</ele>
        <time>2024-06-13T14:53:11Z</time>
      </trkpt>
      <trkpt lat="43.60649" lon="1.24392">
        <ele>232</ele>
        <time>2024-06-13T14:53:12Z</time>
      </trkpt>
      <trkpt lat="43.60647" lon="1.24392">
        <ele>232</ele>
        <time>2024-06-13T14:53:13Z</time>
      </trkpt>
      <trkpt lat="43.60646" lon="1.24393">
        <ele>232</ele>
        <time>2024-06-13T14:53:14Z</time>
      </trkpt>
      <trkpt lat="43.60645" lon="1.24393">
        <ele>232</ele>
        <time>2024-06-13T14:53:15Z</time>
      </trkpt>
      <trkpt lat="43.60644" lon="1.24396">
        <ele>232</ele>
        <time>2024-06-13T14:53:16Z</time>
      </trkpt>
      <trkpt lat="43.60644" lon="1.24398">
        <ele>231.8</ele>
        <time>2024-06-13T14:53:17Z</time>
      </trkpt>
      <trkpt lat="43.60644" lon="1.244">
        <ele>231.8</ele>
        <time>2024-06-13T14:53:18Z</time>
      </trkpt>
      <trkpt lat="43.60644" lon="1.24403">
        <ele>231.8</ele>
        <time>2024-06-13T14:53:19Z</time>
      </trkpt>
      <trkpt lat="43.60643" lon="1.24405">
        <ele>231.8</ele>
        <time>2024-06-13T14:53:20Z</time>
      </trkpt>
      <trkpt lat="43.60642" lon="1.24406">
        <ele>231.6</ele>
        <time>2024-06-13T14:53:21Z</time>
      </trkpt>
      <trkpt lat="43.6064" lon="1.24407">
        <ele>231.6</ele>
        <time>2024-06-13T14:53:22Z</time>
      </trkpt>
      <trkpt lat="43.60638" lon="1.24408">
        <ele>231.6</ele>
        <time>2024-06-13T14:53:23Z</time>
      </trkpt>
      <trkpt lat="43.60635" lon="1.24408">
        <ele>231.4</ele>
        <time>2024-06-13T14:53:24Z</time>
      </trkpt>
      <trkpt lat="43.60632" lon="1.2441">
        <ele>231.2</ele>
        <time>2024-06-13T14:53:25Z</time>
      </trkpt>
      <trkpt lat="43.6063" lon="1.24413">
        <ele>231.2</ele>
        <time>2024-06-13T14:53:26Z</time>
      </trkpt>
      <trkpt lat="43.60628" lon="1.24418">
        <ele>230.8</ele>
        <time>2024-06-13T14:53:27Z</time>
      </trkpt>
      <trkpt lat="43.60627" lon="1.24422">
        <ele>230.8</ele>
        <time>2024-06-13T14:53:28Z</time>
      </trkpt>
      <trkpt lat="43.60625" lon="1.24425">
        <ele>230.4</ele>
        <time>2024-06-13T14:53:29Z</time>
      </trkpt>
      <trkpt lat="43.60623" lon="1.24428">
        <ele>229.4</ele>
        <time>2024-06-13T14:53:30Z</time>
      </trkpt>
      <trkpt lat="43.60621" lon="1.2443">
        <ele>228.8</ele>
        <time>2024-06-13T14:53:31Z</time>
      </trkpt>
      <trkpt lat="43.6062" lon="1.24433">
        <ele>227.8</ele>
        <time>2024-06-13T14:53:32Z</time>
      </trkpt>
      <trkpt lat="43.60619" lon="1.24438">
        <ele>227.2</ele>
        <time>2024-06-13T14:53:33Z</time>
      </trkpt>
      <trkpt lat="43.60618" lon="1.24445">
        <ele>226.2</ele>
        <time>2024-06-13T14:53:34Z</time>
      </trkpt>
      <trkpt lat="43.60616" lon="1.2445">
        <ele>226</ele>
        <time>2024-06-13T14:53:35Z</time>
      </trkpt>
      <trkpt lat="43.60615" lon="1.24455">
        <ele>225.2</ele>
        <time>2024-06-13T14:53:36Z</time>
      </trkpt>
      <trkpt lat="43.60611" lon="1.24459">
        <ele>224.6</ele>
        <time>2024-06-13T14:53:37Z</time>
      </trkpt>
      <trkpt lat="43.60608" lon="1.24465">
        <ele>224.2</ele>
        <time>2024-06-13T14:53:38Z</time>
      </trkpt>
      <trkpt lat="43.60605" lon="1.24468">
        <ele>223.8</ele>
        <time>2024-06-13T14:53:39Z</time>
      </trkpt>
      <trkpt lat="43.60601" lon="1.2447">
        <ele>223.4</ele>
        <time>2024-06-13T14:53:40Z</time>
      </trkpt>
      <trkpt lat="43.60597" lon="1.24471">
        <ele>222.4</ele>
        <time>2024-06-13T14:53:41Z</time>
      </trkpt>
      <trkpt lat="43.60593" lon="1.24469">
        <ele>221.4</ele>
        <time>2024-06-13T14:53:42Z</time>
      </trkpt>
      <trkpt lat="43.60591" lon="1.24467">
        <ele>221</ele>
        <time>2024-06-13T14:53:43Z</time>
      </trkpt>
      <trkpt lat="43.6059" lon="1.24464">
        <ele>220.2</ele>
        <time>2024-06-13T14:53:44Z</time>
      </trkpt>
      <trkpt lat="43.60588" lon="1.2446">
        <ele>219.8</ele>
        <time>2024-06-13T14:53:45Z</time>
      </trkpt>
      <trkpt lat="43.60585" lon="1.24455">
        <ele>219</ele>
        <time>2024-06-13T14:53:46Z</time>
      </trkpt>
      <trkpt lat="43.60582" lon="1.2445">
        <ele>218.8</ele>
        <time>2024-06-13T14:53:47Z</time>
      </trkpt>
      <trkpt lat="43.6058" lon="1.24445">
        <ele>218.4</ele>
        <time>2024-06-13T14:53:48Z</time>
      </trkpt>
      <trkpt lat="43.60578" lon="1.24441">
        <ele>218</ele>
        <time>2024-06-13T14:53:49Z</time>
      </trkpt>
      <trkpt lat="43.60576" lon="1.24434">
        <ele>218</ele>
        <time>2024-06-13T14:53:50Z</time>
      </trkpt>
      <trkpt lat="43.60573" lon="1.24428">
        <ele>217.6</ele>
        <time>2024-06-13T14:53:51Z</time>
      </trkpt>
      <trkpt lat="43.6057" lon="1.24422">
        <ele>217.6</ele>
        <time>2024-06-13T14:53:52Z</time>
      </trkpt>
      <trkpt lat="43.60566" lon="1.24414">
        <ele>217.6</ele>
        <time>2024-06-13T14:53:53Z</time>
      </trkpt>
      <trkpt lat="43.60562" lon="1.24406">
        <ele>217.6</ele>
        <time>2024-06-13T14:53:54Z</time>
      </trkpt>
      <trkpt lat="43.60559" lon="1.24399">
        <ele>217.4</ele>
        <time>2024-06-13T14:53:55Z</time>
      </trkpt>
      <trkpt lat="43.60555" lon="1.2439">
        <ele>217.4</ele>
        <time>2024-06-13T14:53:56Z</time>
      </trkpt>
      <trkpt lat="43.60552" lon="1.24383">
        <ele>217.2</ele>
        <time>2024-06-13T14:53:57Z</time>
      </trkpt>
      <trkpt lat="43.60549" lon="1.24376">
        <ele>217.2</ele>
        <time>2024-06-13T14:53:58Z</time>
      </trkpt>
      <trkpt lat="43.60546" lon="1.24368">
        <ele>217.2</ele>
        <time>2024-06-13T14:53:59Z</time>
      </trkpt>
      <trkpt lat="43.60543" lon="1.24361">
        <ele>217.2</ele>
        <time>2024-06-13T14:54:00Z</time>
      </trkpt>
      <trkpt lat="43.60539" lon="1.24354">
        <ele>217.2</ele>
        <time>2024-06-13T14:54:01Z</time>
      </trkpt>
      <trkpt lat="43.60536" lon="1.24347">
        <ele>217.2</ele>
        <time>2024-06-13T14:54:02Z</time>
      </trkpt>
      <trkpt lat="43.60532" lon="1.2434">
        <ele>217</ele>
        <time>2024-06-13T14:54:03Z</time>
      </trkpt>
      <trkpt lat="43.60528" lon="1.24333">
        <ele>217</ele>
        <time>2024-06-13T14:54:04Z</time>
      </trkpt>
      <trkpt lat="43.60525" lon="1.24326">
        <ele>217</ele>
        <time>2024-06-13T14:54:05Z</time>
      </trkpt>
      <trkpt lat="43.60522" lon="1.24319">
        <ele>217</ele>
        <time>2024-06-13T14:54:06Z</time>
      </trkpt>
      <trkpt lat="43.60519" lon="1.24312">
        <ele>217</ele>
        <time>2024-06-13T14:54:07Z</time>
      </trkpt>
      <trkpt lat="43.60515" lon="1.24305">
        <ele>217.2</ele>
        <time>2024-06-13T14:54:08Z</time>
      </trkpt>
      <trkpt lat="43.60512" lon="1.24299">
        <ele>217.2</ele>
        <time>2024-06-13T14:54:09Z</time>
      </trkpt>
      <trkpt lat="43.60508" lon="1.24292">
        <ele>217.2</ele>
        <time>2024-06-13T14:54:10Z</time>
      </trkpt>
      <trkpt lat="43.60505" lon="1.24286">
        <ele>217.2</ele>
        <time>2024-06-13T14:54:11Z</time>
      </trkpt>
      <trkpt lat="43.60502" lon="1.2428">
        <ele>217.2</ele>
        <time>2024-06-13T14:54:12Z</time>
      </trkpt>
      <trkpt lat="43.605" lon="1.24274">
        <ele>217.2</ele>
        <time>2024-06-13T14:54:13Z</time>
      </trkpt>
      <trkpt lat="43.60498" lon="1.2427">
        <ele>217.2</ele>
        <time>2024-06-13T14:54:14Z</time>
      </trkpt>
      <trkpt lat="43.60497" lon="1.24267">
        <ele>217.2</ele>
        <time>2024-06-13T14:54:15Z</time>
      </trkpt>
      <trkpt lat="43.60495" lon="1.24262">
        <ele>217.2</ele>
        <time>2024-06-13T14:54:16Z</time>
      </trkpt>
      <trkpt lat="43.60493" lon="1.24257">
        <ele>217.2</ele>
        <time>2024-06-13T14:54:17Z</time>
      </trkpt>
      <trkpt lat="43.60491" lon="1.24252">
        <ele>217.2</ele>
        <time>2024-06-13T14:54:18Z</time>
      </trkpt>
      <trkpt lat="43.60489" lon="1.24247">
        <ele>217.2</ele>
        <time>2024-06-13T14:54:19Z</time>
      </trkpt>
      <trkpt lat="43.60486" lon="1.24242">
        <ele>217.2</ele>
        <time>2024-06-13T14:54:20Z</time>
      </trkpt>
      <trkpt lat="43.60483" lon="1.24235">
        <ele>217.2</ele>
        <time>2024-06-13T14:54:21Z</time>
      </trkpt>
      <trkpt lat="43.6048" lon="1.24228">
        <ele>217.2</ele>
        <time>2024-06-13T14:54:22Z</time>
      </trkpt>
      <trkpt lat="43.60476" lon="1.24221">
        <ele>217.2</ele>
        <time>2024-06-13T14:54:23Z</time>
      </trkpt>
      <trkpt lat="43.60473" lon="1.24213">
        <ele>217.2</ele>
        <time>2024-06-13T14:54:24Z</time>
      </trkpt>
      <trkpt lat="43.60471" lon="1.24206">
        <ele>217.2</ele>
        <time>2024-06-13T14:54:25Z</time>
      </trkpt>
      <trkpt lat="43.60469" lon="1.242">
        <ele>217.4</ele>
        <time>2024-06-13T14:54:26Z</time>
      </trkpt>
      <trkpt lat="43.60467" lon="1.24194">
        <ele>217.4</ele>
        <time>2024-06-13T14:54:27Z</time>
      </trkpt>
      <trkpt lat="43.60463" lon="1.24187">
        <ele>217.4</ele>
        <time>2024-06-13T14:54:28Z</time>
      </trkpt>
      <trkpt lat="43.6046" lon="1.2418">
        <ele>217.4</ele>
        <time>2024-06-13T14:54:29Z</time>
      </trkpt>
      <trkpt lat="43.60457" lon="1.24173">
        <ele>217.4</ele>
        <time>2024-06-13T14:54:30Z</time>
      </trkpt>
      <trkpt lat="43.60453" lon="1.24165">
        <ele>217.4</ele>
        <time>2024-06-13T14:54:31Z</time>
      </trkpt>
      <trkpt lat="43.6045" lon="1.24158">
        <ele>217.4</ele>
        <time>2024-06-13T14:54:32Z</time>
      </trkpt>
      <trkpt lat="43.60447" lon="1.24151">
        <ele>217.6</ele>
        <time>2024-06-13T14:54:33Z</time>
      </trkpt>
      <trkpt lat="43.60445" lon="1.24145">
        <ele>217.6</ele>
        <time>2024-06-13T14:54:34Z</time>
      </trkpt>
      <trkpt lat="43.60441" lon="1.24138">
        <ele>217.6</ele>
        <time>2024-06-13T14:54:35Z</time>
      </trkpt>
      <trkpt lat="43.60436" lon="1.2413">
        <ele>217.6</ele>
        <time>2024-06-13T14:54:36Z</time>
      </trkpt>
      <trkpt lat="43.60432" lon="1.24124">
        <ele>217.6</ele>
        <time>2024-06-13T14:54:37Z</time>
      </trkpt>
      <trkpt lat="43.60429" lon="1.24118">
        <ele>217.8</ele>
        <time>2024-06-13T14:54:38Z</time>
      </trkpt>
      <trkpt lat="43.60425" lon="1.24112">
        <ele>217.8</ele>
        <time>2024-06-13T14:54:39Z</time>
      </trkpt>
      <trkpt lat="43.60422" lon="1.24107">
        <ele>217.8</ele>
        <time>2024-06-13T14:54:40Z</time>
      </trkpt>
      <trkpt lat="43.60418" lon="1.24102">
        <ele>218</ele>
        <time>2024-06-13T14:54:41Z</time>
      </trkpt>
      <trkpt lat="43.60414" lon="1.24095">
        <ele>218.2</ele>
        <time>2024-06-13T14:54:42Z</time>
      </trkpt>
      <trkpt lat="43.6041" lon="1.24088">
        <ele>218.4</ele>
        <time>2024-06-13T14:54:43Z</time>
      </trkpt>
      <trkpt lat="43.60406" lon="1.24081">
        <ele>218.4</ele>
        <time>2024-06-13T14:54:44Z</time>
      </trkpt>
      <trkpt lat="43.60402" lon="1.24074">
        <ele>218.4</ele>
        <time>2024-06-13T14:54:45Z</time>
      </trkpt>
      <trkpt lat="43.60397" lon="1.24067">
        <ele>218.4</ele>
        <time>2024-06-13T14:54:46Z</time>
      </trkpt>
      <trkpt lat="43.60391" lon="1.24061">
        <ele>218.4</ele>
        <time>2024-06-13T14:54:47Z</time>
      </trkpt>
      <trkpt lat="43.60386" lon="1.24055">
        <ele>218.4</ele>
        <time>2024-06-13T14:54:48Z</time>
      </trkpt>
      <trkpt lat="43.60383" lon="1.24052">
        <ele>218.4</ele>
        <time>2024-06-13T14:54:49Z</time>
      </trkpt>
      <trkpt lat="43.60379" lon="1.24047">
        <ele>218.4</ele>
        <time>2024-06-13T14:54:50Z</time>
      </trkpt>
      <trkpt lat="43.60374" lon="1.24041">
        <ele>218.4</ele>
        <time>2024-06-13T14:54:51Z</time>
      </trkpt>
      <trkpt lat="43.60369" lon="1.24036">
        <ele>218.4</ele>
        <time>2024-06-13T14:54:52Z</time>
      </trkpt>
      <trkpt lat="43.60364" lon="1.24031">
        <ele>218.6</ele>
        <time>2024-06-13T14:54:53Z</time>
      </trkpt>
      <trkpt lat="43.60359" lon="1.24026">
        <ele>218.6</ele>
        <time>2024-06-13T14:54:54Z</time>
      </trkpt>
      <trkpt lat="43.60354" lon="1.2402">
        <ele>218.6</ele>
        <time>2024-06-13T14:54:55Z</time>
      </trkpt>
      <trkpt lat="43.60349" lon="1.24015">
        <ele>218.6</ele>
        <time>2024-06-13T14:54:56Z</time>
      </trkpt>
      <trkpt lat="43.60344" lon="1.2401">
        <ele>218.6</ele>
        <time>2024-06-13T14:54:57Z</time>
      </trkpt>
      <trkpt lat="43.60339" lon="1.24005">
        <ele>218.6</ele>
        <time>2024-06-13T14:54:58Z</time>
      </trkpt>
      <trkpt lat="43.60334" lon="1.24">
        <ele>218.6</ele>
        <time>2024-06-13T14:54:59Z</time>
      </trkpt>
      <trkpt lat="43.60329" lon="1.23995">
        <ele>218.6</ele>
        <time>2024-06-13T14:55:00Z</time>
      </trkpt>
      <trkpt lat="43.60324" lon="1.23991">
        <ele>218.6</ele>
        <time>2024-06-13T14:55:01Z</time>
      </trkpt>
      <trkpt lat="43.6032" lon="1.23986">
        <ele>218.6</ele>
        <time>2024-06-13T14:55:02Z</time>
      </trkpt>
      <trkpt lat="43.60315" lon="1.23983">
        <ele>218.6</ele>
        <time>2024-06-13T14:55:03Z</time>
      </trkpt>
      <trkpt lat="43.60311" lon="1.23983">
        <ele>218.6</ele>
        <time>2024-06-13T14:55:04Z</time>
      </trkpt>
      <trkpt lat="43.60307" lon="1.23986">
        <ele>218.6</ele>
        <time>2024-06-13T14:55:05Z</time>
      </trkpt>
      <trkpt lat="43.60304" lon="1.23989">
        <ele>218.6</ele>
        <time>2024-06-13T14:55:06Z</time>
      </trkpt>
      <trkpt lat="43.603" lon="1.23992">
        <ele>218.6</ele>
        <time>2024-06-13T14:55:07Z</time>
      </trkpt>
      <trkpt lat="43.60298" lon="1.23996">
        <ele>218.6</ele>
        <time>2024-06-13T14:55:08Z</time>
      </trkpt>
      <trkpt lat="43.60295" lon="1.23999">
        <ele>218.8</ele>
        <time>2024-06-13T14:55:09Z</time>
      </trkpt>
      <trkpt lat="43.60293" lon="1.24002">
        <ele>218.8</ele>
        <time>2024-06-13T14:55:10Z</time>
      </trkpt>
      <trkpt lat="43.6029" lon="1.24006">
        <ele>219</ele>
        <time>2024-06-13T14:55:11Z</time>
      </trkpt>
      <trkpt lat="43.60286" lon="1.2401">
        <ele>219</ele>
        <time>2024-06-13T14:55:12Z</time>
      </trkpt>
      <trkpt lat="43.60282" lon="1.24014">
        <ele>219.2</ele>
        <time>2024-06-13T14:55:13Z</time>
      </trkpt>
      <trkpt lat="43.60278" lon="1.24017">
        <ele>219.2</ele>
        <time>2024-06-13T14:55:14Z</time>
      </trkpt>
      <trkpt lat="43.60274" lon="1.24019">
        <ele>219.2</ele>
        <time>2024-06-13T14:55:15Z</time>
      </trkpt>
      <trkpt lat="43.60269" lon="1.24021">
        <ele>219.2</ele>
        <time>2024-06-13T14:55:16Z</time>
      </trkpt>
      <trkpt lat="43.60265" lon="1.24022">
        <ele>219.2</ele>
        <time>2024-06-13T14:55:17Z</time>
      </trkpt>
      <trkpt lat="43.6026" lon="1.24024">
        <ele>219.4</ele>
        <time>2024-06-13T14:55:18Z</time>
      </trkpt>
      <trkpt lat="43.60256" lon="1.24025">
        <ele>219.4</ele>
        <time>2024-06-13T14:55:19Z</time>
      </trkpt>
      <trkpt lat="43.60251" lon="1.24025">
        <ele>219.4</ele>
        <time>2024-06-13T14:55:20Z</time>
      </trkpt>
      <trkpt lat="43.60246" lon="1.24023">
        <ele>219.4</ele>
        <time>2024-06-13T14:55:21Z</time>
      </trkpt>
      <trkpt lat="43.60241" lon="1.24022">
        <ele>219.4</ele>
        <time>2024-06-13T14:55:22Z</time>
      </trkpt>
      <trkpt lat="43.60237" lon="1.24019">
        <ele>219.6</ele>
        <time>2024-06-13T14:55:23Z</time>
      </trkpt>
      <trkpt lat="43.60232" lon="1.24016">
        <ele>219.6</ele>
        <time>2024-06-13T14:55:24Z</time>
      </trkpt>
      <trkpt lat="43.60227" lon="1.24013">
        <ele>219.6</ele>
        <time>2024-06-13T14:55:25Z</time>
      </trkpt>
      <trkpt lat="43.60222" lon="1.24009">
        <ele>219.8</ele>
        <time>2024-06-13T14:55:26Z</time>
      </trkpt>
      <trkpt lat="43.60217" lon="1.24006">
        <ele>219.8</ele>
        <time>2024-06-13T14:55:27Z</time>
      </trkpt>
      <trkpt lat="43.60213" lon="1.24002">
        <ele>219.8</ele>
        <time>2024-06-13T14:55:28Z</time>
      </trkpt>
      <trkpt lat="43.60209" lon="1.23998">
        <ele>219.8</ele>
        <time>2024-06-13T14:55:29Z</time>
      </trkpt>
      <trkpt lat="43.60205" lon="1.23994">
        <ele>219.8</ele>
        <time>2024-06-13T14:55:30Z</time>
      </trkpt>
      <trkpt lat="43.602" lon="1.23988">
        <ele>219.8</ele>
        <time>2024-06-13T14:55:31Z</time>
      </trkpt>
      <trkpt lat="43.60196" lon="1.23983">
        <ele>219.8</ele>
        <time>2024-06-13T14:55:32Z</time>
      </trkpt>
      <trkpt lat="43.60192" lon="1.23977">
        <ele>219.8</ele>
        <time>2024-06-13T14:55:33Z</time>
      </trkpt>
      <trkpt lat="43.60188" lon="1.23971">
        <ele>219.8</ele>
        <time>2024-06-13T14:55:34Z</time>
      </trkpt>
      <trkpt lat="43.60184" lon="1.23964">
        <ele>219.8</ele>
        <time>2024-06-13T14:55:35Z</time>
      </trkpt>
      <trkpt lat="43.6018" lon="1.23958">
        <ele>219.8</ele>
        <time>2024-06-13T14:55:36Z</time>
      </trkpt>
      <trkpt lat="43.60176" lon="1.23953">
        <ele>219.8</ele>
        <time>2024-06-13T14:55:37Z</time>
      </trkpt>
      <trkpt lat="43.60171" lon="1.23948">
        <ele>219.8</ele>
        <time>2024-06-13T14:55:38Z</time>
      </trkpt>
      <trkpt lat="43.60165" lon="1.23944">
        <ele>219.8</ele>
        <time>2024-06-13T14:55:39Z</time>
      </trkpt>
      <trkpt lat="43.6016" lon="1.2394">
        <ele>219.6</ele>
        <time>2024-06-13T14:55:40Z</time>
      </trkpt>
      <trkpt lat="43.60155" lon="1.23937">
        <ele>219.6</ele>
        <time>2024-06-13T14:55:41Z</time>
      </trkpt>
      <trkpt lat="43.60149" lon="1.23935">
        <ele>219.6</ele>
        <time>2024-06-13T14:55:42Z</time>
      </trkpt>
      <trkpt lat="43.60143" lon="1.23933">
        <ele>219.6</ele>
        <time>2024-06-13T14:55:43Z</time>
      </trkpt>
      <trkpt lat="43.60138" lon="1.2393">
        <ele>219.6</ele>
        <time>2024-06-13T14:55:44Z</time>
      </trkpt>
      <trkpt lat="43.60133" lon="1.23927">
        <ele>219.6</ele>
        <time>2024-06-13T14:55:45Z</time>
      </trkpt>
      <trkpt lat="43.6013" lon="1.23922">
        <ele>219.6</ele>
        <time>2024-06-13T14:55:46Z</time>
      </trkpt>
      <trkpt lat="43.60128" lon="1.23916">
        <ele>219.6</ele>
        <time>2024-06-13T14:55:47Z</time>
      </trkpt>
      <trkpt lat="43.60126" lon="1.2391">
        <ele>219.6</ele>
        <time>2024-06-13T14:55:48Z</time>
      </trkpt>
      <trkpt lat="43.60124" lon="1.23905">
        <ele>219.6</ele>
        <time>2024-06-13T14:55:49Z</time>
      </trkpt>
      <trkpt lat="43.60121" lon="1.23901">
        <ele>219.6</ele>
        <time>2024-06-13T14:55:50Z</time>
      </trkpt>
      <trkpt lat="43.60117" lon="1.23898">
        <ele>219.6</ele>
        <time>2024-06-13T14:55:51Z</time>
      </trkpt>
      <trkpt lat="43.60113" lon="1.23896">
        <ele>219.8</ele>
        <time>2024-06-13T14:55:52Z</time>
      </trkpt>
      <trkpt lat="43.60109" lon="1.23894">
        <ele>219.8</ele>
        <time>2024-06-13T14:55:53Z</time>
      </trkpt>
      <trkpt lat="43.60104" lon="1.23892">
        <ele>220</ele>
        <time>2024-06-13T14:55:54Z</time>
      </trkpt>
      <trkpt lat="43.60099" lon="1.23891">
        <ele>220</ele>
        <time>2024-06-13T14:55:55Z</time>
      </trkpt>
      <trkpt lat="43.60094" lon="1.23893">
        <ele>220</ele>
        <time>2024-06-13T14:55:56Z</time>
      </trkpt>
      <trkpt lat="43.6009" lon="1.23896">
        <ele>220</ele>
        <time>2024-06-13T14:55:57Z</time>
      </trkpt>
      <trkpt lat="43.60087" lon="1.23901">
        <ele>220</ele>
        <time>2024-06-13T14:55:58Z</time>
      </trkpt>
      <trkpt lat="43.60083" lon="1.23907">
        <ele>220</ele>
        <time>2024-06-13T14:55:59Z</time>
      </trkpt>
      <trkpt lat="43.6008" lon="1.2391">
        <ele>220</ele>
        <time>2024-06-13T14:56:00Z</time>
      </trkpt>
      <trkpt lat="43.60077" lon="1.23913">
        <ele>220.2</ele>
        <time>2024-06-13T14:56:01Z</time>
      </trkpt>
      <trkpt lat="43.60075" lon="1.23916">
        <ele>220.2</ele>
        <time>2024-06-13T14:56:02Z</time>
      </trkpt>
      <trkpt lat="43.60072" lon="1.23919">
        <ele>220.4</ele>
        <time>2024-06-13T14:56:03Z</time>
      </trkpt>
      <trkpt lat="43.6007" lon="1.2392">
        <ele>220.6</ele>
        <time>2024-06-13T14:56:04Z</time>
      </trkpt>
      <trkpt lat="43.60068" lon="1.23922">
        <ele>221.4</ele>
        <time>2024-06-13T14:56:05Z</time>
      </trkpt>
      <trkpt lat="43.60066" lon="1.23923">
        <ele>222.4</ele>
        <time>2024-06-13T14:56:06Z</time>
      </trkpt>
      <trkpt lat="43.60063" lon="1.23924">
        <ele>222.6</ele>
        <time>2024-06-13T14:56:07Z</time>
      </trkpt>
      <trkpt lat="43.6006" lon="1.23925">
        <ele>223</ele>
        <time>2024-06-13T14:56:08Z</time>
      </trkpt>
      <trkpt lat="43.60057" lon="1.23926">
        <ele>223</ele>
        <time>2024-06-13T14:56:09Z</time>
      </trkpt>
      <trkpt lat="43.60054" lon="1.23927">
        <ele>223.4</ele>
        <time>2024-06-13T14:56:10Z</time>
      </trkpt>
      <trkpt lat="43.6005" lon="1.23928">
        <ele>223.6</ele>
        <time>2024-06-13T14:56:11Z</time>
      </trkpt>
      <trkpt lat="43.60046" lon="1.23929">
        <ele>223.6</ele>
        <time>2024-06-13T14:56:12Z</time>
      </trkpt>
      <trkpt lat="43.60043" lon="1.2393">
        <ele>223.8</ele>
        <time>2024-06-13T14:56:13Z</time>
      </trkpt>
      <trkpt lat="43.60039" lon="1.23933">
        <ele>223.8</ele>
        <time>2024-06-13T14:56:14Z</time>
      </trkpt>
      <trkpt lat="43.60037" lon="1.23936">
        <ele>224</ele>
        <time>2024-06-13T14:56:15Z</time>
      </trkpt>
      <trkpt lat="43.60035" lon="1.2394">
        <ele>224</ele>
        <time>2024-06-13T14:56:16Z</time>
      </trkpt>
      <trkpt lat="43.60035" lon="1.23945">
        <ele>224</ele>
        <time>2024-06-13T14:56:17Z</time>
      </trkpt>
      <trkpt lat="43.60035" lon="1.2395">
        <ele>224</ele>
        <time>2024-06-13T14:56:18Z</time>
      </trkpt>
      <trkpt lat="43.60035" lon="1.23956">
        <ele>224.2</ele>
        <time>2024-06-13T14:56:19Z</time>
      </trkpt>
      <trkpt lat="43.60035" lon="1.23961">
        <ele>224.6</ele>
        <time>2024-06-13T14:56:20Z</time>
      </trkpt>
      <trkpt lat="43.60035" lon="1.23966">
        <ele>224.6</ele>
        <time>2024-06-13T14:56:21Z</time>
      </trkpt>
      <trkpt lat="43.60035" lon="1.23972">
        <ele>224.8</ele>
        <time>2024-06-13T14:56:22Z</time>
      </trkpt>
      <trkpt lat="43.60035" lon="1.23977">
        <ele>225</ele>
        <time>2024-06-13T14:56:23Z</time>
      </trkpt>
      <trkpt lat="43.60035" lon="1.23983">
        <ele>225</ele>
        <time>2024-06-13T14:56:24Z</time>
      </trkpt>
      <trkpt lat="43.60035" lon="1.23988">
        <ele>225.4</ele>
        <time>2024-06-13T14:56:25Z</time>
      </trkpt>
      <trkpt lat="43.60035" lon="1.23993">
        <ele>225.6</ele>
        <time>2024-06-13T14:56:26Z</time>
      </trkpt>
      <trkpt lat="43.60035" lon="1.23999">
        <ele>225.8</ele>
        <time>2024-06-13T14:56:27Z</time>
      </trkpt>
      <trkpt lat="43.60035" lon="1.24005">
        <ele>226</ele>
        <time>2024-06-13T14:56:28Z</time>
      </trkpt>
      <trkpt lat="43.60035" lon="1.24009">
        <ele>226.4</ele>
        <time>2024-06-13T14:56:29Z</time>
      </trkpt>
      <trkpt lat="43.60035" lon="1.24014">
        <ele>226.6</ele>
        <time>2024-06-13T14:56:30Z</time>
      </trkpt>
      <trkpt lat="43.60035" lon="1.2402">
        <ele>226.8</ele>
        <time>2024-06-13T14:56:31Z</time>
      </trkpt>
      <trkpt lat="43.60035" lon="1.24025">
        <ele>227</ele>
        <time>2024-06-13T14:56:32Z</time>
      </trkpt>
      <trkpt lat="43.60036" lon="1.24031">
        <ele>227</ele>
        <time>2024-06-13T14:56:33Z</time>
      </trkpt>
      <trkpt lat="43.60036" lon="1.24035">
        <ele>227.4</ele>
        <time>2024-06-13T14:56:34Z</time>
      </trkpt>
      <trkpt lat="43.60037" lon="1.2404">
        <ele>227.6</ele>
        <time>2024-06-13T14:56:35Z</time>
      </trkpt>
      <trkpt lat="43.60036" lon="1.24045">
        <ele>227.8</ele>
        <time>2024-06-13T14:56:36Z</time>
      </trkpt>
      <trkpt lat="43.60035" lon="1.2405">
        <ele>228</ele>
        <time>2024-06-13T14:56:37Z</time>
      </trkpt>
      <trkpt lat="43.60034" lon="1.24055">
        <ele>228.2</ele>
        <time>2024-06-13T14:56:38Z</time>
      </trkpt>
      <trkpt lat="43.60034" lon="1.2406">
        <ele>228.4</ele>
        <time>2024-06-13T14:56:39Z</time>
      </trkpt>
      <trkpt lat="43.60034" lon="1.24066">
        <ele>228.6</ele>
        <time>2024-06-13T14:56:40Z</time>
      </trkpt>
      <trkpt lat="43.60034" lon="1.24071">
        <ele>228.6</ele>
        <time>2024-06-13T14:56:41Z</time>
      </trkpt>
      <trkpt lat="43.60034" lon="1.24076">
        <ele>228.8</ele>
        <time>2024-06-13T14:56:42Z</time>
      </trkpt>
      <trkpt lat="43.60034" lon="1.24082">
        <ele>229</ele>
        <time>2024-06-13T14:56:43Z</time>
      </trkpt>
      <trkpt lat="43.60033" lon="1.24087">
        <ele>229.2</ele>
        <time>2024-06-13T14:56:44Z</time>
      </trkpt>
      <trkpt lat="43.60033" lon="1.24092">
        <ele>229.4</ele>
        <time>2024-06-13T14:56:45Z</time>
      </trkpt>
      <trkpt lat="43.60034" lon="1.24098">
        <ele>229.8</ele>
        <time>2024-06-13T14:56:46Z</time>
      </trkpt>
      <trkpt lat="43.60034" lon="1.24103">
        <ele>230</ele>
        <time>2024-06-13T14:56:47Z</time>
      </trkpt>
      <trkpt lat="43.60034" lon="1.24108">
        <ele>230.4</ele>
        <time>2024-06-13T14:56:48Z</time>
      </trkpt>
      <trkpt lat="43.60034" lon="1.24113">
        <ele>230.4</ele>
        <time>2024-06-13T14:56:49Z</time>
      </trkpt>
      <trkpt lat="43.60034" lon="1.24119">
        <ele>230.8</ele>
        <time>2024-06-13T14:56:50Z</time>
      </trkpt>
      <trkpt lat="43.60034" lon="1.24124">
        <ele>231</ele>
        <time>2024-06-13T14:56:51Z</time>
      </trkpt>
      <trkpt lat="43.60034" lon="1.24129">
        <ele>231</ele>
        <time>2024-06-13T14:56:52Z</time>
      </trkpt>
      <trkpt lat="43.60035" lon="1.24133">
        <ele>231.2</ele>
        <time>2024-06-13T14:56:53Z</time>
      </trkpt>
      <trkpt lat="43.60035" lon="1.24137">
        <ele>231.4</ele>
        <time>2024-06-13T14:56:54Z</time>
      </trkpt>
      <trkpt lat="43.60035" lon="1.2414">
        <ele>231.6</ele>
        <time>2024-06-13T14:56:55Z</time>
      </trkpt>
      <trkpt lat="43.60034" lon="1.24144">
        <ele>231.8</ele>
        <time>2024-06-13T14:56:56Z</time>
      </trkpt>
      <trkpt lat="43.60032" lon="1.24145">
        <ele>232.2</ele>
        <time>2024-06-13T14:56:57Z</time>
      </trkpt>
      <trkpt lat="43.60031" lon="1.24146">
        <ele>232.4</ele>
        <time>2024-06-13T14:56:58Z</time>
      </trkpt>
      <trkpt lat="43.6003" lon="1.24146">
        <ele>232.4</ele>
        <time>2024-06-13T14:56:59Z</time>
      </trkpt>
      <trkpt lat="43.60028" lon="1.24146">
        <ele>232.6</ele>
        <time>2024-06-13T14:57:00Z</time>
      </trkpt>
      <trkpt lat="43.60026" lon="1.24146">
        <ele>232.6</ele>
        <time>2024-06-13T14:57:01Z</time>
      </trkpt>
      <trkpt lat="43.60025" lon="1.24149">
        <ele>232.8</ele>
        <time>2024-06-13T14:57:02Z</time>
      </trkpt>
      <trkpt lat="43.60024" lon="1.24152">
        <ele>232.8</ele>
        <time>2024-06-13T14:57:03Z</time>
      </trkpt>
      <trkpt lat="43.60022" lon="1.24156">
        <ele>232.8</ele>
        <time>2024-06-13T14:57:04Z</time>
      </trkpt>
      <trkpt lat="43.6002" lon="1.24158">
        <ele>232.8</ele>
        <time>2024-06-13T14:57:05Z</time>
      </trkpt>
      <trkpt lat="43.60016" lon="1.24158">
        <ele>232.8</ele>
        <time>2024-06-13T14:57:06Z</time>
      </trkpt>
      <trkpt lat="43.60012" lon="1.24159">
        <ele>233</ele>
        <time>2024-06-13T14:57:07Z</time>
      </trkpt>
      <trkpt lat="43.60008" lon="1.24159">
        <ele>233</ele>
        <time>2024-06-13T14:57:08Z</time>
      </trkpt>
      <trkpt lat="43.60003" lon="1.24159">
        <ele>233</ele>
        <time>2024-06-13T14:57:09Z</time>
      </trkpt>
      <trkpt lat="43.59999" lon="1.2416">
        <ele>233</ele>
        <time>2024-06-13T14:57:10Z</time>
      </trkpt>
      <trkpt lat="43.59994" lon="1.24162">
        <ele>233</ele>
        <time>2024-06-13T14:57:11Z</time>
      </trkpt>
      <trkpt lat="43.5999" lon="1.24165">
        <ele>233.2</ele>
        <time>2024-06-13T14:57:12Z</time>
      </trkpt>
      <trkpt lat="43.59986" lon="1.24168">
        <ele>233.2</ele>
        <time>2024-06-13T14:57:13Z</time>
      </trkpt>
      <trkpt lat="43.59982" lon="1.24172">
        <ele>233.2</ele>
        <time>2024-06-13T14:57:14Z</time>
      </trkpt>
      <trkpt lat="43.59978" lon="1.24176">
        <ele>233.2</ele>
        <time>2024-06-13T14:57:15Z</time>
      </trkpt>
      <trkpt lat="43.59975" lon="1.2418">
        <ele>233.4</ele>
        <time>2024-06-13T14:57:16Z</time>
      </trkpt>
      <trkpt lat="43.59971" lon="1.24185">
        <ele>233.4</ele>
        <time>2024-06-13T14:57:17Z</time>
      </trkpt>
      <trkpt lat="43.59967" lon="1.2419">
        <ele>233.4</ele>
        <time>2024-06-13T14:57:18Z</time>
      </trkpt>
      <trkpt lat="43.59963" lon="1.24194">
        <ele>233.4</ele>
        <time>2024-06-13T14:57:19Z</time>
      </trkpt>
      <trkpt lat="43.59959" lon="1.24199">
        <ele>233.4</ele>
        <time>2024-06-13T14:57:20Z</time>
      </trkpt>
      <trkpt lat="43.59956" lon="1.24204">
        <ele>233.6</ele>
        <time>2024-06-13T14:57:21Z</time>
      </trkpt>
      <trkpt lat="43.59952" lon="1.24209">
        <ele>233.6</ele>
        <time>2024-06-13T14:57:22Z</time>
      </trkpt>
      <trkpt lat="43.59948" lon="1.24214">
        <ele>233.8</ele>
        <time>2024-06-13T14:57:23Z</time>
      </trkpt>
      <trkpt lat="43.59944" lon="1.24219">
        <ele>233.8</ele>
        <time>2024-06-13T14:57:24Z</time>
      </trkpt>
      <trkpt lat="43.5994" lon="1.24225">
        <ele>233.8</ele>
        <time>2024-06-13T14:57:25Z</time>
      </trkpt>
      <trkpt lat="43.59936" lon="1.2423">
        <ele>233.8</ele>
        <time>2024-06-13T14:57:26Z</time>
      </trkpt>
      <trkpt lat="43.59932" lon="1.24236">
        <ele>233.8</ele>
        <time>2024-06-13T14:57:27Z</time>
      </trkpt>
      <trkpt lat="43.59929" lon="1.24241">
        <ele>233.8</ele>
        <time>2024-06-13T14:57:28Z</time>
      </trkpt>
      <trkpt lat="43.59925" lon="1.24246">
        <ele>233.8</ele>
        <time>2024-06-13T14:57:29Z</time>
      </trkpt>
      <trkpt lat="43.59921" lon="1.24252">
        <ele>233.8</ele>
        <time>2024-06-13T14:57:30Z</time>
      </trkpt>
      <trkpt lat="43.59917" lon="1.24258">
        <ele>233.8</ele>
        <time>2024-06-13T14:57:31Z</time>
      </trkpt>
      <trkpt lat="43.59914" lon="1.24263">
        <ele>233.8</ele>
        <time>2024-06-13T14:57:32Z</time>
      </trkpt>
      <trkpt lat="43.5991" lon="1.24268">
        <ele>234</ele>
        <time>2024-06-13T14:57:33Z</time>
      </trkpt>
      <trkpt lat="43.59907" lon="1.24274">
        <ele>234</ele>
        <time>2024-06-13T14:57:34Z</time>
      </trkpt>
      <trkpt lat="43.59903" lon="1.24279">
        <ele>234</ele>
        <time>2024-06-13T14:57:35Z</time>
      </trkpt>
      <trkpt lat="43.59899" lon="1.24285">
        <ele>234</ele>
        <time>2024-06-13T14:57:36Z</time>
      </trkpt>
      <trkpt lat="43.59895" lon="1.24291">
        <ele>234</ele>
        <time>2024-06-13T14:57:37Z</time>
      </trkpt>
      <trkpt lat="43.59892" lon="1.24298">
        <ele>234.2</ele>
        <time>2024-06-13T14:57:38Z</time>
      </trkpt>
      <trkpt lat="43.59888" lon="1.24304">
        <ele>234.2</ele>
        <time>2024-06-13T14:57:39Z</time>
      </trkpt>
      <trkpt lat="43.59884" lon="1.2431">
        <ele>234.4</ele>
        <time>2024-06-13T14:57:40Z</time>
      </trkpt>
      <trkpt lat="43.59881" lon="1.24317">
        <ele>234.4</ele>
        <time>2024-06-13T14:57:41Z</time>
      </trkpt>
      <trkpt lat="43.59877" lon="1.24323">
        <ele>234.6</ele>
        <time>2024-06-13T14:57:42Z</time>
      </trkpt>
      <trkpt lat="43.59874" lon="1.2433">
        <ele>234.6</ele>
        <time>2024-06-13T14:57:43Z</time>
      </trkpt>
      <trkpt lat="43.5987" lon="1.24336">
        <ele>234.4</ele>
        <time>2024-06-13T14:57:44Z</time>
      </trkpt>
      <trkpt lat="43.59865" lon="1.24343">
        <ele>234.4</ele>
        <time>2024-06-13T14:57:45Z</time>
      </trkpt>
      <trkpt lat="43.59861" lon="1.2435">
        <ele>234.4</ele>
        <time>2024-06-13T14:57:46Z</time>
      </trkpt>
      <trkpt lat="43.59857" lon="1.24356">
        <ele>234.4</ele>
        <time>2024-06-13T14:57:47Z</time>
      </trkpt>
      <trkpt lat="43.59853" lon="1.24363">
        <ele>234.4</ele>
        <time>2024-06-13T14:57:48Z</time>
      </trkpt>
      <trkpt lat="43.59849" lon="1.2437">
        <ele>234.4</ele>
        <time>2024-06-13T14:57:49Z</time>
      </trkpt>
      <trkpt lat="43.59845" lon="1.24376">
        <ele>234.2</ele>
        <time>2024-06-13T14:57:50Z</time>
      </trkpt>
      <trkpt lat="43.59841" lon="1.24383">
        <ele>234.2</ele>
        <time>2024-06-13T14:57:51Z</time>
      </trkpt>
      <trkpt lat="43.59837" lon="1.24389">
        <ele>234.2</ele>
        <time>2024-06-13T14:57:52Z</time>
      </trkpt>
      <trkpt lat="43.59832" lon="1.24396">
        <ele>234</ele>
        <time>2024-06-13T14:57:53Z</time>
      </trkpt>
      <trkpt lat="43.59828" lon="1.24402">
        <ele>234</ele>
        <time>2024-06-13T14:57:54Z</time>
      </trkpt>
      <trkpt lat="43.59824" lon="1.24408">
        <ele>234</ele>
        <time>2024-06-13T14:57:55Z</time>
      </trkpt>
      <trkpt lat="43.59819" lon="1.24414">
        <ele>234</ele>
        <time>2024-06-13T14:57:56Z</time>
      </trkpt>
      <trkpt lat="43.59814" lon="1.2442">
        <ele>234</ele>
        <time>2024-06-13T14:57:57Z</time>
      </trkpt>
      <trkpt lat="43.5981" lon="1.24426">
        <ele>234.2</ele>
        <time>2024-06-13T14:57:58Z</time>
      </trkpt>
      <trkpt lat="43.59805" lon="1.24431">
        <ele>234.2</ele>
        <time>2024-06-13T14:57:59Z</time>
      </trkpt>
      <trkpt lat="43.598" lon="1.24437">
        <ele>234.2</ele>
        <time>2024-06-13T14:58:00Z</time>
      </trkpt>
      <trkpt lat="43.59795" lon="1.24442">
        <ele>234.2</ele>
        <time>2024-06-13T14:58:01Z</time>
      </trkpt>
      <trkpt lat="43.59791" lon="1.24447">
        <ele>234</ele>
        <time>2024-06-13T14:58:02Z</time>
      </trkpt>
      <trkpt lat="43.59786" lon="1.24452">
        <ele>234.2</ele>
        <time>2024-06-13T14:58:03Z</time>
      </trkpt>
      <trkpt lat="43.59781" lon="1.24458">
        <ele>234.2</ele>
        <time>2024-06-13T14:58:04Z</time>
      </trkpt>
      <trkpt lat="43.59776" lon="1.24463">
        <ele>234.2</ele>
        <time>2024-06-13T14:58:05Z</time>
      </trkpt>
      <trkpt lat="43.59772" lon="1.24468">
        <ele>234.2</ele>
        <time>2024-06-13T14:58:06Z</time>
      </trkpt>
      <trkpt lat="43.59767" lon="1.24473">
        <ele>234.2</ele>
        <time>2024-06-13T14:58:07Z</time>
      </trkpt>
      <trkpt lat="43.59762" lon="1.24478">
        <ele>234.2</ele>
        <time>2024-06-13T14:58:08Z</time>
      </trkpt>
      <trkpt lat="43.59757" lon="1.24483">
        <ele>234.2</ele>
        <time>2024-06-13T14:58:09Z</time>
      </trkpt>
      <trkpt lat="43.59753" lon="1.24488">
        <ele>234.2</ele>
        <time>2024-06-13T14:58:10Z</time>
      </trkpt>
      <trkpt lat="43.59748" lon="1.24493">
        <ele>234.2</ele>
        <time>2024-06-13T14:58:11Z</time>
      </trkpt>
      <trkpt lat="43.59743" lon="1.24499">
        <ele>234.2</ele>
        <time>2024-06-13T14:58:12Z</time>
      </trkpt>
      <trkpt lat="43.59737" lon="1.24505">
        <ele>234.4</ele>
        <time>2024-06-13T14:58:13Z</time>
      </trkpt>
      <trkpt lat="43.59733" lon="1.24509">
        <ele>234.4</ele>
        <time>2024-06-13T14:58:14Z</time>
      </trkpt>
      <trkpt lat="43.59728" lon="1.24514">
        <ele>234.6</ele>
        <time>2024-06-13T14:58:15Z</time>
      </trkpt>
      <trkpt lat="43.59723" lon="1.2452">
        <ele>234.6</ele>
        <time>2024-06-13T14:58:16Z</time>
      </trkpt>
      <trkpt lat="43.59718" lon="1.24526">
        <ele>234.6</ele>
        <time>2024-06-13T14:58:17Z</time>
      </trkpt>
      <trkpt lat="43.59713" lon="1.2453">
        <ele>234.6</ele>
        <time>2024-06-13T14:58:18Z</time>
      </trkpt>
      <trkpt lat="43.59708" lon="1.24535">
        <ele>234.6</ele>
        <time>2024-06-13T14:58:19Z</time>
      </trkpt>
      <trkpt lat="43.59703" lon="1.2454">
        <ele>234.8</ele>
        <time>2024-06-13T14:58:20Z</time>
      </trkpt>
      <trkpt lat="43.59698" lon="1.24545">
        <ele>234.8</ele>
        <time>2024-06-13T14:58:21Z</time>
      </trkpt>
      <trkpt lat="43.59693" lon="1.2455">
        <ele>235</ele>
        <time>2024-06-13T14:58:22Z</time>
      </trkpt>
      <trkpt lat="43.59688" lon="1.24556">
        <ele>235</ele>
        <time>2024-06-13T14:58:23Z</time>
      </trkpt>
      <trkpt lat="43.59682" lon="1.24561">
        <ele>235</ele>
        <time>2024-06-13T14:58:24Z</time>
      </trkpt>
      <trkpt lat="43.59677" lon="1.24566">
        <ele>235.2</ele>
        <time>2024-06-13T14:58:25Z</time>
      </trkpt>
      <trkpt lat="43.59672" lon="1.24571">
        <ele>235.2</ele>
        <time>2024-06-13T14:58:26Z</time>
      </trkpt>
      <trkpt lat="43.59666" lon="1.24577">
        <ele>235.2</ele>
        <time>2024-06-13T14:58:27Z</time>
      </trkpt>
      <trkpt lat="43.5966" lon="1.24582">
        <ele>235.2</ele>
        <time>2024-06-13T14:58:28Z</time>
      </trkpt>
      <trkpt lat="43.59655" lon="1.24587">
        <ele>235.2</ele>
        <time>2024-06-13T14:58:29Z</time>
      </trkpt>
      <trkpt lat="43.59649" lon="1.24592">
        <ele>235.2</ele>
        <time>2024-06-13T14:58:30Z</time>
      </trkpt>
      <trkpt lat="43.59642" lon="1.24597">
        <ele>235.2</ele>
        <time>2024-06-13T14:58:31Z</time>
      </trkpt>
      <trkpt lat="43.59637" lon="1.24601">
        <ele>235.2</ele>
        <time>2024-06-13T14:58:32Z</time>
      </trkpt>
      <trkpt lat="43.59632" lon="1.24606">
        <ele>235</ele>
        <time>2024-06-13T14:58:33Z</time>
      </trkpt>
      <trkpt lat="43.59626" lon="1.2461">
        <ele>235</ele>
        <time>2024-06-13T14:58:34Z</time>
      </trkpt>
      <trkpt lat="43.5962" lon="1.24615">
        <ele>235</ele>
        <time>2024-06-13T14:58:35Z</time>
      </trkpt>
      <trkpt lat="43.59615" lon="1.24619">
        <ele>235</ele>
        <time>2024-06-13T14:58:36Z</time>
      </trkpt>
      <trkpt lat="43.59609" lon="1.24624">
        <ele>235</ele>
        <time>2024-06-13T14:58:37Z</time>
      </trkpt>
      <trkpt lat="43.59603" lon="1.24629">
        <ele>235</ele>
        <time>2024-06-13T14:58:38Z</time>
      </trkpt>
      <trkpt lat="43.59598" lon="1.24633">
        <ele>235</ele>
        <time>2024-06-13T14:58:39Z</time>
      </trkpt>
      <trkpt lat="43.59592" lon="1.24638">
        <ele>235</ele>
        <time>2024-06-13T14:58:40Z</time>
      </trkpt>
      <trkpt lat="43.59586" lon="1.24642">
        <ele>235</ele>
        <time>2024-06-13T14:58:41Z</time>
      </trkpt>
      <trkpt lat="43.5958" lon="1.24646">
        <ele>235</ele>
        <time>2024-06-13T14:58:42Z</time>
      </trkpt>
      <trkpt lat="43.59575" lon="1.2465">
        <ele>235</ele>
        <time>2024-06-13T14:58:43Z</time>
      </trkpt>
      <trkpt lat="43.59568" lon="1.24655">
        <ele>235</ele>
        <time>2024-06-13T14:58:44Z</time>
      </trkpt>
      <trkpt lat="43.59563" lon="1.2466">
        <ele>235</ele>
        <time>2024-06-13T14:58:45Z</time>
      </trkpt>
      <trkpt lat="43.59558" lon="1.24663">
        <ele>235</ele>
        <time>2024-06-13T14:58:46Z</time>
      </trkpt>
      <trkpt lat="43.59552" lon="1.24667">
        <ele>235</ele>
        <time>2024-06-13T14:58:47Z</time>
      </trkpt>
      <trkpt lat="43.59547" lon="1.24671">
        <ele>235</ele>
        <time>2024-06-13T14:58:48Z</time>
      </trkpt>
      <trkpt lat="43.59541" lon="1.24674">
        <ele>235</ele>
        <time>2024-06-13T14:58:49Z</time>
      </trkpt>
      <trkpt lat="43.59536" lon="1.24678">
        <ele>235</ele>
        <time>2024-06-13T14:58:50Z</time>
      </trkpt>
      <trkpt lat="43.5953" lon="1.24681">
        <ele>235</ele>
        <time>2024-06-13T14:58:51Z</time>
      </trkpt>
      <trkpt lat="43.59524" lon="1.24684">
        <ele>235</ele>
        <time>2024-06-13T14:58:52Z</time>
      </trkpt>
      <trkpt lat="43.59517" lon="1.24688">
        <ele>235</ele>
        <time>2024-06-13T14:58:53Z</time>
      </trkpt>
      <trkpt lat="43.59512" lon="1.24691">
        <ele>235.2</ele>
        <time>2024-06-13T14:58:54Z</time>
      </trkpt>
      <trkpt lat="43.59508" lon="1.24694">
        <ele>235.2</ele>
        <time>2024-06-13T14:58:55Z</time>
      </trkpt>
      <trkpt lat="43.59502" lon="1.24697">
        <ele>235.2</ele>
        <time>2024-06-13T14:58:56Z</time>
      </trkpt>
      <trkpt lat="43.59496" lon="1.247">
        <ele>235.2</ele>
        <time>2024-06-13T14:58:57Z</time>
      </trkpt>
      <trkpt lat="43.59491" lon="1.24703">
        <ele>235.4</ele>
        <time>2024-06-13T14:58:58Z</time>
      </trkpt>
      <trkpt lat="43.59486" lon="1.24706">
        <ele>235.4</ele>
        <time>2024-06-13T14:58:59Z</time>
      </trkpt>
      <trkpt lat="43.5948" lon="1.24708">
        <ele>235.4</ele>
        <time>2024-06-13T14:59:00Z</time>
      </trkpt>
      <trkpt lat="43.59474" lon="1.24712">
        <ele>235.4</ele>
        <time>2024-06-13T14:59:01Z</time>
      </trkpt>
      <trkpt lat="43.59467" lon="1.24715">
        <ele>235.4</ele>
        <time>2024-06-13T14:59:02Z</time>
      </trkpt>
      <trkpt lat="43.59462" lon="1.24718">
        <ele>235.6</ele>
        <time>2024-06-13T14:59:03Z</time>
      </trkpt>
      <trkpt lat="43.59457" lon="1.2472">
        <ele>235.6</ele>
        <time>2024-06-13T14:59:04Z</time>
      </trkpt>
      <trkpt lat="43.59452" lon="1.24724">
        <ele>235.6</ele>
        <time>2024-06-13T14:59:05Z</time>
      </trkpt>
      <trkpt lat="43.59445" lon="1.24728">
        <ele>235.6</ele>
        <time>2024-06-13T14:59:06Z</time>
      </trkpt>
      <trkpt lat="43.59439" lon="1.24731">
        <ele>235.8</ele>
        <time>2024-06-13T14:59:07Z</time>
      </trkpt>
      <trkpt lat="43.59435" lon="1.24734">
        <ele>235.8</ele>
        <time>2024-06-13T14:59:08Z</time>
      </trkpt>
      <trkpt lat="43.5943" lon="1.24739">
        <ele>235.8</ele>
        <time>2024-06-13T14:59:09Z</time>
      </trkpt>
      <trkpt lat="43.59425" lon="1.24743">
        <ele>235.8</ele>
        <time>2024-06-13T14:59:10Z</time>
      </trkpt>
      <trkpt lat="43.5942" lon="1.24748">
        <ele>235.8</ele>
        <time>2024-06-13T14:59:11Z</time>
      </trkpt>
      <trkpt lat="43.59414" lon="1.24753">
        <ele>236</ele>
        <time>2024-06-13T14:59:12Z</time>
      </trkpt>
      <trkpt lat="43.59411" lon="1.24758">
        <ele>236</ele>
        <time>2024-06-13T14:59:13Z</time>
      </trkpt>
      <trkpt lat="43.59406" lon="1.24763">
        <ele>236</ele>
        <time>2024-06-13T14:59:14Z</time>
      </trkpt>
      <trkpt lat="43.59402" lon="1.24768">
        <ele>236.2</ele>
        <time>2024-06-13T14:59:15Z</time>
      </trkpt>
      <trkpt lat="43.59396" lon="1.24775">
        <ele>236.2</ele>
        <time>2024-06-13T14:59:16Z</time>
      </trkpt>
      <trkpt lat="43.59392" lon="1.2478">
        <ele>236.2</ele>
        <time>2024-06-13T14:59:17Z</time>
      </trkpt>
      <trkpt lat="43.59388" lon="1.24785">
        <ele>236.2</ele>
        <time>2024-06-13T14:59:18Z</time>
      </trkpt>
      <trkpt lat="43.59383" lon="1.24791">
        <ele>236.2</ele>
        <time>2024-06-13T14:59:19Z</time>
      </trkpt>
      <trkpt lat="43.59378" lon="1.24797">
        <ele>236.4</ele>
        <time>2024-06-13T14:59:20Z</time>
      </trkpt>
      <trkpt lat="43.59374" lon="1.24803">
        <ele>236.4</ele>
        <time>2024-06-13T14:59:21Z</time>
      </trkpt>
      <trkpt lat="43.59369" lon="1.24808">
        <ele>236.4</ele>
        <time>2024-06-13T14:59:22Z</time>
      </trkpt>
      <trkpt lat="43.59364" lon="1.24814">
        <ele>236.4</ele>
        <time>2024-06-13T14:59:23Z</time>
      </trkpt>
      <trkpt lat="43.59359" lon="1.2482">
        <ele>236.4</ele>
        <time>2024-06-13T14:59:24Z</time>
      </trkpt>
      <trkpt lat="43.59355" lon="1.24826">
        <ele>236.4</ele>
        <time>2024-06-13T14:59:25Z</time>
      </trkpt>
      <trkpt lat="43.5935" lon="1.24832">
        <ele>236.4</ele>
        <time>2024-06-13T14:59:26Z</time>
      </trkpt>
      <trkpt lat="43.59345" lon="1.24838">
        <ele>236.4</ele>
        <time>2024-06-13T14:59:27Z</time>
      </trkpt>
      <trkpt lat="43.59341" lon="1.24844">
        <ele>236.4</ele>
        <time>2024-06-13T14:59:28Z</time>
      </trkpt>
      <trkpt lat="43.59336" lon="1.2485">
        <ele>236.4</ele>
        <time>2024-06-13T14:59:29Z</time>
      </trkpt>
      <trkpt lat="43.59332" lon="1.24856">
        <ele>236.6</ele>
        <time>2024-06-13T14:59:30Z</time>
      </trkpt>
      <trkpt lat="43.59327" lon="1.24863">
        <ele>236.6</ele>
        <time>2024-06-13T14:59:31Z</time>
      </trkpt>
      <trkpt lat="43.59323" lon="1.24869">
        <ele>236.6</ele>
        <time>2024-06-13T14:59:32Z</time>
      </trkpt>
      <trkpt lat="43.59318" lon="1.24875">
        <ele>236.6</ele>
        <time>2024-06-13T14:59:33Z</time>
      </trkpt>
      <trkpt lat="43.59314" lon="1.24881">
        <ele>236.6</ele>
        <time>2024-06-13T14:59:34Z</time>
      </trkpt>
      <trkpt lat="43.59308" lon="1.24889">
        <ele>236.6</ele>
        <time>2024-06-13T14:59:35Z</time>
      </trkpt>
      <trkpt lat="43.59305" lon="1.24894">
        <ele>236.4</ele>
        <time>2024-06-13T14:59:36Z</time>
      </trkpt>
      <trkpt lat="43.593" lon="1.249">
        <ele>236.4</ele>
        <time>2024-06-13T14:59:37Z</time>
      </trkpt>
      <trkpt lat="43.59296" lon="1.24907">
        <ele>236.2</ele>
        <time>2024-06-13T14:59:38Z</time>
      </trkpt>
      <trkpt lat="43.59292" lon="1.24913">
        <ele>236.2</ele>
        <time>2024-06-13T14:59:39Z</time>
      </trkpt>
      <trkpt lat="43.59287" lon="1.2492">
        <ele>236.2</ele>
        <time>2024-06-13T14:59:40Z</time>
      </trkpt>
      <trkpt lat="43.59283" lon="1.24926">
        <ele>236.2</ele>
        <time>2024-06-13T14:59:41Z</time>
      </trkpt>
      <trkpt lat="43.59279" lon="1.24932">
        <ele>236.2</ele>
        <time>2024-06-13T14:59:42Z</time>
      </trkpt>
      <trkpt lat="43.59274" lon="1.24938">
        <ele>236.2</ele>
        <time>2024-06-13T14:59:43Z</time>
      </trkpt>
      <trkpt lat="43.59269" lon="1.24945">
        <ele>236.2</ele>
        <time>2024-06-13T14:59:44Z</time>
      </trkpt>
      <trkpt lat="43.59266" lon="1.2495">
        <ele>236.2</ele>
        <time>2024-06-13T14:59:45Z</time>
      </trkpt>
      <trkpt lat="43.59261" lon="1.24956">
        <ele>236.2</ele>
        <time>2024-06-13T14:59:46Z</time>
      </trkpt>
      <trkpt lat="43.59257" lon="1.24961">
        <ele>236</ele>
        <time>2024-06-13T14:59:47Z</time>
      </trkpt>
      <trkpt lat="43.59252" lon="1.24967">
        <ele>236</ele>
        <time>2024-06-13T14:59:48Z</time>
      </trkpt>
      <trkpt lat="43.59248" lon="1.24972">
        <ele>236</ele>
        <time>2024-06-13T14:59:49Z</time>
      </trkpt>
      <trkpt lat="43.59243" lon="1.24978">
        <ele>236</ele>
        <time>2024-06-13T14:59:50Z</time>
      </trkpt>
      <trkpt lat="43.59239" lon="1.24983">
        <ele>236</ele>
        <time>2024-06-13T14:59:51Z</time>
      </trkpt>
      <trkpt lat="43.59234" lon="1.24989">
        <ele>236</ele>
        <time>2024-06-13T14:59:52Z</time>
      </trkpt>
      <trkpt lat="43.59229" lon="1.24995">
        <ele>236</ele>
        <time>2024-06-13T14:59:53Z</time>
      </trkpt>
      <trkpt lat="43.59226" lon="1.24999">
        <ele>235.8</ele>
        <time>2024-06-13T14:59:54Z</time>
      </trkpt>
      <trkpt lat="43.59221" lon="1.25005">
        <ele>235.8</ele>
        <time>2024-06-13T14:59:55Z</time>
      </trkpt>
      <trkpt lat="43.59217" lon="1.25011">
        <ele>235.8</ele>
        <time>2024-06-13T14:59:56Z</time>
      </trkpt>
      <trkpt lat="43.59213" lon="1.25017">
        <ele>235.8</ele>
        <time>2024-06-13T14:59:57Z</time>
      </trkpt>
      <trkpt lat="43.59209" lon="1.25022">
        <ele>235.8</ele>
        <time>2024-06-13T14:59:58Z</time>
      </trkpt>
      <trkpt lat="43.59205" lon="1.25028">
        <ele>235.8</ele>
        <time>2024-06-13T14:59:59Z</time>
      </trkpt>
      <trkpt lat="43.59201" lon="1.25034">
        <ele>235.8</ele>
        <time>2024-06-13T15:00:00Z</time>
      </trkpt>
      <trkpt lat="43.59197" lon="1.2504">
        <ele>235.8</ele>
        <time>2024-06-13T15:00:01Z</time>
      </trkpt>
      <trkpt lat="43.59193" lon="1.25048">
        <ele>235.8</ele>
        <time>2024-06-13T15:00:02Z</time>
      </trkpt>
      <trkpt lat="43.5919" lon="1.25054">
        <ele>235.8</ele>
        <time>2024-06-13T15:00:03Z</time>
      </trkpt>
      <trkpt lat="43.59186" lon="1.25061">
        <ele>235.8</ele>
        <time>2024-06-13T15:00:04Z</time>
      </trkpt>
      <trkpt lat="43.59183" lon="1.25069">
        <ele>235.8</ele>
        <time>2024-06-13T15:00:05Z</time>
      </trkpt>
      <trkpt lat="43.5918" lon="1.25076">
        <ele>235.8</ele>
        <time>2024-06-13T15:00:06Z</time>
      </trkpt>
      <trkpt lat="43.59176" lon="1.25082">
        <ele>235.8</ele>
        <time>2024-06-13T15:00:07Z</time>
      </trkpt>
      <trkpt lat="43.59173" lon="1.25089">
        <ele>235.8</ele>
        <time>2024-06-13T15:00:08Z</time>
      </trkpt>
      <trkpt lat="43.59171" lon="1.25096">
        <ele>235.6</ele>
        <time>2024-06-13T15:00:09Z</time>
      </trkpt>
      <trkpt lat="43.59172" lon="1.25103">
        <ele>235.8</ele>
        <time>2024-06-13T15:00:10Z</time>
      </trkpt>
      <trkpt lat="43.59175" lon="1.25109">
        <ele>235.8</ele>
        <time>2024-06-13T15:00:11Z</time>
      </trkpt>
      <trkpt lat="43.5918" lon="1.25113">
        <ele>235.6</ele>
        <time>2024-06-13T15:00:12Z</time>
      </trkpt>
      <trkpt lat="43.59185" lon="1.25118">
        <ele>235.6</ele>
        <time>2024-06-13T15:00:13Z</time>
      </trkpt>
      <trkpt lat="43.5919" lon="1.25122">
        <ele>235.6</ele>
        <time>2024-06-13T15:00:14Z</time>
      </trkpt>
      <trkpt lat="43.59195" lon="1.25127">
        <ele>235.8</ele>
        <time>2024-06-13T15:00:15Z</time>
      </trkpt>
      <trkpt lat="43.592" lon="1.25132">
        <ele>235.6</ele>
        <time>2024-06-13T15:00:16Z</time>
      </trkpt>
      <trkpt lat="43.59205" lon="1.25138">
        <ele>235.6</ele>
        <time>2024-06-13T15:00:17Z</time>
      </trkpt>
      <trkpt lat="43.59211" lon="1.25143">
        <ele>235.8</ele>
        <time>2024-06-13T15:00:18Z</time>
      </trkpt>
      <trkpt lat="43.59216" lon="1.25147">
        <ele>235.8</ele>
        <time>2024-06-13T15:00:19Z</time>
      </trkpt>
      <trkpt lat="43.59221" lon="1.25152">
        <ele>235.8</ele>
        <time>2024-06-13T15:00:20Z</time>
      </trkpt>
      <trkpt lat="43.59227" lon="1.25157">
        <ele>235.8</ele>
        <time>2024-06-13T15:00:21Z</time>
      </trkpt>
      <trkpt lat="43.59232" lon="1.25162">
        <ele>235.8</ele>
        <time>2024-06-13T15:00:22Z</time>
      </trkpt>
      <trkpt lat="43.59238" lon="1.25167">
        <ele>235.8</ele>
        <time>2024-06-13T15:00:23Z</time>
      </trkpt>
      <trkpt lat="43.59243" lon="1.25172">
        <ele>235.8</ele>
        <time>2024-06-13T15:00:24Z</time>
      </trkpt>
      <trkpt lat="43.59249" lon="1.25177">
        <ele>235.8</ele>
        <time>2024-06-13T15:00:25Z</time>
      </trkpt>
      <trkpt lat="43.59254" lon="1.25182">
        <ele>235.8</ele>
        <time>2024-06-13T15:00:26Z</time>
      </trkpt>
      <trkpt lat="43.5926" lon="1.25186">
        <ele>236</ele>
        <time>2024-06-13T15:00:27Z</time>
      </trkpt>
      <trkpt lat="43.59265" lon="1.25191">
        <ele>236</ele>
        <time>2024-06-13T15:00:28Z</time>
      </trkpt>
      <trkpt lat="43.59271" lon="1.25197">
        <ele>236</ele>
        <time>2024-06-13T15:00:29Z</time>
      </trkpt>
      <trkpt lat="43.59278" lon="1.25202">
        <ele>236.2</ele>
        <time>2024-06-13T15:00:30Z</time>
      </trkpt>
      <trkpt lat="43.59284" lon="1.25207">
        <ele>236.2</ele>
        <time>2024-06-13T15:00:31Z</time>
      </trkpt>
      <trkpt lat="43.5929" lon="1.25211">
        <ele>236.2</ele>
        <time>2024-06-13T15:00:32Z</time>
      </trkpt>
      <trkpt lat="43.59296" lon="1.25216">
        <ele>236.2</ele>
        <time>2024-06-13T15:00:33Z</time>
      </trkpt>
      <trkpt lat="43.59302" lon="1.25221">
        <ele>236.2</ele>
        <time>2024-06-13T15:00:34Z</time>
      </trkpt>
      <trkpt lat="43.59308" lon="1.25229">
        <ele>236.2</ele>
        <time>2024-06-13T15:00:35Z</time>
      </trkpt>
      <trkpt lat="43.59312" lon="1.25234">
        <ele>236.2</ele>
        <time>2024-06-13T15:00:36Z</time>
      </trkpt>
      <trkpt lat="43.59318" lon="1.2524">
        <ele>236.2</ele>
        <time>2024-06-13T15:00:37Z</time>
      </trkpt>
      <trkpt lat="43.59323" lon="1.25246">
        <ele>236.2</ele>
        <time>2024-06-13T15:00:38Z</time>
      </trkpt>
      <trkpt lat="43.59329" lon="1.25252">
        <ele>236.2</ele>
        <time>2024-06-13T15:00:39Z</time>
      </trkpt>
      <trkpt lat="43.59335" lon="1.25257">
        <ele>236</ele>
        <time>2024-06-13T15:00:40Z</time>
      </trkpt>
      <trkpt lat="43.59341" lon="1.25262">
        <ele>236</ele>
        <time>2024-06-13T15:00:41Z</time>
      </trkpt>
      <trkpt lat="43.59347" lon="1.25267">
        <ele>235.8</ele>
        <time>2024-06-13T15:00:42Z</time>
      </trkpt>
      <trkpt lat="43.59354" lon="1.25271">
        <ele>235.8</ele>
        <time>2024-06-13T15:00:43Z</time>
      </trkpt>
      <trkpt lat="43.5936" lon="1.25275">
        <ele>235.6</ele>
        <time>2024-06-13T15:00:44Z</time>
      </trkpt>
      <trkpt lat="43.59367" lon="1.25278">
        <ele>235.6</ele>
        <time>2024-06-13T15:00:45Z</time>
      </trkpt>
      <trkpt lat="43.59374" lon="1.25282">
        <ele>235.6</ele>
        <time>2024-06-13T15:00:46Z</time>
      </trkpt>
      <trkpt lat="43.59381" lon="1.25285">
        <ele>235.6</ele>
        <time>2024-06-13T15:00:47Z</time>
      </trkpt>
      <trkpt lat="43.59388" lon="1.25287">
        <ele>235.4</ele>
        <time>2024-06-13T15:00:48Z</time>
      </trkpt>
      <trkpt lat="43.59395" lon="1.2529">
        <ele>235.4</ele>
        <time>2024-06-13T15:00:49Z</time>
      </trkpt>
      <trkpt lat="43.59402" lon="1.25292">
        <ele>235.4</ele>
        <time>2024-06-13T15:00:50Z</time>
      </trkpt>
      <trkpt lat="43.59409" lon="1.25294">
        <ele>235.4</ele>
        <time>2024-06-13T15:00:51Z</time>
      </trkpt>
      <trkpt lat="43.59416" lon="1.25297">
        <ele>235.4</ele>
        <time>2024-06-13T15:00:52Z</time>
      </trkpt>
      <trkpt lat="43.59423" lon="1.25299">
        <ele>235.4</ele>
        <time>2024-06-13T15:00:53Z</time>
      </trkpt>
      <trkpt lat="43.59431" lon="1.25301">
        <ele>235.2</ele>
        <time>2024-06-13T15:00:54Z</time>
      </trkpt>
      <trkpt lat="43.59437" lon="1.25303">
        <ele>235.2</ele>
        <time>2024-06-13T15:00:55Z</time>
      </trkpt>
      <trkpt lat="43.59444" lon="1.25305">
        <ele>235.4</ele>
        <time>2024-06-13T15:00:56Z</time>
      </trkpt>
      <trkpt lat="43.59451" lon="1.25308">
        <ele>235.4</ele>
        <time>2024-06-13T15:00:57Z</time>
      </trkpt>
      <trkpt lat="43.59458" lon="1.2531">
        <ele>235.4</ele>
        <time>2024-06-13T15:00:58Z</time>
      </trkpt>
      <trkpt lat="43.59465" lon="1.25312">
        <ele>235.4</ele>
        <time>2024-06-13T15:00:59Z</time>
      </trkpt>
      <trkpt lat="43.59472" lon="1.25314">
        <ele>235.6</ele>
        <time>2024-06-13T15:01:00Z</time>
      </trkpt>
      <trkpt lat="43.59479" lon="1.25316">
        <ele>235.6</ele>
        <time>2024-06-13T15:01:01Z</time>
      </trkpt>
      <trkpt lat="43.59487" lon="1.25317">
        <ele>235.6</ele>
        <time>2024-06-13T15:01:02Z</time>
      </trkpt>
      <trkpt lat="43.59492" lon="1.25319">
        <ele>235.6</ele>
        <time>2024-06-13T15:01:03Z</time>
      </trkpt>
      <trkpt lat="43.59499" lon="1.25322">
        <ele>235.6</ele>
        <time>2024-06-13T15:01:04Z</time>
      </trkpt>
      <trkpt lat="43.59505" lon="1.25325">
        <ele>235.6</ele>
        <time>2024-06-13T15:01:05Z</time>
      </trkpt>
      <trkpt lat="43.59512" lon="1.25331">
        <ele>235.6</ele>
        <time>2024-06-13T15:01:06Z</time>
      </trkpt>
      <trkpt lat="43.59516" lon="1.25336">
        <ele>235.8</ele>
        <time>2024-06-13T15:01:07Z</time>
      </trkpt>
      <trkpt lat="43.59521" lon="1.25342">
        <ele>236</ele>
        <time>2024-06-13T15:01:08Z</time>
      </trkpt>
      <trkpt lat="43.59526" lon="1.25349">
        <ele>236</ele>
        <time>2024-06-13T15:01:09Z</time>
      </trkpt>
      <trkpt lat="43.5953" lon="1.25356">
        <ele>236.2</ele>
        <time>2024-06-13T15:01:10Z</time>
      </trkpt>
      <trkpt lat="43.59536" lon="1.25365">
        <ele>236.2</ele>
        <time>2024-06-13T15:01:11Z</time>
      </trkpt>
      <trkpt lat="43.5954" lon="1.25371">
        <ele>236.2</ele>
        <time>2024-06-13T15:01:12Z</time>
      </trkpt>
      <trkpt lat="43.59546" lon="1.25377">
        <ele>236.2</ele>
        <time>2024-06-13T15:01:13Z</time>
      </trkpt>
      <trkpt lat="43.59552" lon="1.25383">
        <ele>236.4</ele>
        <time>2024-06-13T15:01:14Z</time>
      </trkpt>
      <trkpt lat="43.59557" lon="1.25388">
        <ele>236.4</ele>
        <time>2024-06-13T15:01:15Z</time>
      </trkpt>
      <trkpt lat="43.59563" lon="1.25395">
        <ele>236.4</ele>
        <time>2024-06-13T15:01:16Z</time>
      </trkpt>
      <trkpt lat="43.59569" lon="1.254">
        <ele>236.4</ele>
        <time>2024-06-13T15:01:17Z</time>
      </trkpt>
      <trkpt lat="43.59576" lon="1.25406">
        <ele>236.4</ele>
        <time>2024-06-13T15:01:18Z</time>
      </trkpt>
      <trkpt lat="43.59582" lon="1.25408">
        <ele>236.4</ele>
        <time>2024-06-13T15:01:19Z</time>
      </trkpt>
      <trkpt lat="43.59591" lon="1.25411">
        <ele>236.4</ele>
        <time>2024-06-13T15:01:20Z</time>
      </trkpt>
      <trkpt lat="43.59597" lon="1.25413">
        <ele>236.4</ele>
        <time>2024-06-13T15:01:21Z</time>
      </trkpt>
      <trkpt lat="43.59604" lon="1.25414">
        <ele>236.4</ele>
        <time>2024-06-13T15:01:22Z</time>
      </trkpt>
      <trkpt lat="43.59613" lon="1.25417">
        <ele>236.4</ele>
        <time>2024-06-13T15:01:23Z</time>
      </trkpt>
      <trkpt lat="43.59619" lon="1.25418">
        <ele>236.4</ele>
        <time>2024-06-13T15:01:24Z</time>
      </trkpt>
      <trkpt lat="43.59627" lon="1.2542">
        <ele>236.4</ele>
        <time>2024-06-13T15:01:25Z</time>
      </trkpt>
      <trkpt lat="43.59634" lon="1.25422">
        <ele>236.2</ele>
        <time>2024-06-13T15:01:26Z</time>
      </trkpt>
      <trkpt lat="43.59643" lon="1.25423">
        <ele>236.2</ele>
        <time>2024-06-13T15:01:27Z</time>
      </trkpt>
      <trkpt lat="43.5965" lon="1.25425">
        <ele>236.2</ele>
        <time>2024-06-13T15:01:28Z</time>
      </trkpt>
      <trkpt lat="43.59658" lon="1.25426">
        <ele>236.2</ele>
        <time>2024-06-13T15:01:29Z</time>
      </trkpt>
      <trkpt lat="43.59665" lon="1.25426">
        <ele>236.2</ele>
        <time>2024-06-13T15:01:30Z</time>
      </trkpt>
      <trkpt lat="43.59673" lon="1.25427">
        <ele>236.2</ele>
        <time>2024-06-13T15:01:31Z</time>
      </trkpt>
      <trkpt lat="43.59682" lon="1.25427">
        <ele>236.2</ele>
        <time>2024-06-13T15:01:32Z</time>
      </trkpt>
      <trkpt lat="43.59689" lon="1.25428">
        <ele>236.2</ele>
        <time>2024-06-13T15:01:33Z</time>
      </trkpt>
      <trkpt lat="43.59696" lon="1.2543">
        <ele>236.2</ele>
        <time>2024-06-13T15:01:34Z</time>
      </trkpt>
      <trkpt lat="43.59703" lon="1.25432">
        <ele>236.2</ele>
        <time>2024-06-13T15:01:35Z</time>
      </trkpt>
      <trkpt lat="43.59711" lon="1.25434">
        <ele>236</ele>
        <time>2024-06-13T15:01:36Z</time>
      </trkpt>
      <trkpt lat="43.59719" lon="1.25436">
        <ele>236</ele>
        <time>2024-06-13T15:01:37Z</time>
      </trkpt>
      <trkpt lat="43.59728" lon="1.25437">
        <ele>236</ele>
        <time>2024-06-13T15:01:38Z</time>
      </trkpt>
      <trkpt lat="43.59734" lon="1.25437">
        <ele>236</ele>
        <time>2024-06-13T15:01:39Z</time>
      </trkpt>
      <trkpt lat="43.59741" lon="1.25439">
        <ele>236</ele>
        <time>2024-06-13T15:01:40Z</time>
      </trkpt>
      <trkpt lat="43.5975" lon="1.2544">
        <ele>236</ele>
        <time>2024-06-13T15:01:41Z</time>
      </trkpt>
      <trkpt lat="43.59757" lon="1.25441">
        <ele>236</ele>
        <time>2024-06-13T15:01:42Z</time>
      </trkpt>
      <trkpt lat="43.59764" lon="1.25442">
        <ele>236</ele>
        <time>2024-06-13T15:01:43Z</time>
      </trkpt>
      <trkpt lat="43.59772" lon="1.25443">
        <ele>236</ele>
        <time>2024-06-13T15:01:44Z</time>
      </trkpt>
      <trkpt lat="43.59779" lon="1.25443">
        <ele>235.8</ele>
        <time>2024-06-13T15:01:45Z</time>
      </trkpt>
      <trkpt lat="43.59786" lon="1.25444">
        <ele>236</ele>
        <time>2024-06-13T15:01:46Z</time>
      </trkpt>
      <trkpt lat="43.59795" lon="1.25443">
        <ele>236</ele>
        <time>2024-06-13T15:01:47Z</time>
      </trkpt>
      <trkpt lat="43.59801" lon="1.25444">
        <ele>235.8</ele>
        <time>2024-06-13T15:01:48Z</time>
      </trkpt>
      <trkpt lat="43.59808" lon="1.25445">
        <ele>235.8</ele>
        <time>2024-06-13T15:01:49Z</time>
      </trkpt>
      <trkpt lat="43.59814" lon="1.25447">
        <ele>235.8</ele>
        <time>2024-06-13T15:01:50Z</time>
      </trkpt>
      <trkpt lat="43.59821" lon="1.25449">
        <ele>236</ele>
        <time>2024-06-13T15:01:51Z</time>
      </trkpt>
      <trkpt lat="43.59828" lon="1.25451">
        <ele>235.8</ele>
        <time>2024-06-13T15:01:52Z</time>
      </trkpt>
      <trkpt lat="43.59834" lon="1.25452">
        <ele>235.8</ele>
        <time>2024-06-13T15:01:53Z</time>
      </trkpt>
      <trkpt lat="43.59841" lon="1.25453">
        <ele>235.8</ele>
        <time>2024-06-13T15:01:54Z</time>
      </trkpt>
      <trkpt lat="43.59848" lon="1.25454">
        <ele>235.6</ele>
        <time>2024-06-13T15:01:55Z</time>
      </trkpt>
      <trkpt lat="43.59855" lon="1.25456">
        <ele>235.6</ele>
        <time>2024-06-13T15:01:56Z</time>
      </trkpt>
      <trkpt lat="43.59863" lon="1.25457">
        <ele>235.6</ele>
        <time>2024-06-13T15:01:57Z</time>
      </trkpt>
      <trkpt lat="43.59869" lon="1.25458">
        <ele>235.6</ele>
        <time>2024-06-13T15:01:58Z</time>
      </trkpt>
      <trkpt lat="43.59876" lon="1.25459">
        <ele>235.6</ele>
        <time>2024-06-13T15:01:59Z</time>
      </trkpt>
      <trkpt lat="43.59883" lon="1.25459">
        <ele>235.6</ele>
        <time>2024-06-13T15:02:00Z</time>
      </trkpt>
      <trkpt lat="43.5989" lon="1.25459">
        <ele>235.6</ele>
        <time>2024-06-13T15:02:01Z</time>
      </trkpt>
      <trkpt lat="43.59897" lon="1.2546">
        <ele>235.6</ele>
        <time>2024-06-13T15:02:02Z</time>
      </trkpt>
      <trkpt lat="43.59905" lon="1.25461">
        <ele>235.6</ele>
        <time>2024-06-13T15:02:03Z</time>
      </trkpt>
      <trkpt lat="43.59912" lon="1.25462">
        <ele>235.6</ele>
        <time>2024-06-13T15:02:04Z</time>
      </trkpt>
      <trkpt lat="43.59919" lon="1.25463">
        <ele>235.6</ele>
        <time>2024-06-13T15:02:05Z</time>
      </trkpt>
      <trkpt lat="43.59926" lon="1.25464">
        <ele>235.6</ele>
        <time>2024-06-13T15:02:06Z</time>
      </trkpt>
      <trkpt lat="43.59934" lon="1.25465">
        <ele>235.6</ele>
        <time>2024-06-13T15:02:07Z</time>
      </trkpt>
      <trkpt lat="43.5994" lon="1.25466">
        <ele>235.6</ele>
        <time>2024-06-13T15:02:08Z</time>
      </trkpt>
      <trkpt lat="43.59947" lon="1.25467">
        <ele>235.8</ele>
        <time>2024-06-13T15:02:09Z</time>
      </trkpt>
      <trkpt lat="43.59954" lon="1.25468">
        <ele>235.8</ele>
        <time>2024-06-13T15:02:10Z</time>
      </trkpt>
      <trkpt lat="43.59961" lon="1.2547">
        <ele>235.8</ele>
        <time>2024-06-13T15:02:11Z</time>
      </trkpt>
      <trkpt lat="43.59967" lon="1.25472">
        <ele>235.8</ele>
        <time>2024-06-13T15:02:12Z</time>
      </trkpt>
      <trkpt lat="43.59973" lon="1.25474">
        <ele>236</ele>
        <time>2024-06-13T15:02:13Z</time>
      </trkpt>
      <trkpt lat="43.59979" lon="1.25476">
        <ele>236</ele>
        <time>2024-06-13T15:02:14Z</time>
      </trkpt>
      <trkpt lat="43.59985" lon="1.25477">
        <ele>236</ele>
        <time>2024-06-13T15:02:15Z</time>
      </trkpt>
      <trkpt lat="43.5999" lon="1.25479">
        <ele>236</ele>
        <time>2024-06-13T15:02:16Z</time>
      </trkpt>
      <trkpt lat="43.59994" lon="1.25481">
        <ele>236</ele>
        <time>2024-06-13T15:02:17Z</time>
      </trkpt>
      <trkpt lat="43.59997" lon="1.25484">
        <ele>236</ele>
        <time>2024-06-13T15:02:18Z</time>
      </trkpt>
      <trkpt lat="43.6" lon="1.25489">
        <ele>236.2</ele>
        <time>2024-06-13T15:02:19Z</time>
      </trkpt>
      <trkpt lat="43.6" lon="1.25494">
        <ele>236.2</ele>
        <time>2024-06-13T15:02:20Z</time>
      </trkpt>
      <trkpt lat="43.60001" lon="1.25501">
        <ele>236.2</ele>
        <time>2024-06-13T15:02:21Z</time>
      </trkpt>
      <trkpt lat="43.60001" lon="1.25508">
        <ele>236.2</ele>
        <time>2024-06-13T15:02:22Z</time>
      </trkpt>
      <trkpt lat="43.60002" lon="1.25515">
        <ele>236.4</ele>
        <time>2024-06-13T15:02:23Z</time>
      </trkpt>
      <trkpt lat="43.60002" lon="1.25523">
        <ele>236.4</ele>
        <time>2024-06-13T15:02:24Z</time>
      </trkpt>
      <trkpt lat="43.60002" lon="1.25531">
        <ele>236.4</ele>
        <time>2024-06-13T15:02:25Z</time>
      </trkpt>
      <trkpt lat="43.60002" lon="1.2554">
        <ele>236.6</ele>
        <time>2024-06-13T15:02:26Z</time>
      </trkpt>
      <trkpt lat="43.60002" lon="1.25548">
        <ele>236.6</ele>
        <time>2024-06-13T15:02:27Z</time>
      </trkpt>
      <trkpt lat="43.60002" lon="1.25559">
        <ele>236.4</ele>
        <time>2024-06-13T15:02:28Z</time>
      </trkpt>
      <trkpt lat="43.60002" lon="1.25567">
        <ele>236.4</ele>
        <time>2024-06-13T15:02:29Z</time>
      </trkpt>
      <trkpt lat="43.60002" lon="1.25576">
        <ele>236.4</ele>
        <time>2024-06-13T15:02:30Z</time>
      </trkpt>
      <trkpt lat="43.60001" lon="1.25586">
        <ele>236.4</ele>
        <time>2024-06-13T15:02:31Z</time>
      </trkpt>
      <trkpt lat="43.6" lon="1.25596">
        <ele>236.2</ele>
        <time>2024-06-13T15:02:32Z</time>
      </trkpt>
      <trkpt lat="43.59999" lon="1.25605">
        <ele>236</ele>
        <time>2024-06-13T15:02:33Z</time>
      </trkpt>
      <trkpt lat="43.59999" lon="1.25615">
        <ele>236</ele>
        <time>2024-06-13T15:02:34Z</time>
      </trkpt>
      <trkpt lat="43.59998" lon="1.25625">
        <ele>235.8</ele>
        <time>2024-06-13T15:02:35Z</time>
      </trkpt>
      <trkpt lat="43.59997" lon="1.25635">
        <ele>235.6</ele>
        <time>2024-06-13T15:02:36Z</time>
      </trkpt>
      <trkpt lat="43.59996" lon="1.25645">
        <ele>235.4</ele>
        <time>2024-06-13T15:02:37Z</time>
      </trkpt>
      <trkpt lat="43.59996" lon="1.25656">
        <ele>235.4</ele>
        <time>2024-06-13T15:02:38Z</time>
      </trkpt>
      <trkpt lat="43.59995" lon="1.25666">
        <ele>235.2</ele>
        <time>2024-06-13T15:02:39Z</time>
      </trkpt>
      <trkpt lat="43.59994" lon="1.25676">
        <ele>235.2</ele>
        <time>2024-06-13T15:02:40Z</time>
      </trkpt>
      <trkpt lat="43.59993" lon="1.25687">
        <ele>235.2</ele>
        <time>2024-06-13T15:02:41Z</time>
      </trkpt>
      <trkpt lat="43.59992" lon="1.25697">
        <ele>235</ele>
        <time>2024-06-13T15:02:42Z</time>
      </trkpt>
      <trkpt lat="43.59991" lon="1.25707">
        <ele>235</ele>
        <time>2024-06-13T15:02:43Z</time>
      </trkpt>
      <trkpt lat="43.5999" lon="1.25717">
        <ele>235</ele>
        <time>2024-06-13T15:02:44Z</time>
      </trkpt>
      <trkpt lat="43.5999" lon="1.25728">
        <ele>234.8</ele>
        <time>2024-06-13T15:02:45Z</time>
      </trkpt>
      <trkpt lat="43.59989" lon="1.25738">
        <ele>234.8</ele>
        <time>2024-06-13T15:02:46Z</time>
      </trkpt>
      <trkpt lat="43.59988" lon="1.25748">
        <ele>234.6</ele>
        <time>2024-06-13T15:02:47Z</time>
      </trkpt>
      <trkpt lat="43.59987" lon="1.25758">
        <ele>234.4</ele>
        <time>2024-06-13T15:02:48Z</time>
      </trkpt>
      <trkpt lat="43.59986" lon="1.25768">
        <ele>234.2</ele>
        <time>2024-06-13T15:02:49Z</time>
      </trkpt>
      <trkpt lat="43.59985" lon="1.25778">
        <ele>234.2</ele>
        <time>2024-06-13T15:02:50Z</time>
      </trkpt>
      <trkpt lat="43.59984" lon="1.25788">
        <ele>234.2</ele>
        <time>2024-06-13T15:02:51Z</time>
      </trkpt>
      <trkpt lat="43.59983" lon="1.25798">
        <ele>234.2</ele>
        <time>2024-06-13T15:02:52Z</time>
      </trkpt>
      <trkpt lat="43.59982" lon="1.25808">
        <ele>234.2</ele>
        <time>2024-06-13T15:02:53Z</time>
      </trkpt>
      <trkpt lat="43.59981" lon="1.25818">
        <ele>234.2</ele>
        <time>2024-06-13T15:02:54Z</time>
      </trkpt>
      <trkpt lat="43.5998" lon="1.25828">
        <ele>234.2</ele>
        <time>2024-06-13T15:02:55Z</time>
      </trkpt>
      <trkpt lat="43.59979" lon="1.25838">
        <ele>234.2</ele>
        <time>2024-06-13T15:02:56Z</time>
      </trkpt>
      <trkpt lat="43.59978" lon="1.25847">
        <ele>234.2</ele>
        <time>2024-06-13T15:02:57Z</time>
      </trkpt>
      <trkpt lat="43.59977" lon="1.25857">
        <ele>234.2</ele>
        <time>2024-06-13T15:02:58Z</time>
      </trkpt>
      <trkpt lat="43.59976" lon="1.25867">
        <ele>234.2</ele>
        <time>2024-06-13T15:02:59Z</time>
      </trkpt>
      <trkpt lat="43.59974" lon="1.25879">
        <ele>234.2</ele>
        <time>2024-06-13T15:03:00Z</time>
      </trkpt>
      <trkpt lat="43.59973" lon="1.25887">
        <ele>234.2</ele>
        <time>2024-06-13T15:03:01Z</time>
      </trkpt>
      <trkpt lat="43.59971" lon="1.25897">
        <ele>234.2</ele>
        <time>2024-06-13T15:03:02Z</time>
      </trkpt>
      <trkpt lat="43.5997" lon="1.25907">
        <ele>234.2</ele>
        <time>2024-06-13T15:03:03Z</time>
      </trkpt>
      <trkpt lat="43.59968" lon="1.25917">
        <ele>234.2</ele>
        <time>2024-06-13T15:03:04Z</time>
      </trkpt>
      <trkpt lat="43.59967" lon="1.25928">
        <ele>234.2</ele>
        <time>2024-06-13T15:03:05Z</time>
      </trkpt>
      <trkpt lat="43.59965" lon="1.25938">
        <ele>234.2</ele>
        <time>2024-06-13T15:03:06Z</time>
      </trkpt>
      <trkpt lat="43.59964" lon="1.25948">
        <ele>234.2</ele>
        <time>2024-06-13T15:03:07Z</time>
      </trkpt>
      <trkpt lat="43.59962" lon="1.25958">
        <ele>234</ele>
        <time>2024-06-13T15:03:08Z</time>
      </trkpt>
      <trkpt lat="43.5996" lon="1.25971">
        <ele>234</ele>
        <time>2024-06-13T15:03:09Z</time>
      </trkpt>
      <trkpt lat="43.59959" lon="1.25979">
        <ele>234</ele>
        <time>2024-06-13T15:03:10Z</time>
      </trkpt>
      <trkpt lat="43.59957" lon="1.25989">
        <ele>234</ele>
        <time>2024-06-13T15:03:11Z</time>
      </trkpt>
      <trkpt lat="43.59953" lon="1.26009">
        <ele>234</ele>
        <time>2024-06-13T15:03:14Z</time>
      </trkpt>
      <trkpt lat="43.5995" lon="1.26029">
        <ele>233.8</ele>
        <time>2024-06-13T15:03:16Z</time>
      </trkpt>
      <trkpt lat="43.59948" lon="1.26039">
        <ele>233.8</ele>
        <time>2024-06-13T15:03:17Z</time>
      </trkpt>
      <trkpt lat="43.59946" lon="1.26049">
        <ele>233.8</ele>
        <time>2024-06-13T15:03:18Z</time>
      </trkpt>
      <trkpt lat="43.59943" lon="1.26059">
        <ele>233.8</ele>
        <time>2024-06-13T15:03:19Z</time>
      </trkpt>
      <trkpt lat="43.59941" lon="1.26069">
        <ele>233.8</ele>
        <time>2024-06-13T15:03:20Z</time>
      </trkpt>
      <trkpt lat="43.59939" lon="1.26079">
        <ele>233.8</ele>
        <time>2024-06-13T15:03:21Z</time>
      </trkpt>
      <trkpt lat="43.59937" lon="1.26091">
        <ele>233.8</ele>
        <time>2024-06-13T15:03:22Z</time>
      </trkpt>
      <trkpt lat="43.59935" lon="1.26099">
        <ele>234</ele>
        <time>2024-06-13T15:03:23Z</time>
      </trkpt>
      <trkpt lat="43.59932" lon="1.26108">
        <ele>234</ele>
        <time>2024-06-13T15:03:24Z</time>
      </trkpt>
      <trkpt lat="43.5993" lon="1.26118">
        <ele>234</ele>
        <time>2024-06-13T15:03:25Z</time>
      </trkpt>
      <trkpt lat="43.59928" lon="1.26128">
        <ele>234</ele>
        <time>2024-06-13T15:03:26Z</time>
      </trkpt>
      <trkpt lat="43.59926" lon="1.26139">
        <ele>234</ele>
        <time>2024-06-13T15:03:27Z</time>
      </trkpt>
      <trkpt lat="43.59924" lon="1.26149">
        <ele>234</ele>
        <time>2024-06-13T15:03:28Z</time>
      </trkpt>
      <trkpt lat="43.59922" lon="1.26159">
        <ele>234</ele>
        <time>2024-06-13T15:03:29Z</time>
      </trkpt>
      <trkpt lat="43.5992" lon="1.2617">
        <ele>234</ele>
        <time>2024-06-13T15:03:30Z</time>
      </trkpt>
      <trkpt lat="43.59919" lon="1.2618">
        <ele>234</ele>
        <time>2024-06-13T15:03:31Z</time>
      </trkpt>
      <trkpt lat="43.59917" lon="1.2619">
        <ele>233.8</ele>
        <time>2024-06-13T15:03:32Z</time>
      </trkpt>
      <trkpt lat="43.59916" lon="1.26201">
        <ele>233.8</ele>
        <time>2024-06-13T15:03:33Z</time>
      </trkpt>
      <trkpt lat="43.59915" lon="1.26211">
        <ele>233.6</ele>
        <time>2024-06-13T15:03:34Z</time>
      </trkpt>
      <trkpt lat="43.59913" lon="1.26221">
        <ele>233.4</ele>
        <time>2024-06-13T15:03:35Z</time>
      </trkpt>
      <trkpt lat="43.5991" lon="1.26231">
        <ele>233.4</ele>
        <time>2024-06-13T15:03:36Z</time>
      </trkpt>
      <trkpt lat="43.59907" lon="1.26241">
        <ele>233.4</ele>
        <time>2024-06-13T15:03:37Z</time>
      </trkpt>
      <trkpt lat="43.59905" lon="1.26251">
        <ele>233.4</ele>
        <time>2024-06-13T15:03:38Z</time>
      </trkpt>
      <trkpt lat="43.59905" lon="1.26261">
        <ele>233.2</ele>
        <time>2024-06-13T15:03:39Z</time>
      </trkpt>
      <trkpt lat="43.59907" lon="1.26271">
        <ele>233.2</ele>
        <time>2024-06-13T15:03:40Z</time>
      </trkpt>
      <trkpt lat="43.59909" lon="1.26281">
        <ele>233.2</ele>
        <time>2024-06-13T15:03:41Z</time>
      </trkpt>
      <trkpt lat="43.59911" lon="1.26294">
        <ele>233</ele>
        <time>2024-06-13T15:03:42Z</time>
      </trkpt>
      <trkpt lat="43.59911" lon="1.26303">
        <ele>233</ele>
        <time>2024-06-13T15:03:43Z</time>
      </trkpt>
      <trkpt lat="43.59911" lon="1.26314">
        <ele>232.8</ele>
        <time>2024-06-13T15:03:44Z</time>
      </trkpt>
      <trkpt lat="43.59911" lon="1.26325">
        <ele>232.8</ele>
        <time>2024-06-13T15:03:45Z</time>
      </trkpt>
      <trkpt lat="43.59911" lon="1.26336">
        <ele>232.8</ele>
        <time>2024-06-13T15:03:46Z</time>
      </trkpt>
      <trkpt lat="43.59911" lon="1.26346">
        <ele>232.8</ele>
        <time>2024-06-13T15:03:47Z</time>
      </trkpt>
      <trkpt lat="43.59911" lon="1.26357">
        <ele>232.8</ele>
        <time>2024-06-13T15:03:48Z</time>
      </trkpt>
      <trkpt lat="43.59911" lon="1.26368">
        <ele>232.8</ele>
        <time>2024-06-13T15:03:49Z</time>
      </trkpt>
      <trkpt lat="43.59911" lon="1.26379">
        <ele>232.6</ele>
        <time>2024-06-13T15:03:50Z</time>
      </trkpt>
      <trkpt lat="43.59912" lon="1.26392">
        <ele>232.4</ele>
        <time>2024-06-13T15:03:51Z</time>
      </trkpt>
      <trkpt lat="43.59912" lon="1.264">
        <ele>232.2</ele>
        <time>2024-06-13T15:03:52Z</time>
      </trkpt>
      <trkpt lat="43.59912" lon="1.26411">
        <ele>232.2</ele>
        <time>2024-06-13T15:03:53Z</time>
      </trkpt>
      <trkpt lat="43.59912" lon="1.26423">
        <ele>232</ele>
        <time>2024-06-13T15:03:54Z</time>
      </trkpt>
      <trkpt lat="43.59912" lon="1.26432">
        <ele>232</ele>
        <time>2024-06-13T15:03:55Z</time>
      </trkpt>
      <trkpt lat="43.59912" lon="1.26443">
        <ele>232</ele>
        <time>2024-06-13T15:03:56Z</time>
      </trkpt>
      <trkpt lat="43.59911" lon="1.26453">
        <ele>231.8</ele>
        <time>2024-06-13T15:03:57Z</time>
      </trkpt>
      <trkpt lat="43.59911" lon="1.26466">
        <ele>231.6</ele>
        <time>2024-06-13T15:03:58Z</time>
      </trkpt>
      <trkpt lat="43.59911" lon="1.26474">
        <ele>231.4</ele>
        <time>2024-06-13T15:03:59Z</time>
      </trkpt>
      <trkpt lat="43.5991" lon="1.26485">
        <ele>231.4</ele>
        <time>2024-06-13T15:04:00Z</time>
      </trkpt>
      <trkpt lat="43.59909" lon="1.26496">
        <ele>231.2</ele>
        <time>2024-06-13T15:04:01Z</time>
      </trkpt>
      <trkpt lat="43.59908" lon="1.26507">
        <ele>231</ele>
        <time>2024-06-13T15:04:02Z</time>
      </trkpt>
      <trkpt lat="43.59908" lon="1.26518">
        <ele>230.8</ele>
        <time>2024-06-13T15:04:03Z</time>
      </trkpt>
      <trkpt lat="43.59907" lon="1.26529">
        <ele>230.8</ele>
        <time>2024-06-13T15:04:04Z</time>
      </trkpt>
      <trkpt lat="43.59907" lon="1.2654">
        <ele>230.6</ele>
        <time>2024-06-13T15:04:05Z</time>
      </trkpt>
      <trkpt lat="43.59906" lon="1.2655">
        <ele>230.4</ele>
        <time>2024-06-13T15:04:06Z</time>
      </trkpt>
      <trkpt lat="43.59905" lon="1.26561">
        <ele>230.4</ele>
        <time>2024-06-13T15:04:07Z</time>
      </trkpt>
      <trkpt lat="43.59905" lon="1.26572">
        <ele>230.2</ele>
        <time>2024-06-13T15:04:08Z</time>
      </trkpt>
      <trkpt lat="43.59905" lon="1.26583">
        <ele>230.2</ele>
        <time>2024-06-13T15:04:09Z</time>
      </trkpt>
      <trkpt lat="43.59904" lon="1.26594">
        <ele>230.2</ele>
        <time>2024-06-13T15:04:10Z</time>
      </trkpt>
      <trkpt lat="43.59905" lon="1.26605">
        <ele>230</ele>
        <time>2024-06-13T15:04:11Z</time>
      </trkpt>
      <trkpt lat="43.59905" lon="1.26616">
        <ele>230</ele>
        <time>2024-06-13T15:04:12Z</time>
      </trkpt>
      <trkpt lat="43.59905" lon="1.26627">
        <ele>230</ele>
        <time>2024-06-13T15:04:13Z</time>
      </trkpt>
      <trkpt lat="43.59906" lon="1.26638">
        <ele>230</ele>
        <time>2024-06-13T15:04:14Z</time>
      </trkpt>
      <trkpt lat="43.59906" lon="1.26649">
        <ele>230</ele>
        <time>2024-06-13T15:04:15Z</time>
      </trkpt>
      <trkpt lat="43.59907" lon="1.2666">
        <ele>229.8</ele>
        <time>2024-06-13T15:04:16Z</time>
      </trkpt>
      <trkpt lat="43.59908" lon="1.2667">
        <ele>229.8</ele>
        <time>2024-06-13T15:04:17Z</time>
      </trkpt>
      <trkpt lat="43.59908" lon="1.26681">
        <ele>229.8</ele>
        <time>2024-06-13T15:04:18Z</time>
      </trkpt>
      <trkpt lat="43.59909" lon="1.26692">
        <ele>229.6</ele>
        <time>2024-06-13T15:04:19Z</time>
      </trkpt>
      <trkpt lat="43.59909" lon="1.26703">
        <ele>229.6</ele>
        <time>2024-06-13T15:04:20Z</time>
      </trkpt>
      <trkpt lat="43.5991" lon="1.26713">
        <ele>229.6</ele>
        <time>2024-06-13T15:04:21Z</time>
      </trkpt>
      <trkpt lat="43.5991" lon="1.26723">
        <ele>229.6</ele>
        <time>2024-06-13T15:04:22Z</time>
      </trkpt>
      <trkpt lat="43.59911" lon="1.26734">
        <ele>229.4</ele>
        <time>2024-06-13T15:04:23Z</time>
      </trkpt>
      <trkpt lat="43.59911" lon="1.26744">
        <ele>229.4</ele>
        <time>2024-06-13T15:04:24Z</time>
      </trkpt>
      <trkpt lat="43.59911" lon="1.26755">
        <ele>229.4</ele>
        <time>2024-06-13T15:04:25Z</time>
      </trkpt>
      <trkpt lat="43.59911" lon="1.26766">
        <ele>229.2</ele>
        <time>2024-06-13T15:04:26Z</time>
      </trkpt>
      <trkpt lat="43.59909" lon="1.26777">
        <ele>229.2</ele>
        <time>2024-06-13T15:04:27Z</time>
      </trkpt>
      <trkpt lat="43.59908" lon="1.26788">
        <ele>229.2</ele>
        <time>2024-06-13T15:04:28Z</time>
      </trkpt>
      <trkpt lat="43.59906" lon="1.26798">
        <ele>229.2</ele>
        <time>2024-06-13T15:04:29Z</time>
      </trkpt>
      <trkpt lat="43.59904" lon="1.26808">
        <ele>229</ele>
        <time>2024-06-13T15:04:30Z</time>
      </trkpt>
      <trkpt lat="43.59902" lon="1.26818">
        <ele>229</ele>
        <time>2024-06-13T15:04:31Z</time>
      </trkpt>
      <trkpt lat="43.599" lon="1.26828">
        <ele>229</ele>
        <time>2024-06-13T15:04:32Z</time>
      </trkpt>
      <trkpt lat="43.59898" lon="1.26839">
        <ele>228.8</ele>
        <time>2024-06-13T15:04:33Z</time>
      </trkpt>
      <trkpt lat="43.59895" lon="1.26849">
        <ele>228.8</ele>
        <time>2024-06-13T15:04:34Z</time>
      </trkpt>
      <trkpt lat="43.59893" lon="1.2686">
        <ele>228.6</ele>
        <time>2024-06-13T15:04:35Z</time>
      </trkpt>
      <trkpt lat="43.59891" lon="1.2687">
        <ele>228.6</ele>
        <time>2024-06-13T15:04:36Z</time>
      </trkpt>
      <trkpt lat="43.59889" lon="1.2688">
        <ele>228.4</ele>
        <time>2024-06-13T15:04:37Z</time>
      </trkpt>
      <trkpt lat="43.59886" lon="1.26889">
        <ele>228.4</ele>
        <time>2024-06-13T15:04:38Z</time>
      </trkpt>
      <trkpt lat="43.59883" lon="1.26898">
        <ele>228.2</ele>
        <time>2024-06-13T15:04:39Z</time>
      </trkpt>
      <trkpt lat="43.5988" lon="1.26908">
        <ele>228.2</ele>
        <time>2024-06-13T15:04:40Z</time>
      </trkpt>
      <trkpt lat="43.59878" lon="1.26917">
        <ele>228.2</ele>
        <time>2024-06-13T15:04:41Z</time>
      </trkpt>
      <trkpt lat="43.59875" lon="1.26927">
        <ele>228</ele>
        <time>2024-06-13T15:04:42Z</time>
      </trkpt>
      <trkpt lat="43.59871" lon="1.26936">
        <ele>228</ele>
        <time>2024-06-13T15:04:43Z</time>
      </trkpt>
      <trkpt lat="43.59868" lon="1.26944">
        <ele>228</ele>
        <time>2024-06-13T15:04:44Z</time>
      </trkpt>
      <trkpt lat="43.59864" lon="1.26953">
        <ele>228</ele>
        <time>2024-06-13T15:04:45Z</time>
      </trkpt>
      <trkpt lat="43.59861" lon="1.26961">
        <ele>228.2</ele>
        <time>2024-06-13T15:04:46Z</time>
      </trkpt>
      <trkpt lat="43.59858" lon="1.2697">
        <ele>228.2</ele>
        <time>2024-06-13T15:04:47Z</time>
      </trkpt>
      <trkpt lat="43.59854" lon="1.26979">
        <ele>228.4</ele>
        <time>2024-06-13T15:04:48Z</time>
      </trkpt>
      <trkpt lat="43.59851" lon="1.26987">
        <ele>228.6</ele>
        <time>2024-06-13T15:04:49Z</time>
      </trkpt>
      <trkpt lat="43.59848" lon="1.26996">
        <ele>228.8</ele>
        <time>2024-06-13T15:04:50Z</time>
      </trkpt>
      <trkpt lat="43.59844" lon="1.27005">
        <ele>229</ele>
        <time>2024-06-13T15:04:51Z</time>
      </trkpt>
      <trkpt lat="43.5984" lon="1.27015">
        <ele>229</ele>
        <time>2024-06-13T15:04:52Z</time>
      </trkpt>
      <trkpt lat="43.59838" lon="1.27023">
        <ele>229</ele>
        <time>2024-06-13T15:04:53Z</time>
      </trkpt>
      <trkpt lat="43.59835" lon="1.27031">
        <ele>229.2</ele>
        <time>2024-06-13T15:04:54Z</time>
      </trkpt>
      <trkpt lat="43.59833" lon="1.2704">
        <ele>229.2</ele>
        <time>2024-06-13T15:04:55Z</time>
      </trkpt>
      <trkpt lat="43.5983" lon="1.27049">
        <ele>229.2</ele>
        <time>2024-06-13T15:04:56Z</time>
      </trkpt>
      <trkpt lat="43.59827" lon="1.27058">
        <ele>229.2</ele>
        <time>2024-06-13T15:04:57Z</time>
      </trkpt>
      <trkpt lat="43.59825" lon="1.27067">
        <ele>229.2</ele>
        <time>2024-06-13T15:04:58Z</time>
      </trkpt>
      <trkpt lat="43.59823" lon="1.27077">
        <ele>229.2</ele>
        <time>2024-06-13T15:04:59Z</time>
      </trkpt>
      <trkpt lat="43.59822" lon="1.27088">
        <ele>229</ele>
        <time>2024-06-13T15:05:00Z</time>
      </trkpt>
      <trkpt lat="43.59821" lon="1.27101">
        <ele>229</ele>
        <time>2024-06-13T15:05:01Z</time>
      </trkpt>
      <trkpt lat="43.5982" lon="1.2711">
        <ele>228.8</ele>
        <time>2024-06-13T15:05:02Z</time>
      </trkpt>
      <trkpt lat="43.59819" lon="1.27122">
        <ele>228.8</ele>
        <time>2024-06-13T15:05:03Z</time>
      </trkpt>
      <trkpt lat="43.59818" lon="1.27135">
        <ele>228.6</ele>
        <time>2024-06-13T15:05:04Z</time>
      </trkpt>
      <trkpt lat="43.59818" lon="1.27148">
        <ele>228.2</ele>
        <time>2024-06-13T15:05:05Z</time>
      </trkpt>
      <trkpt lat="43.59817" lon="1.27162">
        <ele>228</ele>
        <time>2024-06-13T15:05:06Z</time>
      </trkpt>
      <trkpt lat="43.59815" lon="1.27176">
        <ele>227.4</ele>
        <time>2024-06-13T15:05:07Z</time>
      </trkpt>
      <trkpt lat="43.59813" lon="1.27191">
        <ele>227.2</ele>
        <time>2024-06-13T15:05:08Z</time>
      </trkpt>
      <trkpt lat="43.5981" lon="1.27206">
        <ele>226.4</ele>
        <time>2024-06-13T15:05:09Z</time>
      </trkpt>
      <trkpt lat="43.59806" lon="1.27221">
        <ele>225.8</ele>
        <time>2024-06-13T15:05:10Z</time>
      </trkpt>
      <trkpt lat="43.59802" lon="1.27237">
        <ele>224.8</ele>
        <time>2024-06-13T15:05:11Z</time>
      </trkpt>
      <trkpt lat="43.59798" lon="1.27253">
        <ele>223.8</ele>
        <time>2024-06-13T15:05:12Z</time>
      </trkpt>
      <trkpt lat="43.59793" lon="1.27269">
        <ele>223.4</ele>
        <time>2024-06-13T15:05:13Z</time>
      </trkpt>
      <trkpt lat="43.59787" lon="1.27284">
        <ele>221.6</ele>
        <time>2024-06-13T15:05:14Z</time>
      </trkpt>
      <trkpt lat="43.59781" lon="1.27303">
        <ele>220.6</ele>
        <time>2024-06-13T15:05:15Z</time>
      </trkpt>
      <trkpt lat="43.59777" lon="1.27316">
        <ele>219</ele>
        <time>2024-06-13T15:05:16Z</time>
      </trkpt>
      <trkpt lat="43.59772" lon="1.27331">
        <ele>218.4</ele>
        <time>2024-06-13T15:05:17Z</time>
      </trkpt>
      <trkpt lat="43.59767" lon="1.27346">
        <ele>217</ele>
        <time>2024-06-13T15:05:18Z</time>
      </trkpt>
      <trkpt lat="43.59762" lon="1.2736">
        <ele>215.8</ele>
        <time>2024-06-13T15:05:19Z</time>
      </trkpt>
      <trkpt lat="43.59757" lon="1.27373">
        <ele>215.2</ele>
        <time>2024-06-13T15:05:20Z</time>
      </trkpt>
      <trkpt lat="43.59752" lon="1.27386">
        <ele>214.4</ele>
        <time>2024-06-13T15:05:21Z</time>
      </trkpt>
      <trkpt lat="43.59748" lon="1.27399">
        <ele>214.2</ele>
        <time>2024-06-13T15:05:22Z</time>
      </trkpt>
      <trkpt lat="43.59743" lon="1.27412">
        <ele>213.6</ele>
        <time>2024-06-13T15:05:23Z</time>
      </trkpt>
      <trkpt lat="43.59739" lon="1.27425">
        <ele>213</ele>
        <time>2024-06-13T15:05:24Z</time>
      </trkpt>
      <trkpt lat="43.59735" lon="1.27437">
        <ele>212.8</ele>
        <time>2024-06-13T15:05:25Z</time>
      </trkpt>
      <trkpt lat="43.59731" lon="1.27449">
        <ele>212.2</ele>
        <time>2024-06-13T15:05:26Z</time>
      </trkpt>
      <trkpt lat="43.59727" lon="1.27461">
        <ele>212</ele>
        <time>2024-06-13T15:05:27Z</time>
      </trkpt>
      <trkpt lat="43.59723" lon="1.27472">
        <ele>211.8</ele>
        <time>2024-06-13T15:05:28Z</time>
      </trkpt>
      <trkpt lat="43.59719" lon="1.27483">
        <ele>211.6</ele>
        <time>2024-06-13T15:05:29Z</time>
      </trkpt>
      <trkpt lat="43.59716" lon="1.27494">
        <ele>211.6</ele>
        <time>2024-06-13T15:05:30Z</time>
      </trkpt>
      <trkpt lat="43.59712" lon="1.27504">
        <ele>211.4</ele>
        <time>2024-06-13T15:05:31Z</time>
      </trkpt>
      <trkpt lat="43.59708" lon="1.27515">
        <ele>211.2</ele>
        <time>2024-06-13T15:05:32Z</time>
      </trkpt>
      <trkpt lat="43.59705" lon="1.27526">
        <ele>211.2</ele>
        <time>2024-06-13T15:05:33Z</time>
      </trkpt>
      <trkpt lat="43.59701" lon="1.27536">
        <ele>211</ele>
        <time>2024-06-13T15:05:34Z</time>
      </trkpt>
      <trkpt lat="43.59698" lon="1.27547">
        <ele>210.8</ele>
        <time>2024-06-13T15:05:35Z</time>
      </trkpt>
      <trkpt lat="43.59694" lon="1.27557">
        <ele>210.8</ele>
        <time>2024-06-13T15:05:36Z</time>
      </trkpt>
      <trkpt lat="43.59691" lon="1.27568">
        <ele>210.8</ele>
        <time>2024-06-13T15:05:37Z</time>
      </trkpt>
      <trkpt lat="43.59688" lon="1.27578">
        <ele>210.6</ele>
        <time>2024-06-13T15:05:38Z</time>
      </trkpt>
      <trkpt lat="43.59684" lon="1.27588">
        <ele>210.6</ele>
        <time>2024-06-13T15:05:39Z</time>
      </trkpt>
      <trkpt lat="43.59681" lon="1.27598">
        <ele>210.6</ele>
        <time>2024-06-13T15:05:40Z</time>
      </trkpt>
      <trkpt lat="43.59678" lon="1.27608">
        <ele>210.6</ele>
        <time>2024-06-13T15:05:41Z</time>
      </trkpt>
      <trkpt lat="43.59676" lon="1.27618">
        <ele>210.6</ele>
        <time>2024-06-13T15:05:42Z</time>
      </trkpt>
      <trkpt lat="43.59673" lon="1.27628">
        <ele>210.6</ele>
        <time>2024-06-13T15:05:43Z</time>
      </trkpt>
      <trkpt lat="43.59671" lon="1.27637">
        <ele>210.6</ele>
        <time>2024-06-13T15:05:44Z</time>
      </trkpt>
      <trkpt lat="43.59668" lon="1.27646">
        <ele>210.6</ele>
        <time>2024-06-13T15:05:45Z</time>
      </trkpt>
      <trkpt lat="43.59666" lon="1.27655">
        <ele>210.4</ele>
        <time>2024-06-13T15:05:46Z</time>
      </trkpt>
      <trkpt lat="43.59664" lon="1.27662">
        <ele>210.4</ele>
        <time>2024-06-13T15:05:47Z</time>
      </trkpt>
      <trkpt lat="43.59662" lon="1.27668">
        <ele>210.4</ele>
        <time>2024-06-13T15:05:48Z</time>
      </trkpt>
      <trkpt lat="43.59659" lon="1.27674">
        <ele>210.4</ele>
        <time>2024-06-13T15:05:49Z</time>
      </trkpt>
      <trkpt lat="43.59655" lon="1.27678">
        <ele>210.4</ele>
        <time>2024-06-13T15:05:50Z</time>
      </trkpt>
      <trkpt lat="43.5965" lon="1.2768">
        <ele>210.4</ele>
        <time>2024-06-13T15:05:51Z</time>
      </trkpt>
      <trkpt lat="43.59645" lon="1.27679">
        <ele>210.2</ele>
        <time>2024-06-13T15:05:52Z</time>
      </trkpt>
      <trkpt lat="43.59639" lon="1.27676">
        <ele>210.2</ele>
        <time>2024-06-13T15:05:53Z</time>
      </trkpt>
      <trkpt lat="43.59634" lon="1.27675">
        <ele>210.2</ele>
        <time>2024-06-13T15:05:54Z</time>
      </trkpt>
      <trkpt lat="43.59628" lon="1.27673">
        <ele>210.2</ele>
        <time>2024-06-13T15:05:55Z</time>
      </trkpt>
      <trkpt lat="43.59622" lon="1.27672">
        <ele>210.2</ele>
        <time>2024-06-13T15:05:56Z</time>
      </trkpt>
      <trkpt lat="43.59616" lon="1.27674">
        <ele>210.2</ele>
        <time>2024-06-13T15:05:57Z</time>
      </trkpt>
      <trkpt lat="43.59611" lon="1.27679">
        <ele>210.2</ele>
        <time>2024-06-13T15:05:58Z</time>
      </trkpt>
      <trkpt lat="43.59607" lon="1.27686">
        <ele>210.2</ele>
        <time>2024-06-13T15:05:59Z</time>
      </trkpt>
      <trkpt lat="43.59604" lon="1.27694">
        <ele>210</ele>
        <time>2024-06-13T15:06:00Z</time>
      </trkpt>
      <trkpt lat="43.59602" lon="1.27704">
        <ele>210</ele>
        <time>2024-06-13T15:06:01Z</time>
      </trkpt>
      <trkpt lat="43.59599" lon="1.27713">
        <ele>210</ele>
        <time>2024-06-13T15:06:02Z</time>
      </trkpt>
      <trkpt lat="43.59596" lon="1.27723">
        <ele>209.8</ele>
        <time>2024-06-13T15:06:03Z</time>
      </trkpt>
      <trkpt lat="43.59592" lon="1.27732">
        <ele>209.8</ele>
        <time>2024-06-13T15:06:04Z</time>
      </trkpt>
      <trkpt lat="43.59589" lon="1.27742">
        <ele>209.6</ele>
        <time>2024-06-13T15:06:05Z</time>
      </trkpt>
      <trkpt lat="43.59585" lon="1.27752">
        <ele>209.4</ele>
        <time>2024-06-13T15:06:06Z</time>
      </trkpt>
      <trkpt lat="43.59582" lon="1.27762">
        <ele>209.4</ele>
        <time>2024-06-13T15:06:07Z</time>
      </trkpt>
      <trkpt lat="43.59578" lon="1.27771">
        <ele>209.4</ele>
        <time>2024-06-13T15:06:08Z</time>
      </trkpt>
      <trkpt lat="43.59574" lon="1.27782">
        <ele>209</ele>
        <time>2024-06-13T15:06:09Z</time>
      </trkpt>
      <trkpt lat="43.59571" lon="1.27789">
        <ele>208.6</ele>
        <time>2024-06-13T15:06:10Z</time>
      </trkpt>
      <trkpt lat="43.59566" lon="1.27801">
        <ele>208.2</ele>
        <time>2024-06-13T15:06:11Z</time>
      </trkpt>
      <trkpt lat="43.59562" lon="1.2781">
        <ele>208</ele>
        <time>2024-06-13T15:06:12Z</time>
      </trkpt>
      <trkpt lat="43.59558" lon="1.27821">
        <ele>207.6</ele>
        <time>2024-06-13T15:06:13Z</time>
      </trkpt>
      <trkpt lat="43.59554" lon="1.27831">
        <ele>207.4</ele>
        <time>2024-06-13T15:06:14Z</time>
      </trkpt>
      <trkpt lat="43.5955" lon="1.27842">
        <ele>207</ele>
        <time>2024-06-13T15:06:15Z</time>
      </trkpt>
      <trkpt lat="43.59546" lon="1.27852">
        <ele>206.8</ele>
        <time>2024-06-13T15:06:16Z</time>
      </trkpt>
      <trkpt lat="43.59541" lon="1.27862">
        <ele>206.6</ele>
        <time>2024-06-13T15:06:17Z</time>
      </trkpt>
      <trkpt lat="43.59537" lon="1.27872">
        <ele>206.4</ele>
        <time>2024-06-13T15:06:18Z</time>
      </trkpt>
      <trkpt lat="43.59532" lon="1.27882">
        <ele>206.2</ele>
        <time>2024-06-13T15:06:19Z</time>
      </trkpt>
      <trkpt lat="43.59528" lon="1.27892">
        <ele>206</ele>
        <time>2024-06-13T15:06:20Z</time>
      </trkpt>
      <trkpt lat="43.59523" lon="1.27902">
        <ele>206</ele>
        <time>2024-06-13T15:06:21Z</time>
      </trkpt>
      <trkpt lat="43.59518" lon="1.27911">
        <ele>205.8</ele>
        <time>2024-06-13T15:06:22Z</time>
      </trkpt>
      <trkpt lat="43.59514" lon="1.2792">
        <ele>205.8</ele>
        <time>2024-06-13T15:06:23Z</time>
      </trkpt>
      <trkpt lat="43.59509" lon="1.27929">
        <ele>205.8</ele>
        <time>2024-06-13T15:06:24Z</time>
      </trkpt>
      <trkpt lat="43.59505" lon="1.27938">
        <ele>205.8</ele>
        <time>2024-06-13T15:06:25Z</time>
      </trkpt>
      <trkpt lat="43.59502" lon="1.27947">
        <ele>205.8</ele>
        <time>2024-06-13T15:06:26Z</time>
      </trkpt>
      <trkpt lat="43.59499" lon="1.27956">
        <ele>206</ele>
        <time>2024-06-13T15:06:27Z</time>
      </trkpt>
      <trkpt lat="43.59497" lon="1.27965">
        <ele>206</ele>
        <time>2024-06-13T15:06:28Z</time>
      </trkpt>
      <trkpt lat="43.59494" lon="1.27977">
        <ele>206</ele>
        <time>2024-06-13T15:06:29Z</time>
      </trkpt>
      <trkpt lat="43.59493" lon="1.27984">
        <ele>206.2</ele>
        <time>2024-06-13T15:06:30Z</time>
      </trkpt>
      <trkpt lat="43.59492" lon="1.27994">
        <ele>206.2</ele>
        <time>2024-06-13T15:06:31Z</time>
      </trkpt>
      <trkpt lat="43.59491" lon="1.28004">
        <ele>206.2</ele>
        <time>2024-06-13T15:06:32Z</time>
      </trkpt>
      <trkpt lat="43.5949" lon="1.28014">
        <ele>206.2</ele>
        <time>2024-06-13T15:06:33Z</time>
      </trkpt>
      <trkpt lat="43.59488" lon="1.28026">
        <ele>206.4</ele>
        <time>2024-06-13T15:06:34Z</time>
      </trkpt>
      <trkpt lat="43.59488" lon="1.28034">
        <ele>206.4</ele>
        <time>2024-06-13T15:06:35Z</time>
      </trkpt>
      <trkpt lat="43.59487" lon="1.28044">
        <ele>206.4</ele>
        <time>2024-06-13T15:06:36Z</time>
      </trkpt>
      <trkpt lat="43.59485" lon="1.28053">
        <ele>206.4</ele>
        <time>2024-06-13T15:06:37Z</time>
      </trkpt>
      <trkpt lat="43.59484" lon="1.28063">
        <ele>206.4</ele>
        <time>2024-06-13T15:06:38Z</time>
      </trkpt>
      <trkpt lat="43.59483" lon="1.28072">
        <ele>206.6</ele>
        <time>2024-06-13T15:06:39Z</time>
      </trkpt>
      <trkpt lat="43.59482" lon="1.28082">
        <ele>206.6</ele>
        <time>2024-06-13T15:06:40Z</time>
      </trkpt>
      <trkpt lat="43.59481" lon="1.28091">
        <ele>206.6</ele>
        <time>2024-06-13T15:06:41Z</time>
      </trkpt>
      <trkpt lat="43.59479" lon="1.28099">
        <ele>206.6</ele>
        <time>2024-06-13T15:06:42Z</time>
      </trkpt>
      <trkpt lat="43.59478" lon="1.2811">
        <ele>206.6</ele>
        <time>2024-06-13T15:06:43Z</time>
      </trkpt>
      <trkpt lat="43.59477" lon="1.28116">
        <ele>206.8</ele>
        <time>2024-06-13T15:06:44Z</time>
      </trkpt>
      <trkpt lat="43.59475" lon="1.28124">
        <ele>206.8</ele>
        <time>2024-06-13T15:06:45Z</time>
      </trkpt>
      <trkpt lat="43.59474" lon="1.28132">
        <ele>207.2</ele>
        <time>2024-06-13T15:06:46Z</time>
      </trkpt>
      <trkpt lat="43.59472" lon="1.28141">
        <ele>207.2</ele>
        <time>2024-06-13T15:06:47Z</time>
      </trkpt>
      <trkpt lat="43.59471" lon="1.28148">
        <ele>207.6</ele>
        <time>2024-06-13T15:06:48Z</time>
      </trkpt>
      <trkpt lat="43.5947" lon="1.28154">
        <ele>207.8</ele>
        <time>2024-06-13T15:06:49Z</time>
      </trkpt>
      <trkpt lat="43.59468" lon="1.28162">
        <ele>208</ele>
        <time>2024-06-13T15:06:50Z</time>
      </trkpt>
      <trkpt lat="43.59466" lon="1.2817">
        <ele>208.4</ele>
        <time>2024-06-13T15:06:51Z</time>
      </trkpt>
      <trkpt lat="43.59464" lon="1.28175">
        <ele>208.4</ele>
        <time>2024-06-13T15:06:52Z</time>
      </trkpt>
      <trkpt lat="43.59462" lon="1.28181">
        <ele>209</ele>
        <time>2024-06-13T15:06:53Z</time>
      </trkpt>
      <trkpt lat="43.5946" lon="1.28187">
        <ele>209.2</ele>
        <time>2024-06-13T15:06:54Z</time>
      </trkpt>
      <trkpt lat="43.59459" lon="1.28193">
        <ele>209.6</ele>
        <time>2024-06-13T15:06:55Z</time>
      </trkpt>
      <trkpt lat="43.59457" lon="1.28199">
        <ele>209.8</ele>
        <time>2024-06-13T15:06:56Z</time>
      </trkpt>
      <trkpt lat="43.59454" lon="1.28206">
        <ele>210</ele>
        <time>2024-06-13T15:06:57Z</time>
      </trkpt>
      <trkpt lat="43.59453" lon="1.2821">
        <ele>210.4</ele>
        <time>2024-06-13T15:06:58Z</time>
      </trkpt>
      <trkpt lat="43.5945" lon="1.28215">
        <ele>210.4</ele>
        <time>2024-06-13T15:06:59Z</time>
      </trkpt>
      <trkpt lat="43.59448" lon="1.28221">
        <ele>211</ele>
        <time>2024-06-13T15:07:00Z</time>
      </trkpt>
      <trkpt lat="43.59445" lon="1.28227">
        <ele>211</ele>
        <time>2024-06-13T15:07:01Z</time>
      </trkpt>
      <trkpt lat="43.59444" lon="1.28231">
        <ele>211.4</ele>
        <time>2024-06-13T15:07:02Z</time>
      </trkpt>
      <trkpt lat="43.59442" lon="1.28237">
        <ele>211.6</ele>
        <time>2024-06-13T15:07:03Z</time>
      </trkpt>
      <trkpt lat="43.5944" lon="1.28242">
        <ele>212</ele>
        <time>2024-06-13T15:07:04Z</time>
      </trkpt>
      <trkpt lat="43.59437" lon="1.28247">
        <ele>212.4</ele>
        <time>2024-06-13T15:07:05Z</time>
      </trkpt>
      <trkpt lat="43.59435" lon="1.28251">
        <ele>212.4</ele>
        <time>2024-06-13T15:07:06Z</time>
      </trkpt>
      <trkpt lat="43.59433" lon="1.28256">
        <ele>212.8</ele>
        <time>2024-06-13T15:07:07Z</time>
      </trkpt>
      <trkpt lat="43.5943" lon="1.2826">
        <ele>213</ele>
        <time>2024-06-13T15:07:08Z</time>
      </trkpt>
      <trkpt lat="43.59427" lon="1.28266">
        <ele>213.2</ele>
        <time>2024-06-13T15:07:09Z</time>
      </trkpt>
      <trkpt lat="43.59424" lon="1.28271">
        <ele>213.6</ele>
        <time>2024-06-13T15:07:10Z</time>
      </trkpt>
      <trkpt lat="43.59422" lon="1.28275">
        <ele>213.8</ele>
        <time>2024-06-13T15:07:11Z</time>
      </trkpt>
      <trkpt lat="43.5942" lon="1.28279">
        <ele>214.2</ele>
        <time>2024-06-13T15:07:12Z</time>
      </trkpt>
      <trkpt lat="43.59417" lon="1.28284">
        <ele>214.4</ele>
        <time>2024-06-13T15:07:13Z</time>
      </trkpt>
      <trkpt lat="43.59414" lon="1.28289">
        <ele>214.8</ele>
        <time>2024-06-13T15:07:14Z</time>
      </trkpt>
      <trkpt lat="43.5941" lon="1.28296">
        <ele>215</ele>
        <time>2024-06-13T15:07:15Z</time>
      </trkpt>
      <trkpt lat="43.59407" lon="1.283">
        <ele>215.2</ele>
        <time>2024-06-13T15:07:16Z</time>
      </trkpt>
      <trkpt lat="43.59404" lon="1.28303">
        <ele>215.2</ele>
        <time>2024-06-13T15:07:17Z</time>
      </trkpt>
      <trkpt lat="43.594" lon="1.28308">
        <ele>215.4</ele>
        <time>2024-06-13T15:07:18Z</time>
      </trkpt>
      <trkpt lat="43.59398" lon="1.28312">
        <ele>215.6</ele>
        <time>2024-06-13T15:07:19Z</time>
      </trkpt>
      <trkpt lat="43.59395" lon="1.28316">
        <ele>215.8</ele>
        <time>2024-06-13T15:07:20Z</time>
      </trkpt>
      <trkpt lat="43.59392" lon="1.2832">
        <ele>216</ele>
        <time>2024-06-13T15:07:21Z</time>
      </trkpt>
      <trkpt lat="43.59388" lon="1.28326">
        <ele>216.2</ele>
        <time>2024-06-13T15:07:22Z</time>
      </trkpt>
      <trkpt lat="43.59386" lon="1.28335">
        <ele>216.6</ele>
        <time>2024-06-13T15:07:23Z</time>
      </trkpt>
      <trkpt lat="43.59382" lon="1.28341">
        <ele>216.8</ele>
        <time>2024-06-13T15:07:24Z</time>
      </trkpt>
      <trkpt lat="43.5938" lon="1.28346">
        <ele>217</ele>
        <time>2024-06-13T15:07:25Z</time>
      </trkpt>
      <trkpt lat="43.59377" lon="1.28352">
        <ele>217.2</ele>
        <time>2024-06-13T15:07:26Z</time>
      </trkpt>
      <trkpt lat="43.59372" lon="1.28357">
        <ele>217.4</ele>
        <time>2024-06-13T15:07:27Z</time>
      </trkpt>
      <trkpt lat="43.5937" lon="1.28361">
        <ele>217.6</ele>
        <time>2024-06-13T15:07:28Z</time>
      </trkpt>
      <trkpt lat="43.59365" lon="1.28365">
        <ele>217.8</ele>
        <time>2024-06-13T15:07:29Z</time>
      </trkpt>
      <trkpt lat="43.59362" lon="1.2837">
        <ele>218.4</ele>
        <time>2024-06-13T15:07:30Z</time>
      </trkpt>
      <trkpt lat="43.59358" lon="1.28374">
        <ele>218.6</ele>
        <time>2024-06-13T15:07:31Z</time>
      </trkpt>
      <trkpt lat="43.59354" lon="1.2838">
        <ele>218.8</ele>
        <time>2024-06-13T15:07:32Z</time>
      </trkpt>
      <trkpt lat="43.59351" lon="1.28386">
        <ele>219</ele>
        <time>2024-06-13T15:07:33Z</time>
      </trkpt>
      <trkpt lat="43.59349" lon="1.28392">
        <ele>219</ele>
        <time>2024-06-13T15:07:34Z</time>
      </trkpt>
      <trkpt lat="43.59346" lon="1.28398">
        <ele>219.4</ele>
        <time>2024-06-13T15:07:35Z</time>
      </trkpt>
      <trkpt lat="43.59341" lon="1.28402">
        <ele>219.6</ele>
        <time>2024-06-13T15:07:36Z</time>
      </trkpt>
      <trkpt lat="43.59339" lon="1.28405">
        <ele>220</ele>
        <time>2024-06-13T15:07:37Z</time>
      </trkpt>
      <trkpt lat="43.59335" lon="1.28409">
        <ele>220.2</ele>
        <time>2024-06-13T15:07:38Z</time>
      </trkpt>
      <trkpt lat="43.59331" lon="1.28416">
        <ele>220.2</ele>
        <time>2024-06-13T15:07:39Z</time>
      </trkpt>
      <trkpt lat="43.59327" lon="1.28419">
        <ele>220.6</ele>
        <time>2024-06-13T15:07:40Z</time>
      </trkpt>
      <trkpt lat="43.59324" lon="1.28423">
        <ele>220.8</ele>
        <time>2024-06-13T15:07:41Z</time>
      </trkpt>
      <trkpt lat="43.5932" lon="1.2843">
        <ele>221</ele>
        <time>2024-06-13T15:07:42Z</time>
      </trkpt>
      <trkpt lat="43.59318" lon="1.28435">
        <ele>221</ele>
        <time>2024-06-13T15:07:43Z</time>
      </trkpt>
      <trkpt lat="43.59314" lon="1.28438">
        <ele>221.2</ele>
        <time>2024-06-13T15:07:44Z</time>
      </trkpt>
      <trkpt lat="43.5931" lon="1.28441">
        <ele>221.4</ele>
        <time>2024-06-13T15:07:45Z</time>
      </trkpt>
      <trkpt lat="43.59308" lon="1.28443">
        <ele>221.4</ele>
        <time>2024-06-13T15:07:46Z</time>
      </trkpt>
      <trkpt lat="43.59305" lon="1.28446">
        <ele>221.8</ele>
        <time>2024-06-13T15:07:47Z</time>
      </trkpt>
      <trkpt lat="43.59303" lon="1.2845">
        <ele>221.8</ele>
        <time>2024-06-13T15:07:48Z</time>
      </trkpt>
      <trkpt lat="43.593" lon="1.28453">
        <ele>222</ele>
        <time>2024-06-13T15:07:49Z</time>
      </trkpt>
      <trkpt lat="43.59297" lon="1.28456">
        <ele>222.2</ele>
        <time>2024-06-13T15:07:50Z</time>
      </trkpt>
      <trkpt lat="43.59294" lon="1.28459">
        <ele>222.4</ele>
        <time>2024-06-13T15:07:51Z</time>
      </trkpt>
      <trkpt lat="43.5929" lon="1.28462">
        <ele>222.8</ele>
        <time>2024-06-13T15:07:52Z</time>
      </trkpt>
      <trkpt lat="43.59288" lon="1.28464">
        <ele>223</ele>
        <time>2024-06-13T15:07:53Z</time>
      </trkpt>
      <trkpt lat="43.59284" lon="1.28468">
        <ele>223.4</ele>
        <time>2024-06-13T15:07:54Z</time>
      </trkpt>
      <trkpt lat="43.59281" lon="1.28471">
        <ele>223.6</ele>
        <time>2024-06-13T15:07:55Z</time>
      </trkpt>
      <trkpt lat="43.59277" lon="1.28474">
        <ele>224</ele>
        <time>2024-06-13T15:07:56Z</time>
      </trkpt>
      <trkpt lat="43.59273" lon="1.28478">
        <ele>224.2</ele>
        <time>2024-06-13T15:07:57Z</time>
      </trkpt>
      <trkpt lat="43.5927" lon="1.28481">
        <ele>224.4</ele>
        <time>2024-06-13T15:07:58Z</time>
      </trkpt>
      <trkpt lat="43.59267" lon="1.28484">
        <ele>224.8</ele>
        <time>2024-06-13T15:07:59Z</time>
      </trkpt>
      <trkpt lat="43.59263" lon="1.28487">
        <ele>224.8</ele>
        <time>2024-06-13T15:08:00Z</time>
      </trkpt>
      <trkpt lat="43.59259" lon="1.28491">
        <ele>225.2</ele>
        <time>2024-06-13T15:08:01Z</time>
      </trkpt>
      <trkpt lat="43.59256" lon="1.28494">
        <ele>225.4</ele>
        <time>2024-06-13T15:08:02Z</time>
      </trkpt>
      <trkpt lat="43.59253" lon="1.28498">
        <ele>225.6</ele>
        <time>2024-06-13T15:08:03Z</time>
      </trkpt>
      <trkpt lat="43.5925" lon="1.28501">
        <ele>225.8</ele>
        <time>2024-06-13T15:08:04Z</time>
      </trkpt>
      <trkpt lat="43.59247" lon="1.28505">
        <ele>226</ele>
        <time>2024-06-13T15:08:05Z</time>
      </trkpt>
      <trkpt lat="43.59245" lon="1.28508">
        <ele>226.2</ele>
        <time>2024-06-13T15:08:06Z</time>
      </trkpt>
      <trkpt lat="43.59242" lon="1.28511">
        <ele>226.4</ele>
        <time>2024-06-13T15:08:07Z</time>
      </trkpt>
      <trkpt lat="43.5924" lon="1.28513">
        <ele>226.4</ele>
        <time>2024-06-13T15:08:08Z</time>
      </trkpt>
      <trkpt lat="43.59237" lon="1.28516">
        <ele>226.6</ele>
        <time>2024-06-13T15:08:09Z</time>
      </trkpt>
      <trkpt lat="43.59233" lon="1.28518">
        <ele>226.8</ele>
        <time>2024-06-13T15:08:10Z</time>
      </trkpt>
      <trkpt lat="43.5923" lon="1.2852">
        <ele>227</ele>
        <time>2024-06-13T15:08:11Z</time>
      </trkpt>
      <trkpt lat="43.59227" lon="1.28522">
        <ele>227.2</ele>
        <time>2024-06-13T15:08:12Z</time>
      </trkpt>
      <trkpt lat="43.59223" lon="1.28526">
        <ele>227.2</ele>
        <time>2024-06-13T15:08:13Z</time>
      </trkpt>
      <trkpt lat="43.5922" lon="1.28529">
        <ele>227.4</ele>
        <time>2024-06-13T15:08:14Z</time>
      </trkpt>
      <trkpt lat="43.59217" lon="1.28533">
        <ele>227.4</ele>
        <time>2024-06-13T15:08:15Z</time>
      </trkpt>
      <trkpt lat="43.59215" lon="1.28537">
        <ele>227.4</ele>
        <time>2024-06-13T15:08:16Z</time>
      </trkpt>
      <trkpt lat="43.59213" lon="1.28543">
        <ele>227.6</ele>
        <time>2024-06-13T15:08:17Z</time>
      </trkpt>
      <trkpt lat="43.59212" lon="1.28548">
        <ele>227.8</ele>
        <time>2024-06-13T15:08:18Z</time>
      </trkpt>
      <trkpt lat="43.59212" lon="1.28556">
        <ele>228</ele>
        <time>2024-06-13T15:08:19Z</time>
      </trkpt>
      <trkpt lat="43.59213" lon="1.2856">
        <ele>228.2</ele>
        <time>2024-06-13T15:08:20Z</time>
      </trkpt>
      <trkpt lat="43.59215" lon="1.28566">
        <ele>228.2</ele>
        <time>2024-06-13T15:08:21Z</time>
      </trkpt>
      <trkpt lat="43.59219" lon="1.28571">
        <ele>228.4</ele>
        <time>2024-06-13T15:08:22Z</time>
      </trkpt>
      <trkpt lat="43.59223" lon="1.28573">
        <ele>228.4</ele>
        <time>2024-06-13T15:08:23Z</time>
      </trkpt>
      <trkpt lat="43.59227" lon="1.28574">
        <ele>228.6</ele>
        <time>2024-06-13T15:08:24Z</time>
      </trkpt>
      <trkpt lat="43.59232" lon="1.28574">
        <ele>228.8</ele>
        <time>2024-06-13T15:08:25Z</time>
      </trkpt>
      <trkpt lat="43.59238" lon="1.28573">
        <ele>229</ele>
        <time>2024-06-13T15:08:26Z</time>
      </trkpt>
      <trkpt lat="43.59243" lon="1.28571">
        <ele>229</ele>
        <time>2024-06-13T15:08:27Z</time>
      </trkpt>
      <trkpt lat="43.59249" lon="1.28569">
        <ele>229</ele>
        <time>2024-06-13T15:08:28Z</time>
      </trkpt>
      <trkpt lat="43.59254" lon="1.28569">
        <ele>229</ele>
        <time>2024-06-13T15:08:29Z</time>
      </trkpt>
      <trkpt lat="43.59259" lon="1.2857">
        <ele>229</ele>
        <time>2024-06-13T15:08:30Z</time>
      </trkpt>
      <trkpt lat="43.59266" lon="1.28572">
        <ele>229</ele>
        <time>2024-06-13T15:08:31Z</time>
      </trkpt>
      <trkpt lat="43.59271" lon="1.28573">
        <ele>229</ele>
        <time>2024-06-13T15:08:32Z</time>
      </trkpt>
      <trkpt lat="43.59276" lon="1.28575">
        <ele>229</ele>
        <time>2024-06-13T15:08:33Z</time>
      </trkpt>
      <trkpt lat="43.59282" lon="1.28576">
        <ele>229</ele>
        <time>2024-06-13T15:08:34Z</time>
      </trkpt>
      <trkpt lat="43.59287" lon="1.28578">
        <ele>229</ele>
        <time>2024-06-13T15:08:35Z</time>
      </trkpt>
      <trkpt lat="43.59293" lon="1.28579">
        <ele>229</ele>
        <time>2024-06-13T15:08:36Z</time>
      </trkpt>
      <trkpt lat="43.59298" lon="1.28581">
        <ele>229</ele>
        <time>2024-06-13T15:08:37Z</time>
      </trkpt>
      <trkpt lat="43.59304" lon="1.28583">
        <ele>229</ele>
        <time>2024-06-13T15:08:38Z</time>
      </trkpt>
      <trkpt lat="43.5931" lon="1.28584">
        <ele>229</ele>
        <time>2024-06-13T15:08:39Z</time>
      </trkpt>
      <trkpt lat="43.59316" lon="1.28586">
        <ele>229</ele>
        <time>2024-06-13T15:08:40Z</time>
      </trkpt>
      <trkpt lat="43.59321" lon="1.28588">
        <ele>229</ele>
        <time>2024-06-13T15:08:41Z</time>
      </trkpt>
      <trkpt lat="43.59327" lon="1.2859">
        <ele>229</ele>
        <time>2024-06-13T15:08:42Z</time>
      </trkpt>
      <trkpt lat="43.59333" lon="1.28592">
        <ele>229</ele>
        <time>2024-06-13T15:08:43Z</time>
      </trkpt>
      <trkpt lat="43.59339" lon="1.28594">
        <ele>229</ele>
        <time>2024-06-13T15:08:44Z</time>
      </trkpt>
      <trkpt lat="43.59345" lon="1.28596">
        <ele>229.2</ele>
        <time>2024-06-13T15:08:45Z</time>
      </trkpt>
      <trkpt lat="43.59351" lon="1.28599">
        <ele>229.2</ele>
        <time>2024-06-13T15:08:46Z</time>
      </trkpt>
      <trkpt lat="43.59358" lon="1.28602">
        <ele>229.2</ele>
        <time>2024-06-13T15:08:47Z</time>
      </trkpt>
      <trkpt lat="43.59363" lon="1.28604">
        <ele>229.2</ele>
        <time>2024-06-13T15:08:48Z</time>
      </trkpt>
      <trkpt lat="43.59369" lon="1.28607">
        <ele>229.2</ele>
        <time>2024-06-13T15:08:49Z</time>
      </trkpt>
      <trkpt lat="43.59375" lon="1.28611">
        <ele>229</ele>
        <time>2024-06-13T15:08:50Z</time>
      </trkpt>
      <trkpt lat="43.59381" lon="1.28614">
        <ele>229</ele>
        <time>2024-06-13T15:08:51Z</time>
      </trkpt>
      <trkpt lat="43.59387" lon="1.28618">
        <ele>229</ele>
        <time>2024-06-13T15:08:52Z</time>
      </trkpt>
      <trkpt lat="43.59393" lon="1.28622">
        <ele>229</ele>
        <time>2024-06-13T15:08:53Z</time>
      </trkpt>
      <trkpt lat="43.59399" lon="1.28626">
        <ele>229</ele>
        <time>2024-06-13T15:08:54Z</time>
      </trkpt>
      <trkpt lat="43.59405" lon="1.28631">
        <ele>228.8</ele>
        <time>2024-06-13T15:08:55Z</time>
      </trkpt>
      <trkpt lat="43.59411" lon="1.28635">
        <ele>228.8</ele>
        <time>2024-06-13T15:08:56Z</time>
      </trkpt>
      <trkpt lat="43.59417" lon="1.2864">
        <ele>228.8</ele>
        <time>2024-06-13T15:08:57Z</time>
      </trkpt>
      <trkpt lat="43.59422" lon="1.28645">
        <ele>228.6</ele>
        <time>2024-06-13T15:08:58Z</time>
      </trkpt>
      <trkpt lat="43.59429" lon="1.28652">
        <ele>228.6</ele>
        <time>2024-06-13T15:08:59Z</time>
      </trkpt>
      <trkpt lat="43.59435" lon="1.28657">
        <ele>228.4</ele>
        <time>2024-06-13T15:09:00Z</time>
      </trkpt>
      <trkpt lat="43.59439" lon="1.28661">
        <ele>228.4</ele>
        <time>2024-06-13T15:09:01Z</time>
      </trkpt>
      <trkpt lat="43.59445" lon="1.28667">
        <ele>228.4</ele>
        <time>2024-06-13T15:09:02Z</time>
      </trkpt>
      <trkpt lat="43.5945" lon="1.28672">
        <ele>228.4</ele>
        <time>2024-06-13T15:09:03Z</time>
      </trkpt>
      <trkpt lat="43.59456" lon="1.28678">
        <ele>228.2</ele>
        <time>2024-06-13T15:09:04Z</time>
      </trkpt>
      <trkpt lat="43.59462" lon="1.28685">
        <ele>228.2</ele>
        <time>2024-06-13T15:09:05Z</time>
      </trkpt>
      <trkpt lat="43.59466" lon="1.2869">
        <ele>228.2</ele>
        <time>2024-06-13T15:09:06Z</time>
      </trkpt>
      <trkpt lat="43.59471" lon="1.28697">
        <ele>228.2</ele>
        <time>2024-06-13T15:09:07Z</time>
      </trkpt>
      <trkpt lat="43.59476" lon="1.28703">
        <ele>228.2</ele>
        <time>2024-06-13T15:09:08Z</time>
      </trkpt>
      <trkpt lat="43.59481" lon="1.2871">
        <ele>228</ele>
        <time>2024-06-13T15:09:09Z</time>
      </trkpt>
      <trkpt lat="43.59486" lon="1.28717">
        <ele>228.2</ele>
        <time>2024-06-13T15:09:10Z</time>
      </trkpt>
      <trkpt lat="43.59491" lon="1.28724">
        <ele>228</ele>
        <time>2024-06-13T15:09:11Z</time>
      </trkpt>
      <trkpt lat="43.59497" lon="1.28732">
        <ele>228</ele>
        <time>2024-06-13T15:09:12Z</time>
      </trkpt>
      <trkpt lat="43.595" lon="1.28738">
        <ele>227.8</ele>
        <time>2024-06-13T15:09:13Z</time>
      </trkpt>
      <trkpt lat="43.59505" lon="1.28747">
        <ele>227.8</ele>
        <time>2024-06-13T15:09:14Z</time>
      </trkpt>
      <trkpt lat="43.59509" lon="1.28752">
        <ele>227.8</ele>
        <time>2024-06-13T15:09:15Z</time>
      </trkpt>
      <trkpt lat="43.59513" lon="1.2876">
        <ele>228.2</ele>
        <time>2024-06-13T15:09:16Z</time>
      </trkpt>
      <trkpt lat="43.59517" lon="1.28767">
        <ele>228.2</ele>
        <time>2024-06-13T15:09:17Z</time>
      </trkpt>
      <trkpt lat="43.59521" lon="1.28774">
        <ele>228.2</ele>
        <time>2024-06-13T15:09:18Z</time>
      </trkpt>
      <trkpt lat="43.59525" lon="1.28781">
        <ele>228.2</ele>
        <time>2024-06-13T15:09:19Z</time>
      </trkpt>
      <trkpt lat="43.59529" lon="1.28788">
        <ele>228.4</ele>
        <time>2024-06-13T15:09:20Z</time>
      </trkpt>
      <trkpt lat="43.59533" lon="1.28796">
        <ele>228.4</ele>
        <time>2024-06-13T15:09:21Z</time>
      </trkpt>
      <trkpt lat="43.59537" lon="1.28803">
        <ele>228.6</ele>
        <time>2024-06-13T15:09:22Z</time>
      </trkpt>
      <trkpt lat="43.59541" lon="1.28812">
        <ele>228.6</ele>
        <time>2024-06-13T15:09:23Z</time>
      </trkpt>
      <trkpt lat="43.59545" lon="1.28818">
        <ele>228.8</ele>
        <time>2024-06-13T15:09:24Z</time>
      </trkpt>
      <trkpt lat="43.59549" lon="1.28826">
        <ele>228.8</ele>
        <time>2024-06-13T15:09:25Z</time>
      </trkpt>
      <trkpt lat="43.59554" lon="1.28835">
        <ele>228.8</ele>
        <time>2024-06-13T15:09:26Z</time>
      </trkpt>
      <trkpt lat="43.59557" lon="1.28841">
        <ele>228.8</ele>
        <time>2024-06-13T15:09:27Z</time>
      </trkpt>
      <trkpt lat="43.59562" lon="1.28848">
        <ele>228.8</ele>
        <time>2024-06-13T15:09:28Z</time>
      </trkpt>
      <trkpt lat="43.59566" lon="1.28856">
        <ele>228.8</ele>
        <time>2024-06-13T15:09:29Z</time>
      </trkpt>
      <trkpt lat="43.59571" lon="1.28863">
        <ele>228.8</ele>
        <time>2024-06-13T15:09:30Z</time>
      </trkpt>
      <trkpt lat="43.59576" lon="1.28871">
        <ele>228.8</ele>
        <time>2024-06-13T15:09:31Z</time>
      </trkpt>
      <trkpt lat="43.59582" lon="1.2888">
        <ele>228.8</ele>
        <time>2024-06-13T15:09:32Z</time>
      </trkpt>
      <trkpt lat="43.59586" lon="1.28886">
        <ele>228.8</ele>
        <time>2024-06-13T15:09:33Z</time>
      </trkpt>
      <trkpt lat="43.5959" lon="1.28893">
        <ele>228.8</ele>
        <time>2024-06-13T15:09:34Z</time>
      </trkpt>
      <trkpt lat="43.59596" lon="1.28902">
        <ele>228.8</ele>
        <time>2024-06-13T15:09:35Z</time>
      </trkpt>
      <trkpt lat="43.596" lon="1.28907">
        <ele>228.8</ele>
        <time>2024-06-13T15:09:36Z</time>
      </trkpt>
      <trkpt lat="43.59605" lon="1.28915">
        <ele>228.6</ele>
        <time>2024-06-13T15:09:37Z</time>
      </trkpt>
      <trkpt lat="43.5961" lon="1.28922">
        <ele>228.6</ele>
        <time>2024-06-13T15:09:38Z</time>
      </trkpt>
      <trkpt lat="43.59616" lon="1.28929">
        <ele>228.6</ele>
        <time>2024-06-13T15:09:39Z</time>
      </trkpt>
      <trkpt lat="43.59621" lon="1.28936">
        <ele>228.4</ele>
        <time>2024-06-13T15:09:40Z</time>
      </trkpt>
      <trkpt lat="43.59626" lon="1.28943">
        <ele>228.4</ele>
        <time>2024-06-13T15:09:41Z</time>
      </trkpt>
      <trkpt lat="43.59632" lon="1.2895">
        <ele>228.4</ele>
        <time>2024-06-13T15:09:42Z</time>
      </trkpt>
      <trkpt lat="43.59637" lon="1.28957">
        <ele>228.2</ele>
        <time>2024-06-13T15:09:43Z</time>
      </trkpt>
      <trkpt lat="43.59643" lon="1.28964">
        <ele>228.2</ele>
        <time>2024-06-13T15:09:44Z</time>
      </trkpt>
      <trkpt lat="43.59649" lon="1.28973">
        <ele>228.2</ele>
        <time>2024-06-13T15:09:45Z</time>
      </trkpt>
      <trkpt lat="43.59653" lon="1.28979">
        <ele>228.2</ele>
        <time>2024-06-13T15:09:46Z</time>
      </trkpt>
      <trkpt lat="43.59658" lon="1.28987">
        <ele>228.2</ele>
        <time>2024-06-13T15:09:47Z</time>
      </trkpt>
      <trkpt lat="43.59661" lon="1.28994">
        <ele>228.2</ele>
        <time>2024-06-13T15:09:48Z</time>
      </trkpt>
      <trkpt lat="43.59665" lon="1.29003">
        <ele>228.2</ele>
        <time>2024-06-13T15:09:49Z</time>
      </trkpt>
      <trkpt lat="43.59668" lon="1.29008">
        <ele>228.2</ele>
        <time>2024-06-13T15:09:50Z</time>
      </trkpt>
      <trkpt lat="43.59672" lon="1.29016">
        <ele>228.2</ele>
        <time>2024-06-13T15:09:51Z</time>
      </trkpt>
      <trkpt lat="43.59675" lon="1.29024">
        <ele>228.2</ele>
        <time>2024-06-13T15:09:52Z</time>
      </trkpt>
      <trkpt lat="43.59677" lon="1.29033">
        <ele>228.4</ele>
        <time>2024-06-13T15:09:53Z</time>
      </trkpt>
      <trkpt lat="43.59678" lon="1.29042">
        <ele>228.4</ele>
        <time>2024-06-13T15:09:54Z</time>
      </trkpt>
      <trkpt lat="43.59679" lon="1.29052">
        <ele>228.4</ele>
        <time>2024-06-13T15:09:55Z</time>
      </trkpt>
      <trkpt lat="43.59678" lon="1.29064">
        <ele>228.4</ele>
        <time>2024-06-13T15:09:56Z</time>
      </trkpt>
      <trkpt lat="43.59676" lon="1.29071">
        <ele>228.4</ele>
        <time>2024-06-13T15:09:57Z</time>
      </trkpt>
      <trkpt lat="43.59673" lon="1.29081">
        <ele>228.4</ele>
        <time>2024-06-13T15:09:58Z</time>
      </trkpt>
      <trkpt lat="43.5967" lon="1.2909">
        <ele>228.4</ele>
        <time>2024-06-13T15:09:59Z</time>
      </trkpt>
      <trkpt lat="43.59666" lon="1.29099">
        <ele>228.4</ele>
        <time>2024-06-13T15:10:00Z</time>
      </trkpt>
      <trkpt lat="43.59663" lon="1.29109">
        <ele>228.4</ele>
        <time>2024-06-13T15:10:01Z</time>
      </trkpt>
      <trkpt lat="43.59659" lon="1.29118">
        <ele>228.4</ele>
        <time>2024-06-13T15:10:02Z</time>
      </trkpt>
      <trkpt lat="43.59655" lon="1.29127">
        <ele>228.2</ele>
        <time>2024-06-13T15:10:03Z</time>
      </trkpt>
      <trkpt lat="43.59651" lon="1.29137">
        <ele>228.2</ele>
        <time>2024-06-13T15:10:04Z</time>
      </trkpt>
      <trkpt lat="43.59646" lon="1.29147">
        <ele>228</ele>
        <time>2024-06-13T15:10:05Z</time>
      </trkpt>
      <trkpt lat="43.59642" lon="1.29156">
        <ele>227.8</ele>
        <time>2024-06-13T15:10:06Z</time>
      </trkpt>
      <trkpt lat="43.59638" lon="1.29166">
        <ele>227.8</ele>
        <time>2024-06-13T15:10:07Z</time>
      </trkpt>
      <trkpt lat="43.59634" lon="1.29175">
        <ele>227.6</ele>
        <time>2024-06-13T15:10:08Z</time>
      </trkpt>
      <trkpt lat="43.5963" lon="1.29184">
        <ele>227.4</ele>
        <time>2024-06-13T15:10:09Z</time>
      </trkpt>
      <trkpt lat="43.59626" lon="1.29194">
        <ele>227.4</ele>
        <time>2024-06-13T15:10:10Z</time>
      </trkpt>
      <trkpt lat="43.59622" lon="1.29203">
        <ele>227.2</ele>
        <time>2024-06-13T15:10:11Z</time>
      </trkpt>
      <trkpt lat="43.59618" lon="1.29212">
        <ele>227.2</ele>
        <time>2024-06-13T15:10:12Z</time>
      </trkpt>
      <trkpt lat="43.59614" lon="1.29221">
        <ele>227.2</ele>
        <time>2024-06-13T15:10:13Z</time>
      </trkpt>
      <trkpt lat="43.59609" lon="1.29232">
        <ele>227</ele>
        <time>2024-06-13T15:10:14Z</time>
      </trkpt>
      <trkpt lat="43.59605" lon="1.29239">
        <ele>227</ele>
        <time>2024-06-13T15:10:15Z</time>
      </trkpt>
      <trkpt lat="43.59601" lon="1.29248">
        <ele>227</ele>
        <time>2024-06-13T15:10:16Z</time>
      </trkpt>
      <trkpt lat="43.59597" lon="1.29257">
        <ele>227</ele>
        <time>2024-06-13T15:10:17Z</time>
      </trkpt>
      <trkpt lat="43.59594" lon="1.29265">
        <ele>227</ele>
        <time>2024-06-13T15:10:18Z</time>
      </trkpt>
      <trkpt lat="43.5959" lon="1.29274">
        <ele>227</ele>
        <time>2024-06-13T15:10:19Z</time>
      </trkpt>
      <trkpt lat="43.59585" lon="1.29281">
        <ele>227.2</ele>
        <time>2024-06-13T15:10:20Z</time>
      </trkpt>
      <trkpt lat="43.59581" lon="1.29289">
        <ele>227.2</ele>
        <time>2024-06-13T15:10:21Z</time>
      </trkpt>
      <trkpt lat="43.59576" lon="1.29296">
        <ele>227.2</ele>
        <time>2024-06-13T15:10:22Z</time>
      </trkpt>
      <trkpt lat="43.59572" lon="1.29304">
        <ele>227.2</ele>
        <time>2024-06-13T15:10:23Z</time>
      </trkpt>
      <trkpt lat="43.59567" lon="1.29311">
        <ele>227.2</ele>
        <time>2024-06-13T15:10:24Z</time>
      </trkpt>
      <trkpt lat="43.59562" lon="1.29318">
        <ele>227.2</ele>
        <time>2024-06-13T15:10:25Z</time>
      </trkpt>
      <trkpt lat="43.59557" lon="1.29324">
        <ele>227.2</ele>
        <time>2024-06-13T15:10:26Z</time>
      </trkpt>
      <trkpt lat="43.59552" lon="1.29331">
        <ele>227.4</ele>
        <time>2024-06-13T15:10:27Z</time>
      </trkpt>
      <trkpt lat="43.59545" lon="1.2934">
        <ele>227.6</ele>
        <time>2024-06-13T15:10:28Z</time>
      </trkpt>
      <trkpt lat="43.59541" lon="1.29345">
        <ele>227.6</ele>
        <time>2024-06-13T15:10:29Z</time>
      </trkpt>
      <trkpt lat="43.59535" lon="1.29351">
        <ele>227.6</ele>
        <time>2024-06-13T15:10:30Z</time>
      </trkpt>
      <trkpt lat="43.59528" lon="1.29358">
        <ele>227.8</ele>
        <time>2024-06-13T15:10:31Z</time>
      </trkpt>
      <trkpt lat="43.59523" lon="1.29363">
        <ele>227.8</ele>
        <time>2024-06-13T15:10:32Z</time>
      </trkpt>
      <trkpt lat="43.59517" lon="1.29368">
        <ele>227.8</ele>
        <time>2024-06-13T15:10:33Z</time>
      </trkpt>
      <trkpt lat="43.59511" lon="1.29373">
        <ele>227.8</ele>
        <time>2024-06-13T15:10:34Z</time>
      </trkpt>
      <trkpt lat="43.59505" lon="1.29378">
        <ele>227.8</ele>
        <time>2024-06-13T15:10:35Z</time>
      </trkpt>
      <trkpt lat="43.59498" lon="1.29383">
        <ele>227.8</ele>
        <time>2024-06-13T15:10:36Z</time>
      </trkpt>
      <trkpt lat="43.5949" lon="1.29388">
        <ele>227.8</ele>
        <time>2024-06-13T15:10:37Z</time>
      </trkpt>
      <trkpt lat="43.59485" lon="1.29391">
        <ele>227.8</ele>
        <time>2024-06-13T15:10:38Z</time>
      </trkpt>
      <trkpt lat="43.59478" lon="1.29394">
        <ele>227.8</ele>
        <time>2024-06-13T15:10:39Z</time>
      </trkpt>
      <trkpt lat="43.59471" lon="1.29397">
        <ele>227.8</ele>
        <time>2024-06-13T15:10:40Z</time>
      </trkpt>
      <trkpt lat="43.59464" lon="1.29399">
        <ele>227.8</ele>
        <time>2024-06-13T15:10:41Z</time>
      </trkpt>
      <trkpt lat="43.59456" lon="1.29401">
        <ele>227.8</ele>
        <time>2024-06-13T15:10:42Z</time>
      </trkpt>
      <trkpt lat="43.59449" lon="1.29401">
        <ele>227.8</ele>
        <time>2024-06-13T15:10:43Z</time>
      </trkpt>
      <trkpt lat="43.59442" lon="1.29401">
        <ele>227.8</ele>
        <time>2024-06-13T15:10:44Z</time>
      </trkpt>
      <trkpt lat="43.59435" lon="1.29401">
        <ele>227.8</ele>
        <time>2024-06-13T15:10:45Z</time>
      </trkpt>
      <trkpt lat="43.59428" lon="1.29399">
        <ele>227.6</ele>
        <time>2024-06-13T15:10:46Z</time>
      </trkpt>
      <trkpt lat="43.59421" lon="1.29398">
        <ele>227.8</ele>
        <time>2024-06-13T15:10:47Z</time>
      </trkpt>
      <trkpt lat="43.59415" lon="1.29396">
        <ele>227.8</ele>
        <time>2024-06-13T15:10:48Z</time>
      </trkpt>
      <trkpt lat="43.59408" lon="1.29394">
        <ele>227.8</ele>
        <time>2024-06-13T15:10:49Z</time>
      </trkpt>
      <trkpt lat="43.59401" lon="1.29392">
        <ele>227.8</ele>
        <time>2024-06-13T15:10:50Z</time>
      </trkpt>
      <trkpt lat="43.59393" lon="1.2939">
        <ele>228</ele>
        <time>2024-06-13T15:10:51Z</time>
      </trkpt>
      <trkpt lat="43.59387" lon="1.29389">
        <ele>228</ele>
        <time>2024-06-13T15:10:52Z</time>
      </trkpt>
      <trkpt lat="43.59381" lon="1.29387">
        <ele>228.2</ele>
        <time>2024-06-13T15:10:53Z</time>
      </trkpt>
      <trkpt lat="43.59374" lon="1.29385">
        <ele>228.2</ele>
        <time>2024-06-13T15:10:54Z</time>
      </trkpt>
      <trkpt lat="43.59367" lon="1.29383">
        <ele>228.2</ele>
        <time>2024-06-13T15:10:55Z</time>
      </trkpt>
      <trkpt lat="43.5936" lon="1.29381">
        <ele>228.4</ele>
        <time>2024-06-13T15:10:56Z</time>
      </trkpt>
      <trkpt lat="43.59354" lon="1.2938">
        <ele>228.4</ele>
        <time>2024-06-13T15:10:57Z</time>
      </trkpt>
      <trkpt lat="43.59347" lon="1.29378">
        <ele>228.4</ele>
        <time>2024-06-13T15:10:58Z</time>
      </trkpt>
      <trkpt lat="43.5934" lon="1.29375">
        <ele>228.4</ele>
        <time>2024-06-13T15:10:59Z</time>
      </trkpt>
      <trkpt lat="43.59332" lon="1.29372">
        <ele>228.4</ele>
        <time>2024-06-13T15:11:00Z</time>
      </trkpt>
      <trkpt lat="43.59327" lon="1.29371">
        <ele>228.4</ele>
        <time>2024-06-13T15:11:01Z</time>
      </trkpt>
      <trkpt lat="43.5932" lon="1.29369">
        <ele>228.4</ele>
        <time>2024-06-13T15:11:02Z</time>
      </trkpt>
      <trkpt lat="43.59312" lon="1.29367">
        <ele>228.4</ele>
        <time>2024-06-13T15:11:03Z</time>
      </trkpt>
      <trkpt lat="43.59307" lon="1.29365">
        <ele>228.4</ele>
        <time>2024-06-13T15:11:04Z</time>
      </trkpt>
      <trkpt lat="43.593" lon="1.29363">
        <ele>228.4</ele>
        <time>2024-06-13T15:11:05Z</time>
      </trkpt>
      <trkpt lat="43.59294" lon="1.29362">
        <ele>228.4</ele>
        <time>2024-06-13T15:11:06Z</time>
      </trkpt>
      <trkpt lat="43.59288" lon="1.2936">
        <ele>228.4</ele>
        <time>2024-06-13T15:11:07Z</time>
      </trkpt>
      <trkpt lat="43.59282" lon="1.29358">
        <ele>228.4</ele>
        <time>2024-06-13T15:11:08Z</time>
      </trkpt>
      <trkpt lat="43.59275" lon="1.29356">
        <ele>228.4</ele>
        <time>2024-06-13T15:11:09Z</time>
      </trkpt>
      <trkpt lat="43.59267" lon="1.29354">
        <ele>228.4</ele>
        <time>2024-06-13T15:11:10Z</time>
      </trkpt>
      <trkpt lat="43.59262" lon="1.29352">
        <ele>228.4</ele>
        <time>2024-06-13T15:11:11Z</time>
      </trkpt>
      <trkpt lat="43.59256" lon="1.29349">
        <ele>228.4</ele>
        <time>2024-06-13T15:11:12Z</time>
      </trkpt>
      <trkpt lat="43.5925" lon="1.29346">
        <ele>228.4</ele>
        <time>2024-06-13T15:11:13Z</time>
      </trkpt>
      <trkpt lat="43.59244" lon="1.29341">
        <ele>228.4</ele>
        <time>2024-06-13T15:11:14Z</time>
      </trkpt>
      <trkpt lat="43.59239" lon="1.29338">
        <ele>228.4</ele>
        <time>2024-06-13T15:11:15Z</time>
      </trkpt>
      <trkpt lat="43.59234" lon="1.29335">
        <ele>228.2</ele>
        <time>2024-06-13T15:11:16Z</time>
      </trkpt>
      <trkpt lat="43.59229" lon="1.29332">
        <ele>228.2</ele>
        <time>2024-06-13T15:11:17Z</time>
      </trkpt>
      <trkpt lat="43.59224" lon="1.29328">
        <ele>228.2</ele>
        <time>2024-06-13T15:11:18Z</time>
      </trkpt>
      <trkpt lat="43.5922" lon="1.29322">
        <ele>228.2</ele>
        <time>2024-06-13T15:11:19Z</time>
      </trkpt>
      <trkpt lat="43.59217" lon="1.29316">
        <ele>228.2</ele>
        <time>2024-06-13T15:11:20Z</time>
      </trkpt>
      <trkpt lat="43.59213" lon="1.29309">
        <ele>228.2</ele>
        <time>2024-06-13T15:11:21Z</time>
      </trkpt>
      <trkpt lat="43.5921" lon="1.29303">
        <ele>228</ele>
        <time>2024-06-13T15:11:22Z</time>
      </trkpt>
      <trkpt lat="43.59204" lon="1.29296">
        <ele>228.2</ele>
        <time>2024-06-13T15:11:23Z</time>
      </trkpt>
      <trkpt lat="43.59199" lon="1.29294">
        <ele>228.2</ele>
        <time>2024-06-13T15:11:24Z</time>
      </trkpt>
      <trkpt lat="43.59193" lon="1.29293">
        <ele>228.2</ele>
        <time>2024-06-13T15:11:25Z</time>
      </trkpt>
      <trkpt lat="43.59188" lon="1.29296">
        <ele>228.2</ele>
        <time>2024-06-13T15:11:26Z</time>
      </trkpt>
      <trkpt lat="43.59184" lon="1.29301">
        <ele>228.2</ele>
        <time>2024-06-13T15:11:27Z</time>
      </trkpt>
      <trkpt lat="43.59181" lon="1.29311">
        <ele>228.2</ele>
        <time>2024-06-13T15:11:28Z</time>
      </trkpt>
      <trkpt lat="43.59181" lon="1.29318">
        <ele>228.2</ele>
        <time>2024-06-13T15:11:29Z</time>
      </trkpt>
      <trkpt lat="43.59182" lon="1.29327">
        <ele>228.2</ele>
        <time>2024-06-13T15:11:30Z</time>
      </trkpt>
      <trkpt lat="43.59184" lon="1.29336">
        <ele>228.2</ele>
        <time>2024-06-13T15:11:31Z</time>
      </trkpt>
      <trkpt lat="43.59186" lon="1.29347">
        <ele>228.2</ele>
        <time>2024-06-13T15:11:32Z</time>
      </trkpt>
      <trkpt lat="43.59186" lon="1.29356">
        <ele>228.2</ele>
        <time>2024-06-13T15:11:33Z</time>
      </trkpt>
      <trkpt lat="43.59185" lon="1.29364">
        <ele>228.2</ele>
        <time>2024-06-13T15:11:34Z</time>
      </trkpt>
      <trkpt lat="43.59184" lon="1.29374">
        <ele>228.4</ele>
        <time>2024-06-13T15:11:35Z</time>
      </trkpt>
      <trkpt lat="43.59183" lon="1.29384">
        <ele>228.4</ele>
        <time>2024-06-13T15:11:36Z</time>
      </trkpt>
      <trkpt lat="43.59181" lon="1.29394">
        <ele>228.4</ele>
        <time>2024-06-13T15:11:37Z</time>
      </trkpt>
      <trkpt lat="43.5918" lon="1.29404">
        <ele>228.4</ele>
        <time>2024-06-13T15:11:38Z</time>
      </trkpt>
      <trkpt lat="43.59178" lon="1.29414">
        <ele>228.4</ele>
        <time>2024-06-13T15:11:39Z</time>
      </trkpt>
      <trkpt lat="43.59177" lon="1.29424">
        <ele>228.4</ele>
        <time>2024-06-13T15:11:40Z</time>
      </trkpt>
      <trkpt lat="43.59175" lon="1.29434">
        <ele>228.4</ele>
        <time>2024-06-13T15:11:41Z</time>
      </trkpt>
      <trkpt lat="43.59174" lon="1.29446">
        <ele>228.4</ele>
        <time>2024-06-13T15:11:42Z</time>
      </trkpt>
      <trkpt lat="43.59173" lon="1.29454">
        <ele>228.4</ele>
        <time>2024-06-13T15:11:43Z</time>
      </trkpt>
      <trkpt lat="43.59171" lon="1.29465">
        <ele>228.4</ele>
        <time>2024-06-13T15:11:44Z</time>
      </trkpt>
      <trkpt lat="43.5917" lon="1.29475">
        <ele>228.4</ele>
        <time>2024-06-13T15:11:45Z</time>
      </trkpt>
      <trkpt lat="43.59168" lon="1.29485">
        <ele>228.4</ele>
        <time>2024-06-13T15:11:46Z</time>
      </trkpt>
      <trkpt lat="43.59167" lon="1.29495">
        <ele>228.4</ele>
        <time>2024-06-13T15:11:47Z</time>
      </trkpt>
      <trkpt lat="43.59165" lon="1.29506">
        <ele>228.4</ele>
        <time>2024-06-13T15:11:48Z</time>
      </trkpt>
      <trkpt lat="43.59164" lon="1.29516">
        <ele>228.4</ele>
        <time>2024-06-13T15:11:49Z</time>
      </trkpt>
      <trkpt lat="43.59162" lon="1.29525">
        <ele>228.6</ele>
        <time>2024-06-13T15:11:50Z</time>
      </trkpt>
      <trkpt lat="43.59161" lon="1.29537">
        <ele>228.6</ele>
        <time>2024-06-13T15:11:51Z</time>
      </trkpt>
      <trkpt lat="43.59159" lon="1.29545">
        <ele>228.8</ele>
        <time>2024-06-13T15:11:52Z</time>
      </trkpt>
      <trkpt lat="43.59158" lon="1.29555">
        <ele>229</ele>
        <time>2024-06-13T15:11:53Z</time>
      </trkpt>
      <trkpt lat="43.59157" lon="1.29565">
        <ele>229</ele>
        <time>2024-06-13T15:11:54Z</time>
      </trkpt>
      <trkpt lat="43.59155" lon="1.29575">
        <ele>229</ele>
        <time>2024-06-13T15:11:55Z</time>
      </trkpt>
      <trkpt lat="43.59153" lon="1.29585">
        <ele>229</ele>
        <time>2024-06-13T15:11:56Z</time>
      </trkpt>
      <trkpt lat="43.59152" lon="1.29595">
        <ele>229</ele>
        <time>2024-06-13T15:11:57Z</time>
      </trkpt>
      <trkpt lat="43.5915" lon="1.29605">
        <ele>229</ele>
        <time>2024-06-13T15:11:58Z</time>
      </trkpt>
      <trkpt lat="43.59149" lon="1.29616">
        <ele>229</ele>
        <time>2024-06-13T15:11:59Z</time>
      </trkpt>
      <trkpt lat="43.59147" lon="1.29628">
        <ele>229</ele>
        <time>2024-06-13T15:12:00Z</time>
      </trkpt>
      <trkpt lat="43.59146" lon="1.29636">
        <ele>228.8</ele>
        <time>2024-06-13T15:12:01Z</time>
      </trkpt>
      <trkpt lat="43.59144" lon="1.29646">
        <ele>228.8</ele>
        <time>2024-06-13T15:12:02Z</time>
      </trkpt>
      <trkpt lat="43.59143" lon="1.29658">
        <ele>228.8</ele>
        <time>2024-06-13T15:12:03Z</time>
      </trkpt>
      <trkpt lat="43.59142" lon="1.29667">
        <ele>228.8</ele>
        <time>2024-06-13T15:12:04Z</time>
      </trkpt>
      <trkpt lat="43.59141" lon="1.29677">
        <ele>228.8</ele>
        <time>2024-06-13T15:12:05Z</time>
      </trkpt>
      <trkpt lat="43.59141" lon="1.29688">
        <ele>228.6</ele>
        <time>2024-06-13T15:12:06Z</time>
      </trkpt>
      <trkpt lat="43.5914" lon="1.297">
        <ele>228.6</ele>
        <time>2024-06-13T15:12:07Z</time>
      </trkpt>
      <trkpt lat="43.59139" lon="1.29708">
        <ele>228.6</ele>
        <time>2024-06-13T15:12:08Z</time>
      </trkpt>
      <trkpt lat="43.59138" lon="1.2972">
        <ele>228.6</ele>
        <time>2024-06-13T15:12:09Z</time>
      </trkpt>
      <trkpt lat="43.59138" lon="1.29728">
        <ele>228.8</ele>
        <time>2024-06-13T15:12:10Z</time>
      </trkpt>
      <trkpt lat="43.59137" lon="1.29738">
        <ele>228.8</ele>
        <time>2024-06-13T15:12:11Z</time>
      </trkpt>
      <trkpt lat="43.59136" lon="1.2975">
        <ele>228.8</ele>
        <time>2024-06-13T15:12:12Z</time>
      </trkpt>
      <trkpt lat="43.59136" lon="1.2976">
        <ele>229</ele>
        <time>2024-06-13T15:12:13Z</time>
      </trkpt>
      <trkpt lat="43.59135" lon="1.29768">
        <ele>229</ele>
        <time>2024-06-13T15:12:14Z</time>
      </trkpt>
      <trkpt lat="43.59134" lon="1.29778">
        <ele>229</ele>
        <time>2024-06-13T15:12:15Z</time>
      </trkpt>
      <trkpt lat="43.59134" lon="1.29788">
        <ele>229</ele>
        <time>2024-06-13T15:12:16Z</time>
      </trkpt>
      <trkpt lat="43.59133" lon="1.29798">
        <ele>229.2</ele>
        <time>2024-06-13T15:12:17Z</time>
      </trkpt>
      <trkpt lat="43.59133" lon="1.2981">
        <ele>229.2</ele>
        <time>2024-06-13T15:12:18Z</time>
      </trkpt>
      <trkpt lat="43.59132" lon="1.29818">
        <ele>229.4</ele>
        <time>2024-06-13T15:12:19Z</time>
      </trkpt>
      <trkpt lat="43.59131" lon="1.29827">
        <ele>229.4</ele>
        <time>2024-06-13T15:12:20Z</time>
      </trkpt>
      <trkpt lat="43.59131" lon="1.29838">
        <ele>229.4</ele>
        <time>2024-06-13T15:12:21Z</time>
      </trkpt>
      <trkpt lat="43.5913" lon="1.29848">
        <ele>229.6</ele>
        <time>2024-06-13T15:12:22Z</time>
      </trkpt>
      <trkpt lat="43.59131" lon="1.29855">
        <ele>229.6</ele>
        <time>2024-06-13T15:12:23Z</time>
      </trkpt>
      <trkpt lat="43.5913" lon="1.29864">
        <ele>229.6</ele>
        <time>2024-06-13T15:12:24Z</time>
      </trkpt>
      <trkpt lat="43.59129" lon="1.29872">
        <ele>229.6</ele>
        <time>2024-06-13T15:12:25Z</time>
      </trkpt>
      <trkpt lat="43.59126" lon="1.2988">
        <ele>229.6</ele>
        <time>2024-06-13T15:12:26Z</time>
      </trkpt>
      <trkpt lat="43.59123" lon="1.29889">
        <ele>229.6</ele>
        <time>2024-06-13T15:12:27Z</time>
      </trkpt>
      <trkpt lat="43.59121" lon="1.29895">
        <ele>229.6</ele>
        <time>2024-06-13T15:12:28Z</time>
      </trkpt>
      <trkpt lat="43.5912" lon="1.29904">
        <ele>229.6</ele>
        <time>2024-06-13T15:12:29Z</time>
      </trkpt>
      <trkpt lat="43.59122" lon="1.29912">
        <ele>229.6</ele>
        <time>2024-06-13T15:12:30Z</time>
      </trkpt>
      <trkpt lat="43.59126" lon="1.29919">
        <ele>229.6</ele>
        <time>2024-06-13T15:12:31Z</time>
      </trkpt>
      <trkpt lat="43.59132" lon="1.29922">
        <ele>229.6</ele>
        <time>2024-06-13T15:12:32Z</time>
      </trkpt>
      <trkpt lat="43.59137" lon="1.29923">
        <ele>229.6</ele>
        <time>2024-06-13T15:12:33Z</time>
      </trkpt>
      <trkpt lat="43.59144" lon="1.29926">
        <ele>229.4</ele>
        <time>2024-06-13T15:12:34Z</time>
      </trkpt>
      <trkpt lat="43.5915" lon="1.29929">
        <ele>229.4</ele>
        <time>2024-06-13T15:12:35Z</time>
      </trkpt>
      <trkpt lat="43.59156" lon="1.29934">
        <ele>229.4</ele>
        <time>2024-06-13T15:12:36Z</time>
      </trkpt>
      <trkpt lat="43.59162" lon="1.29941">
        <ele>229.4</ele>
        <time>2024-06-13T15:12:37Z</time>
      </trkpt>
      <trkpt lat="43.59167" lon="1.29944">
        <ele>229.2</ele>
        <time>2024-06-13T15:12:38Z</time>
      </trkpt>
      <trkpt lat="43.59173" lon="1.29949">
        <ele>229.2</ele>
        <time>2024-06-13T15:12:39Z</time>
      </trkpt>
      <trkpt lat="43.5918" lon="1.29952">
        <ele>229.2</ele>
        <time>2024-06-13T15:12:40Z</time>
      </trkpt>
      <trkpt lat="43.59187" lon="1.29956">
        <ele>229</ele>
        <time>2024-06-13T15:12:41Z</time>
      </trkpt>
      <trkpt lat="43.59192" lon="1.29959">
        <ele>229</ele>
        <time>2024-06-13T15:12:42Z</time>
      </trkpt>
      <trkpt lat="43.59198" lon="1.29962">
        <ele>229</ele>
        <time>2024-06-13T15:12:43Z</time>
      </trkpt>
      <trkpt lat="43.59204" lon="1.29966">
        <ele>228.8</ele>
        <time>2024-06-13T15:12:44Z</time>
      </trkpt>
      <trkpt lat="43.5921" lon="1.29972">
        <ele>228.6</ele>
        <time>2024-06-13T15:12:45Z</time>
      </trkpt>
      <trkpt lat="43.59215" lon="1.2998">
        <ele>228.6</ele>
        <time>2024-06-13T15:12:46Z</time>
      </trkpt>
      <trkpt lat="43.59218" lon="1.29986">
        <ele>228.6</ele>
        <time>2024-06-13T15:12:47Z</time>
      </trkpt>
      <trkpt lat="43.59221" lon="1.29995">
        <ele>228.6</ele>
        <time>2024-06-13T15:12:48Z</time>
      </trkpt>
      <trkpt lat="43.59222" lon="1.30004">
        <ele>228.4</ele>
        <time>2024-06-13T15:12:49Z</time>
      </trkpt>
      <trkpt lat="43.59223" lon="1.30015">
        <ele>228.4</ele>
        <time>2024-06-13T15:12:50Z</time>
      </trkpt>
      <trkpt lat="43.59223" lon="1.30023">
        <ele>228.4</ele>
        <time>2024-06-13T15:12:51Z</time>
      </trkpt>
      <trkpt lat="43.59223" lon="1.30033">
        <ele>228.4</ele>
        <time>2024-06-13T15:12:52Z</time>
      </trkpt>
      <trkpt lat="43.59223" lon="1.30043">
        <ele>228.4</ele>
        <time>2024-06-13T15:12:53Z</time>
      </trkpt>
      <trkpt lat="43.59222" lon="1.30053">
        <ele>228.4</ele>
        <time>2024-06-13T15:12:54Z</time>
      </trkpt>
      <trkpt lat="43.59222" lon="1.30063">
        <ele>228.4</ele>
        <time>2024-06-13T15:12:55Z</time>
      </trkpt>
      <trkpt lat="43.59221" lon="1.30073">
        <ele>228.4</ele>
        <time>2024-06-13T15:12:56Z</time>
      </trkpt>
      <trkpt lat="43.59221" lon="1.30083">
        <ele>228.4</ele>
        <time>2024-06-13T15:12:57Z</time>
      </trkpt>
      <trkpt lat="43.59221" lon="1.30093">
        <ele>228.2</ele>
        <time>2024-06-13T15:12:58Z</time>
      </trkpt>
      <trkpt lat="43.59221" lon="1.30103">
        <ele>228.2</ele>
        <time>2024-06-13T15:12:59Z</time>
      </trkpt>
      <trkpt lat="43.59221" lon="1.30114">
        <ele>228.4</ele>
        <time>2024-06-13T15:13:00Z</time>
      </trkpt>
      <trkpt lat="43.59221" lon="1.30122">
        <ele>228.4</ele>
        <time>2024-06-13T15:13:01Z</time>
      </trkpt>
      <trkpt lat="43.59222" lon="1.30131">
        <ele>228.6</ele>
        <time>2024-06-13T15:13:02Z</time>
      </trkpt>
      <trkpt lat="43.59222" lon="1.30143">
        <ele>228.6</ele>
        <time>2024-06-13T15:13:03Z</time>
      </trkpt>
      <trkpt lat="43.59223" lon="1.30153">
        <ele>228.6</ele>
        <time>2024-06-13T15:13:04Z</time>
      </trkpt>
      <trkpt lat="43.59223" lon="1.30161">
        <ele>228.6</ele>
        <time>2024-06-13T15:13:05Z</time>
      </trkpt>
      <trkpt lat="43.59224" lon="1.3017">
        <ele>228.6</ele>
        <time>2024-06-13T15:13:06Z</time>
      </trkpt>
      <trkpt lat="43.59224" lon="1.3018">
        <ele>228.6</ele>
        <time>2024-06-13T15:13:07Z</time>
      </trkpt>
      <trkpt lat="43.59224" lon="1.30192">
        <ele>228.6</ele>
        <time>2024-06-13T15:13:08Z</time>
      </trkpt>
      <trkpt lat="43.59224" lon="1.30202">
        <ele>228.6</ele>
        <time>2024-06-13T15:13:09Z</time>
      </trkpt>
      <trkpt lat="43.59224" lon="1.3021">
        <ele>228.6</ele>
        <time>2024-06-13T15:13:10Z</time>
      </trkpt>
      <trkpt lat="43.59223" lon="1.30221">
        <ele>228.6</ele>
        <time>2024-06-13T15:13:11Z</time>
      </trkpt>
      <trkpt lat="43.59222" lon="1.30231">
        <ele>228.6</ele>
        <time>2024-06-13T15:13:12Z</time>
      </trkpt>
      <trkpt lat="43.59221" lon="1.30242">
        <ele>228.6</ele>
        <time>2024-06-13T15:13:13Z</time>
      </trkpt>
      <trkpt lat="43.59219" lon="1.30252">
        <ele>228.6</ele>
        <time>2024-06-13T15:13:14Z</time>
      </trkpt>
      <trkpt lat="43.59217" lon="1.30261">
        <ele>228.6</ele>
        <time>2024-06-13T15:13:15Z</time>
      </trkpt>
      <trkpt lat="43.59214" lon="1.30273">
        <ele>228.4</ele>
        <time>2024-06-13T15:13:16Z</time>
      </trkpt>
      <trkpt lat="43.59211" lon="1.3028">
        <ele>228.4</ele>
        <time>2024-06-13T15:13:17Z</time>
      </trkpt>
      <trkpt lat="43.59206" lon="1.3029">
        <ele>228.4</ele>
        <time>2024-06-13T15:13:18Z</time>
      </trkpt>
      <trkpt lat="43.59202" lon="1.30295">
        <ele>228.4</ele>
        <time>2024-06-13T15:13:19Z</time>
      </trkpt>
      <trkpt lat="43.59196" lon="1.30302">
        <ele>228.2</ele>
        <time>2024-06-13T15:13:20Z</time>
      </trkpt>
      <trkpt lat="43.59189" lon="1.30309">
        <ele>228.2</ele>
        <time>2024-06-13T15:13:21Z</time>
      </trkpt>
      <trkpt lat="43.59184" lon="1.30312">
        <ele>228.2</ele>
        <time>2024-06-13T15:13:22Z</time>
      </trkpt>
      <trkpt lat="43.59177" lon="1.30317">
        <ele>228.2</ele>
        <time>2024-06-13T15:13:23Z</time>
      </trkpt>
      <trkpt lat="43.59171" lon="1.30322">
        <ele>228.2</ele>
        <time>2024-06-13T15:13:24Z</time>
      </trkpt>
      <trkpt lat="43.59164" lon="1.30328">
        <ele>228</ele>
        <time>2024-06-13T15:13:25Z</time>
      </trkpt>
      <trkpt lat="43.59159" lon="1.30332">
        <ele>228</ele>
        <time>2024-06-13T15:13:26Z</time>
      </trkpt>
      <trkpt lat="43.59152" lon="1.30338">
        <ele>228</ele>
        <time>2024-06-13T15:13:27Z</time>
      </trkpt>
      <trkpt lat="43.59147" lon="1.30342">
        <ele>228</ele>
        <time>2024-06-13T15:13:28Z</time>
      </trkpt>
      <trkpt lat="43.59141" lon="1.30347">
        <ele>228</ele>
        <time>2024-06-13T15:13:29Z</time>
      </trkpt>
      <trkpt lat="43.59134" lon="1.30353">
        <ele>228</ele>
        <time>2024-06-13T15:13:30Z</time>
      </trkpt>
      <trkpt lat="43.59129" lon="1.30357">
        <ele>228</ele>
        <time>2024-06-13T15:13:31Z</time>
      </trkpt>
      <trkpt lat="43.59123" lon="1.30362">
        <ele>228</ele>
        <time>2024-06-13T15:13:32Z</time>
      </trkpt>
      <trkpt lat="43.59117" lon="1.30367">
        <ele>228</ele>
        <time>2024-06-13T15:13:33Z</time>
      </trkpt>
      <trkpt lat="43.59111" lon="1.30372">
        <ele>228</ele>
        <time>2024-06-13T15:13:34Z</time>
      </trkpt>
      <trkpt lat="43.59105" lon="1.30377">
        <ele>228.2</ele>
        <time>2024-06-13T15:13:35Z</time>
      </trkpt>
      <trkpt lat="43.59099" lon="1.30382">
        <ele>228.2</ele>
        <time>2024-06-13T15:13:36Z</time>
      </trkpt>
      <trkpt lat="43.59092" lon="1.30388">
        <ele>228.2</ele>
        <time>2024-06-13T15:13:37Z</time>
      </trkpt>
      <trkpt lat="43.59086" lon="1.30392">
        <ele>228.2</ele>
        <time>2024-06-13T15:13:38Z</time>
      </trkpt>
      <trkpt lat="43.5908" lon="1.30396">
        <ele>228.2</ele>
        <time>2024-06-13T15:13:39Z</time>
      </trkpt>
      <trkpt lat="43.59074" lon="1.30401">
        <ele>228.4</ele>
        <time>2024-06-13T15:13:40Z</time>
      </trkpt>
      <trkpt lat="43.59069" lon="1.30407">
        <ele>228.4</ele>
        <time>2024-06-13T15:13:41Z</time>
      </trkpt>
      <trkpt lat="43.59064" lon="1.30414">
        <ele>228.6</ele>
        <time>2024-06-13T15:13:42Z</time>
      </trkpt>
      <trkpt lat="43.59059" lon="1.30421">
        <ele>228.6</ele>
        <time>2024-06-13T15:13:43Z</time>
      </trkpt>
      <trkpt lat="43.59055" lon="1.30429">
        <ele>228.6</ele>
        <time>2024-06-13T15:13:44Z</time>
      </trkpt>
      <trkpt lat="43.59051" lon="1.30439">
        <ele>228.6</ele>
        <time>2024-06-13T15:13:45Z</time>
      </trkpt>
      <trkpt lat="43.59049" lon="1.30449">
        <ele>228.6</ele>
        <time>2024-06-13T15:13:46Z</time>
      </trkpt>
      <trkpt lat="43.59047" lon="1.30456">
        <ele>228.6</ele>
        <time>2024-06-13T15:13:47Z</time>
      </trkpt>
      <trkpt lat="43.59046" lon="1.30466">
        <ele>228.6</ele>
        <time>2024-06-13T15:13:48Z</time>
      </trkpt>
      <trkpt lat="43.59046" lon="1.30479">
        <ele>228.6</ele>
        <time>2024-06-13T15:13:49Z</time>
      </trkpt>
      <trkpt lat="43.59045" lon="1.30487">
        <ele>228.6</ele>
        <time>2024-06-13T15:13:50Z</time>
      </trkpt>
      <trkpt lat="43.59044" lon="1.30497">
        <ele>228.6</ele>
        <time>2024-06-13T15:13:51Z</time>
      </trkpt>
      <trkpt lat="43.59044" lon="1.30508">
        <ele>228.6</ele>
        <time>2024-06-13T15:13:52Z</time>
      </trkpt>
      <trkpt lat="43.59043" lon="1.30518">
        <ele>228.6</ele>
        <time>2024-06-13T15:13:53Z</time>
      </trkpt>
      <trkpt lat="43.59043" lon="1.30528">
        <ele>228.6</ele>
        <time>2024-06-13T15:13:54Z</time>
      </trkpt>
      <trkpt lat="43.59043" lon="1.30538">
        <ele>228.6</ele>
        <time>2024-06-13T15:13:55Z</time>
      </trkpt>
      <trkpt lat="43.59043" lon="1.30548">
        <ele>228.8</ele>
        <time>2024-06-13T15:13:56Z</time>
      </trkpt>
      <trkpt lat="43.59043" lon="1.30558">
        <ele>228.8</ele>
        <time>2024-06-13T15:13:57Z</time>
      </trkpt>
      <trkpt lat="43.59044" lon="1.30569">
        <ele>228.8</ele>
        <time>2024-06-13T15:13:58Z</time>
      </trkpt>
      <trkpt lat="43.59045" lon="1.30577">
        <ele>228.8</ele>
        <time>2024-06-13T15:13:59Z</time>
      </trkpt>
      <trkpt lat="43.59047" lon="1.30587">
        <ele>229</ele>
        <time>2024-06-13T15:14:00Z</time>
      </trkpt>
      <trkpt lat="43.59048" lon="1.30597">
        <ele>229</ele>
        <time>2024-06-13T15:14:01Z</time>
      </trkpt>
      <trkpt lat="43.5905" lon="1.30609">
        <ele>229</ele>
        <time>2024-06-13T15:14:02Z</time>
      </trkpt>
      <trkpt lat="43.59051" lon="1.30617">
        <ele>229</ele>
        <time>2024-06-13T15:14:03Z</time>
      </trkpt>
      <trkpt lat="43.59053" lon="1.3063">
        <ele>229</ele>
        <time>2024-06-13T15:14:04Z</time>
      </trkpt>
      <trkpt lat="43.59054" lon="1.30638">
        <ele>229</ele>
        <time>2024-06-13T15:14:05Z</time>
      </trkpt>
      <trkpt lat="43.59055" lon="1.30648">
        <ele>229</ele>
        <time>2024-06-13T15:14:06Z</time>
      </trkpt>
      <trkpt lat="43.59057" lon="1.30658">
        <ele>229</ele>
        <time>2024-06-13T15:14:07Z</time>
      </trkpt>
      <trkpt lat="43.59059" lon="1.3067">
        <ele>229</ele>
        <time>2024-06-13T15:14:08Z</time>
      </trkpt>
      <trkpt lat="43.5906" lon="1.3068">
        <ele>229</ele>
        <time>2024-06-13T15:14:09Z</time>
      </trkpt>
      <trkpt lat="43.59061" lon="1.30688">
        <ele>229.2</ele>
        <time>2024-06-13T15:14:10Z</time>
      </trkpt>
      <trkpt lat="43.59063" lon="1.30701">
        <ele>229.2</ele>
        <time>2024-06-13T15:14:11Z</time>
      </trkpt>
      <trkpt lat="43.59064" lon="1.30709">
        <ele>229</ele>
        <time>2024-06-13T15:14:12Z</time>
      </trkpt>
      <trkpt lat="43.59066" lon="1.30719">
        <ele>229</ele>
        <time>2024-06-13T15:14:13Z</time>
      </trkpt>
      <trkpt lat="43.59067" lon="1.30729">
        <ele>229</ele>
        <time>2024-06-13T15:14:14Z</time>
      </trkpt>
      <trkpt lat="43.59069" lon="1.30739">
        <ele>229</ele>
        <time>2024-06-13T15:14:15Z</time>
      </trkpt>
      <trkpt lat="43.59071" lon="1.30749">
        <ele>229</ele>
        <time>2024-06-13T15:14:16Z</time>
      </trkpt>
      <trkpt lat="43.59073" lon="1.30759">
        <ele>229</ele>
        <time>2024-06-13T15:14:17Z</time>
      </trkpt>
      <trkpt lat="43.59075" lon="1.30769">
        <ele>229</ele>
        <time>2024-06-13T15:14:18Z</time>
      </trkpt>
      <trkpt lat="43.59078" lon="1.30778">
        <ele>229</ele>
        <time>2024-06-13T15:14:19Z</time>
      </trkpt>
      <trkpt lat="43.5908" lon="1.30788">
        <ele>229</ele>
        <time>2024-06-13T15:14:20Z</time>
      </trkpt>
      <trkpt lat="43.59083" lon="1.308">
        <ele>228.8</ele>
        <time>2024-06-13T15:14:21Z</time>
      </trkpt>
      <trkpt lat="43.59086" lon="1.3081">
        <ele>228.8</ele>
        <time>2024-06-13T15:14:22Z</time>
      </trkpt>
      <trkpt lat="43.59087" lon="1.30818">
        <ele>228.8</ele>
        <time>2024-06-13T15:14:23Z</time>
      </trkpt>
      <trkpt lat="43.5909" lon="1.30827">
        <ele>228.8</ele>
        <time>2024-06-13T15:14:24Z</time>
      </trkpt>
      <trkpt lat="43.59093" lon="1.30837">
        <ele>228.8</ele>
        <time>2024-06-13T15:14:25Z</time>
      </trkpt>
      <trkpt lat="43.59096" lon="1.30846">
        <ele>228.6</ele>
        <time>2024-06-13T15:14:26Z</time>
      </trkpt>
      <trkpt lat="43.59101" lon="1.30856">
        <ele>228.4</ele>
        <time>2024-06-13T15:14:27Z</time>
      </trkpt>
      <trkpt lat="43.59105" lon="1.30862">
        <ele>228.4</ele>
        <time>2024-06-13T15:14:28Z</time>
      </trkpt>
      <trkpt lat="43.5911" lon="1.30869">
        <ele>228.2</ele>
        <time>2024-06-13T15:14:29Z</time>
      </trkpt>
      <trkpt lat="43.59116" lon="1.30875">
        <ele>228.2</ele>
        <time>2024-06-13T15:14:30Z</time>
      </trkpt>
      <trkpt lat="43.59121" lon="1.30881">
        <ele>228</ele>
        <time>2024-06-13T15:14:31Z</time>
      </trkpt>
      <trkpt lat="43.59127" lon="1.30887">
        <ele>228</ele>
        <time>2024-06-13T15:14:32Z</time>
      </trkpt>
      <trkpt lat="43.59133" lon="1.30892">
        <ele>228</ele>
        <time>2024-06-13T15:14:33Z</time>
      </trkpt>
      <trkpt lat="43.5914" lon="1.30899">
        <ele>227.8</ele>
        <time>2024-06-13T15:14:34Z</time>
      </trkpt>
      <trkpt lat="43.59146" lon="1.30905">
        <ele>227.8</ele>
        <time>2024-06-13T15:14:35Z</time>
      </trkpt>
      <trkpt lat="43.59151" lon="1.30909">
        <ele>227.8</ele>
        <time>2024-06-13T15:14:36Z</time>
      </trkpt>
      <trkpt lat="43.59157" lon="1.30915">
        <ele>227.8</ele>
        <time>2024-06-13T15:14:37Z</time>
      </trkpt>
      <trkpt lat="43.59162" lon="1.3092">
        <ele>227.8</ele>
        <time>2024-06-13T15:14:38Z</time>
      </trkpt>
      <trkpt lat="43.59168" lon="1.30926">
        <ele>227.6</ele>
        <time>2024-06-13T15:14:39Z</time>
      </trkpt>
      <trkpt lat="43.59173" lon="1.30933">
        <ele>227.6</ele>
        <time>2024-06-13T15:14:40Z</time>
      </trkpt>
      <trkpt lat="43.59176" lon="1.30941">
        <ele>227.6</ele>
        <time>2024-06-13T15:14:41Z</time>
      </trkpt>
      <trkpt lat="43.59177" lon="1.30948">
        <ele>227.8</ele>
        <time>2024-06-13T15:14:42Z</time>
      </trkpt>
      <trkpt lat="43.59177" lon="1.30957">
        <ele>227.8</ele>
        <time>2024-06-13T15:14:43Z</time>
      </trkpt>
      <trkpt lat="43.59177" lon="1.30968">
        <ele>227.8</ele>
        <time>2024-06-13T15:14:44Z</time>
      </trkpt>
      <trkpt lat="43.59174" lon="1.30976">
        <ele>228</ele>
        <time>2024-06-13T15:14:45Z</time>
      </trkpt>
      <trkpt lat="43.59171" lon="1.30983">
        <ele>228.2</ele>
        <time>2024-06-13T15:14:46Z</time>
      </trkpt>
      <trkpt lat="43.59167" lon="1.30991">
        <ele>228</ele>
        <time>2024-06-13T15:14:47Z</time>
      </trkpt>
      <trkpt lat="43.59163" lon="1.30998">
        <ele>228</ele>
        <time>2024-06-13T15:14:48Z</time>
      </trkpt>
      <trkpt lat="43.59158" lon="1.31008">
        <ele>228</ele>
        <time>2024-06-13T15:14:49Z</time>
      </trkpt>
      <trkpt lat="43.59154" lon="1.31016">
        <ele>228.2</ele>
        <time>2024-06-13T15:14:50Z</time>
      </trkpt>
      <trkpt lat="43.59151" lon="1.31023">
        <ele>228.2</ele>
        <time>2024-06-13T15:14:51Z</time>
      </trkpt>
      <trkpt lat="43.59148" lon="1.31031">
        <ele>228.2</ele>
        <time>2024-06-13T15:14:52Z</time>
      </trkpt>
      <trkpt lat="43.59144" lon="1.31042">
        <ele>227.8</ele>
        <time>2024-06-13T15:14:53Z</time>
      </trkpt>
      <trkpt lat="43.59141" lon="1.31051">
        <ele>227.8</ele>
        <time>2024-06-13T15:14:54Z</time>
      </trkpt>
      <trkpt lat="43.59138" lon="1.31058">
        <ele>228</ele>
        <time>2024-06-13T15:14:55Z</time>
      </trkpt>
      <trkpt lat="43.59134" lon="1.31067">
        <ele>228</ele>
        <time>2024-06-13T15:14:56Z</time>
      </trkpt>
      <trkpt lat="43.59129" lon="1.31077">
        <ele>227.6</ele>
        <time>2024-06-13T15:14:57Z</time>
      </trkpt>
      <trkpt lat="43.59126" lon="1.31083">
        <ele>227.6</ele>
        <time>2024-06-13T15:14:58Z</time>
      </trkpt>
      <trkpt lat="43.59121" lon="1.31092">
        <ele>227.8</ele>
        <time>2024-06-13T15:14:59Z</time>
      </trkpt>
      <trkpt lat="43.59117" lon="1.311">
        <ele>227.8</ele>
        <time>2024-06-13T15:15:00Z</time>
      </trkpt>
      <trkpt lat="43.59113" lon="1.31108">
        <ele>227.8</ele>
        <time>2024-06-13T15:15:01Z</time>
      </trkpt>
      <trkpt lat="43.59109" lon="1.31117">
        <ele>227.6</ele>
        <time>2024-06-13T15:15:02Z</time>
      </trkpt>
      <trkpt lat="43.59104" lon="1.31126">
        <ele>227.6</ele>
        <time>2024-06-13T15:15:03Z</time>
      </trkpt>
      <trkpt lat="43.591" lon="1.31131">
        <ele>227.6</ele>
        <time>2024-06-13T15:15:04Z</time>
      </trkpt>
      <trkpt lat="43.59094" lon="1.31135">
        <ele>227.6</ele>
        <time>2024-06-13T15:15:05Z</time>
      </trkpt>
      <trkpt lat="43.59087" lon="1.31138">
        <ele>227.6</ele>
        <time>2024-06-13T15:15:06Z</time>
      </trkpt>
      <trkpt lat="43.59082" lon="1.31139">
        <ele>227.6</ele>
        <time>2024-06-13T15:15:07Z</time>
      </trkpt>
      <trkpt lat="43.59074" lon="1.31138">
        <ele>227.6</ele>
        <time>2024-06-13T15:15:08Z</time>
      </trkpt>
      <trkpt lat="43.59069" lon="1.31136">
        <ele>227.6</ele>
        <time>2024-06-13T15:15:09Z</time>
      </trkpt>
      <trkpt lat="43.59063" lon="1.31131">
        <ele>227.6</ele>
        <time>2024-06-13T15:15:10Z</time>
      </trkpt>
      <trkpt lat="43.59056" lon="1.31124">
        <ele>227.6</ele>
        <time>2024-06-13T15:15:11Z</time>
      </trkpt>
      <trkpt lat="43.59052" lon="1.3112">
        <ele>227.6</ele>
        <time>2024-06-13T15:15:12Z</time>
      </trkpt>
      <trkpt lat="43.59046" lon="1.31114">
        <ele>227.6</ele>
        <time>2024-06-13T15:15:13Z</time>
      </trkpt>
      <trkpt lat="43.59041" lon="1.31109">
        <ele>227.6</ele>
        <time>2024-06-13T15:15:14Z</time>
      </trkpt>
      <trkpt lat="43.59035" lon="1.31103">
        <ele>227.6</ele>
        <time>2024-06-13T15:15:15Z</time>
      </trkpt>
      <trkpt lat="43.5903" lon="1.31099">
        <ele>227.8</ele>
        <time>2024-06-13T15:15:16Z</time>
      </trkpt>
      <trkpt lat="43.59023" lon="1.31092">
        <ele>227.8</ele>
        <time>2024-06-13T15:15:17Z</time>
      </trkpt>
      <trkpt lat="43.59019" lon="1.31088">
        <ele>227.8</ele>
        <time>2024-06-13T15:15:18Z</time>
      </trkpt>
      <trkpt lat="43.59013" lon="1.31084">
        <ele>227.8</ele>
        <time>2024-06-13T15:15:19Z</time>
      </trkpt>
      <trkpt lat="43.59006" lon="1.31082">
        <ele>227.8</ele>
        <time>2024-06-13T15:15:20Z</time>
      </trkpt>
      <trkpt lat="43.59" lon="1.31081">
        <ele>227.8</ele>
        <time>2024-06-13T15:15:21Z</time>
      </trkpt>
      <trkpt lat="43.58994" lon="1.31083">
        <ele>227.8</ele>
        <time>2024-06-13T15:15:22Z</time>
      </trkpt>
      <trkpt lat="43.58988" lon="1.31087">
        <ele>227.8</ele>
        <time>2024-06-13T15:15:23Z</time>
      </trkpt>
      <trkpt lat="43.58983" lon="1.31092">
        <ele>227.8</ele>
        <time>2024-06-13T15:15:24Z</time>
      </trkpt>
      <trkpt lat="43.58978" lon="1.31098">
        <ele>227.8</ele>
        <time>2024-06-13T15:15:25Z</time>
      </trkpt>
      <trkpt lat="43.58973" lon="1.31107">
        <ele>228</ele>
        <time>2024-06-13T15:15:26Z</time>
      </trkpt>
      <trkpt lat="43.5897" lon="1.31113">
        <ele>228</ele>
        <time>2024-06-13T15:15:27Z</time>
      </trkpt>
      <trkpt lat="43.58966" lon="1.31121">
        <ele>228</ele>
        <time>2024-06-13T15:15:28Z</time>
      </trkpt>
      <trkpt lat="43.58962" lon="1.31131">
        <ele>228</ele>
        <time>2024-06-13T15:15:29Z</time>
      </trkpt>
      <trkpt lat="43.58958" lon="1.31139">
        <ele>228</ele>
        <time>2024-06-13T15:15:30Z</time>
      </trkpt>
      <trkpt lat="43.58955" lon="1.31145">
        <ele>228</ele>
        <time>2024-06-13T15:15:31Z</time>
      </trkpt>
      <trkpt lat="43.58951" lon="1.31153">
        <ele>228</ele>
        <time>2024-06-13T15:15:32Z</time>
      </trkpt>
      <trkpt lat="43.58947" lon="1.31161">
        <ele>228</ele>
        <time>2024-06-13T15:15:33Z</time>
      </trkpt>
      <trkpt lat="43.58943" lon="1.31169">
        <ele>228</ele>
        <time>2024-06-13T15:15:34Z</time>
      </trkpt>
      <trkpt lat="43.58939" lon="1.31179">
        <ele>228</ele>
        <time>2024-06-13T15:15:35Z</time>
      </trkpt>
      <trkpt lat="43.58936" lon="1.31185">
        <ele>228</ele>
        <time>2024-06-13T15:15:36Z</time>
      </trkpt>
      <trkpt lat="43.58932" lon="1.31193">
        <ele>227.8</ele>
        <time>2024-06-13T15:15:37Z</time>
      </trkpt>
      <trkpt lat="43.58927" lon="1.31203">
        <ele>227.8</ele>
        <time>2024-06-13T15:15:38Z</time>
      </trkpt>
      <trkpt lat="43.58923" lon="1.31211">
        <ele>227.8</ele>
        <time>2024-06-13T15:15:39Z</time>
      </trkpt>
      <trkpt lat="43.5892" lon="1.31217">
        <ele>227.8</ele>
        <time>2024-06-13T15:15:40Z</time>
      </trkpt>
      <trkpt lat="43.58916" lon="1.31226">
        <ele>227.8</ele>
        <time>2024-06-13T15:15:41Z</time>
      </trkpt>
      <trkpt lat="43.58912" lon="1.31234">
        <ele>227.8</ele>
        <time>2024-06-13T15:15:42Z</time>
      </trkpt>
      <trkpt lat="43.58908" lon="1.31242">
        <ele>227.8</ele>
        <time>2024-06-13T15:15:43Z</time>
      </trkpt>
      <trkpt lat="43.58903" lon="1.31252">
        <ele>227.8</ele>
        <time>2024-06-13T15:15:44Z</time>
      </trkpt>
      <trkpt lat="43.58899" lon="1.31261">
        <ele>227.8</ele>
        <time>2024-06-13T15:15:45Z</time>
      </trkpt>
      <trkpt lat="43.58896" lon="1.31267">
        <ele>227.8</ele>
        <time>2024-06-13T15:15:46Z</time>
      </trkpt>
      <trkpt lat="43.58891" lon="1.31277">
        <ele>227.6</ele>
        <time>2024-06-13T15:15:47Z</time>
      </trkpt>
      <trkpt lat="43.58887" lon="1.31284">
        <ele>227.6</ele>
        <time>2024-06-13T15:15:48Z</time>
      </trkpt>
      <trkpt lat="43.58883" lon="1.31293">
        <ele>227.6</ele>
        <time>2024-06-13T15:15:49Z</time>
      </trkpt>
      <trkpt lat="43.58879" lon="1.31301">
        <ele>227.6</ele>
        <time>2024-06-13T15:15:50Z</time>
      </trkpt>
      <trkpt lat="43.58875" lon="1.31309">
        <ele>227.6</ele>
        <time>2024-06-13T15:15:51Z</time>
      </trkpt>
      <trkpt lat="43.58871" lon="1.31318">
        <ele>227.6</ele>
        <time>2024-06-13T15:15:52Z</time>
      </trkpt>
      <trkpt lat="43.58866" lon="1.31328">
        <ele>227.6</ele>
        <time>2024-06-13T15:15:53Z</time>
      </trkpt>
      <trkpt lat="43.58862" lon="1.31336">
        <ele>227.4</ele>
        <time>2024-06-13T15:15:54Z</time>
      </trkpt>
      <trkpt lat="43.58858" lon="1.31343">
        <ele>227.4</ele>
        <time>2024-06-13T15:15:55Z</time>
      </trkpt>
      <trkpt lat="43.58855" lon="1.31352">
        <ele>227.4</ele>
        <time>2024-06-13T15:15:56Z</time>
      </trkpt>
      <trkpt lat="43.58853" lon="1.31363">
        <ele>227.4</ele>
        <time>2024-06-13T15:15:57Z</time>
      </trkpt>
      <trkpt lat="43.58853" lon="1.3137">
        <ele>227.4</ele>
        <time>2024-06-13T15:15:58Z</time>
      </trkpt>
      <trkpt lat="43.58855" lon="1.31379">
        <ele>227.6</ele>
        <time>2024-06-13T15:15:59Z</time>
      </trkpt>
      <trkpt lat="43.58858" lon="1.31388">
        <ele>227.6</ele>
        <time>2024-06-13T15:16:00Z</time>
      </trkpt>
      <trkpt lat="43.58862" lon="1.31395">
        <ele>227.6</ele>
        <time>2024-06-13T15:16:01Z</time>
      </trkpt>
      <trkpt lat="43.58868" lon="1.31403">
        <ele>227.6</ele>
        <time>2024-06-13T15:16:02Z</time>
      </trkpt>
      <trkpt lat="43.58872" lon="1.31407">
        <ele>227.4</ele>
        <time>2024-06-13T15:16:03Z</time>
      </trkpt>
      <trkpt lat="43.58878" lon="1.31413">
        <ele>227.4</ele>
        <time>2024-06-13T15:16:04Z</time>
      </trkpt>
      <trkpt lat="43.58885" lon="1.31419">
        <ele>227.4</ele>
        <time>2024-06-13T15:16:05Z</time>
      </trkpt>
      <trkpt lat="43.5889" lon="1.31425">
        <ele>227.2</ele>
        <time>2024-06-13T15:16:06Z</time>
      </trkpt>
      <trkpt lat="43.58893" lon="1.31432">
        <ele>227.2</ele>
        <time>2024-06-13T15:16:07Z</time>
      </trkpt>
      <trkpt lat="43.58894" lon="1.31439">
        <ele>227.2</ele>
        <time>2024-06-13T15:16:08Z</time>
      </trkpt>
      <trkpt lat="43.58893" lon="1.31446">
        <ele>227.2</ele>
        <time>2024-06-13T15:16:09Z</time>
      </trkpt>
      <trkpt lat="43.5889" lon="1.31454">
        <ele>227</ele>
        <time>2024-06-13T15:16:10Z</time>
      </trkpt>
      <trkpt lat="43.58885" lon="1.31461">
        <ele>227</ele>
        <time>2024-06-13T15:16:11Z</time>
      </trkpt>
      <trkpt lat="43.5888" lon="1.31469">
        <ele>227</ele>
        <time>2024-06-13T15:16:12Z</time>
      </trkpt>
      <trkpt lat="43.58877" lon="1.31475">
        <ele>227</ele>
        <time>2024-06-13T15:16:13Z</time>
      </trkpt>
      <trkpt lat="43.58872" lon="1.31483">
        <ele>227</ele>
        <time>2024-06-13T15:16:14Z</time>
      </trkpt>
      <trkpt lat="43.58867" lon="1.31492">
        <ele>226.8</ele>
        <time>2024-06-13T15:16:15Z</time>
      </trkpt>
      <trkpt lat="43.58864" lon="1.31498">
        <ele>226.8</ele>
        <time>2024-06-13T15:16:16Z</time>
      </trkpt>
      <trkpt lat="43.5886" lon="1.31506">
        <ele>226.8</ele>
        <time>2024-06-13T15:16:17Z</time>
      </trkpt>
      <trkpt lat="43.58856" lon="1.31513">
        <ele>226.8</ele>
        <time>2024-06-13T15:16:18Z</time>
      </trkpt>
      <trkpt lat="43.58852" lon="1.31521">
        <ele>226.8</ele>
        <time>2024-06-13T15:16:19Z</time>
      </trkpt>
      <trkpt lat="43.58847" lon="1.3153">
        <ele>226.8</ele>
        <time>2024-06-13T15:16:20Z</time>
      </trkpt>
      <trkpt lat="43.58843" lon="1.31536">
        <ele>226.8</ele>
        <time>2024-06-13T15:16:21Z</time>
      </trkpt>
      <trkpt lat="43.58839" lon="1.31544">
        <ele>226.8</ele>
        <time>2024-06-13T15:16:22Z</time>
      </trkpt>
      <trkpt lat="43.58835" lon="1.31552">
        <ele>226.8</ele>
        <time>2024-06-13T15:16:23Z</time>
      </trkpt>
      <trkpt lat="43.58831" lon="1.3156">
        <ele>226.8</ele>
        <time>2024-06-13T15:16:24Z</time>
      </trkpt>
      <trkpt lat="43.58826" lon="1.31569">
        <ele>226.8</ele>
        <time>2024-06-13T15:16:25Z</time>
      </trkpt>
      <trkpt lat="43.58822" lon="1.31575">
        <ele>226.8</ele>
        <time>2024-06-13T15:16:26Z</time>
      </trkpt>
      <trkpt lat="43.58818" lon="1.31582">
        <ele>227</ele>
        <time>2024-06-13T15:16:27Z</time>
      </trkpt>
      <trkpt lat="43.58814" lon="1.31589">
        <ele>227</ele>
        <time>2024-06-13T15:16:28Z</time>
      </trkpt>
      <trkpt lat="43.5881" lon="1.31596">
        <ele>227</ele>
        <time>2024-06-13T15:16:29Z</time>
      </trkpt>
      <trkpt lat="43.58806" lon="1.31605">
        <ele>227.2</ele>
        <time>2024-06-13T15:16:30Z</time>
      </trkpt>
      <trkpt lat="43.58803" lon="1.3161">
        <ele>227.2</ele>
        <time>2024-06-13T15:16:31Z</time>
      </trkpt>
      <trkpt lat="43.58799" lon="1.31617">
        <ele>227.2</ele>
        <time>2024-06-13T15:16:32Z</time>
      </trkpt>
      <trkpt lat="43.58795" lon="1.31626">
        <ele>227.2</ele>
        <time>2024-06-13T15:16:33Z</time>
      </trkpt>
      <trkpt lat="43.58791" lon="1.31632">
        <ele>227.2</ele>
        <time>2024-06-13T15:16:34Z</time>
      </trkpt>
      <trkpt lat="43.58788" lon="1.31637">
        <ele>227.2</ele>
        <time>2024-06-13T15:16:35Z</time>
      </trkpt>
      <trkpt lat="43.58785" lon="1.31643">
        <ele>227</ele>
        <time>2024-06-13T15:16:36Z</time>
      </trkpt>
      <trkpt lat="43.58782" lon="1.31646">
        <ele>227.2</ele>
        <time>2024-06-13T15:16:37Z</time>
      </trkpt>
      <trkpt lat="43.58781" lon="1.31648">
        <ele>227.2</ele>
        <time>2024-06-13T15:16:38Z</time>
      </trkpt>
      <trkpt lat="43.5878" lon="1.31648">
        <ele>227.2</ele>
        <time>2024-06-13T15:16:39Z</time>
      </trkpt>
      <trkpt lat="43.58779" lon="1.31649">
        <ele>227.2</ele>
        <time>2024-06-13T15:16:40Z</time>
      </trkpt>
      <trkpt lat="43.58778" lon="1.3165">
        <ele>227.2</ele>
        <time>2024-06-13T15:16:41Z</time>
      </trkpt>
      <trkpt lat="43.58776" lon="1.31653">
        <ele>227.2</ele>
        <time>2024-06-13T15:16:42Z</time>
      </trkpt>
      <trkpt lat="43.58775" lon="1.31656">
        <ele>227.2</ele>
        <time>2024-06-13T15:16:43Z</time>
      </trkpt>
      <trkpt lat="43.58774" lon="1.3166">
        <ele>227.4</ele>
        <time>2024-06-13T15:16:44Z</time>
      </trkpt>
      <trkpt lat="43.58773" lon="1.31664">
        <ele>227.4</ele>
        <time>2024-06-13T15:16:45Z</time>
      </trkpt>
      <trkpt lat="43.5877" lon="1.31668">
        <ele>227.4</ele>
        <time>2024-06-13T15:16:46Z</time>
      </trkpt>
      <trkpt lat="43.58768" lon="1.31673">
        <ele>227.4</ele>
        <time>2024-06-13T15:16:47Z</time>
      </trkpt>
      <trkpt lat="43.58765" lon="1.3168">
        <ele>227.6</ele>
        <time>2024-06-13T15:16:48Z</time>
      </trkpt>
      <trkpt lat="43.58762" lon="1.31685">
        <ele>227.6</ele>
        <time>2024-06-13T15:16:49Z</time>
      </trkpt>
      <trkpt lat="43.58759" lon="1.3169">
        <ele>227.6</ele>
        <time>2024-06-13T15:16:50Z</time>
      </trkpt>
      <trkpt lat="43.58756" lon="1.31695">
        <ele>227.6</ele>
        <time>2024-06-13T15:16:51Z</time>
      </trkpt>
      <trkpt lat="43.58752" lon="1.31702">
        <ele>227.6</ele>
        <time>2024-06-13T15:16:52Z</time>
      </trkpt>
      <trkpt lat="43.58749" lon="1.31707">
        <ele>227.6</ele>
        <time>2024-06-13T15:16:53Z</time>
      </trkpt>
      <trkpt lat="43.58745" lon="1.31713">
        <ele>227.6</ele>
        <time>2024-06-13T15:16:54Z</time>
      </trkpt>
      <trkpt lat="43.58742" lon="1.31719">
        <ele>227.4</ele>
        <time>2024-06-13T15:16:55Z</time>
      </trkpt>
      <trkpt lat="43.58738" lon="1.31725">
        <ele>227.4</ele>
        <time>2024-06-13T15:16:56Z</time>
      </trkpt>
      <trkpt lat="43.58735" lon="1.31732">
        <ele>227.4</ele>
        <time>2024-06-13T15:16:57Z</time>
      </trkpt>
      <trkpt lat="43.58732" lon="1.31738">
        <ele>227.2</ele>
        <time>2024-06-13T15:16:58Z</time>
      </trkpt>
      <trkpt lat="43.58729" lon="1.31743">
        <ele>227.2</ele>
        <time>2024-06-13T15:16:59Z</time>
      </trkpt>
      <trkpt lat="43.58726" lon="1.31749">
        <ele>227.2</ele>
        <time>2024-06-13T15:17:00Z</time>
      </trkpt>
      <trkpt lat="43.58722" lon="1.31755">
        <ele>227.2</ele>
        <time>2024-06-13T15:17:01Z</time>
      </trkpt>
      <trkpt lat="43.58718" lon="1.31761">
        <ele>227.2</ele>
        <time>2024-06-13T15:17:02Z</time>
      </trkpt>
      <trkpt lat="43.58715" lon="1.31765">
        <ele>227.2</ele>
        <time>2024-06-13T15:17:03Z</time>
      </trkpt>
      <trkpt lat="43.58712" lon="1.31771">
        <ele>227.2</ele>
        <time>2024-06-13T15:17:04Z</time>
      </trkpt>
      <trkpt lat="43.58708" lon="1.31777">
        <ele>227.2</ele>
        <time>2024-06-13T15:17:05Z</time>
      </trkpt>
      <trkpt lat="43.58705" lon="1.31783">
        <ele>227.2</ele>
        <time>2024-06-13T15:17:06Z</time>
      </trkpt>
      <trkpt lat="43.58702" lon="1.3179">
        <ele>227.2</ele>
        <time>2024-06-13T15:17:07Z</time>
      </trkpt>
      <trkpt lat="43.58698" lon="1.31796">
        <ele>227.4</ele>
        <time>2024-06-13T15:17:08Z</time>
      </trkpt>
      <trkpt lat="43.58695" lon="1.31803">
        <ele>227.4</ele>
        <time>2024-06-13T15:17:09Z</time>
      </trkpt>
      <trkpt lat="43.58692" lon="1.3181">
        <ele>227.4</ele>
        <time>2024-06-13T15:17:10Z</time>
      </trkpt>
      <trkpt lat="43.5869" lon="1.31814">
        <ele>227.4</ele>
        <time>2024-06-13T15:17:11Z</time>
      </trkpt>
      <trkpt lat="43.58687" lon="1.3182">
        <ele>227.4</ele>
        <time>2024-06-13T15:17:12Z</time>
      </trkpt>
      <trkpt lat="43.58684" lon="1.31827">
        <ele>227.4</ele>
        <time>2024-06-13T15:17:13Z</time>
      </trkpt>
      <trkpt lat="43.5868" lon="1.31834">
        <ele>227.4</ele>
        <time>2024-06-13T15:17:14Z</time>
      </trkpt>
      <trkpt lat="43.58678" lon="1.31838">
        <ele>227.4</ele>
        <time>2024-06-13T15:17:15Z</time>
      </trkpt>
      <trkpt lat="43.58675" lon="1.31842">
        <ele>227.4</ele>
        <time>2024-06-13T15:17:16Z</time>
      </trkpt>
      <trkpt lat="43.58674" lon="1.31845">
        <ele>227.4</ele>
        <time>2024-06-13T15:17:17Z</time>
      </trkpt>
      <trkpt lat="43.58673" lon="1.31846">
        <ele>227.4</ele>
        <time>2024-06-13T15:17:18Z</time>
      </trkpt>
      <trkpt lat="43.58672" lon="1.31848">
        <ele>227.6</ele>
        <time>2024-06-13T15:17:19Z</time>
      </trkpt>
      <trkpt lat="43.58672" lon="1.31852">
        <ele>227.6</ele>
        <time>2024-06-13T15:17:20Z</time>
      </trkpt>
      <trkpt lat="43.58672" lon="1.31855">
        <ele>227.6</ele>
        <time>2024-06-13T15:17:21Z</time>
      </trkpt>
      <trkpt lat="43.58672" lon="1.31861">
        <ele>227.6</ele>
        <time>2024-06-13T15:17:22Z</time>
      </trkpt>
      <trkpt lat="43.58671" lon="1.31868">
        <ele>227.6</ele>
        <time>2024-06-13T15:17:23Z</time>
      </trkpt>
      <trkpt lat="43.58671" lon="1.31873">
        <ele>227.6</ele>
        <time>2024-06-13T15:17:24Z</time>
      </trkpt>
      <trkpt lat="43.58672" lon="1.31881">
        <ele>227.6</ele>
        <time>2024-06-13T15:17:25Z</time>
      </trkpt>
      <trkpt lat="43.58672" lon="1.31886">
        <ele>227.6</ele>
        <time>2024-06-13T15:17:26Z</time>
      </trkpt>
      <trkpt lat="43.58673" lon="1.31893">
        <ele>227.6</ele>
        <time>2024-06-13T15:17:27Z</time>
      </trkpt>
      <trkpt lat="43.58674" lon="1.31899">
        <ele>227.2</ele>
        <time>2024-06-13T15:17:28Z</time>
      </trkpt>
      <trkpt lat="43.58675" lon="1.31906">
        <ele>227.2</ele>
        <time>2024-06-13T15:17:29Z</time>
      </trkpt>
      <trkpt lat="43.58676" lon="1.31912">
        <ele>227.2</ele>
        <time>2024-06-13T15:17:30Z</time>
      </trkpt>
      <trkpt lat="43.58677" lon="1.31918">
        <ele>227.2</ele>
        <time>2024-06-13T15:17:31Z</time>
      </trkpt>
      <trkpt lat="43.58678" lon="1.31924">
        <ele>227</ele>
        <time>2024-06-13T15:17:32Z</time>
      </trkpt>
      <trkpt lat="43.58679" lon="1.31929">
        <ele>227</ele>
        <time>2024-06-13T15:17:33Z</time>
      </trkpt>
      <trkpt lat="43.58679" lon="1.31934">
        <ele>227</ele>
        <time>2024-06-13T15:17:34Z</time>
      </trkpt>
      <trkpt lat="43.58679" lon="1.31935">
        <ele>226.8</ele>
        <time>2024-06-13T15:17:35Z</time>
      </trkpt>
      <trkpt lat="43.58679" lon="1.31935">
        <ele>226.8</ele>
        <time>2024-06-13T15:17:36Z</time>
      </trkpt>
      <trkpt lat="43.58678" lon="1.31935">
        <ele>226.8</ele>
        <time>2024-06-13T15:17:37Z</time>
      </trkpt>
      <trkpt lat="43.58675" lon="1.31939">
        <ele>226.6</ele>
        <time>2024-06-13T15:17:39Z</time>
      </trkpt>
      <trkpt lat="43.58673" lon="1.31942">
        <ele>226.6</ele>
        <time>2024-06-13T15:17:40Z</time>
      </trkpt>
      <trkpt lat="43.5867" lon="1.31945">
        <ele>226.6</ele>
        <time>2024-06-13T15:17:41Z</time>
      </trkpt>
      <trkpt lat="43.58668" lon="1.31948">
        <ele>226.6</ele>
        <time>2024-06-13T15:17:42Z</time>
      </trkpt>
      <trkpt lat="43.58666" lon="1.31954">
        <ele>226.4</ele>
        <time>2024-06-13T15:17:43Z</time>
      </trkpt>
      <trkpt lat="43.58666" lon="1.31959">
        <ele>226.4</ele>
        <time>2024-06-13T15:17:44Z</time>
      </trkpt>
      <trkpt lat="43.58668" lon="1.31963">
        <ele>226.4</ele>
        <time>2024-06-13T15:17:45Z</time>
      </trkpt>
      <trkpt lat="43.5867" lon="1.31968">
        <ele>226.4</ele>
        <time>2024-06-13T15:17:46Z</time>
      </trkpt>
      <trkpt lat="43.58671" lon="1.31972">
        <ele>226.4</ele>
        <time>2024-06-13T15:17:47Z</time>
      </trkpt>
      <trkpt lat="43.58673" lon="1.31976">
        <ele>226.2</ele>
        <time>2024-06-13T15:17:48Z</time>
      </trkpt>
      <trkpt lat="43.58677" lon="1.3198">
        <ele>226.2</ele>
        <time>2024-06-13T15:17:49Z</time>
      </trkpt>
      <trkpt lat="43.5868" lon="1.31985">
        <ele>226.2</ele>
        <time>2024-06-13T15:17:50Z</time>
      </trkpt>
      <trkpt lat="43.58682" lon="1.31991">
        <ele>226.2</ele>
        <time>2024-06-13T15:17:51Z</time>
      </trkpt>
      <trkpt lat="43.58683" lon="1.32001">
        <ele>226.2</ele>
        <time>2024-06-13T15:17:52Z</time>
      </trkpt>
      <trkpt lat="43.58684" lon="1.32009">
        <ele>226.2</ele>
        <time>2024-06-13T15:17:53Z</time>
      </trkpt>
      <trkpt lat="43.58684" lon="1.32016">
        <ele>226.2</ele>
        <time>2024-06-13T15:17:54Z</time>
      </trkpt>
      <trkpt lat="43.58685" lon="1.32024">
        <ele>226.2</ele>
        <time>2024-06-13T15:17:55Z</time>
      </trkpt>
      <trkpt lat="43.58685" lon="1.32034">
        <ele>226.2</ele>
        <time>2024-06-13T15:17:56Z</time>
      </trkpt>
      <trkpt lat="43.58685" lon="1.32043">
        <ele>226</ele>
        <time>2024-06-13T15:17:57Z</time>
      </trkpt>
      <trkpt lat="43.58685" lon="1.3205">
        <ele>226</ele>
        <time>2024-06-13T15:17:58Z</time>
      </trkpt>
      <trkpt lat="43.58686" lon="1.32058">
        <ele>225.8</ele>
        <time>2024-06-13T15:17:59Z</time>
      </trkpt>
      <trkpt lat="43.58686" lon="1.32066">
        <ele>225.8</ele>
        <time>2024-06-13T15:18:00Z</time>
      </trkpt>
      <trkpt lat="43.58686" lon="1.32077">
        <ele>225.8</ele>
        <time>2024-06-13T15:18:01Z</time>
      </trkpt>
      <trkpt lat="43.58685" lon="1.32086">
        <ele>225.8</ele>
        <time>2024-06-13T15:18:02Z</time>
      </trkpt>
      <trkpt lat="43.58685" lon="1.32092">
        <ele>225.8</ele>
        <time>2024-06-13T15:18:03Z</time>
      </trkpt>
      <trkpt lat="43.58685" lon="1.32101">
        <ele>225.8</ele>
        <time>2024-06-13T15:18:04Z</time>
      </trkpt>
      <trkpt lat="43.58684" lon="1.32109">
        <ele>225.8</ele>
        <time>2024-06-13T15:18:05Z</time>
      </trkpt>
      <trkpt lat="43.58684" lon="1.32119">
        <ele>225.8</ele>
        <time>2024-06-13T15:18:06Z</time>
      </trkpt>
      <trkpt lat="43.58684" lon="1.32126">
        <ele>226</ele>
        <time>2024-06-13T15:18:07Z</time>
      </trkpt>
      <trkpt lat="43.58683" lon="1.32134">
        <ele>226</ele>
        <time>2024-06-13T15:18:08Z</time>
      </trkpt>
      <trkpt lat="43.58682" lon="1.32142">
        <ele>226.2</ele>
        <time>2024-06-13T15:18:09Z</time>
      </trkpt>
      <trkpt lat="43.58682" lon="1.3215">
        <ele>226.2</ele>
        <time>2024-06-13T15:18:10Z</time>
      </trkpt>
      <trkpt lat="43.58681" lon="1.32158">
        <ele>226.4</ele>
        <time>2024-06-13T15:18:11Z</time>
      </trkpt>
      <trkpt lat="43.58681" lon="1.32166">
        <ele>226.6</ele>
        <time>2024-06-13T15:18:12Z</time>
      </trkpt>
      <trkpt lat="43.5868" lon="1.32174">
        <ele>226.6</ele>
        <time>2024-06-13T15:18:13Z</time>
      </trkpt>
      <trkpt lat="43.58679" lon="1.32181">
        <ele>226.6</ele>
        <time>2024-06-13T15:18:14Z</time>
      </trkpt>
      <trkpt lat="43.58679" lon="1.32189">
        <ele>226.8</ele>
        <time>2024-06-13T15:18:15Z</time>
      </trkpt>
      <trkpt lat="43.58678" lon="1.32197">
        <ele>226.8</ele>
        <time>2024-06-13T15:18:16Z</time>
      </trkpt>
      <trkpt lat="43.58677" lon="1.32204">
        <ele>226.8</ele>
        <time>2024-06-13T15:18:17Z</time>
      </trkpt>
      <trkpt lat="43.58677" lon="1.32211">
        <ele>226.8</ele>
        <time>2024-06-13T15:18:18Z</time>
      </trkpt>
      <trkpt lat="43.58676" lon="1.32218">
        <ele>226.8</ele>
        <time>2024-06-13T15:18:19Z</time>
      </trkpt>
      <trkpt lat="43.58675" lon="1.32223">
        <ele>226.8</ele>
        <time>2024-06-13T15:18:20Z</time>
      </trkpt>
      <trkpt lat="43.58675" lon="1.32226">
        <ele>226.8</ele>
        <time>2024-06-13T15:18:21Z</time>
      </trkpt>
      <trkpt lat="43.58675" lon="1.32228">
        <ele>226.6</ele>
        <time>2024-06-13T15:18:22Z</time>
      </trkpt>
      <trkpt lat="43.58676" lon="1.32231">
        <ele>226.6</ele>
        <time>2024-06-13T15:18:23Z</time>
      </trkpt>
      <trkpt lat="43.58676" lon="1.32231">
        <ele>226.6</ele>
        <time>2024-06-13T15:18:24Z</time>
      </trkpt>
      <trkpt lat="43.58676" lon="1.32231">
        <ele>226.4</ele>
        <time>2024-06-13T15:18:25Z</time>
      </trkpt>
      <trkpt lat="43.58676" lon="1.32231">
        <ele>226.4</ele>
        <time>2024-06-13T15:18:26Z</time>
      </trkpt>
    </trkseg>
  </trk>
</gpx>